<?xml version="1.0" encoding="UTF-8" standalone="no" ?>
<gpx xmlns="http://www.topografix.com/GPX/1/1" xmlns:xsi="http://www.w3.org/2001/XMLSchema-instance" xsi:schemaLocation="http://www.topografix.com/GPX/1/1 http://www.topografix.com/GPX/1/1/gpx.xsd" version="1.1" creator="VisuGPX - https://www.visugpx.com">
  <metadata>
    <name>St Nazaire</name>
    <desc><![CDATA[rando sur St Nazaire, sous bois et singles tracks]]></desc>
  </metadata>
  <trk>
    <name><![CDATA[St Nazaire_1]]></name>
    <trkseg>
      <trkpt lat="44.19648" lon="4.62238">
        <ele>90</ele>
        <time>2012-06-08 09:09:15Z</time>
      </trkpt>
      <trkpt lat="44.19648" lon="4.62238">
        <ele>90</ele>
        <time>2012-06-08 09:09:19Z</time>
      </trkpt>
      <trkpt lat="44.19648" lon="4.62238">
        <ele>90</ele>
        <time>2012-06-08 09:09:23Z</time>
      </trkpt>
      <trkpt lat="44.19651" lon="4.62234">
        <ele>93</ele>
        <time>2012-06-08 09:09:27Z</time>
      </trkpt>
      <trkpt lat="44.19651" lon="4.62229">
        <ele>94</ele>
        <time>2012-06-08 09:09:31Z</time>
      </trkpt>
      <trkpt lat="44.1965" lon="4.62223">
        <ele>95</ele>
        <time>2012-06-08 09:09:35Z</time>
      </trkpt>
      <trkpt lat="44.1965" lon="4.62218">
        <ele>95</ele>
        <time>2012-06-08 09:09:39Z</time>
      </trkpt>
      <trkpt lat="44.19648" lon="4.62217">
        <ele>97</ele>
        <time>2012-06-08 09:09:43Z</time>
      </trkpt>
      <trkpt lat="44.19648" lon="4.62217">
        <ele>99</ele>
        <time>2012-06-08 09:09:47Z</time>
      </trkpt>
      <trkpt lat="44.19647" lon="4.62213">
        <ele>97</ele>
        <time>2012-06-08 09:09:51Z</time>
      </trkpt>
      <trkpt lat="44.19645" lon="4.62209">
        <ele>95</ele>
        <time>2012-06-08 09:09:55Z</time>
      </trkpt>
      <trkpt lat="44.19645" lon="4.62207">
        <ele>97</ele>
        <time>2012-06-08 09:09:59Z</time>
      </trkpt>
      <trkpt lat="44.19646" lon="4.62205">
        <ele>97</ele>
        <time>2012-06-08 09:10:03Z</time>
      </trkpt>
      <trkpt lat="44.19646" lon="4.62204">
        <ele>96</ele>
        <time>2012-06-08 09:10:07Z</time>
      </trkpt>
      <trkpt lat="44.19646" lon="4.62203">
        <ele>97</ele>
        <time>2012-06-08 09:10:11Z</time>
      </trkpt>
      <trkpt lat="44.19646" lon="4.62202">
        <ele>96</ele>
        <time>2012-06-08 09:10:15Z</time>
      </trkpt>
      <trkpt lat="44.19646" lon="4.62202">
        <ele>96</ele>
        <time>2012-06-08 09:10:19Z</time>
      </trkpt>
      <trkpt lat="44.19646" lon="4.62202">
        <ele>96</ele>
        <time>2012-06-08 09:10:23Z</time>
      </trkpt>
      <trkpt lat="44.19646" lon="4.62202">
        <ele>96</ele>
        <time>2012-06-08 09:10:27Z</time>
      </trkpt>
      <trkpt lat="44.19644" lon="4.62203">
        <ele>95</ele>
        <time>2012-06-08 09:10:31Z</time>
      </trkpt>
      <trkpt lat="44.19644" lon="4.62203">
        <ele>95</ele>
        <time>2012-06-08 09:10:35Z</time>
      </trkpt>
      <trkpt lat="44.19644" lon="4.62207">
        <ele>97</ele>
        <time>2012-06-08 09:10:39Z</time>
      </trkpt>
      <trkpt lat="44.19644" lon="4.62207">
        <ele>97</ele>
        <time>2012-06-08 09:10:43Z</time>
      </trkpt>
      <trkpt lat="44.19642" lon="4.62208">
        <ele>97</ele>
        <time>2012-06-08 09:10:47Z</time>
      </trkpt>
      <trkpt lat="44.19642" lon="4.62208">
        <ele>98</ele>
        <time>2012-06-08 09:10:51Z</time>
      </trkpt>
      <trkpt lat="44.19642" lon="4.62208">
        <ele>98</ele>
        <time>2012-06-08 09:10:55Z</time>
      </trkpt>
      <trkpt lat="44.19642" lon="4.62208">
        <ele>97</ele>
        <time>2012-06-08 09:10:59Z</time>
      </trkpt>
      <trkpt lat="44.19642" lon="4.62208">
        <ele>97</ele>
        <time>2012-06-08 09:11:03Z</time>
      </trkpt>
      <trkpt lat="44.19642" lon="4.62208">
        <ele>97</ele>
        <time>2012-06-08 09:11:07Z</time>
      </trkpt>
      <trkpt lat="44.19642" lon="4.62208">
        <ele>97</ele>
        <time>2012-06-08 09:11:11Z</time>
      </trkpt>
      <trkpt lat="44.19648" lon="4.62209">
        <ele>96</ele>
        <time>2012-06-08 09:11:15Z</time>
      </trkpt>
      <trkpt lat="44.19654" lon="4.62209">
        <ele>98</ele>
        <time>2012-06-08 09:11:19Z</time>
      </trkpt>
      <trkpt lat="44.19661" lon="4.62208">
        <ele>98</ele>
        <time>2012-06-08 09:11:23Z</time>
      </trkpt>
      <trkpt lat="44.19672" lon="4.62205">
        <ele>99</ele>
        <time>2012-06-08 09:11:27Z</time>
      </trkpt>
      <trkpt lat="44.19684" lon="4.62205">
        <ele>97</ele>
        <time>2012-06-08 09:11:31Z</time>
      </trkpt>
      <trkpt lat="44.19693" lon="4.62205">
        <ele>97</ele>
        <time>2012-06-08 09:11:35Z</time>
      </trkpt>
      <trkpt lat="44.19703" lon="4.62207">
        <ele>98</ele>
        <time>2012-06-08 09:11:39Z</time>
      </trkpt>
      <trkpt lat="44.19714" lon="4.62207">
        <ele>95</ele>
        <time>2012-06-08 09:11:43Z</time>
      </trkpt>
      <trkpt lat="44.19726" lon="4.62207">
        <ele>94</ele>
        <time>2012-06-08 09:11:47Z</time>
      </trkpt>
      <trkpt lat="44.1974" lon="4.62201">
        <ele>96</ele>
        <time>2012-06-08 09:11:51Z</time>
      </trkpt>
      <trkpt lat="44.19753" lon="4.62193">
        <ele>97</ele>
        <time>2012-06-08 09:11:55Z</time>
      </trkpt>
      <trkpt lat="44.19762" lon="4.62187">
        <ele>98</ele>
        <time>2012-06-08 09:11:59Z</time>
      </trkpt>
      <trkpt lat="44.19777" lon="4.62171">
        <ele>95</ele>
        <time>2012-06-08 09:12:03Z</time>
      </trkpt>
      <trkpt lat="44.19787" lon="4.62163">
        <ele>96</ele>
        <time>2012-06-08 09:12:07Z</time>
      </trkpt>
      <trkpt lat="44.19793" lon="4.62155">
        <ele>96</ele>
        <time>2012-06-08 09:12:11Z</time>
      </trkpt>
      <trkpt lat="44.19799" lon="4.62144">
        <ele>97</ele>
        <time>2012-06-08 09:12:15Z</time>
      </trkpt>
      <trkpt lat="44.19804" lon="4.62131">
        <ele>98</ele>
        <time>2012-06-08 09:12:19Z</time>
      </trkpt>
      <trkpt lat="44.19812" lon="4.62119">
        <ele>98</ele>
        <time>2012-06-08 09:12:23Z</time>
      </trkpt>
      <trkpt lat="44.19821" lon="4.62104">
        <ele>98</ele>
        <time>2012-06-08 09:12:27Z</time>
      </trkpt>
      <trkpt lat="44.1983" lon="4.62093">
        <ele>99</ele>
        <time>2012-06-08 09:12:31Z</time>
      </trkpt>
      <trkpt lat="44.19834" lon="4.62085">
        <ele>98</ele>
        <time>2012-06-08 09:12:35Z</time>
      </trkpt>
      <trkpt lat="44.19839" lon="4.62077">
        <ele>102</ele>
        <time>2012-06-08 09:12:39Z</time>
      </trkpt>
      <trkpt lat="44.19846" lon="4.62072">
        <ele>104</ele>
        <time>2012-06-08 09:12:43Z</time>
      </trkpt>
      <trkpt lat="44.19861" lon="4.62057">
        <ele>99</ele>
        <time>2012-06-08 09:12:47Z</time>
      </trkpt>
      <trkpt lat="44.19867" lon="4.62057">
        <ele>101</ele>
        <time>2012-06-08 09:12:51Z</time>
      </trkpt>
      <trkpt lat="44.19872" lon="4.62058">
        <ele>102</ele>
        <time>2012-06-08 09:12:55Z</time>
      </trkpt>
      <trkpt lat="44.19877" lon="4.62057">
        <ele>103</ele>
        <time>2012-06-08 09:12:59Z</time>
      </trkpt>
      <trkpt lat="44.19883" lon="4.62056">
        <ele>106</ele>
        <time>2012-06-08 09:13:03Z</time>
      </trkpt>
      <trkpt lat="44.19888" lon="4.62052">
        <ele>107</ele>
        <time>2012-06-08 09:13:07Z</time>
      </trkpt>
      <trkpt lat="44.19896" lon="4.62046">
        <ele>107</ele>
        <time>2012-06-08 09:13:11Z</time>
      </trkpt>
      <trkpt lat="44.19903" lon="4.6204">
        <ele>110</ele>
        <time>2012-06-08 09:13:15Z</time>
      </trkpt>
      <trkpt lat="44.19912" lon="4.62037">
        <ele>111</ele>
        <time>2012-06-08 09:13:19Z</time>
      </trkpt>
      <trkpt lat="44.1992" lon="4.62031">
        <ele>110</ele>
        <time>2012-06-08 09:13:23Z</time>
      </trkpt>
      <trkpt lat="44.1993" lon="4.62023">
        <ele>111</ele>
        <time>2012-06-08 09:13:27Z</time>
      </trkpt>
      <trkpt lat="44.19933" lon="4.62024">
        <ele>113</ele>
        <time>2012-06-08 09:13:31Z</time>
      </trkpt>
      <trkpt lat="44.19939" lon="4.62022">
        <ele>114</ele>
        <time>2012-06-08 09:13:35Z</time>
      </trkpt>
      <trkpt lat="44.19945" lon="4.62018">
        <ele>114</ele>
        <time>2012-06-08 09:13:39Z</time>
      </trkpt>
      <trkpt lat="44.19953" lon="4.6201">
        <ele>116</ele>
        <time>2012-06-08 09:13:43Z</time>
      </trkpt>
      <trkpt lat="44.19959" lon="4.62005">
        <ele>117</ele>
        <time>2012-06-08 09:13:47Z</time>
      </trkpt>
      <trkpt lat="44.19966" lon="4.61998">
        <ele>119</ele>
        <time>2012-06-08 09:13:51Z</time>
      </trkpt>
      <trkpt lat="44.19972" lon="4.61993">
        <ele>121</ele>
        <time>2012-06-08 09:13:55Z</time>
      </trkpt>
      <trkpt lat="44.1998" lon="4.61987">
        <ele>118</ele>
        <time>2012-06-08 09:13:59Z</time>
      </trkpt>
      <trkpt lat="44.19985" lon="4.61981">
        <ele>118</ele>
        <time>2012-06-08 09:14:03Z</time>
      </trkpt>
      <trkpt lat="44.1999" lon="4.61972">
        <ele>118</ele>
        <time>2012-06-08 09:14:07Z</time>
      </trkpt>
      <trkpt lat="44.19996" lon="4.61962">
        <ele>121</ele>
        <time>2012-06-08 09:14:11Z</time>
      </trkpt>
      <trkpt lat="44.20001" lon="4.61946">
        <ele>121</ele>
        <time>2012-06-08 09:14:15Z</time>
      </trkpt>
      <trkpt lat="44.20003" lon="4.61937">
        <ele>122</ele>
        <time>2012-06-08 09:14:19Z</time>
      </trkpt>
      <trkpt lat="44.20007" lon="4.61927">
        <ele>120</ele>
        <time>2012-06-08 09:14:23Z</time>
      </trkpt>
      <trkpt lat="44.20012" lon="4.61921">
        <ele>119</ele>
        <time>2012-06-08 09:14:27Z</time>
      </trkpt>
      <trkpt lat="44.20017" lon="4.61915">
        <ele>118</ele>
        <time>2012-06-08 09:14:31Z</time>
      </trkpt>
      <trkpt lat="44.20021" lon="4.61907">
        <ele>117</ele>
        <time>2012-06-08 09:14:35Z</time>
      </trkpt>
      <trkpt lat="44.20028" lon="4.61902">
        <ele>118</ele>
        <time>2012-06-08 09:14:39Z</time>
      </trkpt>
      <trkpt lat="44.20031" lon="4.61899">
        <ele>117</ele>
        <time>2012-06-08 09:14:43Z</time>
      </trkpt>
      <trkpt lat="44.20036" lon="4.61891">
        <ele>118</ele>
        <time>2012-06-08 09:14:47Z</time>
      </trkpt>
      <trkpt lat="44.20041" lon="4.6188">
        <ele>119</ele>
        <time>2012-06-08 09:14:51Z</time>
      </trkpt>
      <trkpt lat="44.20046" lon="4.61871">
        <ele>123</ele>
        <time>2012-06-08 09:14:55Z</time>
      </trkpt>
      <trkpt lat="44.20052" lon="4.61864">
        <ele>128</ele>
        <time>2012-06-08 09:14:59Z</time>
      </trkpt>
      <trkpt lat="44.20055" lon="4.6186">
        <ele>127</ele>
        <time>2012-06-08 09:15:03Z</time>
      </trkpt>
      <trkpt lat="44.20058" lon="4.61856">
        <ele>128</ele>
        <time>2012-06-08 09:15:07Z</time>
      </trkpt>
      <trkpt lat="44.20063" lon="4.61853">
        <ele>128</ele>
        <time>2012-06-08 09:15:11Z</time>
      </trkpt>
      <trkpt lat="44.20067" lon="4.61851">
        <ele>131</ele>
        <time>2012-06-08 09:15:15Z</time>
      </trkpt>
      <trkpt lat="44.20074" lon="4.61847">
        <ele>133</ele>
        <time>2012-06-08 09:15:19Z</time>
      </trkpt>
      <trkpt lat="44.20081" lon="4.61845">
        <ele>133</ele>
        <time>2012-06-08 09:15:23Z</time>
      </trkpt>
      <trkpt lat="44.20085" lon="4.61841">
        <ele>131</ele>
        <time>2012-06-08 09:15:27Z</time>
      </trkpt>
      <trkpt lat="44.20093" lon="4.61837">
        <ele>131</ele>
        <time>2012-06-08 09:15:31Z</time>
      </trkpt>
      <trkpt lat="44.201" lon="4.61836">
        <ele>133</ele>
        <time>2012-06-08 09:15:35Z</time>
      </trkpt>
      <trkpt lat="44.20109" lon="4.61833">
        <ele>134</ele>
        <time>2012-06-08 09:15:39Z</time>
      </trkpt>
      <trkpt lat="44.20114" lon="4.6183">
        <ele>133</ele>
        <time>2012-06-08 09:15:43Z</time>
      </trkpt>
      <trkpt lat="44.2012" lon="4.61827">
        <ele>133</ele>
        <time>2012-06-08 09:15:47Z</time>
      </trkpt>
      <trkpt lat="44.20125" lon="4.61827">
        <ele>132</ele>
        <time>2012-06-08 09:15:51Z</time>
      </trkpt>
      <trkpt lat="44.20133" lon="4.61821">
        <ele>132</ele>
        <time>2012-06-08 09:15:55Z</time>
      </trkpt>
      <trkpt lat="44.20143" lon="4.61813">
        <ele>134</ele>
        <time>2012-06-08 09:15:59Z</time>
      </trkpt>
      <trkpt lat="44.20149" lon="4.61808">
        <ele>133</ele>
        <time>2012-06-08 09:16:03Z</time>
      </trkpt>
      <trkpt lat="44.20156" lon="4.61801">
        <ele>132</ele>
        <time>2012-06-08 09:16:07Z</time>
      </trkpt>
      <trkpt lat="44.20166" lon="4.61793">
        <ele>128</ele>
        <time>2012-06-08 09:16:11Z</time>
      </trkpt>
      <trkpt lat="44.20172" lon="4.61787">
        <ele>127</ele>
        <time>2012-06-08 09:16:15Z</time>
      </trkpt>
      <trkpt lat="44.20178" lon="4.6178">
        <ele>127</ele>
        <time>2012-06-08 09:16:19Z</time>
      </trkpt>
      <trkpt lat="44.20186" lon="4.61772">
        <ele>132</ele>
        <time>2012-06-08 09:16:23Z</time>
      </trkpt>
      <trkpt lat="44.2019" lon="4.61768">
        <ele>134</ele>
        <time>2012-06-08 09:16:27Z</time>
      </trkpt>
      <trkpt lat="44.20199" lon="4.61751">
        <ele>133</ele>
        <time>2012-06-08 09:16:31Z</time>
      </trkpt>
      <trkpt lat="44.20208" lon="4.61728">
        <ele>132</ele>
        <time>2012-06-08 09:16:35Z</time>
      </trkpt>
      <trkpt lat="44.20214" lon="4.61717">
        <ele>129</ele>
        <time>2012-06-08 09:16:39Z</time>
      </trkpt>
      <trkpt lat="44.20219" lon="4.61701">
        <ele>129</ele>
        <time>2012-06-08 09:16:43Z</time>
      </trkpt>
      <trkpt lat="44.2022" lon="4.61692">
        <ele>129</ele>
        <time>2012-06-08 09:16:47Z</time>
      </trkpt>
      <trkpt lat="44.20224" lon="4.61676">
        <ele>129</ele>
        <time>2012-06-08 09:16:51Z</time>
      </trkpt>
      <trkpt lat="44.20227" lon="4.61668">
        <ele>130</ele>
        <time>2012-06-08 09:16:55Z</time>
      </trkpt>
      <trkpt lat="44.2023" lon="4.61657">
        <ele>129</ele>
        <time>2012-06-08 09:16:59Z</time>
      </trkpt>
      <trkpt lat="44.20236" lon="4.61643">
        <ele>129</ele>
        <time>2012-06-08 09:17:03Z</time>
      </trkpt>
      <trkpt lat="44.20239" lon="4.61636">
        <ele>131</ele>
        <time>2012-06-08 09:17:07Z</time>
      </trkpt>
      <trkpt lat="44.20242" lon="4.61622">
        <ele>136</ele>
        <time>2012-06-08 09:17:11Z</time>
      </trkpt>
      <trkpt lat="44.20242" lon="4.61611">
        <ele>139</ele>
        <time>2012-06-08 09:17:15Z</time>
      </trkpt>
      <trkpt lat="44.20242" lon="4.61604">
        <ele>140</ele>
        <time>2012-06-08 09:17:19Z</time>
      </trkpt>
      <trkpt lat="44.20242" lon="4.61595">
        <ele>139</ele>
        <time>2012-06-08 09:17:23Z</time>
      </trkpt>
      <trkpt lat="44.20239" lon="4.61583">
        <ele>138</ele>
        <time>2012-06-08 09:17:27Z</time>
      </trkpt>
      <trkpt lat="44.20236" lon="4.61577">
        <ele>138</ele>
        <time>2012-06-08 09:17:31Z</time>
      </trkpt>
      <trkpt lat="44.20235" lon="4.61564">
        <ele>136</ele>
        <time>2012-06-08 09:17:35Z</time>
      </trkpt>
      <trkpt lat="44.20237" lon="4.61548">
        <ele>138</ele>
        <time>2012-06-08 09:17:39Z</time>
      </trkpt>
      <trkpt lat="44.20237" lon="4.61534">
        <ele>139</ele>
        <time>2012-06-08 09:17:43Z</time>
      </trkpt>
      <trkpt lat="44.20239" lon="4.61522">
        <ele>141</ele>
        <time>2012-06-08 09:17:47Z</time>
      </trkpt>
      <trkpt lat="44.20238" lon="4.61516">
        <ele>141</ele>
        <time>2012-06-08 09:17:51Z</time>
      </trkpt>
      <trkpt lat="44.20233" lon="4.61508">
        <ele>143</ele>
        <time>2012-06-08 09:17:55Z</time>
      </trkpt>
      <trkpt lat="44.20223" lon="4.61508">
        <ele>138</ele>
        <time>2012-06-08 09:17:59Z</time>
      </trkpt>
      <trkpt lat="44.20211" lon="4.61509">
        <ele>138</ele>
        <time>2012-06-08 09:18:03Z</time>
      </trkpt>
      <trkpt lat="44.20203" lon="4.61514">
        <ele>140</ele>
        <time>2012-06-08 09:18:07Z</time>
      </trkpt>
      <trkpt lat="44.20203" lon="4.6152">
        <ele>139</ele>
        <time>2012-06-08 09:18:11Z</time>
      </trkpt>
      <trkpt lat="44.20203" lon="4.61533">
        <ele>143</ele>
        <time>2012-06-08 09:18:15Z</time>
      </trkpt>
      <trkpt lat="44.20202" lon="4.6154">
        <ele>143</ele>
        <time>2012-06-08 09:18:19Z</time>
      </trkpt>
      <trkpt lat="44.20194" lon="4.61548">
        <ele>142</ele>
        <time>2012-06-08 09:18:23Z</time>
      </trkpt>
      <trkpt lat="44.2019" lon="4.61553">
        <ele>142</ele>
        <time>2012-06-08 09:18:27Z</time>
      </trkpt>
      <trkpt lat="44.20187" lon="4.61558">
        <ele>143</ele>
        <time>2012-06-08 09:18:31Z</time>
      </trkpt>
      <trkpt lat="44.20186" lon="4.61553">
        <ele>146</ele>
        <time>2012-06-08 09:18:35Z</time>
      </trkpt>
      <trkpt lat="44.20187" lon="4.61544">
        <ele>147</ele>
        <time>2012-06-08 09:18:39Z</time>
      </trkpt>
      <trkpt lat="44.20188" lon="4.61534">
        <ele>149</ele>
        <time>2012-06-08 09:18:43Z</time>
      </trkpt>
      <trkpt lat="44.20189" lon="4.61525">
        <ele>148</ele>
        <time>2012-06-08 09:18:47Z</time>
      </trkpt>
      <trkpt lat="44.20189" lon="4.61516">
        <ele>150</ele>
        <time>2012-06-08 09:18:51Z</time>
      </trkpt>
      <trkpt lat="44.20185" lon="4.61504">
        <ele>151</ele>
        <time>2012-06-08 09:18:55Z</time>
      </trkpt>
      <trkpt lat="44.2018" lon="4.61503">
        <ele>150</ele>
        <time>2012-06-08 09:18:59Z</time>
      </trkpt>
      <trkpt lat="44.20171" lon="4.615">
        <ele>144</ele>
        <time>2012-06-08 09:19:03Z</time>
      </trkpt>
      <trkpt lat="44.20161" lon="4.61495">
        <ele>144</ele>
        <time>2012-06-08 09:19:07Z</time>
      </trkpt>
      <trkpt lat="44.2015" lon="4.61492">
        <ele>144</ele>
        <time>2012-06-08 09:19:11Z</time>
      </trkpt>
      <trkpt lat="44.20142" lon="4.61486">
        <ele>146</ele>
        <time>2012-06-08 09:19:15Z</time>
      </trkpt>
      <trkpt lat="44.20145" lon="4.61476">
        <ele>149</ele>
        <time>2012-06-08 09:19:19Z</time>
      </trkpt>
      <trkpt lat="44.20149" lon="4.61466">
        <ele>151</ele>
        <time>2012-06-08 09:19:23Z</time>
      </trkpt>
      <trkpt lat="44.20155" lon="4.61454">
        <ele>161</ele>
        <time>2012-06-08 09:19:27Z</time>
      </trkpt>
      <trkpt lat="44.20156" lon="4.61446">
        <ele>163</ele>
        <time>2012-06-08 09:19:31Z</time>
      </trkpt>
      <trkpt lat="44.20154" lon="4.61438">
        <ele>164</ele>
        <time>2012-06-08 09:19:35Z</time>
      </trkpt>
      <trkpt lat="44.20152" lon="4.61432">
        <ele>165</ele>
        <time>2012-06-08 09:19:39Z</time>
      </trkpt>
      <trkpt lat="44.20153" lon="4.61428">
        <ele>167</ele>
        <time>2012-06-08 09:19:43Z</time>
      </trkpt>
      <trkpt lat="44.20156" lon="4.61421">
        <ele>167</ele>
        <time>2012-06-08 09:19:47Z</time>
      </trkpt>
      <trkpt lat="44.20159" lon="4.61417">
        <ele>165</ele>
        <time>2012-06-08 09:19:51Z</time>
      </trkpt>
      <trkpt lat="44.20161" lon="4.61417">
        <ele>165</ele>
        <time>2012-06-08 09:19:55Z</time>
      </trkpt>
      <trkpt lat="44.20166" lon="4.61423">
        <ele>165</ele>
        <time>2012-06-08 09:19:59Z</time>
      </trkpt>
      <trkpt lat="44.20173" lon="4.61429">
        <ele>166</ele>
        <time>2012-06-08 09:20:03Z</time>
      </trkpt>
      <trkpt lat="44.20177" lon="4.61431">
        <ele>166</ele>
        <time>2012-06-08 09:20:07Z</time>
      </trkpt>
      <trkpt lat="44.20182" lon="4.61431">
        <ele>164</ele>
        <time>2012-06-08 09:20:11Z</time>
      </trkpt>
      <trkpt lat="44.20186" lon="4.6143">
        <ele>164</ele>
        <time>2012-06-08 09:20:15Z</time>
      </trkpt>
      <trkpt lat="44.20189" lon="4.61429">
        <ele>162</ele>
        <time>2012-06-08 09:20:19Z</time>
      </trkpt>
      <trkpt lat="44.20191" lon="4.61427">
        <ele>162</ele>
        <time>2012-06-08 09:20:23Z</time>
      </trkpt>
      <trkpt lat="44.20193" lon="4.61424">
        <ele>161</ele>
        <time>2012-06-08 09:20:27Z</time>
      </trkpt>
      <trkpt lat="44.20194" lon="4.6142">
        <ele>161</ele>
        <time>2012-06-08 09:20:31Z</time>
      </trkpt>
      <trkpt lat="44.20197" lon="4.61413">
        <ele>163</ele>
        <time>2012-06-08 09:20:35Z</time>
      </trkpt>
      <trkpt lat="44.202" lon="4.61409">
        <ele>164</ele>
        <time>2012-06-08 09:20:39Z</time>
      </trkpt>
      <trkpt lat="44.20207" lon="4.61398">
        <ele>165</ele>
        <time>2012-06-08 09:20:43Z</time>
      </trkpt>
      <trkpt lat="44.20211" lon="4.61391">
        <ele>164</ele>
        <time>2012-06-08 09:20:47Z</time>
      </trkpt>
      <trkpt lat="44.20211" lon="4.61387">
        <ele>165</ele>
        <time>2012-06-08 09:20:51Z</time>
      </trkpt>
      <trkpt lat="44.20214" lon="4.61377">
        <ele>166</ele>
        <time>2012-06-08 09:20:55Z</time>
      </trkpt>
      <trkpt lat="44.20218" lon="4.61369">
        <ele>167</ele>
        <time>2012-06-08 09:20:59Z</time>
      </trkpt>
      <trkpt lat="44.2022" lon="4.61359">
        <ele>175</ele>
        <time>2012-06-08 09:21:03Z</time>
      </trkpt>
      <trkpt lat="44.20224" lon="4.6135">
        <ele>179</ele>
        <time>2012-06-08 09:21:07Z</time>
      </trkpt>
      <trkpt lat="44.20225" lon="4.61346">
        <ele>179</ele>
        <time>2012-06-08 09:21:11Z</time>
      </trkpt>
      <trkpt lat="44.20221" lon="4.61342">
        <ele>178</ele>
        <time>2012-06-08 09:21:15Z</time>
      </trkpt>
      <trkpt lat="44.20218" lon="4.61341">
        <ele>177</ele>
        <time>2012-06-08 09:21:19Z</time>
      </trkpt>
      <trkpt lat="44.20217" lon="4.61343">
        <ele>175</ele>
        <time>2012-06-08 09:21:23Z</time>
      </trkpt>
      <trkpt lat="44.20219" lon="4.61338">
        <ele>176</ele>
        <time>2012-06-08 09:21:27Z</time>
      </trkpt>
      <trkpt lat="44.20219" lon="4.61331">
        <ele>178</ele>
        <time>2012-06-08 09:21:31Z</time>
      </trkpt>
      <trkpt lat="44.20221" lon="4.61325">
        <ele>172</ele>
        <time>2012-06-08 09:21:35Z</time>
      </trkpt>
      <trkpt lat="44.20223" lon="4.61321">
        <ele>174</ele>
        <time>2012-06-08 09:21:39Z</time>
      </trkpt>
      <trkpt lat="44.20223" lon="4.61321">
        <ele>175</ele>
        <time>2012-06-08 09:21:43Z</time>
      </trkpt>
      <trkpt lat="44.20221" lon="4.61322">
        <ele>175</ele>
        <time>2012-06-08 09:21:47Z</time>
      </trkpt>
      <trkpt lat="44.20221" lon="4.6132">
        <ele>175</ele>
        <time>2012-06-08 09:21:51Z</time>
      </trkpt>
      <trkpt lat="44.20221" lon="4.61318">
        <ele>174</ele>
        <time>2012-06-08 09:21:55Z</time>
      </trkpt>
      <trkpt lat="44.20222" lon="4.61315">
        <ele>175</ele>
        <time>2012-06-08 09:21:59Z</time>
      </trkpt>
      <trkpt lat="44.20226" lon="4.61311">
        <ele>178</ele>
        <time>2012-06-08 09:22:03Z</time>
      </trkpt>
      <trkpt lat="44.20227" lon="4.6131">
        <ele>177</ele>
        <time>2012-06-08 09:22:07Z</time>
      </trkpt>
      <trkpt lat="44.20229" lon="4.6131">
        <ele>177</ele>
        <time>2012-06-08 09:22:11Z</time>
      </trkpt>
      <trkpt lat="44.20229" lon="4.61309">
        <ele>178</ele>
        <time>2012-06-08 09:22:15Z</time>
      </trkpt>
      <trkpt lat="44.20234" lon="4.61309">
        <ele>178</ele>
        <time>2012-06-08 09:22:19Z</time>
      </trkpt>
      <trkpt lat="44.20237" lon="4.61312">
        <ele>177</ele>
        <time>2012-06-08 09:22:23Z</time>
      </trkpt>
      <trkpt lat="44.20241" lon="4.61313">
        <ele>176</ele>
        <time>2012-06-08 09:22:27Z</time>
      </trkpt>
      <trkpt lat="44.20244" lon="4.61314">
        <ele>176</ele>
        <time>2012-06-08 09:22:31Z</time>
      </trkpt>
      <trkpt lat="44.20245" lon="4.61319">
        <ele>177</ele>
        <time>2012-06-08 09:22:35Z</time>
      </trkpt>
      <trkpt lat="44.20244" lon="4.61321">
        <ele>178</ele>
        <time>2012-06-08 09:22:39Z</time>
      </trkpt>
      <trkpt lat="44.20244" lon="4.61321">
        <ele>178</ele>
        <time>2012-06-08 09:22:43Z</time>
      </trkpt>
      <trkpt lat="44.20244" lon="4.61321">
        <ele>178</ele>
        <time>2012-06-08 09:22:47Z</time>
      </trkpt>
      <trkpt lat="44.20244" lon="4.61321">
        <ele>177</ele>
        <time>2012-06-08 09:22:51Z</time>
      </trkpt>
      <trkpt lat="44.20244" lon="4.61321">
        <ele>177</ele>
        <time>2012-06-08 09:22:55Z</time>
      </trkpt>
      <trkpt lat="44.20244" lon="4.61321">
        <ele>177</ele>
        <time>2012-06-08 09:22:59Z</time>
      </trkpt>
      <trkpt lat="44.20243" lon="4.61314">
        <ele>177</ele>
        <time>2012-06-08 09:23:03Z</time>
      </trkpt>
      <trkpt lat="44.20244" lon="4.61313">
        <ele>177</ele>
        <time>2012-06-08 09:23:07Z</time>
      </trkpt>
      <trkpt lat="44.20244" lon="4.61313">
        <ele>181</ele>
        <time>2012-06-08 09:23:11Z</time>
      </trkpt>
      <trkpt lat="44.20244" lon="4.61313">
        <ele>179</ele>
        <time>2012-06-08 09:23:15Z</time>
      </trkpt>
      <trkpt lat="44.20244" lon="4.61313">
        <ele>179</ele>
        <time>2012-06-08 09:23:19Z</time>
      </trkpt>
      <trkpt lat="44.20242" lon="4.61315">
        <ele>178</ele>
        <time>2012-06-08 09:23:23Z</time>
      </trkpt>
      <trkpt lat="44.20242" lon="4.61315">
        <ele>177</ele>
        <time>2012-06-08 09:23:27Z</time>
      </trkpt>
      <trkpt lat="44.20243" lon="4.61315">
        <ele>177</ele>
        <time>2012-06-08 09:23:31Z</time>
      </trkpt>
      <trkpt lat="44.20244" lon="4.61314">
        <ele>175</ele>
        <time>2012-06-08 09:23:35Z</time>
      </trkpt>
      <trkpt lat="44.20245" lon="4.61316">
        <ele>175</ele>
        <time>2012-06-08 09:23:39Z</time>
      </trkpt>
      <trkpt lat="44.20253" lon="4.61334">
        <ele>178</ele>
        <time>2012-06-08 09:23:43Z</time>
      </trkpt>
      <trkpt lat="44.20261" lon="4.61343">
        <ele>179</ele>
        <time>2012-06-08 09:23:47Z</time>
      </trkpt>
      <trkpt lat="44.20285" lon="4.61364">
        <ele>175</ele>
        <time>2012-06-08 09:23:51Z</time>
      </trkpt>
      <trkpt lat="44.20297" lon="4.61373">
        <ele>176</ele>
        <time>2012-06-08 09:23:55Z</time>
      </trkpt>
      <trkpt lat="44.20319" lon="4.61374">
        <ele>176</ele>
        <time>2012-06-08 09:23:59Z</time>
      </trkpt>
      <trkpt lat="44.20332" lon="4.61382">
        <ele>175</ele>
        <time>2012-06-08 09:24:03Z</time>
      </trkpt>
      <trkpt lat="44.20347" lon="4.61393">
        <ele>174</ele>
        <time>2012-06-08 09:24:07Z</time>
      </trkpt>
      <trkpt lat="44.20356" lon="4.61408">
        <ele>174</ele>
        <time>2012-06-08 09:24:11Z</time>
      </trkpt>
      <trkpt lat="44.20367" lon="4.61437">
        <ele>176</ele>
        <time>2012-06-08 09:24:15Z</time>
      </trkpt>
      <trkpt lat="44.2037" lon="4.6145">
        <ele>177</ele>
        <time>2012-06-08 09:24:19Z</time>
      </trkpt>
      <trkpt lat="44.20371" lon="4.61458">
        <ele>178</ele>
        <time>2012-06-08 09:24:23Z</time>
      </trkpt>
      <trkpt lat="44.20369" lon="4.61466">
        <ele>179</ele>
        <time>2012-06-08 09:24:27Z</time>
      </trkpt>
      <trkpt lat="44.20369" lon="4.61473">
        <ele>179</ele>
        <time>2012-06-08 09:24:31Z</time>
      </trkpt>
      <trkpt lat="44.20372" lon="4.61489">
        <ele>171</ele>
        <time>2012-06-08 09:24:35Z</time>
      </trkpt>
      <trkpt lat="44.20376" lon="4.615">
        <ele>171</ele>
        <time>2012-06-08 09:24:39Z</time>
      </trkpt>
      <trkpt lat="44.20383" lon="4.61495">
        <ele>171</ele>
        <time>2012-06-08 09:24:43Z</time>
      </trkpt>
      <trkpt lat="44.20391" lon="4.61476">
        <ele>174</ele>
        <time>2012-06-08 09:24:47Z</time>
      </trkpt>
      <trkpt lat="44.20395" lon="4.61459">
        <ele>178</ele>
        <time>2012-06-08 09:24:51Z</time>
      </trkpt>
      <trkpt lat="44.20397" lon="4.61448">
        <ele>178</ele>
        <time>2012-06-08 09:24:55Z</time>
      </trkpt>
      <trkpt lat="44.204" lon="4.61431">
        <ele>178</ele>
        <time>2012-06-08 09:24:59Z</time>
      </trkpt>
      <trkpt lat="44.20405" lon="4.6142">
        <ele>177</ele>
        <time>2012-06-08 09:25:03Z</time>
      </trkpt>
      <trkpt lat="44.20409" lon="4.61412">
        <ele>177</ele>
        <time>2012-06-08 09:25:07Z</time>
      </trkpt>
      <trkpt lat="44.20414" lon="4.61403">
        <ele>177</ele>
        <time>2012-06-08 09:25:11Z</time>
      </trkpt>
      <trkpt lat="44.20419" lon="4.61397">
        <ele>178</ele>
        <time>2012-06-08 09:25:15Z</time>
      </trkpt>
      <trkpt lat="44.20419" lon="4.61389">
        <ele>178</ele>
        <time>2012-06-08 09:25:19Z</time>
      </trkpt>
      <trkpt lat="44.20421" lon="4.61372">
        <ele>177</ele>
        <time>2012-06-08 09:25:23Z</time>
      </trkpt>
      <trkpt lat="44.20422" lon="4.61364">
        <ele>178</ele>
        <time>2012-06-08 09:25:27Z</time>
      </trkpt>
      <trkpt lat="44.2042" lon="4.61354">
        <ele>176</ele>
        <time>2012-06-08 09:25:31Z</time>
      </trkpt>
      <trkpt lat="44.20417" lon="4.61346">
        <ele>178</ele>
        <time>2012-06-08 09:25:35Z</time>
      </trkpt>
      <trkpt lat="44.20411" lon="4.61343">
        <ele>178</ele>
        <time>2012-06-08 09:25:39Z</time>
      </trkpt>
      <trkpt lat="44.20412" lon="4.61333">
        <ele>180</ele>
        <time>2012-06-08 09:25:43Z</time>
      </trkpt>
      <trkpt lat="44.20413" lon="4.61322">
        <ele>179</ele>
        <time>2012-06-08 09:25:47Z</time>
      </trkpt>
      <trkpt lat="44.20406" lon="4.61314">
        <ele>180</ele>
        <time>2012-06-08 09:25:51Z</time>
      </trkpt>
      <trkpt lat="44.20403" lon="4.61309">
        <ele>180</ele>
        <time>2012-06-08 09:25:55Z</time>
      </trkpt>
      <trkpt lat="44.20397" lon="4.61304">
        <ele>180</ele>
        <time>2012-06-08 09:25:59Z</time>
      </trkpt>
      <trkpt lat="44.20393" lon="4.61299">
        <ele>182</ele>
        <time>2012-06-08 09:26:03Z</time>
      </trkpt>
      <trkpt lat="44.2039" lon="4.61292">
        <ele>183</ele>
        <time>2012-06-08 09:26:07Z</time>
      </trkpt>
      <trkpt lat="44.20385" lon="4.61286">
        <ele>182</ele>
        <time>2012-06-08 09:26:11Z</time>
      </trkpt>
      <trkpt lat="44.20378" lon="4.6128">
        <ele>183</ele>
        <time>2012-06-08 09:26:15Z</time>
      </trkpt>
      <trkpt lat="44.20372" lon="4.61279">
        <ele>185</ele>
        <time>2012-06-08 09:26:19Z</time>
      </trkpt>
      <trkpt lat="44.20366" lon="4.61277">
        <ele>185</ele>
        <time>2012-06-08 09:26:23Z</time>
      </trkpt>
      <trkpt lat="44.20361" lon="4.61272">
        <ele>185</ele>
        <time>2012-06-08 09:26:27Z</time>
      </trkpt>
      <trkpt lat="44.20356" lon="4.6127">
        <ele>184</ele>
        <time>2012-06-08 09:26:31Z</time>
      </trkpt>
      <trkpt lat="44.20352" lon="4.61269">
        <ele>182</ele>
        <time>2012-06-08 09:26:35Z</time>
      </trkpt>
      <trkpt lat="44.20348" lon="4.61266">
        <ele>182</ele>
        <time>2012-06-08 09:26:39Z</time>
      </trkpt>
      <trkpt lat="44.20344" lon="4.61264">
        <ele>180</ele>
        <time>2012-06-08 09:26:43Z</time>
      </trkpt>
      <trkpt lat="44.20342" lon="4.61266">
        <ele>183</ele>
        <time>2012-06-08 09:26:47Z</time>
      </trkpt>
      <trkpt lat="44.2034" lon="4.61267">
        <ele>183</ele>
        <time>2012-06-08 09:26:51Z</time>
      </trkpt>
      <trkpt lat="44.20337" lon="4.61264">
        <ele>183</ele>
        <time>2012-06-08 09:26:55Z</time>
      </trkpt>
      <trkpt lat="44.20334" lon="4.6126">
        <ele>180</ele>
        <time>2012-06-08 09:26:59Z</time>
      </trkpt>
      <trkpt lat="44.20331" lon="4.61259">
        <ele>180</ele>
        <time>2012-06-08 09:27:03Z</time>
      </trkpt>
      <trkpt lat="44.20332" lon="4.6126">
        <ele>182</ele>
        <time>2012-06-08 09:27:07Z</time>
      </trkpt>
      <trkpt lat="44.20335" lon="4.6126">
        <ele>182</ele>
        <time>2012-06-08 09:27:11Z</time>
      </trkpt>
      <trkpt lat="44.20335" lon="4.61262">
        <ele>183</ele>
        <time>2012-06-08 09:27:15Z</time>
      </trkpt>
      <trkpt lat="44.20332" lon="4.61263">
        <ele>184</ele>
        <time>2012-06-08 09:27:19Z</time>
      </trkpt>
      <trkpt lat="44.20333" lon="4.61263">
        <ele>186</ele>
        <time>2012-06-08 09:27:23Z</time>
      </trkpt>
      <trkpt lat="44.20333" lon="4.61262">
        <ele>186</ele>
        <time>2012-06-08 09:27:27Z</time>
      </trkpt>
      <trkpt lat="44.20333" lon="4.61262">
        <ele>187</ele>
        <time>2012-06-08 09:27:31Z</time>
      </trkpt>
      <trkpt lat="44.20331" lon="4.6126">
        <ele>186</ele>
        <time>2012-06-08 09:27:35Z</time>
      </trkpt>
      <trkpt lat="44.20327" lon="4.61257">
        <ele>187</ele>
        <time>2012-06-08 09:27:39Z</time>
      </trkpt>
      <trkpt lat="44.20323" lon="4.61253">
        <ele>181</ele>
        <time>2012-06-08 09:27:43Z</time>
      </trkpt>
      <trkpt lat="44.20319" lon="4.6125">
        <ele>183</ele>
        <time>2012-06-08 09:27:47Z</time>
      </trkpt>
      <trkpt lat="44.20314" lon="4.61246">
        <ele>183</ele>
        <time>2012-06-08 09:27:51Z</time>
      </trkpt>
      <trkpt lat="44.20311" lon="4.61242">
        <ele>181</ele>
        <time>2012-06-08 09:27:55Z</time>
      </trkpt>
      <trkpt lat="44.20306" lon="4.61238">
        <ele>180</ele>
        <time>2012-06-08 09:27:59Z</time>
      </trkpt>
      <trkpt lat="44.20302" lon="4.61234">
        <ele>181</ele>
        <time>2012-06-08 09:28:03Z</time>
      </trkpt>
      <trkpt lat="44.20298" lon="4.61229">
        <ele>182</ele>
        <time>2012-06-08 09:28:07Z</time>
      </trkpt>
      <trkpt lat="44.20294" lon="4.61226">
        <ele>181</ele>
        <time>2012-06-08 09:28:11Z</time>
      </trkpt>
      <trkpt lat="44.20291" lon="4.61224">
        <ele>183</ele>
        <time>2012-06-08 09:28:15Z</time>
      </trkpt>
      <trkpt lat="44.20287" lon="4.61222">
        <ele>183</ele>
        <time>2012-06-08 09:28:19Z</time>
      </trkpt>
      <trkpt lat="44.20287" lon="4.61222">
        <ele>184</ele>
        <time>2012-06-08 09:28:23Z</time>
      </trkpt>
      <trkpt lat="44.20287" lon="4.61222">
        <ele>184</ele>
        <time>2012-06-08 09:28:27Z</time>
      </trkpt>
      <trkpt lat="44.20287" lon="4.61222">
        <ele>185</ele>
        <time>2012-06-08 09:28:31Z</time>
      </trkpt>
      <trkpt lat="44.20287" lon="4.61222">
        <ele>185</ele>
        <time>2012-06-08 09:28:35Z</time>
      </trkpt>
      <trkpt lat="44.20288" lon="4.61224">
        <ele>186</ele>
        <time>2012-06-08 09:28:39Z</time>
      </trkpt>
      <trkpt lat="44.20288" lon="4.61223">
        <ele>187</ele>
        <time>2012-06-08 09:28:43Z</time>
      </trkpt>
      <trkpt lat="44.20288" lon="4.61221">
        <ele>186</ele>
        <time>2012-06-08 09:28:47Z</time>
      </trkpt>
      <trkpt lat="44.20288" lon="4.6122">
        <ele>186</ele>
        <time>2012-06-08 09:28:51Z</time>
      </trkpt>
      <trkpt lat="44.20288" lon="4.6122">
        <ele>185</ele>
        <time>2012-06-08 09:28:55Z</time>
      </trkpt>
      <trkpt lat="44.20288" lon="4.6122">
        <ele>185</ele>
        <time>2012-06-08 09:28:59Z</time>
      </trkpt>
      <trkpt lat="44.20288" lon="4.6122">
        <ele>185</ele>
        <time>2012-06-08 09:29:03Z</time>
      </trkpt>
      <trkpt lat="44.20288" lon="4.61217">
        <ele>185</ele>
        <time>2012-06-08 09:29:07Z</time>
      </trkpt>
      <trkpt lat="44.20287" lon="4.61218">
        <ele>187</ele>
        <time>2012-06-08 09:29:11Z</time>
      </trkpt>
      <trkpt lat="44.20287" lon="4.61222">
        <ele>187</ele>
        <time>2012-06-08 09:29:15Z</time>
      </trkpt>
      <trkpt lat="44.20287" lon="4.61222">
        <ele>189</ele>
        <time>2012-06-08 09:29:19Z</time>
      </trkpt>
      <trkpt lat="44.20287" lon="4.61221">
        <ele>188</ele>
        <time>2012-06-08 09:29:23Z</time>
      </trkpt>
      <trkpt lat="44.20287" lon="4.61221">
        <ele>188</ele>
        <time>2012-06-08 09:29:27Z</time>
      </trkpt>
      <trkpt lat="44.20287" lon="4.61221">
        <ele>188</ele>
        <time>2012-06-08 09:29:31Z</time>
      </trkpt>
      <trkpt lat="44.20287" lon="4.61221">
        <ele>188</ele>
        <time>2012-06-08 09:29:35Z</time>
      </trkpt>
      <trkpt lat="44.20287" lon="4.61221">
        <ele>187</ele>
        <time>2012-06-08 09:29:39Z</time>
      </trkpt>
      <trkpt lat="44.20287" lon="4.61221">
        <ele>187</ele>
        <time>2012-06-08 09:29:43Z</time>
      </trkpt>
      <trkpt lat="44.20287" lon="4.61221">
        <ele>187</ele>
        <time>2012-06-08 09:29:47Z</time>
      </trkpt>
      <trkpt lat="44.20287" lon="4.61221">
        <ele>187</ele>
        <time>2012-06-08 09:29:51Z</time>
      </trkpt>
      <trkpt lat="44.20287" lon="4.61221">
        <ele>187</ele>
        <time>2012-06-08 09:29:55Z</time>
      </trkpt>
      <trkpt lat="44.20287" lon="4.61221">
        <ele>187</ele>
        <time>2012-06-08 09:29:59Z</time>
      </trkpt>
      <trkpt lat="44.20287" lon="4.61221">
        <ele>187</ele>
        <time>2012-06-08 09:30:03Z</time>
      </trkpt>
      <trkpt lat="44.20287" lon="4.61221">
        <ele>187</ele>
        <time>2012-06-08 09:30:07Z</time>
      </trkpt>
      <trkpt lat="44.20287" lon="4.61221">
        <ele>187</ele>
        <time>2012-06-08 09:30:11Z</time>
      </trkpt>
      <trkpt lat="44.20287" lon="4.61221">
        <ele>187</ele>
        <time>2012-06-08 09:30:15Z</time>
      </trkpt>
      <trkpt lat="44.20287" lon="4.61221">
        <ele>187</ele>
        <time>2012-06-08 09:30:19Z</time>
      </trkpt>
      <trkpt lat="44.20287" lon="4.61221">
        <ele>187</ele>
        <time>2012-06-08 09:30:23Z</time>
      </trkpt>
      <trkpt lat="44.20287" lon="4.61221">
        <ele>187</ele>
        <time>2012-06-08 09:30:27Z</time>
      </trkpt>
      <trkpt lat="44.20287" lon="4.61221">
        <ele>187</ele>
        <time>2012-06-08 09:30:31Z</time>
      </trkpt>
      <trkpt lat="44.20287" lon="4.61221">
        <ele>187</ele>
        <time>2012-06-08 09:30:35Z</time>
      </trkpt>
      <trkpt lat="44.20287" lon="4.61221">
        <ele>187</ele>
        <time>2012-06-08 09:30:39Z</time>
      </trkpt>
      <trkpt lat="44.20287" lon="4.61221">
        <ele>187</ele>
        <time>2012-06-08 09:30:43Z</time>
      </trkpt>
      <trkpt lat="44.20287" lon="4.61221">
        <ele>187</ele>
        <time>2012-06-08 09:30:47Z</time>
      </trkpt>
      <trkpt lat="44.20287" lon="4.61221">
        <ele>187</ele>
        <time>2012-06-08 09:30:51Z</time>
      </trkpt>
      <trkpt lat="44.20287" lon="4.61221">
        <ele>187</ele>
        <time>2012-06-08 09:30:55Z</time>
      </trkpt>
      <trkpt lat="44.20287" lon="4.61221">
        <ele>187</ele>
        <time>2012-06-08 09:30:59Z</time>
      </trkpt>
      <trkpt lat="44.20287" lon="4.61221">
        <ele>187</ele>
        <time>2012-06-08 09:31:03Z</time>
      </trkpt>
      <trkpt lat="44.20287" lon="4.61221">
        <ele>187</ele>
        <time>2012-06-08 09:31:07Z</time>
      </trkpt>
      <trkpt lat="44.20287" lon="4.61221">
        <ele>187</ele>
        <time>2012-06-08 09:31:11Z</time>
      </trkpt>
      <trkpt lat="44.20287" lon="4.61221">
        <ele>187</ele>
        <time>2012-06-08 09:31:15Z</time>
      </trkpt>
      <trkpt lat="44.20287" lon="4.61221">
        <ele>187</ele>
        <time>2012-06-08 09:31:19Z</time>
      </trkpt>
      <trkpt lat="44.20287" lon="4.61221">
        <ele>187</ele>
        <time>2012-06-08 09:31:23Z</time>
      </trkpt>
      <trkpt lat="44.20287" lon="4.61221">
        <ele>187</ele>
        <time>2012-06-08 09:31:27Z</time>
      </trkpt>
      <trkpt lat="44.20287" lon="4.61221">
        <ele>187</ele>
        <time>2012-06-08 09:31:31Z</time>
      </trkpt>
      <trkpt lat="44.20287" lon="4.61221">
        <ele>187</ele>
        <time>2012-06-08 09:31:35Z</time>
      </trkpt>
      <trkpt lat="44.20287" lon="4.61221">
        <ele>187</ele>
        <time>2012-06-08 09:31:39Z</time>
      </trkpt>
      <trkpt lat="44.20287" lon="4.61221">
        <ele>187</ele>
        <time>2012-06-08 09:31:43Z</time>
      </trkpt>
      <trkpt lat="44.20287" lon="4.61221">
        <ele>187</ele>
        <time>2012-06-08 09:31:47Z</time>
      </trkpt>
      <trkpt lat="44.20287" lon="4.61221">
        <ele>187</ele>
        <time>2012-06-08 09:31:51Z</time>
      </trkpt>
      <trkpt lat="44.20287" lon="4.61221">
        <ele>187</ele>
        <time>2012-06-08 09:31:55Z</time>
      </trkpt>
      <trkpt lat="44.20287" lon="4.61221">
        <ele>187</ele>
        <time>2012-06-08 09:31:59Z</time>
      </trkpt>
      <trkpt lat="44.20287" lon="4.61221">
        <ele>187</ele>
        <time>2012-06-08 09:32:03Z</time>
      </trkpt>
      <trkpt lat="44.20287" lon="4.61221">
        <ele>187</ele>
        <time>2012-06-08 09:32:07Z</time>
      </trkpt>
      <trkpt lat="44.20287" lon="4.61221">
        <ele>187</ele>
        <time>2012-06-08 09:32:11Z</time>
      </trkpt>
      <trkpt lat="44.20287" lon="4.61221">
        <ele>187</ele>
        <time>2012-06-08 09:32:15Z</time>
      </trkpt>
      <trkpt lat="44.20287" lon="4.61221">
        <ele>187</ele>
        <time>2012-06-08 09:32:19Z</time>
      </trkpt>
      <trkpt lat="44.20287" lon="4.61221">
        <ele>187</ele>
        <time>2012-06-08 09:32:23Z</time>
      </trkpt>
      <trkpt lat="44.20287" lon="4.61221">
        <ele>187</ele>
        <time>2012-06-08 09:32:27Z</time>
      </trkpt>
      <trkpt lat="44.20287" lon="4.61221">
        <ele>187</ele>
        <time>2012-06-08 09:32:31Z</time>
      </trkpt>
      <trkpt lat="44.20287" lon="4.61221">
        <ele>187</ele>
        <time>2012-06-08 09:32:35Z</time>
      </trkpt>
      <trkpt lat="44.20287" lon="4.61221">
        <ele>187</ele>
        <time>2012-06-08 09:32:39Z</time>
      </trkpt>
      <trkpt lat="44.20287" lon="4.61221">
        <ele>187</ele>
        <time>2012-06-08 09:32:43Z</time>
      </trkpt>
      <trkpt lat="44.20287" lon="4.61221">
        <ele>187</ele>
        <time>2012-06-08 09:32:47Z</time>
      </trkpt>
      <trkpt lat="44.20287" lon="4.61221">
        <ele>187</ele>
        <time>2012-06-08 09:32:51Z</time>
      </trkpt>
      <trkpt lat="44.20287" lon="4.61221">
        <ele>187</ele>
        <time>2012-06-08 09:32:55Z</time>
      </trkpt>
      <trkpt lat="44.20287" lon="4.61221">
        <ele>187</ele>
        <time>2012-06-08 09:32:59Z</time>
      </trkpt>
      <trkpt lat="44.20287" lon="4.61221">
        <ele>187</ele>
        <time>2012-06-08 09:33:03Z</time>
      </trkpt>
      <trkpt lat="44.20287" lon="4.61221">
        <ele>187</ele>
        <time>2012-06-08 09:33:07Z</time>
      </trkpt>
      <trkpt lat="44.20287" lon="4.61221">
        <ele>188</ele>
        <time>2012-06-08 09:33:11Z</time>
      </trkpt>
      <trkpt lat="44.20287" lon="4.61221">
        <ele>187</ele>
        <time>2012-06-08 09:33:15Z</time>
      </trkpt>
      <trkpt lat="44.20287" lon="4.61221">
        <ele>188</ele>
        <time>2012-06-08 09:33:19Z</time>
      </trkpt>
      <trkpt lat="44.20287" lon="4.61221">
        <ele>188</ele>
        <time>2012-06-08 09:33:23Z</time>
      </trkpt>
      <trkpt lat="44.20287" lon="4.61221">
        <ele>188</ele>
        <time>2012-06-08 09:33:27Z</time>
      </trkpt>
      <trkpt lat="44.20287" lon="4.61221">
        <ele>188</ele>
        <time>2012-06-08 09:33:31Z</time>
      </trkpt>
      <trkpt lat="44.20287" lon="4.61221">
        <ele>188</ele>
        <time>2012-06-08 09:33:35Z</time>
      </trkpt>
      <trkpt lat="44.20287" lon="4.61221">
        <ele>188</ele>
        <time>2012-06-08 09:33:39Z</time>
      </trkpt>
      <trkpt lat="44.20287" lon="4.61221">
        <ele>188</ele>
        <time>2012-06-08 09:33:43Z</time>
      </trkpt>
      <trkpt lat="44.20287" lon="4.61221">
        <ele>188</ele>
        <time>2012-06-08 09:33:47Z</time>
      </trkpt>
      <trkpt lat="44.20287" lon="4.61221">
        <ele>188</ele>
        <time>2012-06-08 09:33:51Z</time>
      </trkpt>
      <trkpt lat="44.20287" lon="4.61221">
        <ele>188</ele>
        <time>2012-06-08 09:33:55Z</time>
      </trkpt>
      <trkpt lat="44.20287" lon="4.61221">
        <ele>188</ele>
        <time>2012-06-08 09:33:59Z</time>
      </trkpt>
      <trkpt lat="44.20287" lon="4.61221">
        <ele>188</ele>
        <time>2012-06-08 09:34:03Z</time>
      </trkpt>
      <trkpt lat="44.20287" lon="4.61221">
        <ele>188</ele>
        <time>2012-06-08 09:34:07Z</time>
      </trkpt>
      <trkpt lat="44.20287" lon="4.61221">
        <ele>188</ele>
        <time>2012-06-08 09:34:11Z</time>
      </trkpt>
      <trkpt lat="44.20287" lon="4.61221">
        <ele>188</ele>
        <time>2012-06-08 09:34:15Z</time>
      </trkpt>
      <trkpt lat="44.20287" lon="4.61221">
        <ele>188</ele>
        <time>2012-06-08 09:34:19Z</time>
      </trkpt>
      <trkpt lat="44.20287" lon="4.61221">
        <ele>188</ele>
        <time>2012-06-08 09:34:23Z</time>
      </trkpt>
      <trkpt lat="44.20287" lon="4.61221">
        <ele>188</ele>
        <time>2012-06-08 09:34:27Z</time>
      </trkpt>
      <trkpt lat="44.20287" lon="4.61221">
        <ele>188</ele>
        <time>2012-06-08 09:34:31Z</time>
      </trkpt>
      <trkpt lat="44.20287" lon="4.61221">
        <ele>188</ele>
        <time>2012-06-08 09:34:35Z</time>
      </trkpt>
      <trkpt lat="44.20287" lon="4.61221">
        <ele>188</ele>
        <time>2012-06-08 09:34:39Z</time>
      </trkpt>
      <trkpt lat="44.20287" lon="4.61221">
        <ele>188</ele>
        <time>2012-06-08 09:34:43Z</time>
      </trkpt>
      <trkpt lat="44.20287" lon="4.61221">
        <ele>189</ele>
        <time>2012-06-08 09:34:47Z</time>
      </trkpt>
      <trkpt lat="44.20287" lon="4.61221">
        <ele>189</ele>
        <time>2012-06-08 09:34:51Z</time>
      </trkpt>
      <trkpt lat="44.20287" lon="4.61221">
        <ele>189</ele>
        <time>2012-06-08 09:34:55Z</time>
      </trkpt>
      <trkpt lat="44.20287" lon="4.61221">
        <ele>189</ele>
        <time>2012-06-08 09:34:59Z</time>
      </trkpt>
      <trkpt lat="44.20287" lon="4.61221">
        <ele>189</ele>
        <time>2012-06-08 09:35:03Z</time>
      </trkpt>
      <trkpt lat="44.20287" lon="4.61221">
        <ele>189</ele>
        <time>2012-06-08 09:35:07Z</time>
      </trkpt>
      <trkpt lat="44.20287" lon="4.61221">
        <ele>189</ele>
        <time>2012-06-08 09:35:11Z</time>
      </trkpt>
      <trkpt lat="44.20287" lon="4.61221">
        <ele>189</ele>
        <time>2012-06-08 09:35:15Z</time>
      </trkpt>
      <trkpt lat="44.20287" lon="4.61221">
        <ele>189</ele>
        <time>2012-06-08 09:35:19Z</time>
      </trkpt>
      <trkpt lat="44.20287" lon="4.61221">
        <ele>189</ele>
        <time>2012-06-08 09:35:23Z</time>
      </trkpt>
      <trkpt lat="44.20287" lon="4.61221">
        <ele>189</ele>
        <time>2012-06-08 09:35:27Z</time>
      </trkpt>
      <trkpt lat="44.20287" lon="4.61221">
        <ele>189</ele>
        <time>2012-06-08 09:35:31Z</time>
      </trkpt>
      <trkpt lat="44.20287" lon="4.61221">
        <ele>189</ele>
        <time>2012-06-08 09:35:35Z</time>
      </trkpt>
      <trkpt lat="44.20287" lon="4.61221">
        <ele>189</ele>
        <time>2012-06-08 09:35:39Z</time>
      </trkpt>
      <trkpt lat="44.20287" lon="4.61221">
        <ele>189</ele>
        <time>2012-06-08 09:35:43Z</time>
      </trkpt>
      <trkpt lat="44.20287" lon="4.61221">
        <ele>189</ele>
        <time>2012-06-08 09:35:47Z</time>
      </trkpt>
      <trkpt lat="44.20287" lon="4.61221">
        <ele>189</ele>
        <time>2012-06-08 09:35:51Z</time>
      </trkpt>
      <trkpt lat="44.20287" lon="4.61221">
        <ele>189</ele>
        <time>2012-06-08 09:35:55Z</time>
      </trkpt>
      <trkpt lat="44.20287" lon="4.61221">
        <ele>189</ele>
        <time>2012-06-08 09:35:59Z</time>
      </trkpt>
      <trkpt lat="44.20287" lon="4.61221">
        <ele>189</ele>
        <time>2012-06-08 09:36:03Z</time>
      </trkpt>
      <trkpt lat="44.20287" lon="4.61221">
        <ele>189</ele>
        <time>2012-06-08 09:36:07Z</time>
      </trkpt>
      <trkpt lat="44.20287" lon="4.61221">
        <ele>189</ele>
        <time>2012-06-08 09:36:11Z</time>
      </trkpt>
      <trkpt lat="44.20287" lon="4.61221">
        <ele>189</ele>
        <time>2012-06-08 09:36:15Z</time>
      </trkpt>
      <trkpt lat="44.20287" lon="4.61221">
        <ele>189</ele>
        <time>2012-06-08 09:36:19Z</time>
      </trkpt>
      <trkpt lat="44.20287" lon="4.61221">
        <ele>189</ele>
        <time>2012-06-08 09:36:23Z</time>
      </trkpt>
      <trkpt lat="44.20287" lon="4.61221">
        <ele>189</ele>
        <time>2012-06-08 09:36:27Z</time>
      </trkpt>
      <trkpt lat="44.20287" lon="4.61221">
        <ele>189</ele>
        <time>2012-06-08 09:36:31Z</time>
      </trkpt>
      <trkpt lat="44.20287" lon="4.61221">
        <ele>189</ele>
        <time>2012-06-08 09:36:35Z</time>
      </trkpt>
      <trkpt lat="44.20287" lon="4.61221">
        <ele>189</ele>
        <time>2012-06-08 09:36:39Z</time>
      </trkpt>
      <trkpt lat="44.20287" lon="4.61221">
        <ele>189</ele>
        <time>2012-06-08 09:36:43Z</time>
      </trkpt>
      <trkpt lat="44.20287" lon="4.61221">
        <ele>189</ele>
        <time>2012-06-08 09:36:47Z</time>
      </trkpt>
      <trkpt lat="44.20287" lon="4.61221">
        <ele>189</ele>
        <time>2012-06-08 09:36:51Z</time>
      </trkpt>
      <trkpt lat="44.20287" lon="4.61221">
        <ele>189</ele>
        <time>2012-06-08 09:36:55Z</time>
      </trkpt>
      <trkpt lat="44.20287" lon="4.61221">
        <ele>189</ele>
        <time>2012-06-08 09:36:59Z</time>
      </trkpt>
      <trkpt lat="44.20287" lon="4.61221">
        <ele>189</ele>
        <time>2012-06-08 09:37:03Z</time>
      </trkpt>
      <trkpt lat="44.20287" lon="4.61221">
        <ele>189</ele>
        <time>2012-06-08 09:37:07Z</time>
      </trkpt>
      <trkpt lat="44.20287" lon="4.61221">
        <ele>189</ele>
        <time>2012-06-08 09:37:11Z</time>
      </trkpt>
      <trkpt lat="44.20287" lon="4.61221">
        <ele>189</ele>
        <time>2012-06-08 09:37:15Z</time>
      </trkpt>
      <trkpt lat="44.20287" lon="4.61221">
        <ele>189</ele>
        <time>2012-06-08 09:37:19Z</time>
      </trkpt>
      <trkpt lat="44.20287" lon="4.61221">
        <ele>189</ele>
        <time>2012-06-08 09:37:23Z</time>
      </trkpt>
      <trkpt lat="44.20287" lon="4.61221">
        <ele>189</ele>
        <time>2012-06-08 09:37:27Z</time>
      </trkpt>
      <trkpt lat="44.20287" lon="4.61221">
        <ele>189</ele>
        <time>2012-06-08 09:37:31Z</time>
      </trkpt>
      <trkpt lat="44.20287" lon="4.61221">
        <ele>189</ele>
        <time>2012-06-08 09:37:35Z</time>
      </trkpt>
      <trkpt lat="44.20287" lon="4.61221">
        <ele>189</ele>
        <time>2012-06-08 09:37:39Z</time>
      </trkpt>
      <trkpt lat="44.20287" lon="4.61221">
        <ele>189</ele>
        <time>2012-06-08 09:37:43Z</time>
      </trkpt>
      <trkpt lat="44.20287" lon="4.61221">
        <ele>189</ele>
        <time>2012-06-08 09:37:47Z</time>
      </trkpt>
      <trkpt lat="44.20287" lon="4.61221">
        <ele>189</ele>
        <time>2012-06-08 09:37:51Z</time>
      </trkpt>
      <trkpt lat="44.20287" lon="4.61221">
        <ele>189</ele>
        <time>2012-06-08 09:37:55Z</time>
      </trkpt>
      <trkpt lat="44.20287" lon="4.61221">
        <ele>189</ele>
        <time>2012-06-08 09:37:59Z</time>
      </trkpt>
      <trkpt lat="44.20287" lon="4.61221">
        <ele>189</ele>
        <time>2012-06-08 09:38:03Z</time>
      </trkpt>
      <trkpt lat="44.20287" lon="4.61221">
        <ele>189</ele>
        <time>2012-06-08 09:38:07Z</time>
      </trkpt>
      <trkpt lat="44.20287" lon="4.61221">
        <ele>189</ele>
        <time>2012-06-08 09:38:11Z</time>
      </trkpt>
      <trkpt lat="44.20287" lon="4.61221">
        <ele>189</ele>
        <time>2012-06-08 09:38:15Z</time>
      </trkpt>
      <trkpt lat="44.20287" lon="4.61221">
        <ele>189</ele>
        <time>2012-06-08 09:38:19Z</time>
      </trkpt>
      <trkpt lat="44.20287" lon="4.61221">
        <ele>189</ele>
        <time>2012-06-08 09:38:23Z</time>
      </trkpt>
      <trkpt lat="44.20287" lon="4.61221">
        <ele>189</ele>
        <time>2012-06-08 09:38:27Z</time>
      </trkpt>
      <trkpt lat="44.20287" lon="4.61221">
        <ele>189</ele>
        <time>2012-06-08 09:38:31Z</time>
      </trkpt>
      <trkpt lat="44.20287" lon="4.61221">
        <ele>189</ele>
        <time>2012-06-08 09:38:35Z</time>
      </trkpt>
      <trkpt lat="44.20287" lon="4.61221">
        <ele>189</ele>
        <time>2012-06-08 09:38:39Z</time>
      </trkpt>
      <trkpt lat="44.20287" lon="4.61221">
        <ele>189</ele>
        <time>2012-06-08 09:38:43Z</time>
      </trkpt>
      <trkpt lat="44.20287" lon="4.61221">
        <ele>189</ele>
        <time>2012-06-08 09:38:47Z</time>
      </trkpt>
      <trkpt lat="44.20287" lon="4.61221">
        <ele>189</ele>
        <time>2012-06-08 09:38:51Z</time>
      </trkpt>
      <trkpt lat="44.20287" lon="4.61221">
        <ele>189</ele>
        <time>2012-06-08 09:38:55Z</time>
      </trkpt>
      <trkpt lat="44.20287" lon="4.61221">
        <ele>189</ele>
        <time>2012-06-08 09:38:59Z</time>
      </trkpt>
      <trkpt lat="44.20287" lon="4.61221">
        <ele>189</ele>
        <time>2012-06-08 09:39:03Z</time>
      </trkpt>
      <trkpt lat="44.20287" lon="4.61221">
        <ele>189</ele>
        <time>2012-06-08 09:39:07Z</time>
      </trkpt>
      <trkpt lat="44.20284" lon="4.61223">
        <ele>189</ele>
        <time>2012-06-08 09:39:11Z</time>
      </trkpt>
      <trkpt lat="44.20284" lon="4.61223">
        <ele>189</ele>
        <time>2012-06-08 09:39:15Z</time>
      </trkpt>
      <trkpt lat="44.20284" lon="4.61223">
        <ele>189</ele>
        <time>2012-06-08 09:39:19Z</time>
      </trkpt>
      <trkpt lat="44.20284" lon="4.61223">
        <ele>189</ele>
        <time>2012-06-08 09:39:23Z</time>
      </trkpt>
      <trkpt lat="44.20284" lon="4.61223">
        <ele>189</ele>
        <time>2012-06-08 09:39:27Z</time>
      </trkpt>
      <trkpt lat="44.20284" lon="4.61223">
        <ele>189</ele>
        <time>2012-06-08 09:39:31Z</time>
      </trkpt>
      <trkpt lat="44.20284" lon="4.61223">
        <ele>189</ele>
        <time>2012-06-08 09:39:35Z</time>
      </trkpt>
      <trkpt lat="44.20284" lon="4.61223">
        <ele>189</ele>
        <time>2012-06-08 09:39:39Z</time>
      </trkpt>
      <trkpt lat="44.20284" lon="4.61223">
        <ele>189</ele>
        <time>2012-06-08 09:39:43Z</time>
      </trkpt>
      <trkpt lat="44.20284" lon="4.61223">
        <ele>189</ele>
        <time>2012-06-08 09:39:47Z</time>
      </trkpt>
      <trkpt lat="44.20284" lon="4.61223">
        <ele>189</ele>
        <time>2012-06-08 09:39:51Z</time>
      </trkpt>
      <trkpt lat="44.20284" lon="4.61223">
        <ele>189</ele>
        <time>2012-06-08 09:39:55Z</time>
      </trkpt>
      <trkpt lat="44.20284" lon="4.61223">
        <ele>189</ele>
        <time>2012-06-08 09:39:59Z</time>
      </trkpt>
      <trkpt lat="44.20284" lon="4.61223">
        <ele>189</ele>
        <time>2012-06-08 09:40:03Z</time>
      </trkpt>
      <trkpt lat="44.20284" lon="4.61223">
        <ele>189</ele>
        <time>2012-06-08 09:40:07Z</time>
      </trkpt>
      <trkpt lat="44.20284" lon="4.61223">
        <ele>189</ele>
        <time>2012-06-08 09:40:11Z</time>
      </trkpt>
      <trkpt lat="44.20284" lon="4.61223">
        <ele>189</ele>
        <time>2012-06-08 09:40:15Z</time>
      </trkpt>
      <trkpt lat="44.20284" lon="4.61223">
        <ele>189</ele>
        <time>2012-06-08 09:40:19Z</time>
      </trkpt>
      <trkpt lat="44.20284" lon="4.61223">
        <ele>189</ele>
        <time>2012-06-08 09:40:23Z</time>
      </trkpt>
      <trkpt lat="44.20284" lon="4.61223">
        <ele>189</ele>
        <time>2012-06-08 09:40:27Z</time>
      </trkpt>
      <trkpt lat="44.20284" lon="4.61223">
        <ele>189</ele>
        <time>2012-06-08 09:40:31Z</time>
      </trkpt>
      <trkpt lat="44.20284" lon="4.61223">
        <ele>189</ele>
        <time>2012-06-08 09:40:35Z</time>
      </trkpt>
      <trkpt lat="44.20284" lon="4.61223">
        <ele>189</ele>
        <time>2012-06-08 09:40:39Z</time>
      </trkpt>
      <trkpt lat="44.20284" lon="4.61223">
        <ele>189</ele>
        <time>2012-06-08 09:40:43Z</time>
      </trkpt>
      <trkpt lat="44.20284" lon="4.61223">
        <ele>189</ele>
        <time>2012-06-08 09:40:47Z</time>
      </trkpt>
      <trkpt lat="44.20284" lon="4.61223">
        <ele>189</ele>
        <time>2012-06-08 09:40:51Z</time>
      </trkpt>
      <trkpt lat="44.20284" lon="4.61223">
        <ele>190</ele>
        <time>2012-06-08 09:40:55Z</time>
      </trkpt>
      <trkpt lat="44.20284" lon="4.61223">
        <ele>190</ele>
        <time>2012-06-08 09:40:59Z</time>
      </trkpt>
      <trkpt lat="44.20284" lon="4.61223">
        <ele>190</ele>
        <time>2012-06-08 09:41:03Z</time>
      </trkpt>
      <trkpt lat="44.20284" lon="4.61223">
        <ele>189</ele>
        <time>2012-06-08 09:41:07Z</time>
      </trkpt>
      <trkpt lat="44.20284" lon="4.61223">
        <ele>189</ele>
        <time>2012-06-08 09:41:11Z</time>
      </trkpt>
      <trkpt lat="44.20284" lon="4.61223">
        <ele>189</ele>
        <time>2012-06-08 09:41:15Z</time>
      </trkpt>
      <trkpt lat="44.20284" lon="4.61223">
        <ele>189</ele>
        <time>2012-06-08 09:41:19Z</time>
      </trkpt>
      <trkpt lat="44.20284" lon="4.61223">
        <ele>189</ele>
        <time>2012-06-08 09:41:23Z</time>
      </trkpt>
      <trkpt lat="44.20284" lon="4.61223">
        <ele>189</ele>
        <time>2012-06-08 09:41:27Z</time>
      </trkpt>
      <trkpt lat="44.20284" lon="4.61223">
        <ele>189</ele>
        <time>2012-06-08 09:41:31Z</time>
      </trkpt>
      <trkpt lat="44.20284" lon="4.61223">
        <ele>189</ele>
        <time>2012-06-08 09:41:35Z</time>
      </trkpt>
      <trkpt lat="44.20284" lon="4.61223">
        <ele>189</ele>
        <time>2012-06-08 09:41:39Z</time>
      </trkpt>
      <trkpt lat="44.20284" lon="4.61223">
        <ele>189</ele>
        <time>2012-06-08 09:41:43Z</time>
      </trkpt>
      <trkpt lat="44.20284" lon="4.61223">
        <ele>189</ele>
        <time>2012-06-08 09:41:47Z</time>
      </trkpt>
      <trkpt lat="44.20284" lon="4.61223">
        <ele>189</ele>
        <time>2012-06-08 09:41:51Z</time>
      </trkpt>
      <trkpt lat="44.20284" lon="4.61223">
        <ele>189</ele>
        <time>2012-06-08 09:41:55Z</time>
      </trkpt>
      <trkpt lat="44.20284" lon="4.61223">
        <ele>189</ele>
        <time>2012-06-08 09:41:59Z</time>
      </trkpt>
      <trkpt lat="44.20284" lon="4.61223">
        <ele>189</ele>
        <time>2012-06-08 09:42:03Z</time>
      </trkpt>
      <trkpt lat="44.20284" lon="4.61223">
        <ele>189</ele>
        <time>2012-06-08 09:42:07Z</time>
      </trkpt>
      <trkpt lat="44.20284" lon="4.61223">
        <ele>189</ele>
        <time>2012-06-08 09:42:11Z</time>
      </trkpt>
      <trkpt lat="44.20284" lon="4.61223">
        <ele>189</ele>
        <time>2012-06-08 09:42:15Z</time>
      </trkpt>
      <trkpt lat="44.20285" lon="4.61223">
        <ele>190</ele>
        <time>2012-06-08 09:42:19Z</time>
      </trkpt>
      <trkpt lat="44.20286" lon="4.61224">
        <ele>189</ele>
        <time>2012-06-08 09:42:23Z</time>
      </trkpt>
      <trkpt lat="44.20286" lon="4.61224">
        <ele>189</ele>
        <time>2012-06-08 09:42:27Z</time>
      </trkpt>
      <trkpt lat="44.20286" lon="4.61223">
        <ele>189</ele>
        <time>2012-06-08 09:42:31Z</time>
      </trkpt>
      <trkpt lat="44.20282" lon="4.61223">
        <ele>188</ele>
        <time>2012-06-08 09:42:35Z</time>
      </trkpt>
      <trkpt lat="44.20283" lon="4.61225">
        <ele>186</ele>
        <time>2012-06-08 09:42:39Z</time>
      </trkpt>
      <trkpt lat="44.20283" lon="4.61225">
        <ele>187</ele>
        <time>2012-06-08 09:42:43Z</time>
      </trkpt>
      <trkpt lat="44.20287" lon="4.61222">
        <ele>187</ele>
        <time>2012-06-08 09:42:47Z</time>
      </trkpt>
      <trkpt lat="44.20287" lon="4.61222">
        <ele>188</ele>
        <time>2012-06-08 09:42:51Z</time>
      </trkpt>
      <trkpt lat="44.20287" lon="4.61222">
        <ele>188</ele>
        <time>2012-06-08 09:42:55Z</time>
      </trkpt>
      <trkpt lat="44.20287" lon="4.61222">
        <ele>188</ele>
        <time>2012-06-08 09:42:59Z</time>
      </trkpt>
      <trkpt lat="44.20287" lon="4.61222">
        <ele>188</ele>
        <time>2012-06-08 09:43:03Z</time>
      </trkpt>
      <trkpt lat="44.20285" lon="4.61223">
        <ele>188</ele>
        <time>2012-06-08 09:43:07Z</time>
      </trkpt>
      <trkpt lat="44.20285" lon="4.61223">
        <ele>188</ele>
        <time>2012-06-08 09:43:11Z</time>
      </trkpt>
      <trkpt lat="44.20285" lon="4.61223">
        <ele>189</ele>
        <time>2012-06-08 09:43:15Z</time>
      </trkpt>
      <trkpt lat="44.20285" lon="4.61224">
        <ele>190</ele>
        <time>2012-06-08 09:43:19Z</time>
      </trkpt>
      <trkpt lat="44.20287" lon="4.61218">
        <ele>191</ele>
        <time>2012-06-08 09:43:23Z</time>
      </trkpt>
      <trkpt lat="44.20285" lon="4.61209">
        <ele>191</ele>
        <time>2012-06-08 09:43:27Z</time>
      </trkpt>
      <trkpt lat="44.20284" lon="4.61199">
        <ele>195</ele>
        <time>2012-06-08 09:43:31Z</time>
      </trkpt>
      <trkpt lat="44.20285" lon="4.6119">
        <ele>196</ele>
        <time>2012-06-08 09:43:35Z</time>
      </trkpt>
      <trkpt lat="44.20287" lon="4.61182">
        <ele>196</ele>
        <time>2012-06-08 09:43:39Z</time>
      </trkpt>
      <trkpt lat="44.20291" lon="4.61173">
        <ele>199</ele>
        <time>2012-06-08 09:43:43Z</time>
      </trkpt>
      <trkpt lat="44.20294" lon="4.61168">
        <ele>199</ele>
        <time>2012-06-08 09:43:47Z</time>
      </trkpt>
      <trkpt lat="44.20299" lon="4.6116">
        <ele>200</ele>
        <time>2012-06-08 09:43:51Z</time>
      </trkpt>
      <trkpt lat="44.20302" lon="4.61151">
        <ele>199</ele>
        <time>2012-06-08 09:43:55Z</time>
      </trkpt>
      <trkpt lat="44.20307" lon="4.61142">
        <ele>200</ele>
        <time>2012-06-08 09:43:59Z</time>
      </trkpt>
      <trkpt lat="44.2031" lon="4.61132">
        <ele>199</ele>
        <time>2012-06-08 09:44:03Z</time>
      </trkpt>
      <trkpt lat="44.20314" lon="4.61126">
        <ele>196</ele>
        <time>2012-06-08 09:44:07Z</time>
      </trkpt>
      <trkpt lat="44.20318" lon="4.61119">
        <ele>195</ele>
        <time>2012-06-08 09:44:11Z</time>
      </trkpt>
      <trkpt lat="44.20327" lon="4.61114">
        <ele>196</ele>
        <time>2012-06-08 09:44:15Z</time>
      </trkpt>
      <trkpt lat="44.20338" lon="4.61113">
        <ele>197</ele>
        <time>2012-06-08 09:44:19Z</time>
      </trkpt>
      <trkpt lat="44.20342" lon="4.61113">
        <ele>197</ele>
        <time>2012-06-08 09:44:23Z</time>
      </trkpt>
      <trkpt lat="44.2035" lon="4.61115">
        <ele>200</ele>
        <time>2012-06-08 09:44:27Z</time>
      </trkpt>
      <trkpt lat="44.20359" lon="4.61118">
        <ele>199</ele>
        <time>2012-06-08 09:44:31Z</time>
      </trkpt>
      <trkpt lat="44.20369" lon="4.6112">
        <ele>199</ele>
        <time>2012-06-08 09:44:35Z</time>
      </trkpt>
      <trkpt lat="44.2038" lon="4.61123">
        <ele>200</ele>
        <time>2012-06-08 09:44:39Z</time>
      </trkpt>
      <trkpt lat="44.20393" lon="4.61128">
        <ele>201</ele>
        <time>2012-06-08 09:44:43Z</time>
      </trkpt>
      <trkpt lat="44.20407" lon="4.61133">
        <ele>201</ele>
        <time>2012-06-08 09:44:47Z</time>
      </trkpt>
      <trkpt lat="44.20415" lon="4.61138">
        <ele>199</ele>
        <time>2012-06-08 09:44:51Z</time>
      </trkpt>
      <trkpt lat="44.20425" lon="4.61142">
        <ele>199</ele>
        <time>2012-06-08 09:44:55Z</time>
      </trkpt>
      <trkpt lat="44.20435" lon="4.61145">
        <ele>198</ele>
        <time>2012-06-08 09:44:59Z</time>
      </trkpt>
      <trkpt lat="44.20446" lon="4.6115">
        <ele>200</ele>
        <time>2012-06-08 09:45:03Z</time>
      </trkpt>
      <trkpt lat="44.20457" lon="4.61154">
        <ele>200</ele>
        <time>2012-06-08 09:45:07Z</time>
      </trkpt>
      <trkpt lat="44.20468" lon="4.61154">
        <ele>203</ele>
        <time>2012-06-08 09:45:11Z</time>
      </trkpt>
      <trkpt lat="44.2048" lon="4.61155">
        <ele>203</ele>
        <time>2012-06-08 09:45:15Z</time>
      </trkpt>
      <trkpt lat="44.20492" lon="4.61157">
        <ele>204</ele>
        <time>2012-06-08 09:45:19Z</time>
      </trkpt>
      <trkpt lat="44.20505" lon="4.61159">
        <ele>201</ele>
        <time>2012-06-08 09:45:23Z</time>
      </trkpt>
      <trkpt lat="44.20517" lon="4.61162">
        <ele>200</ele>
        <time>2012-06-08 09:45:27Z</time>
      </trkpt>
      <trkpt lat="44.20529" lon="4.61164">
        <ele>200</ele>
        <time>2012-06-08 09:45:31Z</time>
      </trkpt>
      <trkpt lat="44.20538" lon="4.61168">
        <ele>200</ele>
        <time>2012-06-08 09:45:35Z</time>
      </trkpt>
      <trkpt lat="44.20548" lon="4.61171">
        <ele>200</ele>
        <time>2012-06-08 09:45:39Z</time>
      </trkpt>
      <trkpt lat="44.20557" lon="4.61169">
        <ele>202</ele>
        <time>2012-06-08 09:45:43Z</time>
      </trkpt>
      <trkpt lat="44.20564" lon="4.61163">
        <ele>203</ele>
        <time>2012-06-08 09:45:47Z</time>
      </trkpt>
      <trkpt lat="44.20572" lon="4.61158">
        <ele>203</ele>
        <time>2012-06-08 09:45:51Z</time>
      </trkpt>
      <trkpt lat="44.20588" lon="4.61141">
        <ele>201</ele>
        <time>2012-06-08 09:45:55Z</time>
      </trkpt>
      <trkpt lat="44.20603" lon="4.61126">
        <ele>197</ele>
        <time>2012-06-08 09:45:59Z</time>
      </trkpt>
      <trkpt lat="44.20619" lon="4.61111">
        <ele>199</ele>
        <time>2012-06-08 09:46:03Z</time>
      </trkpt>
      <trkpt lat="44.20633" lon="4.61099">
        <ele>201</ele>
        <time>2012-06-08 09:46:07Z</time>
      </trkpt>
      <trkpt lat="44.20646" lon="4.61097">
        <ele>203</ele>
        <time>2012-06-08 09:46:11Z</time>
      </trkpt>
      <trkpt lat="44.20657" lon="4.611">
        <ele>203</ele>
        <time>2012-06-08 09:46:15Z</time>
      </trkpt>
      <trkpt lat="44.20669" lon="4.61107">
        <ele>204</ele>
        <time>2012-06-08 09:46:19Z</time>
      </trkpt>
      <trkpt lat="44.2068" lon="4.61111">
        <ele>205</ele>
        <time>2012-06-08 09:46:23Z</time>
      </trkpt>
      <trkpt lat="44.20688" lon="4.6111">
        <ele>205</ele>
        <time>2012-06-08 09:46:27Z</time>
      </trkpt>
      <trkpt lat="44.20696" lon="4.61111">
        <ele>205</ele>
        <time>2012-06-08 09:46:31Z</time>
      </trkpt>
      <trkpt lat="44.20702" lon="4.61112">
        <ele>205</ele>
        <time>2012-06-08 09:46:35Z</time>
      </trkpt>
      <trkpt lat="44.20714" lon="4.61114">
        <ele>205</ele>
        <time>2012-06-08 09:46:39Z</time>
      </trkpt>
      <trkpt lat="44.2073" lon="4.6112">
        <ele>203</ele>
        <time>2012-06-08 09:46:43Z</time>
      </trkpt>
      <trkpt lat="44.20741" lon="4.6112">
        <ele>200</ele>
        <time>2012-06-08 09:46:47Z</time>
      </trkpt>
      <trkpt lat="44.20745" lon="4.61124">
        <ele>199</ele>
        <time>2012-06-08 09:46:51Z</time>
      </trkpt>
      <trkpt lat="44.20754" lon="4.61132">
        <ele>201</ele>
        <time>2012-06-08 09:46:55Z</time>
      </trkpt>
      <trkpt lat="44.20768" lon="4.61144">
        <ele>200</ele>
        <time>2012-06-08 09:46:59Z</time>
      </trkpt>
      <trkpt lat="44.20791" lon="4.61158">
        <ele>197</ele>
        <time>2012-06-08 09:47:03Z</time>
      </trkpt>
      <trkpt lat="44.20797" lon="4.6116">
        <ele>198</ele>
        <time>2012-06-08 09:47:07Z</time>
      </trkpt>
      <trkpt lat="44.20805" lon="4.61165">
        <ele>199</ele>
        <time>2012-06-08 09:47:11Z</time>
      </trkpt>
      <trkpt lat="44.20816" lon="4.61175">
        <ele>197</ele>
        <time>2012-06-08 09:47:15Z</time>
      </trkpt>
      <trkpt lat="44.20829" lon="4.61186">
        <ele>193</ele>
        <time>2012-06-08 09:47:19Z</time>
      </trkpt>
      <trkpt lat="44.20837" lon="4.61197">
        <ele>195</ele>
        <time>2012-06-08 09:47:23Z</time>
      </trkpt>
      <trkpt lat="44.2084" lon="4.61209">
        <ele>196</ele>
        <time>2012-06-08 09:47:27Z</time>
      </trkpt>
      <trkpt lat="44.2085" lon="4.61228">
        <ele>194</ele>
        <time>2012-06-08 09:47:31Z</time>
      </trkpt>
      <trkpt lat="44.20852" lon="4.61236">
        <ele>195</ele>
        <time>2012-06-08 09:47:35Z</time>
      </trkpt>
      <trkpt lat="44.20853" lon="4.61237">
        <ele>192</ele>
        <time>2012-06-08 09:47:39Z</time>
      </trkpt>
      <trkpt lat="44.20853" lon="4.61237">
        <ele>190</ele>
        <time>2012-06-08 09:47:43Z</time>
      </trkpt>
      <trkpt lat="44.20853" lon="4.61237">
        <ele>190</ele>
        <time>2012-06-08 09:47:47Z</time>
      </trkpt>
      <trkpt lat="44.20853" lon="4.61237">
        <ele>190</ele>
        <time>2012-06-08 09:47:51Z</time>
      </trkpt>
      <trkpt lat="44.20853" lon="4.61237">
        <ele>190</ele>
        <time>2012-06-08 09:47:55Z</time>
      </trkpt>
      <trkpt lat="44.20853" lon="4.61237">
        <ele>190</ele>
        <time>2012-06-08 09:47:59Z</time>
      </trkpt>
      <trkpt lat="44.20853" lon="4.61237">
        <ele>190</ele>
        <time>2012-06-08 09:48:03Z</time>
      </trkpt>
      <trkpt lat="44.20853" lon="4.61237">
        <ele>190</ele>
        <time>2012-06-08 09:48:07Z</time>
      </trkpt>
      <trkpt lat="44.20858" lon="4.61318">
        <ele>198</ele>
        <time>2012-06-08 09:48:11Z</time>
      </trkpt>
      <trkpt lat="44.20858" lon="4.61318">
        <ele>200</ele>
        <time>2012-06-08 09:48:15Z</time>
      </trkpt>
      <trkpt lat="44.20858" lon="4.61318">
        <ele>200</ele>
        <time>2012-06-08 09:48:19Z</time>
      </trkpt>
      <trkpt lat="44.20858" lon="4.61318">
        <ele>200</ele>
        <time>2012-06-08 09:48:23Z</time>
      </trkpt>
      <trkpt lat="44.20858" lon="4.61318">
        <ele>200</ele>
        <time>2012-06-08 09:48:27Z</time>
      </trkpt>
      <trkpt lat="44.20858" lon="4.61318">
        <ele>200</ele>
        <time>2012-06-08 09:48:31Z</time>
      </trkpt>
      <trkpt lat="44.20858" lon="4.61318">
        <ele>200</ele>
        <time>2012-06-08 09:48:35Z</time>
      </trkpt>
      <trkpt lat="44.20858" lon="4.61318">
        <ele>200</ele>
        <time>2012-06-08 09:48:39Z</time>
      </trkpt>
      <trkpt lat="44.20861" lon="4.61341">
        <ele>194</ele>
        <time>2012-06-08 09:48:43Z</time>
      </trkpt>
      <trkpt lat="44.20853" lon="4.61344">
        <ele>194</ele>
        <time>2012-06-08 09:48:47Z</time>
      </trkpt>
      <trkpt lat="44.20842" lon="4.61359">
        <ele>191</ele>
        <time>2012-06-08 09:48:51Z</time>
      </trkpt>
      <trkpt lat="44.2084" lon="4.61367">
        <ele>190</ele>
        <time>2012-06-08 09:48:55Z</time>
      </trkpt>
      <trkpt lat="44.20841" lon="4.61372">
        <ele>189</ele>
        <time>2012-06-08 09:48:59Z</time>
      </trkpt>
      <trkpt lat="44.20839" lon="4.61375">
        <ele>185</ele>
        <time>2012-06-08 09:49:03Z</time>
      </trkpt>
      <trkpt lat="44.20836" lon="4.61379">
        <ele>183</ele>
        <time>2012-06-08 09:49:07Z</time>
      </trkpt>
      <trkpt lat="44.20832" lon="4.61385">
        <ele>180</ele>
        <time>2012-06-08 09:49:11Z</time>
      </trkpt>
      <trkpt lat="44.20827" lon="4.61386">
        <ele>178</ele>
        <time>2012-06-08 09:49:15Z</time>
      </trkpt>
      <trkpt lat="44.20821" lon="4.61387">
        <ele>179</ele>
        <time>2012-06-08 09:49:19Z</time>
      </trkpt>
      <trkpt lat="44.20816" lon="4.61395">
        <ele>178</ele>
        <time>2012-06-08 09:49:23Z</time>
      </trkpt>
      <trkpt lat="44.20813" lon="4.61406">
        <ele>175</ele>
        <time>2012-06-08 09:49:27Z</time>
      </trkpt>
      <trkpt lat="44.20806" lon="4.61419">
        <ele>175</ele>
        <time>2012-06-08 09:49:31Z</time>
      </trkpt>
      <trkpt lat="44.20798" lon="4.61436">
        <ele>177</ele>
        <time>2012-06-08 09:49:35Z</time>
      </trkpt>
      <trkpt lat="44.20787" lon="4.61459">
        <ele>169</ele>
        <time>2012-06-08 09:49:39Z</time>
      </trkpt>
      <trkpt lat="44.2078" lon="4.61475">
        <ele>165</ele>
        <time>2012-06-08 09:49:43Z</time>
      </trkpt>
      <trkpt lat="44.20776" lon="4.6149">
        <ele>165</ele>
        <time>2012-06-08 09:49:47Z</time>
      </trkpt>
      <trkpt lat="44.20771" lon="4.61492">
        <ele>162</ele>
        <time>2012-06-08 09:49:51Z</time>
      </trkpt>
      <trkpt lat="44.2076" lon="4.61487">
        <ele>159</ele>
        <time>2012-06-08 09:49:55Z</time>
      </trkpt>
      <trkpt lat="44.20755" lon="4.61491">
        <ele>158</ele>
        <time>2012-06-08 09:49:59Z</time>
      </trkpt>
      <trkpt lat="44.20748" lon="4.61508">
        <ele>150</ele>
        <time>2012-06-08 09:50:03Z</time>
      </trkpt>
      <trkpt lat="44.20739" lon="4.615">
        <ele>144</ele>
        <time>2012-06-08 09:50:07Z</time>
      </trkpt>
      <trkpt lat="44.20731" lon="4.61486">
        <ele>141</ele>
        <time>2012-06-08 09:50:11Z</time>
      </trkpt>
      <trkpt lat="44.20723" lon="4.61482">
        <ele>142</ele>
        <time>2012-06-08 09:50:15Z</time>
      </trkpt>
      <trkpt lat="44.20717" lon="4.61482">
        <ele>141</ele>
        <time>2012-06-08 09:50:19Z</time>
      </trkpt>
      <trkpt lat="44.20706" lon="4.61484">
        <ele>141</ele>
        <time>2012-06-08 09:50:23Z</time>
      </trkpt>
      <trkpt lat="44.20702" lon="4.61486">
        <ele>139</ele>
        <time>2012-06-08 09:50:27Z</time>
      </trkpt>
      <trkpt lat="44.20696" lon="4.61487">
        <ele>142</ele>
        <time>2012-06-08 09:50:31Z</time>
      </trkpt>
      <trkpt lat="44.20688" lon="4.61487">
        <ele>141</ele>
        <time>2012-06-08 09:50:35Z</time>
      </trkpt>
      <trkpt lat="44.2068" lon="4.61497">
        <ele>143</ele>
        <time>2012-06-08 09:50:39Z</time>
      </trkpt>
      <trkpt lat="44.20684" lon="4.61509">
        <ele>142</ele>
        <time>2012-06-08 09:50:43Z</time>
      </trkpt>
      <trkpt lat="44.20691" lon="4.61529">
        <ele>143</ele>
        <time>2012-06-08 09:50:47Z</time>
      </trkpt>
      <trkpt lat="44.20701" lon="4.61562">
        <ele>142</ele>
        <time>2012-06-08 09:50:51Z</time>
      </trkpt>
      <trkpt lat="44.207" lon="4.61572">
        <ele>142</ele>
        <time>2012-06-08 09:50:55Z</time>
      </trkpt>
      <trkpt lat="44.207" lon="4.61588">
        <ele>141</ele>
        <time>2012-06-08 09:50:59Z</time>
      </trkpt>
      <trkpt lat="44.20697" lon="4.61605">
        <ele>142</ele>
        <time>2012-06-08 09:51:03Z</time>
      </trkpt>
      <trkpt lat="44.20693" lon="4.61622">
        <ele>144</ele>
        <time>2012-06-08 09:51:07Z</time>
      </trkpt>
      <trkpt lat="44.20694" lon="4.61636">
        <ele>145</ele>
        <time>2012-06-08 09:51:11Z</time>
      </trkpt>
      <trkpt lat="44.20698" lon="4.61648">
        <ele>145</ele>
        <time>2012-06-08 09:51:15Z</time>
      </trkpt>
      <trkpt lat="44.20707" lon="4.61653">
        <ele>145</ele>
        <time>2012-06-08 09:51:19Z</time>
      </trkpt>
      <trkpt lat="44.20718" lon="4.61656">
        <ele>145</ele>
        <time>2012-06-08 09:51:23Z</time>
      </trkpt>
      <trkpt lat="44.20729" lon="4.61656">
        <ele>145</ele>
        <time>2012-06-08 09:51:27Z</time>
      </trkpt>
      <trkpt lat="44.20738" lon="4.61657">
        <ele>145</ele>
        <time>2012-06-08 09:51:31Z</time>
      </trkpt>
      <trkpt lat="44.20742" lon="4.61658">
        <ele>145</ele>
        <time>2012-06-08 09:51:35Z</time>
      </trkpt>
      <trkpt lat="44.20751" lon="4.61661">
        <ele>147</ele>
        <time>2012-06-08 09:51:39Z</time>
      </trkpt>
      <trkpt lat="44.20759" lon="4.61662">
        <ele>145</ele>
        <time>2012-06-08 09:51:43Z</time>
      </trkpt>
      <trkpt lat="44.20765" lon="4.6166">
        <ele>146</ele>
        <time>2012-06-08 09:51:47Z</time>
      </trkpt>
      <trkpt lat="44.20773" lon="4.61658">
        <ele>147</ele>
        <time>2012-06-08 09:51:51Z</time>
      </trkpt>
      <trkpt lat="44.20778" lon="4.61656">
        <ele>148</ele>
        <time>2012-06-08 09:51:55Z</time>
      </trkpt>
      <trkpt lat="44.20785" lon="4.61656">
        <ele>145</ele>
        <time>2012-06-08 09:51:59Z</time>
      </trkpt>
      <trkpt lat="44.20792" lon="4.61657">
        <ele>145</ele>
        <time>2012-06-08 09:52:03Z</time>
      </trkpt>
      <trkpt lat="44.208" lon="4.61654">
        <ele>147</ele>
        <time>2012-06-08 09:52:07Z</time>
      </trkpt>
      <trkpt lat="44.20806" lon="4.61653">
        <ele>148</ele>
        <time>2012-06-08 09:52:11Z</time>
      </trkpt>
      <trkpt lat="44.20813" lon="4.6165">
        <ele>147</ele>
        <time>2012-06-08 09:52:15Z</time>
      </trkpt>
      <trkpt lat="44.20822" lon="4.61648">
        <ele>148</ele>
        <time>2012-06-08 09:52:19Z</time>
      </trkpt>
      <trkpt lat="44.20833" lon="4.61642">
        <ele>149</ele>
        <time>2012-06-08 09:52:23Z</time>
      </trkpt>
      <trkpt lat="44.20838" lon="4.61638">
        <ele>150</ele>
        <time>2012-06-08 09:52:27Z</time>
      </trkpt>
      <trkpt lat="44.20845" lon="4.61633">
        <ele>152</ele>
        <time>2012-06-08 09:52:31Z</time>
      </trkpt>
      <trkpt lat="44.20852" lon="4.61625">
        <ele>157</ele>
        <time>2012-06-08 09:52:35Z</time>
      </trkpt>
      <trkpt lat="44.20858" lon="4.6162">
        <ele>157</ele>
        <time>2012-06-08 09:52:39Z</time>
      </trkpt>
      <trkpt lat="44.20866" lon="4.61616">
        <ele>160</ele>
        <time>2012-06-08 09:52:43Z</time>
      </trkpt>
      <trkpt lat="44.20874" lon="4.61613">
        <ele>161</ele>
        <time>2012-06-08 09:52:47Z</time>
      </trkpt>
      <trkpt lat="44.20879" lon="4.6161">
        <ele>161</ele>
        <time>2012-06-08 09:52:51Z</time>
      </trkpt>
      <trkpt lat="44.20886" lon="4.61609">
        <ele>160</ele>
        <time>2012-06-08 09:52:55Z</time>
      </trkpt>
      <trkpt lat="44.20891" lon="4.61607">
        <ele>161</ele>
        <time>2012-06-08 09:52:59Z</time>
      </trkpt>
      <trkpt lat="44.20896" lon="4.61608">
        <ele>161</ele>
        <time>2012-06-08 09:53:03Z</time>
      </trkpt>
      <trkpt lat="44.20899" lon="4.6161">
        <ele>163</ele>
        <time>2012-06-08 09:53:07Z</time>
      </trkpt>
      <trkpt lat="44.20897" lon="4.61613">
        <ele>165</ele>
        <time>2012-06-08 09:53:11Z</time>
      </trkpt>
      <trkpt lat="44.20887" lon="4.61616">
        <ele>165</ele>
        <time>2012-06-08 09:53:15Z</time>
      </trkpt>
      <trkpt lat="44.20881" lon="4.61617">
        <ele>166</ele>
        <time>2012-06-08 09:53:19Z</time>
      </trkpt>
      <trkpt lat="44.20872" lon="4.61622">
        <ele>164</ele>
        <time>2012-06-08 09:53:23Z</time>
      </trkpt>
      <trkpt lat="44.20865" lon="4.61628">
        <ele>164</ele>
        <time>2012-06-08 09:53:27Z</time>
      </trkpt>
      <trkpt lat="44.20858" lon="4.61632">
        <ele>168</ele>
        <time>2012-06-08 09:53:31Z</time>
      </trkpt>
      <trkpt lat="44.20853" lon="4.61634">
        <ele>168</ele>
        <time>2012-06-08 09:53:35Z</time>
      </trkpt>
      <trkpt lat="44.20846" lon="4.61642">
        <ele>171</ele>
        <time>2012-06-08 09:53:39Z</time>
      </trkpt>
      <trkpt lat="44.20844" lon="4.61647">
        <ele>171</ele>
        <time>2012-06-08 09:53:43Z</time>
      </trkpt>
      <trkpt lat="44.20838" lon="4.61653">
        <ele>167</ele>
        <time>2012-06-08 09:53:47Z</time>
      </trkpt>
      <trkpt lat="44.20834" lon="4.61659">
        <ele>165</ele>
        <time>2012-06-08 09:53:51Z</time>
      </trkpt>
      <trkpt lat="44.20834" lon="4.61664">
        <ele>164</ele>
        <time>2012-06-08 09:53:55Z</time>
      </trkpt>
      <trkpt lat="44.20832" lon="4.6167">
        <ele>165</ele>
        <time>2012-06-08 09:53:59Z</time>
      </trkpt>
      <trkpt lat="44.20832" lon="4.61672">
        <ele>163</ele>
        <time>2012-06-08 09:54:03Z</time>
      </trkpt>
      <trkpt lat="44.20834" lon="4.61673">
        <ele>166</ele>
        <time>2012-06-08 09:54:07Z</time>
      </trkpt>
      <trkpt lat="44.20839" lon="4.61673">
        <ele>165</ele>
        <time>2012-06-08 09:54:11Z</time>
      </trkpt>
      <trkpt lat="44.20844" lon="4.61669">
        <ele>165</ele>
        <time>2012-06-08 09:54:15Z</time>
      </trkpt>
      <trkpt lat="44.20848" lon="4.6167">
        <ele>166</ele>
        <time>2012-06-08 09:54:19Z</time>
      </trkpt>
      <trkpt lat="44.20855" lon="4.61671">
        <ele>166</ele>
        <time>2012-06-08 09:54:23Z</time>
      </trkpt>
      <trkpt lat="44.20857" lon="4.6167">
        <ele>162</ele>
        <time>2012-06-08 09:54:27Z</time>
      </trkpt>
      <trkpt lat="44.20859" lon="4.61668">
        <ele>164</ele>
        <time>2012-06-08 09:54:31Z</time>
      </trkpt>
      <trkpt lat="44.20862" lon="4.61667">
        <ele>165</ele>
        <time>2012-06-08 09:54:35Z</time>
      </trkpt>
      <trkpt lat="44.20864" lon="4.61668">
        <ele>166</ele>
        <time>2012-06-08 09:54:39Z</time>
      </trkpt>
      <trkpt lat="44.20867" lon="4.61668">
        <ele>164</ele>
        <time>2012-06-08 09:54:43Z</time>
      </trkpt>
      <trkpt lat="44.20867" lon="4.61671">
        <ele>166</ele>
        <time>2012-06-08 09:54:47Z</time>
      </trkpt>
      <trkpt lat="44.20866" lon="4.61671">
        <ele>165</ele>
        <time>2012-06-08 09:54:51Z</time>
      </trkpt>
      <trkpt lat="44.20871" lon="4.61671">
        <ele>170</ele>
        <time>2012-06-08 09:54:55Z</time>
      </trkpt>
      <trkpt lat="44.20874" lon="4.61673">
        <ele>172</ele>
        <time>2012-06-08 09:54:59Z</time>
      </trkpt>
      <trkpt lat="44.20877" lon="4.61675">
        <ele>170</ele>
        <time>2012-06-08 09:55:03Z</time>
      </trkpt>
      <trkpt lat="44.2088" lon="4.61677">
        <ele>170</ele>
        <time>2012-06-08 09:55:07Z</time>
      </trkpt>
      <trkpt lat="44.20881" lon="4.61676">
        <ele>170</ele>
        <time>2012-06-08 09:55:11Z</time>
      </trkpt>
      <trkpt lat="44.20888" lon="4.61676">
        <ele>169</ele>
        <time>2012-06-08 09:55:15Z</time>
      </trkpt>
      <trkpt lat="44.20893" lon="4.61677">
        <ele>170</ele>
        <time>2012-06-08 09:55:19Z</time>
      </trkpt>
      <trkpt lat="44.20898" lon="4.61671">
        <ele>172</ele>
        <time>2012-06-08 09:55:23Z</time>
      </trkpt>
      <trkpt lat="44.20898" lon="4.61664">
        <ele>173</ele>
        <time>2012-06-08 09:55:27Z</time>
      </trkpt>
      <trkpt lat="44.20901" lon="4.61661">
        <ele>174</ele>
        <time>2012-06-08 09:55:31Z</time>
      </trkpt>
      <trkpt lat="44.20906" lon="4.61662">
        <ele>174</ele>
        <time>2012-06-08 09:55:35Z</time>
      </trkpt>
      <trkpt lat="44.20909" lon="4.61665">
        <ele>174</ele>
        <time>2012-06-08 09:55:39Z</time>
      </trkpt>
      <trkpt lat="44.20912" lon="4.61665">
        <ele>177</ele>
        <time>2012-06-08 09:55:43Z</time>
      </trkpt>
      <trkpt lat="44.20915" lon="4.61661">
        <ele>169</ele>
        <time>2012-06-08 09:55:47Z</time>
      </trkpt>
      <trkpt lat="44.20917" lon="4.6166">
        <ele>170</ele>
        <time>2012-06-08 09:55:51Z</time>
      </trkpt>
      <trkpt lat="44.20921" lon="4.61659">
        <ele>172</ele>
        <time>2012-06-08 09:55:55Z</time>
      </trkpt>
      <trkpt lat="44.20923" lon="4.61659">
        <ele>173</ele>
        <time>2012-06-08 09:55:59Z</time>
      </trkpt>
      <trkpt lat="44.20928" lon="4.61663">
        <ele>173</ele>
        <time>2012-06-08 09:56:03Z</time>
      </trkpt>
      <trkpt lat="44.20932" lon="4.61664">
        <ele>173</ele>
        <time>2012-06-08 09:56:07Z</time>
      </trkpt>
      <trkpt lat="44.20933" lon="4.61663">
        <ele>174</ele>
        <time>2012-06-08 09:56:11Z</time>
      </trkpt>
      <trkpt lat="44.20932" lon="4.61664">
        <ele>175</ele>
        <time>2012-06-08 09:56:15Z</time>
      </trkpt>
      <trkpt lat="44.20933" lon="4.61664">
        <ele>175</ele>
        <time>2012-06-08 09:56:19Z</time>
      </trkpt>
      <trkpt lat="44.20938" lon="4.61663">
        <ele>176</ele>
        <time>2012-06-08 09:56:23Z</time>
      </trkpt>
      <trkpt lat="44.20942" lon="4.61664">
        <ele>176</ele>
        <time>2012-06-08 09:56:27Z</time>
      </trkpt>
      <trkpt lat="44.20948" lon="4.61663">
        <ele>177</ele>
        <time>2012-06-08 09:56:31Z</time>
      </trkpt>
      <trkpt lat="44.20954" lon="4.61663">
        <ele>179</ele>
        <time>2012-06-08 09:56:35Z</time>
      </trkpt>
      <trkpt lat="44.20958" lon="4.61663">
        <ele>180</ele>
        <time>2012-06-08 09:56:39Z</time>
      </trkpt>
      <trkpt lat="44.20963" lon="4.61662">
        <ele>182</ele>
        <time>2012-06-08 09:56:43Z</time>
      </trkpt>
      <trkpt lat="44.20969" lon="4.61663">
        <ele>182</ele>
        <time>2012-06-08 09:56:47Z</time>
      </trkpt>
      <trkpt lat="44.20975" lon="4.61663">
        <ele>181</ele>
        <time>2012-06-08 09:56:51Z</time>
      </trkpt>
      <trkpt lat="44.2098" lon="4.61666">
        <ele>183</ele>
        <time>2012-06-08 09:56:55Z</time>
      </trkpt>
      <trkpt lat="44.20989" lon="4.61664">
        <ele>184</ele>
        <time>2012-06-08 09:56:59Z</time>
      </trkpt>
      <trkpt lat="44.20993" lon="4.61662">
        <ele>185</ele>
        <time>2012-06-08 09:57:03Z</time>
      </trkpt>
      <trkpt lat="44.20998" lon="4.61661">
        <ele>185</ele>
        <time>2012-06-08 09:57:07Z</time>
      </trkpt>
      <trkpt lat="44.21002" lon="4.61663">
        <ele>187</ele>
        <time>2012-06-08 09:57:11Z</time>
      </trkpt>
      <trkpt lat="44.21006" lon="4.61665">
        <ele>186</ele>
        <time>2012-06-08 09:57:15Z</time>
      </trkpt>
      <trkpt lat="44.2101" lon="4.61665">
        <ele>186</ele>
        <time>2012-06-08 09:57:19Z</time>
      </trkpt>
      <trkpt lat="44.21016" lon="4.61662">
        <ele>186</ele>
        <time>2012-06-08 09:57:23Z</time>
      </trkpt>
      <trkpt lat="44.21026" lon="4.61655">
        <ele>185</ele>
        <time>2012-06-08 09:57:27Z</time>
      </trkpt>
      <trkpt lat="44.21031" lon="4.61653">
        <ele>186</ele>
        <time>2012-06-08 09:57:31Z</time>
      </trkpt>
      <trkpt lat="44.21036" lon="4.61648">
        <ele>186</ele>
        <time>2012-06-08 09:57:35Z</time>
      </trkpt>
      <trkpt lat="44.21039" lon="4.61647">
        <ele>188</ele>
        <time>2012-06-08 09:57:39Z</time>
      </trkpt>
      <trkpt lat="44.21042" lon="4.61648">
        <ele>189</ele>
        <time>2012-06-08 09:57:43Z</time>
      </trkpt>
      <trkpt lat="44.21049" lon="4.61645">
        <ele>187</ele>
        <time>2012-06-08 09:57:47Z</time>
      </trkpt>
      <trkpt lat="44.21055" lon="4.61646">
        <ele>187</ele>
        <time>2012-06-08 09:57:51Z</time>
      </trkpt>
      <trkpt lat="44.21058" lon="4.61647">
        <ele>188</ele>
        <time>2012-06-08 09:57:55Z</time>
      </trkpt>
      <trkpt lat="44.21063" lon="4.61647">
        <ele>188</ele>
        <time>2012-06-08 09:57:59Z</time>
      </trkpt>
      <trkpt lat="44.21067" lon="4.61646">
        <ele>188</ele>
        <time>2012-06-08 09:58:03Z</time>
      </trkpt>
      <trkpt lat="44.21067" lon="4.61646">
        <ele>188</ele>
        <time>2012-06-08 09:58:07Z</time>
      </trkpt>
      <trkpt lat="44.21067" lon="4.61646">
        <ele>188</ele>
        <time>2012-06-08 09:58:11Z</time>
      </trkpt>
      <trkpt lat="44.21067" lon="4.61646">
        <ele>188</ele>
        <time>2012-06-08 09:58:15Z</time>
      </trkpt>
      <trkpt lat="44.21067" lon="4.61646">
        <ele>188</ele>
        <time>2012-06-08 09:58:19Z</time>
      </trkpt>
      <trkpt lat="44.21085" lon="4.61647">
        <ele>189</ele>
        <time>2012-06-08 09:58:23Z</time>
      </trkpt>
      <trkpt lat="44.21085" lon="4.61646">
        <ele>191</ele>
        <time>2012-06-08 09:58:27Z</time>
      </trkpt>
      <trkpt lat="44.21085" lon="4.61648">
        <ele>191</ele>
        <time>2012-06-08 09:58:31Z</time>
      </trkpt>
      <trkpt lat="44.21088" lon="4.61648">
        <ele>192</ele>
        <time>2012-06-08 09:58:35Z</time>
      </trkpt>
      <trkpt lat="44.21093" lon="4.61642">
        <ele>193</ele>
        <time>2012-06-08 09:58:39Z</time>
      </trkpt>
      <trkpt lat="44.21098" lon="4.61639">
        <ele>191</ele>
        <time>2012-06-08 09:58:43Z</time>
      </trkpt>
      <trkpt lat="44.21102" lon="4.6164">
        <ele>190</ele>
        <time>2012-06-08 09:58:47Z</time>
      </trkpt>
      <trkpt lat="44.21105" lon="4.6164">
        <ele>186</ele>
        <time>2012-06-08 09:58:51Z</time>
      </trkpt>
      <trkpt lat="44.21105" lon="4.6164">
        <ele>188</ele>
        <time>2012-06-08 09:58:55Z</time>
      </trkpt>
      <trkpt lat="44.21111" lon="4.61638">
        <ele>189</ele>
        <time>2012-06-08 09:58:59Z</time>
      </trkpt>
      <trkpt lat="44.21114" lon="4.61639">
        <ele>189</ele>
        <time>2012-06-08 09:59:03Z</time>
      </trkpt>
      <trkpt lat="44.2112" lon="4.61638">
        <ele>189</ele>
        <time>2012-06-08 09:59:07Z</time>
      </trkpt>
      <trkpt lat="44.2113" lon="4.61635">
        <ele>190</ele>
        <time>2012-06-08 09:59:11Z</time>
      </trkpt>
      <trkpt lat="44.21145" lon="4.61631">
        <ele>192</ele>
        <time>2012-06-08 09:59:15Z</time>
      </trkpt>
      <trkpt lat="44.21155" lon="4.61631">
        <ele>192</ele>
        <time>2012-06-08 09:59:19Z</time>
      </trkpt>
      <trkpt lat="44.21159" lon="4.6163">
        <ele>193</ele>
        <time>2012-06-08 09:59:23Z</time>
      </trkpt>
      <trkpt lat="44.21165" lon="4.61622">
        <ele>193</ele>
        <time>2012-06-08 09:59:27Z</time>
      </trkpt>
      <trkpt lat="44.21169" lon="4.61621">
        <ele>196</ele>
        <time>2012-06-08 09:59:31Z</time>
      </trkpt>
      <trkpt lat="44.2117" lon="4.6162">
        <ele>196</ele>
        <time>2012-06-08 09:59:35Z</time>
      </trkpt>
      <trkpt lat="44.21172" lon="4.6162">
        <ele>196</ele>
        <time>2012-06-08 09:59:39Z</time>
      </trkpt>
      <trkpt lat="44.21173" lon="4.6162">
        <ele>197</ele>
        <time>2012-06-08 09:59:43Z</time>
      </trkpt>
      <trkpt lat="44.21172" lon="4.61617">
        <ele>195</ele>
        <time>2012-06-08 09:59:47Z</time>
      </trkpt>
      <trkpt lat="44.21171" lon="4.61618">
        <ele>195</ele>
        <time>2012-06-08 09:59:51Z</time>
      </trkpt>
      <trkpt lat="44.21171" lon="4.61618">
        <ele>193</ele>
        <time>2012-06-08 09:59:55Z</time>
      </trkpt>
      <trkpt lat="44.21175" lon="4.6162">
        <ele>193</ele>
        <time>2012-06-08 09:59:59Z</time>
      </trkpt>
      <trkpt lat="44.21174" lon="4.61621">
        <ele>194</ele>
        <time>2012-06-08 10:00:03Z</time>
      </trkpt>
      <trkpt lat="44.21173" lon="4.61619">
        <ele>195</ele>
        <time>2012-06-08 10:00:07Z</time>
      </trkpt>
      <trkpt lat="44.21172" lon="4.61619">
        <ele>194</ele>
        <time>2012-06-08 10:00:11Z</time>
      </trkpt>
      <trkpt lat="44.21172" lon="4.6162">
        <ele>194</ele>
        <time>2012-06-08 10:00:15Z</time>
      </trkpt>
      <trkpt lat="44.21172" lon="4.6162">
        <ele>195</ele>
        <time>2012-06-08 10:00:19Z</time>
      </trkpt>
      <trkpt lat="44.21173" lon="4.61622">
        <ele>195</ele>
        <time>2012-06-08 10:00:23Z</time>
      </trkpt>
      <trkpt lat="44.21173" lon="4.61622">
        <ele>195</ele>
        <time>2012-06-08 10:00:27Z</time>
      </trkpt>
      <trkpt lat="44.21176" lon="4.6162">
        <ele>196</ele>
        <time>2012-06-08 10:00:31Z</time>
      </trkpt>
      <trkpt lat="44.21178" lon="4.6162">
        <ele>197</ele>
        <time>2012-06-08 10:00:35Z</time>
      </trkpt>
      <trkpt lat="44.21186" lon="4.61619">
        <ele>200</ele>
        <time>2012-06-08 10:00:39Z</time>
      </trkpt>
      <trkpt lat="44.21195" lon="4.61614">
        <ele>200</ele>
        <time>2012-06-08 10:00:43Z</time>
      </trkpt>
      <trkpt lat="44.21203" lon="4.61604">
        <ele>200</ele>
        <time>2012-06-08 10:00:47Z</time>
      </trkpt>
      <trkpt lat="44.21208" lon="4.61597">
        <ele>200</ele>
        <time>2012-06-08 10:00:51Z</time>
      </trkpt>
      <trkpt lat="44.21214" lon="4.61584">
        <ele>198</ele>
        <time>2012-06-08 10:00:55Z</time>
      </trkpt>
      <trkpt lat="44.21219" lon="4.6157">
        <ele>198</ele>
        <time>2012-06-08 10:00:59Z</time>
      </trkpt>
      <trkpt lat="44.21219" lon="4.6156">
        <ele>197</ele>
        <time>2012-06-08 10:01:03Z</time>
      </trkpt>
      <trkpt lat="44.21216" lon="4.61546">
        <ele>199</ele>
        <time>2012-06-08 10:01:07Z</time>
      </trkpt>
      <trkpt lat="44.21209" lon="4.61525">
        <ele>200</ele>
        <time>2012-06-08 10:01:11Z</time>
      </trkpt>
      <trkpt lat="44.21206" lon="4.61512">
        <ele>200</ele>
        <time>2012-06-08 10:01:15Z</time>
      </trkpt>
      <trkpt lat="44.21201" lon="4.61489">
        <ele>199</ele>
        <time>2012-06-08 10:01:19Z</time>
      </trkpt>
      <trkpt lat="44.212" lon="4.61482">
        <ele>199</ele>
        <time>2012-06-08 10:01:23Z</time>
      </trkpt>
      <trkpt lat="44.21202" lon="4.61475">
        <ele>198</ele>
        <time>2012-06-08 10:01:27Z</time>
      </trkpt>
      <trkpt lat="44.21206" lon="4.61469">
        <ele>199</ele>
        <time>2012-06-08 10:01:31Z</time>
      </trkpt>
      <trkpt lat="44.21211" lon="4.61469">
        <ele>198</ele>
        <time>2012-06-08 10:01:35Z</time>
      </trkpt>
      <trkpt lat="44.21214" lon="4.61473">
        <ele>198</ele>
        <time>2012-06-08 10:01:39Z</time>
      </trkpt>
      <trkpt lat="44.21213" lon="4.61477">
        <ele>199</ele>
        <time>2012-06-08 10:01:43Z</time>
      </trkpt>
      <trkpt lat="44.21218" lon="4.61477">
        <ele>199</ele>
        <time>2012-06-08 10:01:47Z</time>
      </trkpt>
      <trkpt lat="44.2123" lon="4.61479">
        <ele>200</ele>
        <time>2012-06-08 10:01:51Z</time>
      </trkpt>
      <trkpt lat="44.2124" lon="4.61482">
        <ele>199</ele>
        <time>2012-06-08 10:01:55Z</time>
      </trkpt>
      <trkpt lat="44.21249" lon="4.61482">
        <ele>201</ele>
        <time>2012-06-08 10:01:59Z</time>
      </trkpt>
      <trkpt lat="44.21258" lon="4.61484">
        <ele>201</ele>
        <time>2012-06-08 10:02:03Z</time>
      </trkpt>
      <trkpt lat="44.21265" lon="4.61486">
        <ele>201</ele>
        <time>2012-06-08 10:02:07Z</time>
      </trkpt>
      <trkpt lat="44.21272" lon="4.61486">
        <ele>200</ele>
        <time>2012-06-08 10:02:11Z</time>
      </trkpt>
      <trkpt lat="44.21281" lon="4.61491">
        <ele>199</ele>
        <time>2012-06-08 10:02:15Z</time>
      </trkpt>
      <trkpt lat="44.21293" lon="4.61498">
        <ele>200</ele>
        <time>2012-06-08 10:02:19Z</time>
      </trkpt>
      <trkpt lat="44.21304" lon="4.61506">
        <ele>200</ele>
        <time>2012-06-08 10:02:23Z</time>
      </trkpt>
      <trkpt lat="44.21312" lon="4.61515">
        <ele>202</ele>
        <time>2012-06-08 10:02:27Z</time>
      </trkpt>
      <trkpt lat="44.21324" lon="4.61524">
        <ele>202</ele>
        <time>2012-06-08 10:02:31Z</time>
      </trkpt>
      <trkpt lat="44.21333" lon="4.61533">
        <ele>202</ele>
        <time>2012-06-08 10:02:35Z</time>
      </trkpt>
      <trkpt lat="44.2134" lon="4.61539">
        <ele>202</ele>
        <time>2012-06-08 10:02:39Z</time>
      </trkpt>
      <trkpt lat="44.2135" lon="4.61546">
        <ele>200</ele>
        <time>2012-06-08 10:02:43Z</time>
      </trkpt>
      <trkpt lat="44.2136" lon="4.6155">
        <ele>198</ele>
        <time>2012-06-08 10:02:47Z</time>
      </trkpt>
      <trkpt lat="44.21375" lon="4.61556">
        <ele>197</ele>
        <time>2012-06-08 10:02:51Z</time>
      </trkpt>
      <trkpt lat="44.21389" lon="4.61563">
        <ele>192</ele>
        <time>2012-06-08 10:02:55Z</time>
      </trkpt>
      <trkpt lat="44.21399" lon="4.6156">
        <ele>191</ele>
        <time>2012-06-08 10:02:59Z</time>
      </trkpt>
      <trkpt lat="44.21401" lon="4.61548">
        <ele>189</ele>
        <time>2012-06-08 10:03:03Z</time>
      </trkpt>
      <trkpt lat="44.21397" lon="4.61533">
        <ele>188</ele>
        <time>2012-06-08 10:03:07Z</time>
      </trkpt>
      <trkpt lat="44.21395" lon="4.61516">
        <ele>190</ele>
        <time>2012-06-08 10:03:11Z</time>
      </trkpt>
      <trkpt lat="44.21392" lon="4.61507">
        <ele>190</ele>
        <time>2012-06-08 10:03:15Z</time>
      </trkpt>
      <trkpt lat="44.21389" lon="4.615">
        <ele>187</ele>
        <time>2012-06-08 10:03:19Z</time>
      </trkpt>
      <trkpt lat="44.21384" lon="4.61491">
        <ele>183</ele>
        <time>2012-06-08 10:03:23Z</time>
      </trkpt>
      <trkpt lat="44.2138" lon="4.61479">
        <ele>181</ele>
        <time>2012-06-08 10:03:27Z</time>
      </trkpt>
      <trkpt lat="44.21376" lon="4.61467">
        <ele>183</ele>
        <time>2012-06-08 10:03:31Z</time>
      </trkpt>
      <trkpt lat="44.21376" lon="4.61455">
        <ele>180</ele>
        <time>2012-06-08 10:03:35Z</time>
      </trkpt>
      <trkpt lat="44.21373" lon="4.61442">
        <ele>177</ele>
        <time>2012-06-08 10:03:39Z</time>
      </trkpt>
      <trkpt lat="44.21373" lon="4.61429">
        <ele>177</ele>
        <time>2012-06-08 10:03:43Z</time>
      </trkpt>
      <trkpt lat="44.21376" lon="4.61425">
        <ele>178</ele>
        <time>2012-06-08 10:03:47Z</time>
      </trkpt>
      <trkpt lat="44.21384" lon="4.61421">
        <ele>175</ele>
        <time>2012-06-08 10:03:51Z</time>
      </trkpt>
      <trkpt lat="44.21392" lon="4.61412">
        <ele>177</ele>
        <time>2012-06-08 10:03:55Z</time>
      </trkpt>
      <trkpt lat="44.21402" lon="4.61404">
        <ele>175</ele>
        <time>2012-06-08 10:03:59Z</time>
      </trkpt>
      <trkpt lat="44.21413" lon="4.61396">
        <ele>177</ele>
        <time>2012-06-08 10:04:03Z</time>
      </trkpt>
      <trkpt lat="44.21418" lon="4.61393">
        <ele>177</ele>
        <time>2012-06-08 10:04:07Z</time>
      </trkpt>
      <trkpt lat="44.21418" lon="4.61393">
        <ele>174</ele>
        <time>2012-06-08 10:04:11Z</time>
      </trkpt>
      <trkpt lat="44.21417" lon="4.61394">
        <ele>173</ele>
        <time>2012-06-08 10:04:15Z</time>
      </trkpt>
      <trkpt lat="44.21421" lon="4.6139">
        <ele>172</ele>
        <time>2012-06-08 10:04:19Z</time>
      </trkpt>
      <trkpt lat="44.21428" lon="4.61383">
        <ele>171</ele>
        <time>2012-06-08 10:04:23Z</time>
      </trkpt>
      <trkpt lat="44.21433" lon="4.61378">
        <ele>169</ele>
        <time>2012-06-08 10:04:27Z</time>
      </trkpt>
      <trkpt lat="44.2144" lon="4.61371">
        <ele>167</ele>
        <time>2012-06-08 10:04:31Z</time>
      </trkpt>
      <trkpt lat="44.21448" lon="4.61363">
        <ele>164</ele>
        <time>2012-06-08 10:04:35Z</time>
      </trkpt>
      <trkpt lat="44.21452" lon="4.61358">
        <ele>164</ele>
        <time>2012-06-08 10:04:39Z</time>
      </trkpt>
      <trkpt lat="44.21452" lon="4.61353">
        <ele>162</ele>
        <time>2012-06-08 10:04:43Z</time>
      </trkpt>
      <trkpt lat="44.2145" lon="4.61351">
        <ele>164</ele>
        <time>2012-06-08 10:04:47Z</time>
      </trkpt>
      <trkpt lat="44.21447" lon="4.61351">
        <ele>165</ele>
        <time>2012-06-08 10:04:51Z</time>
      </trkpt>
      <trkpt lat="44.21446" lon="4.61352">
        <ele>157</ele>
        <time>2012-06-08 10:04:55Z</time>
      </trkpt>
      <trkpt lat="44.21446" lon="4.61353">
        <ele>158</ele>
        <time>2012-06-08 10:04:59Z</time>
      </trkpt>
      <trkpt lat="44.21447" lon="4.61351">
        <ele>160</ele>
        <time>2012-06-08 10:05:03Z</time>
      </trkpt>
      <trkpt lat="44.21447" lon="4.61349">
        <ele>161</ele>
        <time>2012-06-08 10:05:07Z</time>
      </trkpt>
      <trkpt lat="44.21447" lon="4.61349">
        <ele>162</ele>
        <time>2012-06-08 10:05:11Z</time>
      </trkpt>
      <trkpt lat="44.21446" lon="4.6135">
        <ele>163</ele>
        <time>2012-06-08 10:05:15Z</time>
      </trkpt>
      <trkpt lat="44.21446" lon="4.6135">
        <ele>164</ele>
        <time>2012-06-08 10:05:19Z</time>
      </trkpt>
      <trkpt lat="44.21446" lon="4.6135">
        <ele>164</ele>
        <time>2012-06-08 10:05:23Z</time>
      </trkpt>
      <trkpt lat="44.21447" lon="4.61351">
        <ele>164</ele>
        <time>2012-06-08 10:05:27Z</time>
      </trkpt>
      <trkpt lat="44.21447" lon="4.61351">
        <ele>163</ele>
        <time>2012-06-08 10:05:31Z</time>
      </trkpt>
      <trkpt lat="44.21446" lon="4.61347">
        <ele>167</ele>
        <time>2012-06-08 10:05:35Z</time>
      </trkpt>
      <trkpt lat="44.21444" lon="4.61345">
        <ele>167</ele>
        <time>2012-06-08 10:05:39Z</time>
      </trkpt>
      <trkpt lat="44.21438" lon="4.61339">
        <ele>166</ele>
        <time>2012-06-08 10:05:43Z</time>
      </trkpt>
      <trkpt lat="44.21433" lon="4.61334">
        <ele>166</ele>
        <time>2012-06-08 10:05:47Z</time>
      </trkpt>
      <trkpt lat="44.21429" lon="4.6133">
        <ele>166</ele>
        <time>2012-06-08 10:05:51Z</time>
      </trkpt>
      <trkpt lat="44.21428" lon="4.61322">
        <ele>166</ele>
        <time>2012-06-08 10:05:55Z</time>
      </trkpt>
      <trkpt lat="44.21428" lon="4.61314">
        <ele>166</ele>
        <time>2012-06-08 10:05:59Z</time>
      </trkpt>
      <trkpt lat="44.21426" lon="4.61307">
        <ele>166</ele>
        <time>2012-06-08 10:06:03Z</time>
      </trkpt>
      <trkpt lat="44.2142" lon="4.613">
        <ele>165</ele>
        <time>2012-06-08 10:06:07Z</time>
      </trkpt>
      <trkpt lat="44.21409" lon="4.61296">
        <ele>166</ele>
        <time>2012-06-08 10:06:11Z</time>
      </trkpt>
      <trkpt lat="44.21402" lon="4.61293">
        <ele>167</ele>
        <time>2012-06-08 10:06:15Z</time>
      </trkpt>
      <trkpt lat="44.21394" lon="4.61289">
        <ele>167</ele>
        <time>2012-06-08 10:06:19Z</time>
      </trkpt>
      <trkpt lat="44.21383" lon="4.61286">
        <ele>165</ele>
        <time>2012-06-08 10:06:23Z</time>
      </trkpt>
      <trkpt lat="44.21376" lon="4.61278">
        <ele>165</ele>
        <time>2012-06-08 10:06:27Z</time>
      </trkpt>
      <trkpt lat="44.21368" lon="4.61272">
        <ele>165</ele>
        <time>2012-06-08 10:06:31Z</time>
      </trkpt>
      <trkpt lat="44.21359" lon="4.61265">
        <ele>164</ele>
        <time>2012-06-08 10:06:35Z</time>
      </trkpt>
      <trkpt lat="44.21348" lon="4.61263">
        <ele>163</ele>
        <time>2012-06-08 10:06:39Z</time>
      </trkpt>
      <trkpt lat="44.21339" lon="4.6126">
        <ele>161</ele>
        <time>2012-06-08 10:06:43Z</time>
      </trkpt>
      <trkpt lat="44.21331" lon="4.61259">
        <ele>160</ele>
        <time>2012-06-08 10:06:47Z</time>
      </trkpt>
      <trkpt lat="44.21324" lon="4.61259">
        <ele>159</ele>
        <time>2012-06-08 10:06:51Z</time>
      </trkpt>
      <trkpt lat="44.21315" lon="4.61259">
        <ele>160</ele>
        <time>2012-06-08 10:06:55Z</time>
      </trkpt>
      <trkpt lat="44.21307" lon="4.61261">
        <ele>162</ele>
        <time>2012-06-08 10:06:59Z</time>
      </trkpt>
      <trkpt lat="44.21303" lon="4.61263">
        <ele>162</ele>
        <time>2012-06-08 10:07:03Z</time>
      </trkpt>
      <trkpt lat="44.21301" lon="4.61266">
        <ele>163</ele>
        <time>2012-06-08 10:07:07Z</time>
      </trkpt>
      <trkpt lat="44.21298" lon="4.61268">
        <ele>165</ele>
        <time>2012-06-08 10:07:11Z</time>
      </trkpt>
      <trkpt lat="44.21295" lon="4.61268">
        <ele>165</ele>
        <time>2012-06-08 10:07:15Z</time>
      </trkpt>
      <trkpt lat="44.21291" lon="4.6127">
        <ele>167</ele>
        <time>2012-06-08 10:07:19Z</time>
      </trkpt>
      <trkpt lat="44.21289" lon="4.61273">
        <ele>168</ele>
        <time>2012-06-08 10:07:23Z</time>
      </trkpt>
      <trkpt lat="44.21286" lon="4.61276">
        <ele>169</ele>
        <time>2012-06-08 10:07:27Z</time>
      </trkpt>
      <trkpt lat="44.21283" lon="4.61278">
        <ele>171</ele>
        <time>2012-06-08 10:07:31Z</time>
      </trkpt>
      <trkpt lat="44.2128" lon="4.61281">
        <ele>171</ele>
        <time>2012-06-08 10:07:35Z</time>
      </trkpt>
      <trkpt lat="44.21277" lon="4.61285">
        <ele>172</ele>
        <time>2012-06-08 10:07:39Z</time>
      </trkpt>
      <trkpt lat="44.21273" lon="4.61291">
        <ele>172</ele>
        <time>2012-06-08 10:07:43Z</time>
      </trkpt>
      <trkpt lat="44.2127" lon="4.61291">
        <ele>172</ele>
        <time>2012-06-08 10:07:47Z</time>
      </trkpt>
      <trkpt lat="44.21269" lon="4.61293">
        <ele>175</ele>
        <time>2012-06-08 10:07:51Z</time>
      </trkpt>
      <trkpt lat="44.21267" lon="4.61293">
        <ele>176</ele>
        <time>2012-06-08 10:07:55Z</time>
      </trkpt>
      <trkpt lat="44.21265" lon="4.61295">
        <ele>177</ele>
        <time>2012-06-08 10:07:59Z</time>
      </trkpt>
      <trkpt lat="44.21263" lon="4.61295">
        <ele>178</ele>
        <time>2012-06-08 10:08:03Z</time>
      </trkpt>
      <trkpt lat="44.21262" lon="4.61296">
        <ele>180</ele>
        <time>2012-06-08 10:08:07Z</time>
      </trkpt>
      <trkpt lat="44.21261" lon="4.61296">
        <ele>180</ele>
        <time>2012-06-08 10:08:11Z</time>
      </trkpt>
      <trkpt lat="44.21261" lon="4.61296">
        <ele>180</ele>
        <time>2012-06-08 10:08:15Z</time>
      </trkpt>
      <trkpt lat="44.2126" lon="4.61295">
        <ele>183</ele>
        <time>2012-06-08 10:08:19Z</time>
      </trkpt>
      <trkpt lat="44.21257" lon="4.61297">
        <ele>185</ele>
        <time>2012-06-08 10:08:23Z</time>
      </trkpt>
      <trkpt lat="44.21255" lon="4.61298">
        <ele>186</ele>
        <time>2012-06-08 10:08:27Z</time>
      </trkpt>
      <trkpt lat="44.21255" lon="4.61297">
        <ele>184</ele>
        <time>2012-06-08 10:08:31Z</time>
      </trkpt>
      <trkpt lat="44.21256" lon="4.61298">
        <ele>186</ele>
        <time>2012-06-08 10:08:35Z</time>
      </trkpt>
      <trkpt lat="44.21252" lon="4.61299">
        <ele>186</ele>
        <time>2012-06-08 10:08:39Z</time>
      </trkpt>
      <trkpt lat="44.21249" lon="4.613">
        <ele>189</ele>
        <time>2012-06-08 10:08:43Z</time>
      </trkpt>
      <trkpt lat="44.21244" lon="4.61301">
        <ele>189</ele>
        <time>2012-06-08 10:08:47Z</time>
      </trkpt>
      <trkpt lat="44.21241" lon="4.613">
        <ele>189</ele>
        <time>2012-06-08 10:08:51Z</time>
      </trkpt>
      <trkpt lat="44.21238" lon="4.61297">
        <ele>189</ele>
        <time>2012-06-08 10:08:55Z</time>
      </trkpt>
      <trkpt lat="44.21233" lon="4.61295">
        <ele>189</ele>
        <time>2012-06-08 10:08:59Z</time>
      </trkpt>
      <trkpt lat="44.21228" lon="4.61296">
        <ele>190</ele>
        <time>2012-06-08 10:09:03Z</time>
      </trkpt>
      <trkpt lat="44.21223" lon="4.61292">
        <ele>191</ele>
        <time>2012-06-08 10:09:07Z</time>
      </trkpt>
      <trkpt lat="44.21222" lon="4.61286">
        <ele>191</ele>
        <time>2012-06-08 10:09:11Z</time>
      </trkpt>
      <trkpt lat="44.21222" lon="4.61277">
        <ele>191</ele>
        <time>2012-06-08 10:09:15Z</time>
      </trkpt>
      <trkpt lat="44.21217" lon="4.6128">
        <ele>191</ele>
        <time>2012-06-08 10:09:19Z</time>
      </trkpt>
      <trkpt lat="44.21208" lon="4.61285">
        <ele>189</ele>
        <time>2012-06-08 10:09:23Z</time>
      </trkpt>
      <trkpt lat="44.21206" lon="4.61287">
        <ele>188</ele>
        <time>2012-06-08 10:09:27Z</time>
      </trkpt>
      <trkpt lat="44.21206" lon="4.6129">
        <ele>188</ele>
        <time>2012-06-08 10:09:31Z</time>
      </trkpt>
      <trkpt lat="44.21206" lon="4.6129">
        <ele>189</ele>
        <time>2012-06-08 10:09:35Z</time>
      </trkpt>
      <trkpt lat="44.21206" lon="4.6129">
        <ele>189</ele>
        <time>2012-06-08 10:09:39Z</time>
      </trkpt>
      <trkpt lat="44.21206" lon="4.61293">
        <ele>187</ele>
        <time>2012-06-08 10:09:43Z</time>
      </trkpt>
      <trkpt lat="44.21205" lon="4.61294">
        <ele>187</ele>
        <time>2012-06-08 10:09:47Z</time>
      </trkpt>
      <trkpt lat="44.21204" lon="4.61295">
        <ele>185</ele>
        <time>2012-06-08 10:09:51Z</time>
      </trkpt>
      <trkpt lat="44.21203" lon="4.61299">
        <ele>188</ele>
        <time>2012-06-08 10:09:55Z</time>
      </trkpt>
      <trkpt lat="44.21203" lon="4.61297">
        <ele>188</ele>
        <time>2012-06-08 10:09:59Z</time>
      </trkpt>
      <trkpt lat="44.21204" lon="4.61295">
        <ele>189</ele>
        <time>2012-06-08 10:10:03Z</time>
      </trkpt>
      <trkpt lat="44.21204" lon="4.61295">
        <ele>190</ele>
        <time>2012-06-08 10:10:07Z</time>
      </trkpt>
      <trkpt lat="44.21204" lon="4.61295">
        <ele>189</ele>
        <time>2012-06-08 10:10:11Z</time>
      </trkpt>
      <trkpt lat="44.21207" lon="4.61296">
        <ele>191</ele>
        <time>2012-06-08 10:10:15Z</time>
      </trkpt>
      <trkpt lat="44.21204" lon="4.61297">
        <ele>192</ele>
        <time>2012-06-08 10:10:19Z</time>
      </trkpt>
      <trkpt lat="44.212" lon="4.61297">
        <ele>192</ele>
        <time>2012-06-08 10:10:23Z</time>
      </trkpt>
      <trkpt lat="44.21198" lon="4.61296">
        <ele>192</ele>
        <time>2012-06-08 10:10:27Z</time>
      </trkpt>
      <trkpt lat="44.21194" lon="4.61297">
        <ele>191</ele>
        <time>2012-06-08 10:10:31Z</time>
      </trkpt>
      <trkpt lat="44.21187" lon="4.61296">
        <ele>193</ele>
        <time>2012-06-08 10:10:35Z</time>
      </trkpt>
      <trkpt lat="44.21184" lon="4.61295">
        <ele>194</ele>
        <time>2012-06-08 10:10:39Z</time>
      </trkpt>
      <trkpt lat="44.21178" lon="4.61294">
        <ele>193</ele>
        <time>2012-06-08 10:10:43Z</time>
      </trkpt>
      <trkpt lat="44.21174" lon="4.61294">
        <ele>191</ele>
        <time>2012-06-08 10:10:47Z</time>
      </trkpt>
      <trkpt lat="44.21172" lon="4.61296">
        <ele>192</ele>
        <time>2012-06-08 10:10:51Z</time>
      </trkpt>
      <trkpt lat="44.2117" lon="4.61295">
        <ele>192</ele>
        <time>2012-06-08 10:10:55Z</time>
      </trkpt>
      <trkpt lat="44.21167" lon="4.61293">
        <ele>193</ele>
        <time>2012-06-08 10:10:59Z</time>
      </trkpt>
      <trkpt lat="44.21163" lon="4.6129">
        <ele>193</ele>
        <time>2012-06-08 10:11:03Z</time>
      </trkpt>
      <trkpt lat="44.21159" lon="4.61289">
        <ele>191</ele>
        <time>2012-06-08 10:11:07Z</time>
      </trkpt>
      <trkpt lat="44.21154" lon="4.61291">
        <ele>188</ele>
        <time>2012-06-08 10:11:11Z</time>
      </trkpt>
      <trkpt lat="44.21149" lon="4.61295">
        <ele>189</ele>
        <time>2012-06-08 10:11:15Z</time>
      </trkpt>
      <trkpt lat="44.21148" lon="4.61298">
        <ele>192</ele>
        <time>2012-06-08 10:11:19Z</time>
      </trkpt>
      <trkpt lat="44.21148" lon="4.61299">
        <ele>192</ele>
        <time>2012-06-08 10:11:23Z</time>
      </trkpt>
      <trkpt lat="44.21145" lon="4.61302">
        <ele>191</ele>
        <time>2012-06-08 10:11:27Z</time>
      </trkpt>
      <trkpt lat="44.21142" lon="4.61308">
        <ele>193</ele>
        <time>2012-06-08 10:11:31Z</time>
      </trkpt>
      <trkpt lat="44.2114" lon="4.61309">
        <ele>191</ele>
        <time>2012-06-08 10:11:35Z</time>
      </trkpt>
      <trkpt lat="44.2114" lon="4.61309">
        <ele>192</ele>
        <time>2012-06-08 10:11:39Z</time>
      </trkpt>
      <trkpt lat="44.2114" lon="4.61309">
        <ele>194</ele>
        <time>2012-06-08 10:11:43Z</time>
      </trkpt>
      <trkpt lat="44.21142" lon="4.61307">
        <ele>194</ele>
        <time>2012-06-08 10:11:47Z</time>
      </trkpt>
      <trkpt lat="44.2114" lon="4.61308">
        <ele>194</ele>
        <time>2012-06-08 10:11:51Z</time>
      </trkpt>
      <trkpt lat="44.21135" lon="4.61312">
        <ele>195</ele>
        <time>2012-06-08 10:11:55Z</time>
      </trkpt>
      <trkpt lat="44.2113" lon="4.61315">
        <ele>195</ele>
        <time>2012-06-08 10:11:59Z</time>
      </trkpt>
      <trkpt lat="44.21124" lon="4.61317">
        <ele>195</ele>
        <time>2012-06-08 10:12:03Z</time>
      </trkpt>
      <trkpt lat="44.21118" lon="4.61318">
        <ele>195</ele>
        <time>2012-06-08 10:12:07Z</time>
      </trkpt>
      <trkpt lat="44.21111" lon="4.61319">
        <ele>195</ele>
        <time>2012-06-08 10:12:11Z</time>
      </trkpt>
      <trkpt lat="44.21105" lon="4.61323">
        <ele>196</ele>
        <time>2012-06-08 10:12:15Z</time>
      </trkpt>
      <trkpt lat="44.21101" lon="4.61323">
        <ele>196</ele>
        <time>2012-06-08 10:12:19Z</time>
      </trkpt>
      <trkpt lat="44.21095" lon="4.61323">
        <ele>196</ele>
        <time>2012-06-08 10:12:23Z</time>
      </trkpt>
      <trkpt lat="44.21088" lon="4.61325">
        <ele>197</ele>
        <time>2012-06-08 10:12:27Z</time>
      </trkpt>
      <trkpt lat="44.21082" lon="4.61329">
        <ele>198</ele>
        <time>2012-06-08 10:12:31Z</time>
      </trkpt>
      <trkpt lat="44.21076" lon="4.61333">
        <ele>197</ele>
        <time>2012-06-08 10:12:35Z</time>
      </trkpt>
      <trkpt lat="44.21069" lon="4.61336">
        <ele>197</ele>
        <time>2012-06-08 10:12:39Z</time>
      </trkpt>
      <trkpt lat="44.21061" lon="4.61337">
        <ele>198</ele>
        <time>2012-06-08 10:12:43Z</time>
      </trkpt>
      <trkpt lat="44.21053" lon="4.61339">
        <ele>200</ele>
        <time>2012-06-08 10:12:47Z</time>
      </trkpt>
      <trkpt lat="44.21046" lon="4.61339">
        <ele>201</ele>
        <time>2012-06-08 10:12:51Z</time>
      </trkpt>
      <trkpt lat="44.2104" lon="4.61341">
        <ele>202</ele>
        <time>2012-06-08 10:12:55Z</time>
      </trkpt>
      <trkpt lat="44.21033" lon="4.61343">
        <ele>203</ele>
        <time>2012-06-08 10:12:59Z</time>
      </trkpt>
      <trkpt lat="44.21022" lon="4.61345">
        <ele>202</ele>
        <time>2012-06-08 10:13:03Z</time>
      </trkpt>
      <trkpt lat="44.21018" lon="4.61351">
        <ele>201</ele>
        <time>2012-06-08 10:13:07Z</time>
      </trkpt>
      <trkpt lat="44.21013" lon="4.61351">
        <ele>203</ele>
        <time>2012-06-08 10:13:11Z</time>
      </trkpt>
      <trkpt lat="44.21004" lon="4.61349">
        <ele>201</ele>
        <time>2012-06-08 10:13:15Z</time>
      </trkpt>
      <trkpt lat="44.20996" lon="4.61344">
        <ele>199</ele>
        <time>2012-06-08 10:13:19Z</time>
      </trkpt>
      <trkpt lat="44.20993" lon="4.61337">
        <ele>200</ele>
        <time>2012-06-08 10:13:23Z</time>
      </trkpt>
      <trkpt lat="44.20984" lon="4.61326">
        <ele>198</ele>
        <time>2012-06-08 10:13:27Z</time>
      </trkpt>
      <trkpt lat="44.20979" lon="4.61319">
        <ele>198</ele>
        <time>2012-06-08 10:13:31Z</time>
      </trkpt>
      <trkpt lat="44.20971" lon="4.61311">
        <ele>200</ele>
        <time>2012-06-08 10:13:35Z</time>
      </trkpt>
      <trkpt lat="44.20959" lon="4.61299">
        <ele>199</ele>
        <time>2012-06-08 10:13:39Z</time>
      </trkpt>
      <trkpt lat="44.2095" lon="4.61293">
        <ele>199</ele>
        <time>2012-06-08 10:13:43Z</time>
      </trkpt>
      <trkpt lat="44.20939" lon="4.61285">
        <ele>199</ele>
        <time>2012-06-08 10:13:47Z</time>
      </trkpt>
      <trkpt lat="44.20932" lon="4.61275">
        <ele>198</ele>
        <time>2012-06-08 10:13:51Z</time>
      </trkpt>
      <trkpt lat="44.20922" lon="4.61261">
        <ele>194</ele>
        <time>2012-06-08 10:13:55Z</time>
      </trkpt>
      <trkpt lat="44.20914" lon="4.61251">
        <ele>195</ele>
        <time>2012-06-08 10:13:59Z</time>
      </trkpt>
      <trkpt lat="44.20903" lon="4.61238">
        <ele>197</ele>
        <time>2012-06-08 10:14:03Z</time>
      </trkpt>
      <trkpt lat="44.20895" lon="4.61229">
        <ele>194</ele>
        <time>2012-06-08 10:14:07Z</time>
      </trkpt>
      <trkpt lat="44.20891" lon="4.61221">
        <ele>192</ele>
        <time>2012-06-08 10:14:11Z</time>
      </trkpt>
      <trkpt lat="44.20896" lon="4.61216">
        <ele>193</ele>
        <time>2012-06-08 10:14:15Z</time>
      </trkpt>
      <trkpt lat="44.20904" lon="4.61219">
        <ele>193</ele>
        <time>2012-06-08 10:14:19Z</time>
      </trkpt>
      <trkpt lat="44.2091" lon="4.61218">
        <ele>193</ele>
        <time>2012-06-08 10:14:23Z</time>
      </trkpt>
      <trkpt lat="44.20911" lon="4.61221">
        <ele>194</ele>
        <time>2012-06-08 10:14:27Z</time>
      </trkpt>
      <trkpt lat="44.20913" lon="4.61223">
        <ele>196</ele>
        <time>2012-06-08 10:14:31Z</time>
      </trkpt>
      <trkpt lat="44.20913" lon="4.61226">
        <ele>196</ele>
        <time>2012-06-08 10:14:35Z</time>
      </trkpt>
      <trkpt lat="44.20914" lon="4.61229">
        <ele>201</ele>
        <time>2012-06-08 10:14:39Z</time>
      </trkpt>
      <trkpt lat="44.20915" lon="4.61229">
        <ele>202</ele>
        <time>2012-06-08 10:14:43Z</time>
      </trkpt>
      <trkpt lat="44.20918" lon="4.61229">
        <ele>200</ele>
        <time>2012-06-08 10:14:47Z</time>
      </trkpt>
      <trkpt lat="44.20921" lon="4.61231">
        <ele>203</ele>
        <time>2012-06-08 10:14:51Z</time>
      </trkpt>
      <trkpt lat="44.20925" lon="4.61234">
        <ele>204</ele>
        <time>2012-06-08 10:14:55Z</time>
      </trkpt>
      <trkpt lat="44.20928" lon="4.61235">
        <ele>203</ele>
        <time>2012-06-08 10:14:59Z</time>
      </trkpt>
      <trkpt lat="44.20929" lon="4.61234">
        <ele>205</ele>
        <time>2012-06-08 10:15:03Z</time>
      </trkpt>
      <trkpt lat="44.20929" lon="4.61234">
        <ele>205</ele>
        <time>2012-06-08 10:15:07Z</time>
      </trkpt>
      <trkpt lat="44.20929" lon="4.61234">
        <ele>205</ele>
        <time>2012-06-08 10:15:11Z</time>
      </trkpt>
      <trkpt lat="44.20932" lon="4.61236">
        <ele>202</ele>
        <time>2012-06-08 10:15:15Z</time>
      </trkpt>
      <trkpt lat="44.20933" lon="4.61237">
        <ele>203</ele>
        <time>2012-06-08 10:15:19Z</time>
      </trkpt>
      <trkpt lat="44.20933" lon="4.61237">
        <ele>202</ele>
        <time>2012-06-08 10:15:23Z</time>
      </trkpt>
      <trkpt lat="44.20931" lon="4.61236">
        <ele>202</ele>
        <time>2012-06-08 10:15:27Z</time>
      </trkpt>
      <trkpt lat="44.20931" lon="4.61235">
        <ele>201</ele>
        <time>2012-06-08 10:15:31Z</time>
      </trkpt>
      <trkpt lat="44.2093" lon="4.61236">
        <ele>202</ele>
        <time>2012-06-08 10:15:35Z</time>
      </trkpt>
      <trkpt lat="44.2093" lon="4.61237">
        <ele>202</ele>
        <time>2012-06-08 10:15:39Z</time>
      </trkpt>
      <trkpt lat="44.2093" lon="4.61237">
        <ele>203</ele>
        <time>2012-06-08 10:15:43Z</time>
      </trkpt>
      <trkpt lat="44.20931" lon="4.61235">
        <ele>204</ele>
        <time>2012-06-08 10:15:47Z</time>
      </trkpt>
      <trkpt lat="44.20931" lon="4.61235">
        <ele>205</ele>
        <time>2012-06-08 10:15:51Z</time>
      </trkpt>
      <trkpt lat="44.20931" lon="4.61235">
        <ele>205</ele>
        <time>2012-06-08 10:15:55Z</time>
      </trkpt>
      <trkpt lat="44.20931" lon="4.61235">
        <ele>205</ele>
        <time>2012-06-08 10:15:59Z</time>
      </trkpt>
      <trkpt lat="44.20931" lon="4.61235">
        <ele>205</ele>
        <time>2012-06-08 10:16:03Z</time>
      </trkpt>
      <trkpt lat="44.20933" lon="4.61241">
        <ele>205</ele>
        <time>2012-06-08 10:16:07Z</time>
      </trkpt>
      <trkpt lat="44.20942" lon="4.61241">
        <ele>203</ele>
        <time>2012-06-08 10:16:11Z</time>
      </trkpt>
      <trkpt lat="44.20949" lon="4.61243">
        <ele>203</ele>
        <time>2012-06-08 10:16:15Z</time>
      </trkpt>
      <trkpt lat="44.20957" lon="4.6125">
        <ele>203</ele>
        <time>2012-06-08 10:16:19Z</time>
      </trkpt>
      <trkpt lat="44.20964" lon="4.61253">
        <ele>203</ele>
        <time>2012-06-08 10:16:23Z</time>
      </trkpt>
      <trkpt lat="44.2097" lon="4.61257">
        <ele>203</ele>
        <time>2012-06-08 10:16:27Z</time>
      </trkpt>
      <trkpt lat="44.20973" lon="4.61259">
        <ele>203</ele>
        <time>2012-06-08 10:16:31Z</time>
      </trkpt>
      <trkpt lat="44.20978" lon="4.61261">
        <ele>204</ele>
        <time>2012-06-08 10:16:35Z</time>
      </trkpt>
      <trkpt lat="44.20981" lon="4.61253">
        <ele>202</ele>
        <time>2012-06-08 10:16:39Z</time>
      </trkpt>
      <trkpt lat="44.20989" lon="4.61239">
        <ele>201</ele>
        <time>2012-06-08 10:16:43Z</time>
      </trkpt>
      <trkpt lat="44.20995" lon="4.61232">
        <ele>202</ele>
        <time>2012-06-08 10:16:47Z</time>
      </trkpt>
      <trkpt lat="44.21003" lon="4.61226">
        <ele>202</ele>
        <time>2012-06-08 10:16:51Z</time>
      </trkpt>
      <trkpt lat="44.21011" lon="4.61219">
        <ele>201</ele>
        <time>2012-06-08 10:16:55Z</time>
      </trkpt>
      <trkpt lat="44.21019" lon="4.61215">
        <ele>202</ele>
        <time>2012-06-08 10:16:59Z</time>
      </trkpt>
      <trkpt lat="44.21026" lon="4.61217">
        <ele>201</ele>
        <time>2012-06-08 10:17:03Z</time>
      </trkpt>
      <trkpt lat="44.21026" lon="4.61222">
        <ele>200</ele>
        <time>2012-06-08 10:17:07Z</time>
      </trkpt>
      <trkpt lat="44.21025" lon="4.61229">
        <ele>200</ele>
        <time>2012-06-08 10:17:11Z</time>
      </trkpt>
      <trkpt lat="44.21024" lon="4.61235">
        <ele>200</ele>
        <time>2012-06-08 10:17:15Z</time>
      </trkpt>
      <trkpt lat="44.21026" lon="4.61235">
        <ele>198</ele>
        <time>2012-06-08 10:17:19Z</time>
      </trkpt>
      <trkpt lat="44.2103" lon="4.6124">
        <ele>197</ele>
        <time>2012-06-08 10:17:23Z</time>
      </trkpt>
      <trkpt lat="44.21035" lon="4.61246">
        <ele>196</ele>
        <time>2012-06-08 10:17:27Z</time>
      </trkpt>
      <trkpt lat="44.2104" lon="4.61249">
        <ele>196</ele>
        <time>2012-06-08 10:17:31Z</time>
      </trkpt>
      <trkpt lat="44.21042" lon="4.61249">
        <ele>194</ele>
        <time>2012-06-08 10:17:35Z</time>
      </trkpt>
      <trkpt lat="44.21044" lon="4.61249">
        <ele>194</ele>
        <time>2012-06-08 10:17:39Z</time>
      </trkpt>
      <trkpt lat="44.21045" lon="4.61248">
        <ele>194</ele>
        <time>2012-06-08 10:17:43Z</time>
      </trkpt>
      <trkpt lat="44.2105" lon="4.61245">
        <ele>193</ele>
        <time>2012-06-08 10:17:47Z</time>
      </trkpt>
      <trkpt lat="44.21056" lon="4.6124">
        <ele>192</ele>
        <time>2012-06-08 10:17:51Z</time>
      </trkpt>
      <trkpt lat="44.21061" lon="4.61236">
        <ele>192</ele>
        <time>2012-06-08 10:17:55Z</time>
      </trkpt>
      <trkpt lat="44.21068" lon="4.61228">
        <ele>192</ele>
        <time>2012-06-08 10:17:59Z</time>
      </trkpt>
      <trkpt lat="44.21077" lon="4.61223">
        <ele>191</ele>
        <time>2012-06-08 10:18:03Z</time>
      </trkpt>
      <trkpt lat="44.21091" lon="4.61218">
        <ele>191</ele>
        <time>2012-06-08 10:18:07Z</time>
      </trkpt>
      <trkpt lat="44.21104" lon="4.61213">
        <ele>191</ele>
        <time>2012-06-08 10:18:11Z</time>
      </trkpt>
      <trkpt lat="44.21114" lon="4.61205">
        <ele>191</ele>
        <time>2012-06-08 10:18:15Z</time>
      </trkpt>
      <trkpt lat="44.21122" lon="4.61195">
        <ele>190</ele>
        <time>2012-06-08 10:18:19Z</time>
      </trkpt>
      <trkpt lat="44.2113" lon="4.61184">
        <ele>189</ele>
        <time>2012-06-08 10:18:23Z</time>
      </trkpt>
      <trkpt lat="44.21137" lon="4.61165">
        <ele>188</ele>
        <time>2012-06-08 10:18:27Z</time>
      </trkpt>
      <trkpt lat="44.21143" lon="4.61141">
        <ele>185</ele>
        <time>2012-06-08 10:18:31Z</time>
      </trkpt>
      <trkpt lat="44.21144" lon="4.61126">
        <ele>177</ele>
        <time>2012-06-08 10:18:35Z</time>
      </trkpt>
      <trkpt lat="44.21145" lon="4.61121">
        <ele>175</ele>
        <time>2012-06-08 10:18:39Z</time>
      </trkpt>
      <trkpt lat="44.21146" lon="4.61116">
        <ele>174</ele>
        <time>2012-06-08 10:18:43Z</time>
      </trkpt>
      <trkpt lat="44.2115" lon="4.61111">
        <ele>170</ele>
        <time>2012-06-08 10:18:47Z</time>
      </trkpt>
      <trkpt lat="44.21161" lon="4.61102">
        <ele>169</ele>
        <time>2012-06-08 10:18:51Z</time>
      </trkpt>
      <trkpt lat="44.2117" lon="4.61093">
        <ele>169</ele>
        <time>2012-06-08 10:18:55Z</time>
      </trkpt>
      <trkpt lat="44.21182" lon="4.6108">
        <ele>168</ele>
        <time>2012-06-08 10:18:59Z</time>
      </trkpt>
      <trkpt lat="44.21196" lon="4.61067">
        <ele>167</ele>
        <time>2012-06-08 10:19:03Z</time>
      </trkpt>
      <trkpt lat="44.21207" lon="4.61046">
        <ele>164</ele>
        <time>2012-06-08 10:19:07Z</time>
      </trkpt>
      <trkpt lat="44.21214" lon="4.61025">
        <ele>164</ele>
        <time>2012-06-08 10:19:11Z</time>
      </trkpt>
      <trkpt lat="44.21211" lon="4.61014">
        <ele>162</ele>
        <time>2012-06-08 10:19:15Z</time>
      </trkpt>
      <trkpt lat="44.21211" lon="4.6101">
        <ele>163</ele>
        <time>2012-06-08 10:19:19Z</time>
      </trkpt>
      <trkpt lat="44.21212" lon="4.6101">
        <ele>162</ele>
        <time>2012-06-08 10:19:23Z</time>
      </trkpt>
      <trkpt lat="44.21213" lon="4.61013">
        <ele>163</ele>
        <time>2012-06-08 10:19:27Z</time>
      </trkpt>
      <trkpt lat="44.21213" lon="4.61013">
        <ele>162</ele>
        <time>2012-06-08 10:19:31Z</time>
      </trkpt>
      <trkpt lat="44.21213" lon="4.6101">
        <ele>162</ele>
        <time>2012-06-08 10:19:35Z</time>
      </trkpt>
      <trkpt lat="44.21211" lon="4.61008">
        <ele>160</ele>
        <time>2012-06-08 10:19:39Z</time>
      </trkpt>
      <trkpt lat="44.21211" lon="4.61008">
        <ele>159</ele>
        <time>2012-06-08 10:19:43Z</time>
      </trkpt>
      <trkpt lat="44.21211" lon="4.61008">
        <ele>160</ele>
        <time>2012-06-08 10:19:47Z</time>
      </trkpt>
      <trkpt lat="44.21211" lon="4.61008">
        <ele>160</ele>
        <time>2012-06-08 10:19:51Z</time>
      </trkpt>
      <trkpt lat="44.21211" lon="4.61006">
        <ele>160</ele>
        <time>2012-06-08 10:19:55Z</time>
      </trkpt>
      <trkpt lat="44.21209" lon="4.6101">
        <ele>161</ele>
        <time>2012-06-08 10:19:59Z</time>
      </trkpt>
      <trkpt lat="44.21206" lon="4.61011">
        <ele>161</ele>
        <time>2012-06-08 10:20:03Z</time>
      </trkpt>
      <trkpt lat="44.21203" lon="4.61013">
        <ele>162</ele>
        <time>2012-06-08 10:20:07Z</time>
      </trkpt>
      <trkpt lat="44.212" lon="4.61013">
        <ele>163</ele>
        <time>2012-06-08 10:20:11Z</time>
      </trkpt>
      <trkpt lat="44.21198" lon="4.61012">
        <ele>163</ele>
        <time>2012-06-08 10:20:15Z</time>
      </trkpt>
      <trkpt lat="44.21197" lon="4.61014">
        <ele>165</ele>
        <time>2012-06-08 10:20:19Z</time>
      </trkpt>
      <trkpt lat="44.21196" lon="4.61016">
        <ele>165</ele>
        <time>2012-06-08 10:20:23Z</time>
      </trkpt>
      <trkpt lat="44.21198" lon="4.61015">
        <ele>167</ele>
        <time>2012-06-08 10:20:27Z</time>
      </trkpt>
      <trkpt lat="44.21198" lon="4.61015">
        <ele>168</ele>
        <time>2012-06-08 10:20:31Z</time>
      </trkpt>
      <trkpt lat="44.21198" lon="4.61013">
        <ele>169</ele>
        <time>2012-06-08 10:20:35Z</time>
      </trkpt>
      <trkpt lat="44.21196" lon="4.61013">
        <ele>169</ele>
        <time>2012-06-08 10:20:39Z</time>
      </trkpt>
      <trkpt lat="44.21194" lon="4.61012">
        <ele>169</ele>
        <time>2012-06-08 10:20:43Z</time>
      </trkpt>
      <trkpt lat="44.21193" lon="4.61011">
        <ele>168</ele>
        <time>2012-06-08 10:20:47Z</time>
      </trkpt>
      <trkpt lat="44.21191" lon="4.61011">
        <ele>169</ele>
        <time>2012-06-08 10:20:51Z</time>
      </trkpt>
      <trkpt lat="44.21187" lon="4.61008">
        <ele>170</ele>
        <time>2012-06-08 10:20:55Z</time>
      </trkpt>
      <trkpt lat="44.21186" lon="4.61006">
        <ele>172</ele>
        <time>2012-06-08 10:20:59Z</time>
      </trkpt>
      <trkpt lat="44.21184" lon="4.61006">
        <ele>167</ele>
        <time>2012-06-08 10:21:03Z</time>
      </trkpt>
      <trkpt lat="44.21182" lon="4.6101">
        <ele>167</ele>
        <time>2012-06-08 10:21:07Z</time>
      </trkpt>
      <trkpt lat="44.2118" lon="4.61013">
        <ele>168</ele>
        <time>2012-06-08 10:21:11Z</time>
      </trkpt>
      <trkpt lat="44.21179" lon="4.61018">
        <ele>169</ele>
        <time>2012-06-08 10:21:15Z</time>
      </trkpt>
      <trkpt lat="44.21179" lon="4.6102">
        <ele>170</ele>
        <time>2012-06-08 10:21:19Z</time>
      </trkpt>
      <trkpt lat="44.21178" lon="4.61018">
        <ele>169</ele>
        <time>2012-06-08 10:21:23Z</time>
      </trkpt>
      <trkpt lat="44.21178" lon="4.61016">
        <ele>169</ele>
        <time>2012-06-08 10:21:27Z</time>
      </trkpt>
      <trkpt lat="44.21177" lon="4.61013">
        <ele>169</ele>
        <time>2012-06-08 10:21:31Z</time>
      </trkpt>
      <trkpt lat="44.21176" lon="4.61015">
        <ele>167</ele>
        <time>2012-06-08 10:21:35Z</time>
      </trkpt>
      <trkpt lat="44.21175" lon="4.61018">
        <ele>167</ele>
        <time>2012-06-08 10:21:39Z</time>
      </trkpt>
      <trkpt lat="44.21174" lon="4.6102">
        <ele>168</ele>
        <time>2012-06-08 10:21:43Z</time>
      </trkpt>
      <trkpt lat="44.21171" lon="4.61017">
        <ele>171</ele>
        <time>2012-06-08 10:21:47Z</time>
      </trkpt>
      <trkpt lat="44.21167" lon="4.61018">
        <ele>172</ele>
        <time>2012-06-08 10:21:51Z</time>
      </trkpt>
      <trkpt lat="44.21163" lon="4.61019">
        <ele>172</ele>
        <time>2012-06-08 10:21:55Z</time>
      </trkpt>
      <trkpt lat="44.21161" lon="4.61018">
        <ele>173</ele>
        <time>2012-06-08 10:21:59Z</time>
      </trkpt>
      <trkpt lat="44.21159" lon="4.61018">
        <ele>172</ele>
        <time>2012-06-08 10:22:03Z</time>
      </trkpt>
      <trkpt lat="44.21154" lon="4.61017">
        <ele>173</ele>
        <time>2012-06-08 10:22:07Z</time>
      </trkpt>
      <trkpt lat="44.21148" lon="4.61017">
        <ele>173</ele>
        <time>2012-06-08 10:22:11Z</time>
      </trkpt>
      <trkpt lat="44.21144" lon="4.61016">
        <ele>174</ele>
        <time>2012-06-08 10:22:15Z</time>
      </trkpt>
      <trkpt lat="44.21141" lon="4.61016">
        <ele>173</ele>
        <time>2012-06-08 10:22:19Z</time>
      </trkpt>
      <trkpt lat="44.21137" lon="4.61014">
        <ele>177</ele>
        <time>2012-06-08 10:22:23Z</time>
      </trkpt>
      <trkpt lat="44.21133" lon="4.61014">
        <ele>178</ele>
        <time>2012-06-08 10:22:27Z</time>
      </trkpt>
      <trkpt lat="44.21132" lon="4.61015">
        <ele>177</ele>
        <time>2012-06-08 10:22:31Z</time>
      </trkpt>
      <trkpt lat="44.21132" lon="4.61015">
        <ele>176</ele>
        <time>2012-06-08 10:22:35Z</time>
      </trkpt>
      <trkpt lat="44.21132" lon="4.61015">
        <ele>177</ele>
        <time>2012-06-08 10:22:39Z</time>
      </trkpt>
      <trkpt lat="44.21132" lon="4.61015">
        <ele>177</ele>
        <time>2012-06-08 10:22:43Z</time>
      </trkpt>
      <trkpt lat="44.21132" lon="4.61015">
        <ele>176</ele>
        <time>2012-06-08 10:22:47Z</time>
      </trkpt>
      <trkpt lat="44.21132" lon="4.61015">
        <ele>177</ele>
        <time>2012-06-08 10:22:51Z</time>
      </trkpt>
      <trkpt lat="44.2113" lon="4.61014">
        <ele>176</ele>
        <time>2012-06-08 10:22:55Z</time>
      </trkpt>
      <trkpt lat="44.2113" lon="4.61012">
        <ele>177</ele>
        <time>2012-06-08 10:22:59Z</time>
      </trkpt>
      <trkpt lat="44.21126" lon="4.61014">
        <ele>177</ele>
        <time>2012-06-08 10:23:03Z</time>
      </trkpt>
      <trkpt lat="44.21122" lon="4.61014">
        <ele>177</ele>
        <time>2012-06-08 10:23:07Z</time>
      </trkpt>
      <trkpt lat="44.21122" lon="4.61014">
        <ele>178</ele>
        <time>2012-06-08 10:23:11Z</time>
      </trkpt>
      <trkpt lat="44.21122" lon="4.61012">
        <ele>181</ele>
        <time>2012-06-08 10:23:15Z</time>
      </trkpt>
      <trkpt lat="44.21117" lon="4.61011">
        <ele>184</ele>
        <time>2012-06-08 10:23:19Z</time>
      </trkpt>
      <trkpt lat="44.21112" lon="4.6101">
        <ele>185</ele>
        <time>2012-06-08 10:23:23Z</time>
      </trkpt>
      <trkpt lat="44.21108" lon="4.61011">
        <ele>184</ele>
        <time>2012-06-08 10:23:27Z</time>
      </trkpt>
      <trkpt lat="44.21105" lon="4.61012">
        <ele>184</ele>
        <time>2012-06-08 10:23:31Z</time>
      </trkpt>
      <trkpt lat="44.21098" lon="4.6101">
        <ele>178</ele>
        <time>2012-06-08 10:23:35Z</time>
      </trkpt>
      <trkpt lat="44.21092" lon="4.6101">
        <ele>177</ele>
        <time>2012-06-08 10:23:39Z</time>
      </trkpt>
      <trkpt lat="44.21083" lon="4.61009">
        <ele>178</ele>
        <time>2012-06-08 10:23:43Z</time>
      </trkpt>
      <trkpt lat="44.21072" lon="4.6101">
        <ele>176</ele>
        <time>2012-06-08 10:23:47Z</time>
      </trkpt>
      <trkpt lat="44.21064" lon="4.61009">
        <ele>177</ele>
        <time>2012-06-08 10:23:51Z</time>
      </trkpt>
      <trkpt lat="44.21058" lon="4.61011">
        <ele>179</ele>
        <time>2012-06-08 10:23:55Z</time>
      </trkpt>
      <trkpt lat="44.21052" lon="4.61011">
        <ele>180</ele>
        <time>2012-06-08 10:23:59Z</time>
      </trkpt>
      <trkpt lat="44.21047" lon="4.61007">
        <ele>181</ele>
        <time>2012-06-08 10:24:03Z</time>
      </trkpt>
      <trkpt lat="44.21041" lon="4.61009">
        <ele>182</ele>
        <time>2012-06-08 10:24:07Z</time>
      </trkpt>
      <trkpt lat="44.21037" lon="4.61007">
        <ele>183</ele>
        <time>2012-06-08 10:24:11Z</time>
      </trkpt>
      <trkpt lat="44.21032" lon="4.61002">
        <ele>185</ele>
        <time>2012-06-08 10:24:15Z</time>
      </trkpt>
      <trkpt lat="44.21028" lon="4.61">
        <ele>187</ele>
        <time>2012-06-08 10:24:19Z</time>
      </trkpt>
      <trkpt lat="44.21024" lon="4.60999">
        <ele>188</ele>
        <time>2012-06-08 10:24:23Z</time>
      </trkpt>
      <trkpt lat="44.21022" lon="4.60993">
        <ele>189</ele>
        <time>2012-06-08 10:24:27Z</time>
      </trkpt>
      <trkpt lat="44.21019" lon="4.60991">
        <ele>188</ele>
        <time>2012-06-08 10:24:31Z</time>
      </trkpt>
      <trkpt lat="44.21017" lon="4.60992">
        <ele>188</ele>
        <time>2012-06-08 10:24:35Z</time>
      </trkpt>
      <trkpt lat="44.21014" lon="4.60993">
        <ele>189</ele>
        <time>2012-06-08 10:24:39Z</time>
      </trkpt>
      <trkpt lat="44.21009" lon="4.6099">
        <ele>190</ele>
        <time>2012-06-08 10:24:43Z</time>
      </trkpt>
      <trkpt lat="44.21005" lon="4.60985">
        <ele>190</ele>
        <time>2012-06-08 10:24:47Z</time>
      </trkpt>
      <trkpt lat="44.21001" lon="4.60983">
        <ele>193</ele>
        <time>2012-06-08 10:24:51Z</time>
      </trkpt>
      <trkpt lat="44.21" lon="4.6098">
        <ele>193</ele>
        <time>2012-06-08 10:24:55Z</time>
      </trkpt>
      <trkpt lat="44.20998" lon="4.60975">
        <ele>192</ele>
        <time>2012-06-08 10:24:59Z</time>
      </trkpt>
      <trkpt lat="44.20995" lon="4.60973">
        <ele>191</ele>
        <time>2012-06-08 10:25:03Z</time>
      </trkpt>
      <trkpt lat="44.20992" lon="4.60972">
        <ele>195</ele>
        <time>2012-06-08 10:25:07Z</time>
      </trkpt>
      <trkpt lat="44.2099" lon="4.60973">
        <ele>195</ele>
        <time>2012-06-08 10:25:11Z</time>
      </trkpt>
      <trkpt lat="44.20988" lon="4.60971">
        <ele>196</ele>
        <time>2012-06-08 10:25:15Z</time>
      </trkpt>
      <trkpt lat="44.20985" lon="4.60969">
        <ele>195</ele>
        <time>2012-06-08 10:25:19Z</time>
      </trkpt>
      <trkpt lat="44.20979" lon="4.60969">
        <ele>197</ele>
        <time>2012-06-08 10:25:23Z</time>
      </trkpt>
      <trkpt lat="44.20976" lon="4.60965">
        <ele>198</ele>
        <time>2012-06-08 10:25:27Z</time>
      </trkpt>
      <trkpt lat="44.20974" lon="4.60962">
        <ele>198</ele>
        <time>2012-06-08 10:25:31Z</time>
      </trkpt>
      <trkpt lat="44.20966" lon="4.60962">
        <ele>196</ele>
        <time>2012-06-08 10:25:35Z</time>
      </trkpt>
      <trkpt lat="44.20962" lon="4.60963">
        <ele>195</ele>
        <time>2012-06-08 10:25:39Z</time>
      </trkpt>
      <trkpt lat="44.20959" lon="4.60961">
        <ele>195</ele>
        <time>2012-06-08 10:25:43Z</time>
      </trkpt>
      <trkpt lat="44.20955" lon="4.60954">
        <ele>196</ele>
        <time>2012-06-08 10:25:47Z</time>
      </trkpt>
      <trkpt lat="44.2095" lon="4.60948">
        <ele>194</ele>
        <time>2012-06-08 10:25:51Z</time>
      </trkpt>
      <trkpt lat="44.20942" lon="4.60942">
        <ele>193</ele>
        <time>2012-06-08 10:25:55Z</time>
      </trkpt>
      <trkpt lat="44.2094" lon="4.60939">
        <ele>195</ele>
        <time>2012-06-08 10:25:59Z</time>
      </trkpt>
      <trkpt lat="44.20935" lon="4.60935">
        <ele>193</ele>
        <time>2012-06-08 10:26:03Z</time>
      </trkpt>
      <trkpt lat="44.20929" lon="4.60933">
        <ele>194</ele>
        <time>2012-06-08 10:26:07Z</time>
      </trkpt>
      <trkpt lat="44.20923" lon="4.60931">
        <ele>195</ele>
        <time>2012-06-08 10:26:11Z</time>
      </trkpt>
      <trkpt lat="44.20918" lon="4.60932">
        <ele>194</ele>
        <time>2012-06-08 10:26:15Z</time>
      </trkpt>
      <trkpt lat="44.20914" lon="4.60927">
        <ele>194</ele>
        <time>2012-06-08 10:26:19Z</time>
      </trkpt>
      <trkpt lat="44.20909" lon="4.6092">
        <ele>194</ele>
        <time>2012-06-08 10:26:23Z</time>
      </trkpt>
      <trkpt lat="44.20902" lon="4.60916">
        <ele>196</ele>
        <time>2012-06-08 10:26:27Z</time>
      </trkpt>
      <trkpt lat="44.20894" lon="4.60908">
        <ele>197</ele>
        <time>2012-06-08 10:26:31Z</time>
      </trkpt>
      <trkpt lat="44.20885" lon="4.609">
        <ele>198</ele>
        <time>2012-06-08 10:26:35Z</time>
      </trkpt>
      <trkpt lat="44.20875" lon="4.60894">
        <ele>198</ele>
        <time>2012-06-08 10:26:39Z</time>
      </trkpt>
      <trkpt lat="44.20867" lon="4.60888">
        <ele>199</ele>
        <time>2012-06-08 10:26:43Z</time>
      </trkpt>
      <trkpt lat="44.20859" lon="4.60882">
        <ele>199</ele>
        <time>2012-06-08 10:26:47Z</time>
      </trkpt>
      <trkpt lat="44.20857" lon="4.60876">
        <ele>198</ele>
        <time>2012-06-08 10:26:51Z</time>
      </trkpt>
      <trkpt lat="44.20852" lon="4.60872">
        <ele>200</ele>
        <time>2012-06-08 10:26:55Z</time>
      </trkpt>
      <trkpt lat="44.20849" lon="4.60868">
        <ele>200</ele>
        <time>2012-06-08 10:26:59Z</time>
      </trkpt>
      <trkpt lat="44.20845" lon="4.6086">
        <ele>202</ele>
        <time>2012-06-08 10:27:03Z</time>
      </trkpt>
      <trkpt lat="44.20842" lon="4.60853">
        <ele>202</ele>
        <time>2012-06-08 10:27:07Z</time>
      </trkpt>
      <trkpt lat="44.20833" lon="4.60846">
        <ele>203</ele>
        <time>2012-06-08 10:27:11Z</time>
      </trkpt>
      <trkpt lat="44.20825" lon="4.60842">
        <ele>202</ele>
        <time>2012-06-08 10:27:15Z</time>
      </trkpt>
      <trkpt lat="44.20817" lon="4.60841">
        <ele>202</ele>
        <time>2012-06-08 10:27:19Z</time>
      </trkpt>
      <trkpt lat="44.2081" lon="4.60841">
        <ele>201</ele>
        <time>2012-06-08 10:27:23Z</time>
      </trkpt>
      <trkpt lat="44.20802" lon="4.60839">
        <ele>200</ele>
        <time>2012-06-08 10:27:27Z</time>
      </trkpt>
      <trkpt lat="44.20791" lon="4.60837">
        <ele>197</ele>
        <time>2012-06-08 10:27:31Z</time>
      </trkpt>
      <trkpt lat="44.20778" lon="4.60831">
        <ele>197</ele>
        <time>2012-06-08 10:27:35Z</time>
      </trkpt>
      <trkpt lat="44.20768" lon="4.6083">
        <ele>199</ele>
        <time>2012-06-08 10:27:39Z</time>
      </trkpt>
      <trkpt lat="44.20755" lon="4.6083">
        <ele>201</ele>
        <time>2012-06-08 10:27:43Z</time>
      </trkpt>
      <trkpt lat="44.20748" lon="4.60827">
        <ele>204</ele>
        <time>2012-06-08 10:27:47Z</time>
      </trkpt>
      <trkpt lat="44.20742" lon="4.60822">
        <ele>206</ele>
        <time>2012-06-08 10:27:51Z</time>
      </trkpt>
      <trkpt lat="44.20733" lon="4.6082">
        <ele>206</ele>
        <time>2012-06-08 10:27:55Z</time>
      </trkpt>
      <trkpt lat="44.20728" lon="4.6082">
        <ele>205</ele>
        <time>2012-06-08 10:27:59Z</time>
      </trkpt>
      <trkpt lat="44.2072" lon="4.60817">
        <ele>204</ele>
        <time>2012-06-08 10:28:03Z</time>
      </trkpt>
      <trkpt lat="44.20707" lon="4.60807">
        <ele>203</ele>
        <time>2012-06-08 10:28:07Z</time>
      </trkpt>
      <trkpt lat="44.20701" lon="4.60798">
        <ele>202</ele>
        <time>2012-06-08 10:28:11Z</time>
      </trkpt>
      <trkpt lat="44.20693" lon="4.60789">
        <ele>201</ele>
        <time>2012-06-08 10:28:15Z</time>
      </trkpt>
      <trkpt lat="44.20683" lon="4.60779">
        <ele>200</ele>
        <time>2012-06-08 10:28:19Z</time>
      </trkpt>
      <trkpt lat="44.20674" lon="4.60776">
        <ele>196</ele>
        <time>2012-06-08 10:28:23Z</time>
      </trkpt>
      <trkpt lat="44.2067" lon="4.60776">
        <ele>196</ele>
        <time>2012-06-08 10:28:27Z</time>
      </trkpt>
      <trkpt lat="44.20668" lon="4.60772">
        <ele>194</ele>
        <time>2012-06-08 10:28:31Z</time>
      </trkpt>
      <trkpt lat="44.20669" lon="4.60767">
        <ele>193</ele>
        <time>2012-06-08 10:28:35Z</time>
      </trkpt>
      <trkpt lat="44.2067" lon="4.60768">
        <ele>194</ele>
        <time>2012-06-08 10:28:39Z</time>
      </trkpt>
      <trkpt lat="44.20671" lon="4.60766">
        <ele>193</ele>
        <time>2012-06-08 10:28:43Z</time>
      </trkpt>
      <trkpt lat="44.20668" lon="4.60761">
        <ele>193</ele>
        <time>2012-06-08 10:28:47Z</time>
      </trkpt>
      <trkpt lat="44.20664" lon="4.60754">
        <ele>193</ele>
        <time>2012-06-08 10:28:51Z</time>
      </trkpt>
      <trkpt lat="44.20665" lon="4.60751">
        <ele>193</ele>
        <time>2012-06-08 10:28:55Z</time>
      </trkpt>
      <trkpt lat="44.20662" lon="4.60747">
        <ele>194</ele>
        <time>2012-06-08 10:28:59Z</time>
      </trkpt>
      <trkpt lat="44.20661" lon="4.60746">
        <ele>195</ele>
        <time>2012-06-08 10:29:03Z</time>
      </trkpt>
      <trkpt lat="44.20659" lon="4.60741">
        <ele>195</ele>
        <time>2012-06-08 10:29:07Z</time>
      </trkpt>
      <trkpt lat="44.20656" lon="4.60735">
        <ele>195</ele>
        <time>2012-06-08 10:29:11Z</time>
      </trkpt>
      <trkpt lat="44.20655" lon="4.60729">
        <ele>196</ele>
        <time>2012-06-08 10:29:15Z</time>
      </trkpt>
      <trkpt lat="44.20655" lon="4.60726">
        <ele>195</ele>
        <time>2012-06-08 10:29:19Z</time>
      </trkpt>
      <trkpt lat="44.20656" lon="4.60723">
        <ele>195</ele>
        <time>2012-06-08 10:29:23Z</time>
      </trkpt>
      <trkpt lat="44.20653" lon="4.60721">
        <ele>196</ele>
        <time>2012-06-08 10:29:27Z</time>
      </trkpt>
      <trkpt lat="44.20652" lon="4.60719">
        <ele>195</ele>
        <time>2012-06-08 10:29:31Z</time>
      </trkpt>
      <trkpt lat="44.20651" lon="4.60713">
        <ele>195</ele>
        <time>2012-06-08 10:29:35Z</time>
      </trkpt>
      <trkpt lat="44.20648" lon="4.60705">
        <ele>196</ele>
        <time>2012-06-08 10:29:39Z</time>
      </trkpt>
      <trkpt lat="44.20645" lon="4.60698">
        <ele>196</ele>
        <time>2012-06-08 10:29:43Z</time>
      </trkpt>
      <trkpt lat="44.20643" lon="4.60691">
        <ele>196</ele>
        <time>2012-06-08 10:29:47Z</time>
      </trkpt>
      <trkpt lat="44.20642" lon="4.60681">
        <ele>198</ele>
        <time>2012-06-08 10:29:51Z</time>
      </trkpt>
      <trkpt lat="44.20644" lon="4.60672">
        <ele>196</ele>
        <time>2012-06-08 10:29:55Z</time>
      </trkpt>
      <trkpt lat="44.20646" lon="4.60662">
        <ele>197</ele>
        <time>2012-06-08 10:29:59Z</time>
      </trkpt>
      <trkpt lat="44.20647" lon="4.60653">
        <ele>197</ele>
        <time>2012-06-08 10:30:03Z</time>
      </trkpt>
      <trkpt lat="44.20649" lon="4.60643">
        <ele>197</ele>
        <time>2012-06-08 10:30:07Z</time>
      </trkpt>
      <trkpt lat="44.20649" lon="4.60632">
        <ele>198</ele>
        <time>2012-06-08 10:30:11Z</time>
      </trkpt>
      <trkpt lat="44.20649" lon="4.6062">
        <ele>200</ele>
        <time>2012-06-08 10:30:15Z</time>
      </trkpt>
      <trkpt lat="44.20648" lon="4.60609">
        <ele>203</ele>
        <time>2012-06-08 10:30:19Z</time>
      </trkpt>
      <trkpt lat="44.20651" lon="4.606">
        <ele>202</ele>
        <time>2012-06-08 10:30:23Z</time>
      </trkpt>
      <trkpt lat="44.20652" lon="4.60592">
        <ele>202</ele>
        <time>2012-06-08 10:30:27Z</time>
      </trkpt>
      <trkpt lat="44.20653" lon="4.60581">
        <ele>203</ele>
        <time>2012-06-08 10:30:31Z</time>
      </trkpt>
      <trkpt lat="44.20655" lon="4.60572">
        <ele>205</ele>
        <time>2012-06-08 10:30:35Z</time>
      </trkpt>
      <trkpt lat="44.20659" lon="4.60562">
        <ele>207</ele>
        <time>2012-06-08 10:30:39Z</time>
      </trkpt>
      <trkpt lat="44.20661" lon="4.60551">
        <ele>207</ele>
        <time>2012-06-08 10:30:43Z</time>
      </trkpt>
      <trkpt lat="44.20662" lon="4.60539">
        <ele>208</ele>
        <time>2012-06-08 10:30:47Z</time>
      </trkpt>
      <trkpt lat="44.20663" lon="4.60523">
        <ele>209</ele>
        <time>2012-06-08 10:30:51Z</time>
      </trkpt>
      <trkpt lat="44.20664" lon="4.60514">
        <ele>208</ele>
        <time>2012-06-08 10:30:55Z</time>
      </trkpt>
      <trkpt lat="44.20664" lon="4.60501">
        <ele>208</ele>
        <time>2012-06-08 10:30:59Z</time>
      </trkpt>
      <trkpt lat="44.20664" lon="4.6049">
        <ele>207</ele>
        <time>2012-06-08 10:31:03Z</time>
      </trkpt>
      <trkpt lat="44.20664" lon="4.60479">
        <ele>208</ele>
        <time>2012-06-08 10:31:07Z</time>
      </trkpt>
      <trkpt lat="44.20664" lon="4.6047">
        <ele>208</ele>
        <time>2012-06-08 10:31:11Z</time>
      </trkpt>
      <trkpt lat="44.20663" lon="4.60462">
        <ele>209</ele>
        <time>2012-06-08 10:31:15Z</time>
      </trkpt>
      <trkpt lat="44.20664" lon="4.6045">
        <ele>209</ele>
        <time>2012-06-08 10:31:19Z</time>
      </trkpt>
      <trkpt lat="44.20668" lon="4.60435">
        <ele>209</ele>
        <time>2012-06-08 10:31:23Z</time>
      </trkpt>
      <trkpt lat="44.20672" lon="4.60426">
        <ele>210</ele>
        <time>2012-06-08 10:31:27Z</time>
      </trkpt>
      <trkpt lat="44.20675" lon="4.60419">
        <ele>210</ele>
        <time>2012-06-08 10:31:31Z</time>
      </trkpt>
      <trkpt lat="44.20678" lon="4.60414">
        <ele>208</ele>
        <time>2012-06-08 10:31:35Z</time>
      </trkpt>
      <trkpt lat="44.20684" lon="4.60408">
        <ele>208</ele>
        <time>2012-06-08 10:31:39Z</time>
      </trkpt>
      <trkpt lat="44.20691" lon="4.60399">
        <ele>206</ele>
        <time>2012-06-08 10:31:43Z</time>
      </trkpt>
      <trkpt lat="44.20698" lon="4.6039">
        <ele>207</ele>
        <time>2012-06-08 10:31:47Z</time>
      </trkpt>
      <trkpt lat="44.20706" lon="4.60382">
        <ele>207</ele>
        <time>2012-06-08 10:31:51Z</time>
      </trkpt>
      <trkpt lat="44.20714" lon="4.60384">
        <ele>208</ele>
        <time>2012-06-08 10:31:55Z</time>
      </trkpt>
      <trkpt lat="44.2071" lon="4.60388">
        <ele>212</ele>
        <time>2012-06-08 10:31:59Z</time>
      </trkpt>
      <trkpt lat="44.207" lon="4.604">
        <ele>214</ele>
        <time>2012-06-08 10:32:03Z</time>
      </trkpt>
      <trkpt lat="44.20695" lon="4.60416">
        <ele>214</ele>
        <time>2012-06-08 10:32:07Z</time>
      </trkpt>
      <trkpt lat="44.20694" lon="4.60423">
        <ele>215</ele>
        <time>2012-06-08 10:32:11Z</time>
      </trkpt>
      <trkpt lat="44.20694" lon="4.60421">
        <ele>215</ele>
        <time>2012-06-08 10:32:15Z</time>
      </trkpt>
      <trkpt lat="44.20694" lon="4.60421">
        <ele>217</ele>
        <time>2012-06-08 10:32:19Z</time>
      </trkpt>
      <trkpt lat="44.20696" lon="4.60421">
        <ele>218</ele>
        <time>2012-06-08 10:32:23Z</time>
      </trkpt>
      <trkpt lat="44.20697" lon="4.60424">
        <ele>218</ele>
        <time>2012-06-08 10:32:27Z</time>
      </trkpt>
      <trkpt lat="44.20705" lon="4.60429">
        <ele>218</ele>
        <time>2012-06-08 10:32:31Z</time>
      </trkpt>
      <trkpt lat="44.20712" lon="4.60434">
        <ele>217</ele>
        <time>2012-06-08 10:32:35Z</time>
      </trkpt>
      <trkpt lat="44.20719" lon="4.60436">
        <ele>216</ele>
        <time>2012-06-08 10:32:39Z</time>
      </trkpt>
      <trkpt lat="44.20724" lon="4.60439">
        <ele>216</ele>
        <time>2012-06-08 10:32:43Z</time>
      </trkpt>
      <trkpt lat="44.20729" lon="4.60449">
        <ele>213</ele>
        <time>2012-06-08 10:32:47Z</time>
      </trkpt>
      <trkpt lat="44.20734" lon="4.60455">
        <ele>211</ele>
        <time>2012-06-08 10:32:51Z</time>
      </trkpt>
      <trkpt lat="44.20734" lon="4.60453">
        <ele>211</ele>
        <time>2012-06-08 10:32:55Z</time>
      </trkpt>
      <trkpt lat="44.20736" lon="4.60451">
        <ele>211</ele>
        <time>2012-06-08 10:32:59Z</time>
      </trkpt>
      <trkpt lat="44.20741" lon="4.6045">
        <ele>209</ele>
        <time>2012-06-08 10:33:03Z</time>
      </trkpt>
      <trkpt lat="44.20744" lon="4.60452">
        <ele>209</ele>
        <time>2012-06-08 10:33:07Z</time>
      </trkpt>
      <trkpt lat="44.20755" lon="4.60461">
        <ele>209</ele>
        <time>2012-06-08 10:33:11Z</time>
      </trkpt>
      <trkpt lat="44.20762" lon="4.60467">
        <ele>209</ele>
        <time>2012-06-08 10:33:15Z</time>
      </trkpt>
      <trkpt lat="44.20767" lon="4.60471">
        <ele>208</ele>
        <time>2012-06-08 10:33:19Z</time>
      </trkpt>
      <trkpt lat="44.20776" lon="4.60475">
        <ele>206</ele>
        <time>2012-06-08 10:33:23Z</time>
      </trkpt>
      <trkpt lat="44.20787" lon="4.60479">
        <ele>206</ele>
        <time>2012-06-08 10:33:27Z</time>
      </trkpt>
      <trkpt lat="44.208" lon="4.60485">
        <ele>205</ele>
        <time>2012-06-08 10:33:31Z</time>
      </trkpt>
      <trkpt lat="44.2081" lon="4.60489">
        <ele>203</ele>
        <time>2012-06-08 10:33:35Z</time>
      </trkpt>
      <trkpt lat="44.2082" lon="4.60493">
        <ele>202</ele>
        <time>2012-06-08 10:33:39Z</time>
      </trkpt>
      <trkpt lat="44.20826" lon="4.60498">
        <ele>200</ele>
        <time>2012-06-08 10:33:43Z</time>
      </trkpt>
      <trkpt lat="44.20831" lon="4.60502">
        <ele>197</ele>
        <time>2012-06-08 10:33:47Z</time>
      </trkpt>
      <trkpt lat="44.20834" lon="4.60501">
        <ele>197</ele>
        <time>2012-06-08 10:33:51Z</time>
      </trkpt>
      <trkpt lat="44.20839" lon="4.60499">
        <ele>196</ele>
        <time>2012-06-08 10:33:55Z</time>
      </trkpt>
      <trkpt lat="44.20847" lon="4.605">
        <ele>196</ele>
        <time>2012-06-08 10:33:59Z</time>
      </trkpt>
      <trkpt lat="44.20854" lon="4.605">
        <ele>195</ele>
        <time>2012-06-08 10:34:03Z</time>
      </trkpt>
      <trkpt lat="44.20865" lon="4.60504">
        <ele>196</ele>
        <time>2012-06-08 10:34:07Z</time>
      </trkpt>
      <trkpt lat="44.20876" lon="4.60506">
        <ele>196</ele>
        <time>2012-06-08 10:34:11Z</time>
      </trkpt>
      <trkpt lat="44.20887" lon="4.60511">
        <ele>196</ele>
        <time>2012-06-08 10:34:15Z</time>
      </trkpt>
      <trkpt lat="44.20898" lon="4.60518">
        <ele>195</ele>
        <time>2012-06-08 10:34:19Z</time>
      </trkpt>
      <trkpt lat="44.2091" lon="4.60526">
        <ele>194</ele>
        <time>2012-06-08 10:34:23Z</time>
      </trkpt>
      <trkpt lat="44.20918" lon="4.60535">
        <ele>193</ele>
        <time>2012-06-08 10:34:27Z</time>
      </trkpt>
      <trkpt lat="44.20925" lon="4.60546">
        <ele>193</ele>
        <time>2012-06-08 10:34:31Z</time>
      </trkpt>
      <trkpt lat="44.20934" lon="4.60556">
        <ele>193</ele>
        <time>2012-06-08 10:34:35Z</time>
      </trkpt>
      <trkpt lat="44.20942" lon="4.60561">
        <ele>191</ele>
        <time>2012-06-08 10:34:39Z</time>
      </trkpt>
      <trkpt lat="44.20951" lon="4.60566">
        <ele>190</ele>
        <time>2012-06-08 10:34:43Z</time>
      </trkpt>
      <trkpt lat="44.20958" lon="4.60568">
        <ele>188</ele>
        <time>2012-06-08 10:34:47Z</time>
      </trkpt>
      <trkpt lat="44.20965" lon="4.60571">
        <ele>187</ele>
        <time>2012-06-08 10:34:51Z</time>
      </trkpt>
      <trkpt lat="44.20967" lon="4.60576">
        <ele>188</ele>
        <time>2012-06-08 10:34:55Z</time>
      </trkpt>
      <trkpt lat="44.20966" lon="4.60584">
        <ele>189</ele>
        <time>2012-06-08 10:34:59Z</time>
      </trkpt>
      <trkpt lat="44.20966" lon="4.60591">
        <ele>189</ele>
        <time>2012-06-08 10:35:03Z</time>
      </trkpt>
      <trkpt lat="44.20966" lon="4.60596">
        <ele>189</ele>
        <time>2012-06-08 10:35:07Z</time>
      </trkpt>
      <trkpt lat="44.20966" lon="4.606">
        <ele>190</ele>
        <time>2012-06-08 10:35:11Z</time>
      </trkpt>
      <trkpt lat="44.20968" lon="4.60607">
        <ele>189</ele>
        <time>2012-06-08 10:35:15Z</time>
      </trkpt>
      <trkpt lat="44.20972" lon="4.60613">
        <ele>188</ele>
        <time>2012-06-08 10:35:19Z</time>
      </trkpt>
      <trkpt lat="44.20977" lon="4.60619">
        <ele>187</ele>
        <time>2012-06-08 10:35:23Z</time>
      </trkpt>
      <trkpt lat="44.20981" lon="4.60625">
        <ele>186</ele>
        <time>2012-06-08 10:35:27Z</time>
      </trkpt>
      <trkpt lat="44.20982" lon="4.6063">
        <ele>186</ele>
        <time>2012-06-08 10:35:31Z</time>
      </trkpt>
      <trkpt lat="44.20983" lon="4.60632">
        <ele>185</ele>
        <time>2012-06-08 10:35:35Z</time>
      </trkpt>
      <trkpt lat="44.20986" lon="4.60635">
        <ele>182</ele>
        <time>2012-06-08 10:35:39Z</time>
      </trkpt>
      <trkpt lat="44.20987" lon="4.60636">
        <ele>185</ele>
        <time>2012-06-08 10:35:43Z</time>
      </trkpt>
      <trkpt lat="44.20989" lon="4.60636">
        <ele>186</ele>
        <time>2012-06-08 10:35:47Z</time>
      </trkpt>
      <trkpt lat="44.20989" lon="4.60636">
        <ele>182</ele>
        <time>2012-06-08 10:35:51Z</time>
      </trkpt>
      <trkpt lat="44.20992" lon="4.60636">
        <ele>180</ele>
        <time>2012-06-08 10:35:55Z</time>
      </trkpt>
      <trkpt lat="44.20989" lon="4.60635">
        <ele>179</ele>
        <time>2012-06-08 10:35:59Z</time>
      </trkpt>
      <trkpt lat="44.2099" lon="4.60636">
        <ele>177</ele>
        <time>2012-06-08 10:36:03Z</time>
      </trkpt>
      <trkpt lat="44.2099" lon="4.60645">
        <ele>176</ele>
        <time>2012-06-08 10:36:07Z</time>
      </trkpt>
      <trkpt lat="44.20994" lon="4.60662">
        <ele>176</ele>
        <time>2012-06-08 10:36:11Z</time>
      </trkpt>
      <trkpt lat="44.20995" lon="4.60672">
        <ele>176</ele>
        <time>2012-06-08 10:36:15Z</time>
      </trkpt>
      <trkpt lat="44.20996" lon="4.60691">
        <ele>176</ele>
        <time>2012-06-08 10:36:19Z</time>
      </trkpt>
      <trkpt lat="44.21" lon="4.60709">
        <ele>175</ele>
        <time>2012-06-08 10:36:23Z</time>
      </trkpt>
      <trkpt lat="44.21006" lon="4.60729">
        <ele>174</ele>
        <time>2012-06-08 10:36:27Z</time>
      </trkpt>
      <trkpt lat="44.21008" lon="4.60747">
        <ele>174</ele>
        <time>2012-06-08 10:36:31Z</time>
      </trkpt>
      <trkpt lat="44.21009" lon="4.60758">
        <ele>176</ele>
        <time>2012-06-08 10:36:35Z</time>
      </trkpt>
      <trkpt lat="44.21022" lon="4.6077">
        <ele>174</ele>
        <time>2012-06-08 10:36:39Z</time>
      </trkpt>
      <trkpt lat="44.2103" lon="4.60778">
        <ele>174</ele>
        <time>2012-06-08 10:36:43Z</time>
      </trkpt>
      <trkpt lat="44.21041" lon="4.6079">
        <ele>175</ele>
        <time>2012-06-08 10:36:47Z</time>
      </trkpt>
      <trkpt lat="44.21055" lon="4.60805">
        <ele>175</ele>
        <time>2012-06-08 10:36:51Z</time>
      </trkpt>
      <trkpt lat="44.21064" lon="4.6082">
        <ele>174</ele>
        <time>2012-06-08 10:36:55Z</time>
      </trkpt>
      <trkpt lat="44.21078" lon="4.60835">
        <ele>174</ele>
        <time>2012-06-08 10:36:59Z</time>
      </trkpt>
      <trkpt lat="44.21089" lon="4.60844">
        <ele>173</ele>
        <time>2012-06-08 10:37:03Z</time>
      </trkpt>
      <trkpt lat="44.21099" lon="4.60851">
        <ele>172</ele>
        <time>2012-06-08 10:37:07Z</time>
      </trkpt>
      <trkpt lat="44.21117" lon="4.60863">
        <ele>172</ele>
        <time>2012-06-08 10:37:11Z</time>
      </trkpt>
      <trkpt lat="44.21139" lon="4.60863">
        <ele>171</ele>
        <time>2012-06-08 10:37:15Z</time>
      </trkpt>
      <trkpt lat="44.21159" lon="4.60864">
        <ele>171</ele>
        <time>2012-06-08 10:37:19Z</time>
      </trkpt>
      <trkpt lat="44.2117" lon="4.60863">
        <ele>170</ele>
        <time>2012-06-08 10:37:23Z</time>
      </trkpt>
      <trkpt lat="44.21177" lon="4.60866">
        <ele>171</ele>
        <time>2012-06-08 10:37:27Z</time>
      </trkpt>
      <trkpt lat="44.21184" lon="4.60868">
        <ele>171</ele>
        <time>2012-06-08 10:37:31Z</time>
      </trkpt>
      <trkpt lat="44.21196" lon="4.6087">
        <ele>171</ele>
        <time>2012-06-08 10:37:35Z</time>
      </trkpt>
      <trkpt lat="44.21203" lon="4.60873">
        <ele>170</ele>
        <time>2012-06-08 10:37:39Z</time>
      </trkpt>
      <trkpt lat="44.21209" lon="4.6088">
        <ele>169</ele>
        <time>2012-06-08 10:37:43Z</time>
      </trkpt>
      <trkpt lat="44.21216" lon="4.60893">
        <ele>170</ele>
        <time>2012-06-08 10:37:47Z</time>
      </trkpt>
      <trkpt lat="44.21221" lon="4.60898">
        <ele>169</ele>
        <time>2012-06-08 10:37:51Z</time>
      </trkpt>
      <trkpt lat="44.21225" lon="4.60897">
        <ele>169</ele>
        <time>2012-06-08 10:37:55Z</time>
      </trkpt>
      <trkpt lat="44.21229" lon="4.6089">
        <ele>169</ele>
        <time>2012-06-08 10:37:59Z</time>
      </trkpt>
      <trkpt lat="44.21232" lon="4.60878">
        <ele>168</ele>
        <time>2012-06-08 10:38:03Z</time>
      </trkpt>
      <trkpt lat="44.21233" lon="4.60868">
        <ele>168</ele>
        <time>2012-06-08 10:38:07Z</time>
      </trkpt>
      <trkpt lat="44.21235" lon="4.60859">
        <ele>168</ele>
        <time>2012-06-08 10:38:11Z</time>
      </trkpt>
      <trkpt lat="44.21236" lon="4.60848">
        <ele>166</ele>
        <time>2012-06-08 10:38:15Z</time>
      </trkpt>
      <trkpt lat="44.21237" lon="4.60837">
        <ele>166</ele>
        <time>2012-06-08 10:38:19Z</time>
      </trkpt>
      <trkpt lat="44.21241" lon="4.60829">
        <ele>165</ele>
        <time>2012-06-08 10:38:23Z</time>
      </trkpt>
      <trkpt lat="44.21244" lon="4.6082">
        <ele>166</ele>
        <time>2012-06-08 10:38:27Z</time>
      </trkpt>
      <trkpt lat="44.21244" lon="4.60812">
        <ele>165</ele>
        <time>2012-06-08 10:38:31Z</time>
      </trkpt>
      <trkpt lat="44.21244" lon="4.60804">
        <ele>166</ele>
        <time>2012-06-08 10:38:35Z</time>
      </trkpt>
      <trkpt lat="44.21244" lon="4.60798">
        <ele>165</ele>
        <time>2012-06-08 10:38:39Z</time>
      </trkpt>
      <trkpt lat="44.21243" lon="4.60796">
        <ele>165</ele>
        <time>2012-06-08 10:38:43Z</time>
      </trkpt>
      <trkpt lat="44.21243" lon="4.60795">
        <ele>166</ele>
        <time>2012-06-08 10:38:47Z</time>
      </trkpt>
      <trkpt lat="44.21243" lon="4.60792">
        <ele>164</ele>
        <time>2012-06-08 10:38:51Z</time>
      </trkpt>
      <trkpt lat="44.21243" lon="4.60788">
        <ele>165</ele>
        <time>2012-06-08 10:38:55Z</time>
      </trkpt>
      <trkpt lat="44.21242" lon="4.60786">
        <ele>164</ele>
        <time>2012-06-08 10:38:59Z</time>
      </trkpt>
      <trkpt lat="44.21241" lon="4.60785">
        <ele>165</ele>
        <time>2012-06-08 10:39:03Z</time>
      </trkpt>
      <trkpt lat="44.2124" lon="4.60782">
        <ele>167</ele>
        <time>2012-06-08 10:39:07Z</time>
      </trkpt>
      <trkpt lat="44.21239" lon="4.60778">
        <ele>170</ele>
        <time>2012-06-08 10:39:11Z</time>
      </trkpt>
      <trkpt lat="44.2124" lon="4.60775">
        <ele>170</ele>
        <time>2012-06-08 10:39:15Z</time>
      </trkpt>
      <trkpt lat="44.2124" lon="4.60771">
        <ele>169</ele>
        <time>2012-06-08 10:39:19Z</time>
      </trkpt>
      <trkpt lat="44.2124" lon="4.60766">
        <ele>170</ele>
        <time>2012-06-08 10:39:23Z</time>
      </trkpt>
      <trkpt lat="44.21241" lon="4.60767">
        <ele>172</ele>
        <time>2012-06-08 10:39:27Z</time>
      </trkpt>
      <trkpt lat="44.21241" lon="4.60769">
        <ele>172</ele>
        <time>2012-06-08 10:39:31Z</time>
      </trkpt>
      <trkpt lat="44.21241" lon="4.6077">
        <ele>174</ele>
        <time>2012-06-08 10:39:35Z</time>
      </trkpt>
      <trkpt lat="44.21243" lon="4.60767">
        <ele>170</ele>
        <time>2012-06-08 10:39:39Z</time>
      </trkpt>
      <trkpt lat="44.21246" lon="4.60763">
        <ele>167</ele>
        <time>2012-06-08 10:39:43Z</time>
      </trkpt>
      <trkpt lat="44.21246" lon="4.60761">
        <ele>169</ele>
        <time>2012-06-08 10:39:47Z</time>
      </trkpt>
      <trkpt lat="44.21246" lon="4.60759">
        <ele>170</ele>
        <time>2012-06-08 10:39:51Z</time>
      </trkpt>
      <trkpt lat="44.21246" lon="4.60758">
        <ele>171</ele>
        <time>2012-06-08 10:39:55Z</time>
      </trkpt>
      <trkpt lat="44.21246" lon="4.60756">
        <ele>171</ele>
        <time>2012-06-08 10:39:59Z</time>
      </trkpt>
      <trkpt lat="44.21243" lon="4.60753">
        <ele>173</ele>
        <time>2012-06-08 10:40:03Z</time>
      </trkpt>
      <trkpt lat="44.21239" lon="4.6075">
        <ele>176</ele>
        <time>2012-06-08 10:40:07Z</time>
      </trkpt>
      <trkpt lat="44.21237" lon="4.60746">
        <ele>176</ele>
        <time>2012-06-08 10:40:11Z</time>
      </trkpt>
      <trkpt lat="44.21233" lon="4.60743">
        <ele>178</ele>
        <time>2012-06-08 10:40:15Z</time>
      </trkpt>
      <trkpt lat="44.21231" lon="4.60738">
        <ele>178</ele>
        <time>2012-06-08 10:40:19Z</time>
      </trkpt>
      <trkpt lat="44.21229" lon="4.60736">
        <ele>178</ele>
        <time>2012-06-08 10:40:23Z</time>
      </trkpt>
      <trkpt lat="44.21227" lon="4.60733">
        <ele>179</ele>
        <time>2012-06-08 10:40:27Z</time>
      </trkpt>
      <trkpt lat="44.21223" lon="4.60728">
        <ele>177</ele>
        <time>2012-06-08 10:40:31Z</time>
      </trkpt>
      <trkpt lat="44.21221" lon="4.60723">
        <ele>177</ele>
        <time>2012-06-08 10:40:35Z</time>
      </trkpt>
      <trkpt lat="44.21218" lon="4.60718">
        <ele>179</ele>
        <time>2012-06-08 10:40:39Z</time>
      </trkpt>
      <trkpt lat="44.21216" lon="4.60713">
        <ele>182</ele>
        <time>2012-06-08 10:40:43Z</time>
      </trkpt>
      <trkpt lat="44.21214" lon="4.60709">
        <ele>183</ele>
        <time>2012-06-08 10:40:47Z</time>
      </trkpt>
      <trkpt lat="44.21211" lon="4.60706">
        <ele>184</ele>
        <time>2012-06-08 10:40:51Z</time>
      </trkpt>
      <trkpt lat="44.21208" lon="4.60704">
        <ele>184</ele>
        <time>2012-06-08 10:40:55Z</time>
      </trkpt>
      <trkpt lat="44.21206" lon="4.60703">
        <ele>184</ele>
        <time>2012-06-08 10:40:59Z</time>
      </trkpt>
      <trkpt lat="44.21203" lon="4.607">
        <ele>184</ele>
        <time>2012-06-08 10:41:03Z</time>
      </trkpt>
      <trkpt lat="44.21203" lon="4.60698">
        <ele>185</ele>
        <time>2012-06-08 10:41:07Z</time>
      </trkpt>
      <trkpt lat="44.21201" lon="4.60696">
        <ele>183</ele>
        <time>2012-06-08 10:41:11Z</time>
      </trkpt>
      <trkpt lat="44.21199" lon="4.60694">
        <ele>186</ele>
        <time>2012-06-08 10:41:15Z</time>
      </trkpt>
      <trkpt lat="44.21198" lon="4.60691">
        <ele>186</ele>
        <time>2012-06-08 10:41:19Z</time>
      </trkpt>
      <trkpt lat="44.21197" lon="4.60688">
        <ele>187</ele>
        <time>2012-06-08 10:41:23Z</time>
      </trkpt>
      <trkpt lat="44.21197" lon="4.60686">
        <ele>186</ele>
        <time>2012-06-08 10:41:27Z</time>
      </trkpt>
      <trkpt lat="44.21195" lon="4.60683">
        <ele>188</ele>
        <time>2012-06-08 10:41:31Z</time>
      </trkpt>
      <trkpt lat="44.21194" lon="4.60683">
        <ele>186</ele>
        <time>2012-06-08 10:41:35Z</time>
      </trkpt>
      <trkpt lat="44.21193" lon="4.60682">
        <ele>187</ele>
        <time>2012-06-08 10:41:39Z</time>
      </trkpt>
      <trkpt lat="44.21192" lon="4.60678">
        <ele>187</ele>
        <time>2012-06-08 10:41:43Z</time>
      </trkpt>
      <trkpt lat="44.21191" lon="4.60676">
        <ele>188</ele>
        <time>2012-06-08 10:41:47Z</time>
      </trkpt>
      <trkpt lat="44.21189" lon="4.60674">
        <ele>190</ele>
        <time>2012-06-08 10:41:51Z</time>
      </trkpt>
      <trkpt lat="44.21186" lon="4.60669">
        <ele>190</ele>
        <time>2012-06-08 10:41:55Z</time>
      </trkpt>
      <trkpt lat="44.21184" lon="4.60667">
        <ele>192</ele>
        <time>2012-06-08 10:41:59Z</time>
      </trkpt>
      <trkpt lat="44.21183" lon="4.60665">
        <ele>191</ele>
        <time>2012-06-08 10:42:03Z</time>
      </trkpt>
      <trkpt lat="44.21183" lon="4.60665">
        <ele>191</ele>
        <time>2012-06-08 10:42:07Z</time>
      </trkpt>
      <trkpt lat="44.21183" lon="4.60665">
        <ele>191</ele>
        <time>2012-06-08 10:42:11Z</time>
      </trkpt>
      <trkpt lat="44.21183" lon="4.60665">
        <ele>190</ele>
        <time>2012-06-08 10:42:15Z</time>
      </trkpt>
      <trkpt lat="44.21183" lon="4.60663">
        <ele>189</ele>
        <time>2012-06-08 10:42:19Z</time>
      </trkpt>
      <trkpt lat="44.21182" lon="4.60655">
        <ele>190</ele>
        <time>2012-06-08 10:42:23Z</time>
      </trkpt>
      <trkpt lat="44.21182" lon="4.60651">
        <ele>191</ele>
        <time>2012-06-08 10:42:27Z</time>
      </trkpt>
      <trkpt lat="44.21182" lon="4.60647">
        <ele>191</ele>
        <time>2012-06-08 10:42:31Z</time>
      </trkpt>
      <trkpt lat="44.2118" lon="4.60643">
        <ele>192</ele>
        <time>2012-06-08 10:42:35Z</time>
      </trkpt>
      <trkpt lat="44.21176" lon="4.60638">
        <ele>192</ele>
        <time>2012-06-08 10:42:39Z</time>
      </trkpt>
      <trkpt lat="44.2117" lon="4.60635">
        <ele>192</ele>
        <time>2012-06-08 10:42:43Z</time>
      </trkpt>
      <trkpt lat="44.21167" lon="4.60629">
        <ele>191</ele>
        <time>2012-06-08 10:42:47Z</time>
      </trkpt>
      <trkpt lat="44.21166" lon="4.60625">
        <ele>191</ele>
        <time>2012-06-08 10:42:51Z</time>
      </trkpt>
      <trkpt lat="44.21162" lon="4.60621">
        <ele>191</ele>
        <time>2012-06-08 10:42:55Z</time>
      </trkpt>
      <trkpt lat="44.21161" lon="4.60618">
        <ele>193</ele>
        <time>2012-06-08 10:42:59Z</time>
      </trkpt>
      <trkpt lat="44.2116" lon="4.60617">
        <ele>188</ele>
        <time>2012-06-08 10:43:03Z</time>
      </trkpt>
      <trkpt lat="44.21161" lon="4.6061">
        <ele>187</ele>
        <time>2012-06-08 10:43:07Z</time>
      </trkpt>
      <trkpt lat="44.21161" lon="4.60607">
        <ele>187</ele>
        <time>2012-06-08 10:43:11Z</time>
      </trkpt>
      <trkpt lat="44.2116" lon="4.60609">
        <ele>187</ele>
        <time>2012-06-08 10:43:15Z</time>
      </trkpt>
      <trkpt lat="44.21159" lon="4.60609">
        <ele>188</ele>
        <time>2012-06-08 10:43:19Z</time>
      </trkpt>
      <trkpt lat="44.21158" lon="4.60605">
        <ele>189</ele>
        <time>2012-06-08 10:43:23Z</time>
      </trkpt>
      <trkpt lat="44.21154" lon="4.606">
        <ele>191</ele>
        <time>2012-06-08 10:43:27Z</time>
      </trkpt>
      <trkpt lat="44.21152" lon="4.60595">
        <ele>195</ele>
        <time>2012-06-08 10:43:31Z</time>
      </trkpt>
      <trkpt lat="44.21151" lon="4.60591">
        <ele>191</ele>
        <time>2012-06-08 10:43:35Z</time>
      </trkpt>
      <trkpt lat="44.21151" lon="4.60589">
        <ele>194</ele>
        <time>2012-06-08 10:43:39Z</time>
      </trkpt>
      <trkpt lat="44.2115" lon="4.60588">
        <ele>195</ele>
        <time>2012-06-08 10:43:43Z</time>
      </trkpt>
      <trkpt lat="44.2115" lon="4.60586">
        <ele>197</ele>
        <time>2012-06-08 10:43:47Z</time>
      </trkpt>
      <trkpt lat="44.21151" lon="4.60579">
        <ele>195</ele>
        <time>2012-06-08 10:43:51Z</time>
      </trkpt>
      <trkpt lat="44.2115" lon="4.60575">
        <ele>194</ele>
        <time>2012-06-08 10:43:55Z</time>
      </trkpt>
      <trkpt lat="44.21149" lon="4.60574">
        <ele>194</ele>
        <time>2012-06-08 10:43:59Z</time>
      </trkpt>
      <trkpt lat="44.21149" lon="4.60573">
        <ele>195</ele>
        <time>2012-06-08 10:44:03Z</time>
      </trkpt>
      <trkpt lat="44.21149" lon="4.60573">
        <ele>199</ele>
        <time>2012-06-08 10:44:07Z</time>
      </trkpt>
      <trkpt lat="44.21145" lon="4.6057">
        <ele>200</ele>
        <time>2012-06-08 10:44:11Z</time>
      </trkpt>
      <trkpt lat="44.21142" lon="4.60566">
        <ele>201</ele>
        <time>2012-06-08 10:44:15Z</time>
      </trkpt>
      <trkpt lat="44.21141" lon="4.60559">
        <ele>200</ele>
        <time>2012-06-08 10:44:19Z</time>
      </trkpt>
      <trkpt lat="44.2114" lon="4.60555">
        <ele>201</ele>
        <time>2012-06-08 10:44:23Z</time>
      </trkpt>
      <trkpt lat="44.2114" lon="4.6055">
        <ele>199</ele>
        <time>2012-06-08 10:44:27Z</time>
      </trkpt>
      <trkpt lat="44.21139" lon="4.60547">
        <ele>199</ele>
        <time>2012-06-08 10:44:31Z</time>
      </trkpt>
      <trkpt lat="44.21138" lon="4.60542">
        <ele>202</ele>
        <time>2012-06-08 10:44:35Z</time>
      </trkpt>
      <trkpt lat="44.21136" lon="4.60538">
        <ele>202</ele>
        <time>2012-06-08 10:44:39Z</time>
      </trkpt>
      <trkpt lat="44.21134" lon="4.60535">
        <ele>204</ele>
        <time>2012-06-08 10:44:43Z</time>
      </trkpt>
      <trkpt lat="44.21133" lon="4.60532">
        <ele>204</ele>
        <time>2012-06-08 10:44:47Z</time>
      </trkpt>
      <trkpt lat="44.21131" lon="4.60529">
        <ele>203</ele>
        <time>2012-06-08 10:44:51Z</time>
      </trkpt>
      <trkpt lat="44.2113" lon="4.60528">
        <ele>204</ele>
        <time>2012-06-08 10:44:55Z</time>
      </trkpt>
      <trkpt lat="44.21131" lon="4.60528">
        <ele>204</ele>
        <time>2012-06-08 10:44:59Z</time>
      </trkpt>
      <trkpt lat="44.21129" lon="4.60523">
        <ele>204</ele>
        <time>2012-06-08 10:45:03Z</time>
      </trkpt>
      <trkpt lat="44.21125" lon="4.60515">
        <ele>204</ele>
        <time>2012-06-08 10:45:07Z</time>
      </trkpt>
      <trkpt lat="44.21123" lon="4.60507">
        <ele>204</ele>
        <time>2012-06-08 10:45:11Z</time>
      </trkpt>
      <trkpt lat="44.21121" lon="4.60504">
        <ele>205</ele>
        <time>2012-06-08 10:45:15Z</time>
      </trkpt>
      <trkpt lat="44.21118" lon="4.60503">
        <ele>208</ele>
        <time>2012-06-08 10:45:19Z</time>
      </trkpt>
      <trkpt lat="44.21115" lon="4.60501">
        <ele>208</ele>
        <time>2012-06-08 10:45:23Z</time>
      </trkpt>
      <trkpt lat="44.21114" lon="4.60498">
        <ele>209</ele>
        <time>2012-06-08 10:45:27Z</time>
      </trkpt>
      <trkpt lat="44.21114" lon="4.60498">
        <ele>209</ele>
        <time>2012-06-08 10:45:31Z</time>
      </trkpt>
      <trkpt lat="44.21112" lon="4.60493">
        <ele>210</ele>
        <time>2012-06-08 10:45:35Z</time>
      </trkpt>
      <trkpt lat="44.21111" lon="4.60488">
        <ele>211</ele>
        <time>2012-06-08 10:45:39Z</time>
      </trkpt>
      <trkpt lat="44.21111" lon="4.60483">
        <ele>212</ele>
        <time>2012-06-08 10:45:43Z</time>
      </trkpt>
      <trkpt lat="44.21112" lon="4.60478">
        <ele>213</ele>
        <time>2012-06-08 10:45:47Z</time>
      </trkpt>
      <trkpt lat="44.21112" lon="4.60474">
        <ele>214</ele>
        <time>2012-06-08 10:45:51Z</time>
      </trkpt>
      <trkpt lat="44.21112" lon="4.60473">
        <ele>214</ele>
        <time>2012-06-08 10:45:55Z</time>
      </trkpt>
      <trkpt lat="44.21113" lon="4.60473">
        <ele>213</ele>
        <time>2012-06-08 10:45:59Z</time>
      </trkpt>
      <trkpt lat="44.21112" lon="4.60469">
        <ele>213</ele>
        <time>2012-06-08 10:46:03Z</time>
      </trkpt>
      <trkpt lat="44.21112" lon="4.60462">
        <ele>215</ele>
        <time>2012-06-08 10:46:07Z</time>
      </trkpt>
      <trkpt lat="44.21109" lon="4.60459">
        <ele>216</ele>
        <time>2012-06-08 10:46:11Z</time>
      </trkpt>
      <trkpt lat="44.21106" lon="4.60454">
        <ele>216</ele>
        <time>2012-06-08 10:46:15Z</time>
      </trkpt>
      <trkpt lat="44.21105" lon="4.6045">
        <ele>217</ele>
        <time>2012-06-08 10:46:19Z</time>
      </trkpt>
      <trkpt lat="44.21105" lon="4.60447">
        <ele>217</ele>
        <time>2012-06-08 10:46:23Z</time>
      </trkpt>
      <trkpt lat="44.21104" lon="4.60443">
        <ele>219</ele>
        <time>2012-06-08 10:46:27Z</time>
      </trkpt>
      <trkpt lat="44.21103" lon="4.6044">
        <ele>219</ele>
        <time>2012-06-08 10:46:31Z</time>
      </trkpt>
      <trkpt lat="44.21103" lon="4.6044">
        <ele>217</ele>
        <time>2012-06-08 10:46:35Z</time>
      </trkpt>
      <trkpt lat="44.21101" lon="4.60441">
        <ele>217</ele>
        <time>2012-06-08 10:46:39Z</time>
      </trkpt>
      <trkpt lat="44.21101" lon="4.60435">
        <ele>218</ele>
        <time>2012-06-08 10:46:43Z</time>
      </trkpt>
      <trkpt lat="44.21102" lon="4.60432">
        <ele>218</ele>
        <time>2012-06-08 10:46:47Z</time>
      </trkpt>
      <trkpt lat="44.21104" lon="4.60431">
        <ele>217</ele>
        <time>2012-06-08 10:46:51Z</time>
      </trkpt>
      <trkpt lat="44.21103" lon="4.60429">
        <ele>217</ele>
        <time>2012-06-08 10:46:55Z</time>
      </trkpt>
      <trkpt lat="44.21103" lon="4.60431">
        <ele>215</ele>
        <time>2012-06-08 10:46:59Z</time>
      </trkpt>
      <trkpt lat="44.21104" lon="4.6043">
        <ele>217</ele>
        <time>2012-06-08 10:47:03Z</time>
      </trkpt>
      <trkpt lat="44.21102" lon="4.60427">
        <ele>219</ele>
        <time>2012-06-08 10:47:07Z</time>
      </trkpt>
      <trkpt lat="44.21101" lon="4.6042">
        <ele>219</ele>
        <time>2012-06-08 10:47:11Z</time>
      </trkpt>
      <trkpt lat="44.21099" lon="4.60415">
        <ele>221</ele>
        <time>2012-06-08 10:47:15Z</time>
      </trkpt>
      <trkpt lat="44.21099" lon="4.60411">
        <ele>219</ele>
        <time>2012-06-08 10:47:19Z</time>
      </trkpt>
      <trkpt lat="44.21099" lon="4.60408">
        <ele>220</ele>
        <time>2012-06-08 10:47:23Z</time>
      </trkpt>
      <trkpt lat="44.21099" lon="4.60406">
        <ele>219</ele>
        <time>2012-06-08 10:47:27Z</time>
      </trkpt>
      <trkpt lat="44.211" lon="4.60402">
        <ele>218</ele>
        <time>2012-06-08 10:47:31Z</time>
      </trkpt>
      <trkpt lat="44.211" lon="4.60399">
        <ele>220</ele>
        <time>2012-06-08 10:47:35Z</time>
      </trkpt>
      <trkpt lat="44.21099" lon="4.60392">
        <ele>221</ele>
        <time>2012-06-08 10:47:39Z</time>
      </trkpt>
      <trkpt lat="44.21098" lon="4.60388">
        <ele>224</ele>
        <time>2012-06-08 10:47:43Z</time>
      </trkpt>
      <trkpt lat="44.21095" lon="4.60387">
        <ele>226</ele>
        <time>2012-06-08 10:47:47Z</time>
      </trkpt>
      <trkpt lat="44.21093" lon="4.6038">
        <ele>227</ele>
        <time>2012-06-08 10:47:51Z</time>
      </trkpt>
      <trkpt lat="44.21092" lon="4.60375">
        <ele>231</ele>
        <time>2012-06-08 10:47:55Z</time>
      </trkpt>
      <trkpt lat="44.21092" lon="4.60372">
        <ele>231</ele>
        <time>2012-06-08 10:47:59Z</time>
      </trkpt>
      <trkpt lat="44.21093" lon="4.60367">
        <ele>231</ele>
        <time>2012-06-08 10:48:03Z</time>
      </trkpt>
      <trkpt lat="44.21091" lon="4.60362">
        <ele>230</ele>
        <time>2012-06-08 10:48:07Z</time>
      </trkpt>
      <trkpt lat="44.2109" lon="4.60361">
        <ele>229</ele>
        <time>2012-06-08 10:48:11Z</time>
      </trkpt>
      <trkpt lat="44.2109" lon="4.60361">
        <ele>230</ele>
        <time>2012-06-08 10:48:15Z</time>
      </trkpt>
      <trkpt lat="44.2109" lon="4.60363">
        <ele>231</ele>
        <time>2012-06-08 10:48:19Z</time>
      </trkpt>
      <trkpt lat="44.2109" lon="4.60362">
        <ele>231</ele>
        <time>2012-06-08 10:48:23Z</time>
      </trkpt>
      <trkpt lat="44.2109" lon="4.60362">
        <ele>232</ele>
        <time>2012-06-08 10:48:27Z</time>
      </trkpt>
      <trkpt lat="44.2109" lon="4.60362">
        <ele>229</ele>
        <time>2012-06-08 10:48:31Z</time>
      </trkpt>
      <trkpt lat="44.2109" lon="4.60362">
        <ele>229</ele>
        <time>2012-06-08 10:48:35Z</time>
      </trkpt>
      <trkpt lat="44.21095" lon="4.60357">
        <ele>231</ele>
        <time>2012-06-08 10:48:39Z</time>
      </trkpt>
      <trkpt lat="44.21095" lon="4.60357">
        <ele>230</ele>
        <time>2012-06-08 10:48:43Z</time>
      </trkpt>
      <trkpt lat="44.21093" lon="4.60362">
        <ele>228</ele>
        <time>2012-06-08 10:48:47Z</time>
      </trkpt>
      <trkpt lat="44.21095" lon="4.60364">
        <ele>228</ele>
        <time>2012-06-08 10:48:51Z</time>
      </trkpt>
      <trkpt lat="44.21095" lon="4.60364">
        <ele>227</ele>
        <time>2012-06-08 10:48:55Z</time>
      </trkpt>
      <trkpt lat="44.21095" lon="4.60364">
        <ele>227</ele>
        <time>2012-06-08 10:48:59Z</time>
      </trkpt>
      <trkpt lat="44.21095" lon="4.60364">
        <ele>227</ele>
        <time>2012-06-08 10:49:03Z</time>
      </trkpt>
      <trkpt lat="44.21088" lon="4.60354">
        <ele>229</ele>
        <time>2012-06-08 10:49:07Z</time>
      </trkpt>
      <trkpt lat="44.21086" lon="4.60347">
        <ele>229</ele>
        <time>2012-06-08 10:49:11Z</time>
      </trkpt>
      <trkpt lat="44.21084" lon="4.6034">
        <ele>227</ele>
        <time>2012-06-08 10:49:15Z</time>
      </trkpt>
      <trkpt lat="44.21082" lon="4.60333">
        <ele>228</ele>
        <time>2012-06-08 10:49:19Z</time>
      </trkpt>
      <trkpt lat="44.2108" lon="4.60327">
        <ele>228</ele>
        <time>2012-06-08 10:49:23Z</time>
      </trkpt>
      <trkpt lat="44.21079" lon="4.60318">
        <ele>227</ele>
        <time>2012-06-08 10:49:27Z</time>
      </trkpt>
      <trkpt lat="44.21084" lon="4.60298">
        <ele>226</ele>
        <time>2012-06-08 10:49:31Z</time>
      </trkpt>
      <trkpt lat="44.2109" lon="4.60262">
        <ele>226</ele>
        <time>2012-06-08 10:49:35Z</time>
      </trkpt>
      <trkpt lat="44.21084" lon="4.60228">
        <ele>226</ele>
        <time>2012-06-08 10:49:39Z</time>
      </trkpt>
      <trkpt lat="44.21074" lon="4.602">
        <ele>225</ele>
        <time>2012-06-08 10:49:43Z</time>
      </trkpt>
      <trkpt lat="44.21065" lon="4.6018">
        <ele>225</ele>
        <time>2012-06-08 10:49:47Z</time>
      </trkpt>
      <trkpt lat="44.21059" lon="4.6017">
        <ele>225</ele>
        <time>2012-06-08 10:49:51Z</time>
      </trkpt>
      <trkpt lat="44.2105" lon="4.6017">
        <ele>224</ele>
        <time>2012-06-08 10:49:55Z</time>
      </trkpt>
      <trkpt lat="44.21035" lon="4.60176">
        <ele>223</ele>
        <time>2012-06-08 10:49:59Z</time>
      </trkpt>
      <trkpt lat="44.21011" lon="4.6018">
        <ele>223</ele>
        <time>2012-06-08 10:50:03Z</time>
      </trkpt>
      <trkpt lat="44.20997" lon="4.60179">
        <ele>223</ele>
        <time>2012-06-08 10:50:07Z</time>
      </trkpt>
      <trkpt lat="44.20979" lon="4.60171">
        <ele>220</ele>
        <time>2012-06-08 10:50:11Z</time>
      </trkpt>
      <trkpt lat="44.20964" lon="4.60162">
        <ele>220</ele>
        <time>2012-06-08 10:50:15Z</time>
      </trkpt>
      <trkpt lat="44.20958" lon="4.60144">
        <ele>220</ele>
        <time>2012-06-08 10:50:19Z</time>
      </trkpt>
      <trkpt lat="44.20955" lon="4.60127">
        <ele>220</ele>
        <time>2012-06-08 10:50:23Z</time>
      </trkpt>
      <trkpt lat="44.20957" lon="4.60114">
        <ele>221</ele>
        <time>2012-06-08 10:50:27Z</time>
      </trkpt>
      <trkpt lat="44.20962" lon="4.60098">
        <ele>221</ele>
        <time>2012-06-08 10:50:31Z</time>
      </trkpt>
      <trkpt lat="44.20968" lon="4.6008">
        <ele>223</ele>
        <time>2012-06-08 10:50:35Z</time>
      </trkpt>
      <trkpt lat="44.20972" lon="4.60064">
        <ele>222</ele>
        <time>2012-06-08 10:50:39Z</time>
      </trkpt>
      <trkpt lat="44.20976" lon="4.60053">
        <ele>222</ele>
        <time>2012-06-08 10:50:43Z</time>
      </trkpt>
      <trkpt lat="44.20984" lon="4.60053">
        <ele>219</ele>
        <time>2012-06-08 10:50:47Z</time>
      </trkpt>
      <trkpt lat="44.20997" lon="4.6006">
        <ele>219</ele>
        <time>2012-06-08 10:50:51Z</time>
      </trkpt>
      <trkpt lat="44.21008" lon="4.60068">
        <ele>219</ele>
        <time>2012-06-08 10:50:55Z</time>
      </trkpt>
      <trkpt lat="44.21018" lon="4.60077">
        <ele>218</ele>
        <time>2012-06-08 10:50:59Z</time>
      </trkpt>
      <trkpt lat="44.21026" lon="4.60089">
        <ele>218</ele>
        <time>2012-06-08 10:51:03Z</time>
      </trkpt>
      <trkpt lat="44.21039" lon="4.60087">
        <ele>220</ele>
        <time>2012-06-08 10:51:07Z</time>
      </trkpt>
      <trkpt lat="44.21053" lon="4.60088">
        <ele>221</ele>
        <time>2012-06-08 10:51:11Z</time>
      </trkpt>
      <trkpt lat="44.21066" lon="4.60088">
        <ele>220</ele>
        <time>2012-06-08 10:51:15Z</time>
      </trkpt>
      <trkpt lat="44.21077" lon="4.60088">
        <ele>220</ele>
        <time>2012-06-08 10:51:19Z</time>
      </trkpt>
      <trkpt lat="44.2109" lon="4.60088">
        <ele>223</ele>
        <time>2012-06-08 10:51:23Z</time>
      </trkpt>
      <trkpt lat="44.21099" lon="4.60076">
        <ele>223</ele>
        <time>2012-06-08 10:51:27Z</time>
      </trkpt>
      <trkpt lat="44.211" lon="4.60059">
        <ele>224</ele>
        <time>2012-06-08 10:51:31Z</time>
      </trkpt>
      <trkpt lat="44.211" lon="4.60044">
        <ele>225</ele>
        <time>2012-06-08 10:51:35Z</time>
      </trkpt>
      <trkpt lat="44.21101" lon="4.60033">
        <ele>228</ele>
        <time>2012-06-08 10:51:39Z</time>
      </trkpt>
      <trkpt lat="44.21104" lon="4.60018">
        <ele>227</ele>
        <time>2012-06-08 10:51:43Z</time>
      </trkpt>
      <trkpt lat="44.21103" lon="4.60003">
        <ele>225</ele>
        <time>2012-06-08 10:51:47Z</time>
      </trkpt>
      <trkpt lat="44.21106" lon="4.59984">
        <ele>226</ele>
        <time>2012-06-08 10:51:51Z</time>
      </trkpt>
      <trkpt lat="44.21105" lon="4.59971">
        <ele>227</ele>
        <time>2012-06-08 10:51:55Z</time>
      </trkpt>
      <trkpt lat="44.21105" lon="4.59957">
        <ele>226</ele>
        <time>2012-06-08 10:51:59Z</time>
      </trkpt>
      <trkpt lat="44.21104" lon="4.59949">
        <ele>229</ele>
        <time>2012-06-08 10:52:03Z</time>
      </trkpt>
      <trkpt lat="44.21105" lon="4.5995">
        <ele>228</ele>
        <time>2012-06-08 10:52:07Z</time>
      </trkpt>
      <trkpt lat="44.21104" lon="4.59947">
        <ele>228</ele>
        <time>2012-06-08 10:52:11Z</time>
      </trkpt>
      <trkpt lat="44.211" lon="4.59939">
        <ele>228</ele>
        <time>2012-06-08 10:52:15Z</time>
      </trkpt>
      <trkpt lat="44.21092" lon="4.59927">
        <ele>228</ele>
        <time>2012-06-08 10:52:19Z</time>
      </trkpt>
      <trkpt lat="44.21067" lon="4.59904">
        <ele>228</ele>
        <time>2012-06-08 10:52:23Z</time>
      </trkpt>
      <trkpt lat="44.2105" lon="4.59884">
        <ele>227</ele>
        <time>2012-06-08 10:52:27Z</time>
      </trkpt>
      <trkpt lat="44.21035" lon="4.59868">
        <ele>226</ele>
        <time>2012-06-08 10:52:31Z</time>
      </trkpt>
      <trkpt lat="44.21015" lon="4.59848">
        <ele>224</ele>
        <time>2012-06-08 10:52:35Z</time>
      </trkpt>
      <trkpt lat="44.21001" lon="4.59833">
        <ele>224</ele>
        <time>2012-06-08 10:52:39Z</time>
      </trkpt>
      <trkpt lat="44.20987" lon="4.59818">
        <ele>224</ele>
        <time>2012-06-08 10:52:43Z</time>
      </trkpt>
      <trkpt lat="44.20974" lon="4.59803">
        <ele>223</ele>
        <time>2012-06-08 10:52:47Z</time>
      </trkpt>
      <trkpt lat="44.20965" lon="4.59792">
        <ele>223</ele>
        <time>2012-06-08 10:52:51Z</time>
      </trkpt>
      <trkpt lat="44.20964" lon="4.59784">
        <ele>223</ele>
        <time>2012-06-08 10:52:55Z</time>
      </trkpt>
      <trkpt lat="44.20971" lon="4.59775">
        <ele>222</ele>
        <time>2012-06-08 10:52:59Z</time>
      </trkpt>
      <trkpt lat="44.20979" lon="4.59763">
        <ele>222</ele>
        <time>2012-06-08 10:53:03Z</time>
      </trkpt>
      <trkpt lat="44.20987" lon="4.59749">
        <ele>221</ele>
        <time>2012-06-08 10:53:07Z</time>
      </trkpt>
      <trkpt lat="44.2099" lon="4.59733">
        <ele>221</ele>
        <time>2012-06-08 10:53:11Z</time>
      </trkpt>
      <trkpt lat="44.20992" lon="4.59719">
        <ele>220</ele>
        <time>2012-06-08 10:53:15Z</time>
      </trkpt>
      <trkpt lat="44.20991" lon="4.59708">
        <ele>220</ele>
        <time>2012-06-08 10:53:19Z</time>
      </trkpt>
      <trkpt lat="44.20989" lon="4.59693">
        <ele>219</ele>
        <time>2012-06-08 10:53:23Z</time>
      </trkpt>
      <trkpt lat="44.20989" lon="4.59682">
        <ele>218</ele>
        <time>2012-06-08 10:53:27Z</time>
      </trkpt>
      <trkpt lat="44.20989" lon="4.59662">
        <ele>216</ele>
        <time>2012-06-08 10:53:31Z</time>
      </trkpt>
      <trkpt lat="44.20992" lon="4.5964">
        <ele>214</ele>
        <time>2012-06-08 10:53:35Z</time>
      </trkpt>
      <trkpt lat="44.20996" lon="4.59614">
        <ele>211</ele>
        <time>2012-06-08 10:53:39Z</time>
      </trkpt>
      <trkpt lat="44.21" lon="4.59597">
        <ele>212</ele>
        <time>2012-06-08 10:53:43Z</time>
      </trkpt>
      <trkpt lat="44.21007" lon="4.59571">
        <ele>212</ele>
        <time>2012-06-08 10:53:47Z</time>
      </trkpt>
      <trkpt lat="44.21013" lon="4.59546">
        <ele>212</ele>
        <time>2012-06-08 10:53:51Z</time>
      </trkpt>
      <trkpt lat="44.21019" lon="4.59522">
        <ele>211</ele>
        <time>2012-06-08 10:53:55Z</time>
      </trkpt>
      <trkpt lat="44.21024" lon="4.595">
        <ele>211</ele>
        <time>2012-06-08 10:53:59Z</time>
      </trkpt>
      <trkpt lat="44.21029" lon="4.5948">
        <ele>212</ele>
        <time>2012-06-08 10:54:03Z</time>
      </trkpt>
      <trkpt lat="44.21034" lon="4.59456">
        <ele>212</ele>
        <time>2012-06-08 10:54:07Z</time>
      </trkpt>
      <trkpt lat="44.21037" lon="4.59433">
        <ele>210</ele>
        <time>2012-06-08 10:54:11Z</time>
      </trkpt>
      <trkpt lat="44.21042" lon="4.59411">
        <ele>210</ele>
        <time>2012-06-08 10:54:15Z</time>
      </trkpt>
      <trkpt lat="44.21043" lon="4.59394">
        <ele>211</ele>
        <time>2012-06-08 10:54:19Z</time>
      </trkpt>
      <trkpt lat="44.21046" lon="4.5937">
        <ele>209</ele>
        <time>2012-06-08 10:54:23Z</time>
      </trkpt>
      <trkpt lat="44.21054" lon="4.59343">
        <ele>208</ele>
        <time>2012-06-08 10:54:27Z</time>
      </trkpt>
      <trkpt lat="44.21062" lon="4.59319">
        <ele>207</ele>
        <time>2012-06-08 10:54:31Z</time>
      </trkpt>
      <trkpt lat="44.21067" lon="4.59302">
        <ele>207</ele>
        <time>2012-06-08 10:54:35Z</time>
      </trkpt>
      <trkpt lat="44.21071" lon="4.59285">
        <ele>209</ele>
        <time>2012-06-08 10:54:39Z</time>
      </trkpt>
      <trkpt lat="44.21077" lon="4.59261">
        <ele>207</ele>
        <time>2012-06-08 10:54:43Z</time>
      </trkpt>
      <trkpt lat="44.21087" lon="4.59233">
        <ele>209</ele>
        <time>2012-06-08 10:54:47Z</time>
      </trkpt>
      <trkpt lat="44.21095" lon="4.59208">
        <ele>208</ele>
        <time>2012-06-08 10:54:51Z</time>
      </trkpt>
      <trkpt lat="44.211" lon="4.59188">
        <ele>208</ele>
        <time>2012-06-08 10:54:55Z</time>
      </trkpt>
      <trkpt lat="44.21107" lon="4.59171">
        <ele>209</ele>
        <time>2012-06-08 10:54:59Z</time>
      </trkpt>
      <trkpt lat="44.21114" lon="4.59158">
        <ele>208</ele>
        <time>2012-06-08 10:55:03Z</time>
      </trkpt>
      <trkpt lat="44.21119" lon="4.59146">
        <ele>208</ele>
        <time>2012-06-08 10:55:07Z</time>
      </trkpt>
      <trkpt lat="44.21121" lon="4.59135">
        <ele>209</ele>
        <time>2012-06-08 10:55:11Z</time>
      </trkpt>
      <trkpt lat="44.2112" lon="4.59119">
        <ele>210</ele>
        <time>2012-06-08 10:55:15Z</time>
      </trkpt>
      <trkpt lat="44.21119" lon="4.59105">
        <ele>213</ele>
        <time>2012-06-08 10:55:19Z</time>
      </trkpt>
      <trkpt lat="44.21116" lon="4.59098">
        <ele>212</ele>
        <time>2012-06-08 10:55:23Z</time>
      </trkpt>
      <trkpt lat="44.21116" lon="4.59094">
        <ele>213</ele>
        <time>2012-06-08 10:55:27Z</time>
      </trkpt>
      <trkpt lat="44.21116" lon="4.59094">
        <ele>213</ele>
        <time>2012-06-08 10:55:31Z</time>
      </trkpt>
      <trkpt lat="44.21117" lon="4.59094">
        <ele>211</ele>
        <time>2012-06-08 10:55:35Z</time>
      </trkpt>
      <trkpt lat="44.21117" lon="4.59091">
        <ele>211</ele>
        <time>2012-06-08 10:55:39Z</time>
      </trkpt>
      <trkpt lat="44.21119" lon="4.5909">
        <ele>210</ele>
        <time>2012-06-08 10:55:43Z</time>
      </trkpt>
      <trkpt lat="44.21114" lon="4.59087">
        <ele>209</ele>
        <time>2012-06-08 10:55:47Z</time>
      </trkpt>
      <trkpt lat="44.21106" lon="4.59083">
        <ele>210</ele>
        <time>2012-06-08 10:55:51Z</time>
      </trkpt>
      <trkpt lat="44.21098" lon="4.59078">
        <ele>210</ele>
        <time>2012-06-08 10:55:55Z</time>
      </trkpt>
      <trkpt lat="44.21084" lon="4.59074">
        <ele>210</ele>
        <time>2012-06-08 10:55:59Z</time>
      </trkpt>
      <trkpt lat="44.21066" lon="4.59064">
        <ele>211</ele>
        <time>2012-06-08 10:56:03Z</time>
      </trkpt>
      <trkpt lat="44.21052" lon="4.59052">
        <ele>210</ele>
        <time>2012-06-08 10:56:07Z</time>
      </trkpt>
      <trkpt lat="44.21043" lon="4.59036">
        <ele>209</ele>
        <time>2012-06-08 10:56:11Z</time>
      </trkpt>
      <trkpt lat="44.21032" lon="4.5902">
        <ele>210</ele>
        <time>2012-06-08 10:56:15Z</time>
      </trkpt>
      <trkpt lat="44.21019" lon="4.59007">
        <ele>210</ele>
        <time>2012-06-08 10:56:19Z</time>
      </trkpt>
      <trkpt lat="44.21006" lon="4.59001">
        <ele>208</ele>
        <time>2012-06-08 10:56:23Z</time>
      </trkpt>
      <trkpt lat="44.20989" lon="4.58995">
        <ele>206</ele>
        <time>2012-06-08 10:56:27Z</time>
      </trkpt>
      <trkpt lat="44.20971" lon="4.58988">
        <ele>205</ele>
        <time>2012-06-08 10:56:31Z</time>
      </trkpt>
      <trkpt lat="44.20948" lon="4.58973">
        <ele>204</ele>
        <time>2012-06-08 10:56:35Z</time>
      </trkpt>
      <trkpt lat="44.20933" lon="4.58958">
        <ele>204</ele>
        <time>2012-06-08 10:56:39Z</time>
      </trkpt>
      <trkpt lat="44.20908" lon="4.58945">
        <ele>203</ele>
        <time>2012-06-08 10:56:43Z</time>
      </trkpt>
      <trkpt lat="44.20888" lon="4.5893">
        <ele>203</ele>
        <time>2012-06-08 10:56:47Z</time>
      </trkpt>
      <trkpt lat="44.20867" lon="4.58931">
        <ele>203</ele>
        <time>2012-06-08 10:56:51Z</time>
      </trkpt>
      <trkpt lat="44.20841" lon="4.58931">
        <ele>201</ele>
        <time>2012-06-08 10:56:55Z</time>
      </trkpt>
      <trkpt lat="44.20816" lon="4.58921">
        <ele>201</ele>
        <time>2012-06-08 10:56:59Z</time>
      </trkpt>
      <trkpt lat="44.20792" lon="4.58912">
        <ele>200</ele>
        <time>2012-06-08 10:57:03Z</time>
      </trkpt>
      <trkpt lat="44.20769" lon="4.58897">
        <ele>200</ele>
        <time>2012-06-08 10:57:07Z</time>
      </trkpt>
      <trkpt lat="44.20751" lon="4.58875">
        <ele>200</ele>
        <time>2012-06-08 10:57:11Z</time>
      </trkpt>
      <trkpt lat="44.20734" lon="4.58852">
        <ele>200</ele>
        <time>2012-06-08 10:57:15Z</time>
      </trkpt>
      <trkpt lat="44.20712" lon="4.58831">
        <ele>201</ele>
        <time>2012-06-08 10:57:19Z</time>
      </trkpt>
      <trkpt lat="44.20686" lon="4.58818">
        <ele>201</ele>
        <time>2012-06-08 10:57:23Z</time>
      </trkpt>
      <trkpt lat="44.20665" lon="4.58805">
        <ele>200</ele>
        <time>2012-06-08 10:57:27Z</time>
      </trkpt>
      <trkpt lat="44.2065" lon="4.58782">
        <ele>199</ele>
        <time>2012-06-08 10:57:31Z</time>
      </trkpt>
      <trkpt lat="44.20632" lon="4.5877">
        <ele>199</ele>
        <time>2012-06-08 10:57:35Z</time>
      </trkpt>
      <trkpt lat="44.20619" lon="4.58751">
        <ele>197</ele>
        <time>2012-06-08 10:57:39Z</time>
      </trkpt>
      <trkpt lat="44.20602" lon="4.58729">
        <ele>197</ele>
        <time>2012-06-08 10:57:43Z</time>
      </trkpt>
      <trkpt lat="44.20582" lon="4.58721">
        <ele>197</ele>
        <time>2012-06-08 10:57:47Z</time>
      </trkpt>
      <trkpt lat="44.20561" lon="4.58713">
        <ele>195</ele>
        <time>2012-06-08 10:57:51Z</time>
      </trkpt>
      <trkpt lat="44.2054" lon="4.58704">
        <ele>195</ele>
        <time>2012-06-08 10:57:55Z</time>
      </trkpt>
      <trkpt lat="44.20528" lon="4.58698">
        <ele>195</ele>
        <time>2012-06-08 10:57:59Z</time>
      </trkpt>
      <trkpt lat="44.20515" lon="4.58697">
        <ele>194</ele>
        <time>2012-06-08 10:58:03Z</time>
      </trkpt>
      <trkpt lat="44.205" lon="4.58694">
        <ele>193</ele>
        <time>2012-06-08 10:58:07Z</time>
      </trkpt>
      <trkpt lat="44.20487" lon="4.58691">
        <ele>192</ele>
        <time>2012-06-08 10:58:11Z</time>
      </trkpt>
      <trkpt lat="44.20475" lon="4.58688">
        <ele>192</ele>
        <time>2012-06-08 10:58:15Z</time>
      </trkpt>
      <trkpt lat="44.20465" lon="4.58686">
        <ele>194</ele>
        <time>2012-06-08 10:58:19Z</time>
      </trkpt>
      <trkpt lat="44.20454" lon="4.58686">
        <ele>191</ele>
        <time>2012-06-08 10:58:23Z</time>
      </trkpt>
      <trkpt lat="44.20443" lon="4.58686">
        <ele>190</ele>
        <time>2012-06-08 10:58:27Z</time>
      </trkpt>
      <trkpt lat="44.2043" lon="4.58687">
        <ele>188</ele>
        <time>2012-06-08 10:58:31Z</time>
      </trkpt>
      <trkpt lat="44.20419" lon="4.58683">
        <ele>185</ele>
        <time>2012-06-08 10:58:35Z</time>
      </trkpt>
      <trkpt lat="44.20407" lon="4.58682">
        <ele>182</ele>
        <time>2012-06-08 10:58:39Z</time>
      </trkpt>
      <trkpt lat="44.20388" lon="4.58683">
        <ele>181</ele>
        <time>2012-06-08 10:58:43Z</time>
      </trkpt>
      <trkpt lat="44.2037" lon="4.5868">
        <ele>180</ele>
        <time>2012-06-08 10:58:47Z</time>
      </trkpt>
      <trkpt lat="44.20351" lon="4.58682">
        <ele>177</ele>
        <time>2012-06-08 10:58:51Z</time>
      </trkpt>
      <trkpt lat="44.20332" lon="4.58679">
        <ele>177</ele>
        <time>2012-06-08 10:58:55Z</time>
      </trkpt>
      <trkpt lat="44.20319" lon="4.5867">
        <ele>176</ele>
        <time>2012-06-08 10:58:59Z</time>
      </trkpt>
      <trkpt lat="44.20311" lon="4.58661">
        <ele>173</ele>
        <time>2012-06-08 10:59:03Z</time>
      </trkpt>
      <trkpt lat="44.20309" lon="4.58658">
        <ele>169</ele>
        <time>2012-06-08 10:59:07Z</time>
      </trkpt>
      <trkpt lat="44.20308" lon="4.58654">
        <ele>164</ele>
        <time>2012-06-08 10:59:11Z</time>
      </trkpt>
      <trkpt lat="44.20308" lon="4.58654">
        <ele>164</ele>
        <time>2012-06-08 10:59:15Z</time>
      </trkpt>
      <trkpt lat="44.20308" lon="4.58654">
        <ele>163</ele>
        <time>2012-06-08 10:59:19Z</time>
      </trkpt>
      <trkpt lat="44.203" lon="4.58643">
        <ele>162</ele>
        <time>2012-06-08 10:59:23Z</time>
      </trkpt>
      <trkpt lat="44.20287" lon="4.58632">
        <ele>162</ele>
        <time>2012-06-08 10:59:27Z</time>
      </trkpt>
      <trkpt lat="44.20272" lon="4.58621">
        <ele>162</ele>
        <time>2012-06-08 10:59:31Z</time>
      </trkpt>
      <trkpt lat="44.20261" lon="4.58612">
        <ele>163</ele>
        <time>2012-06-08 10:59:35Z</time>
      </trkpt>
      <trkpt lat="44.20252" lon="4.58608">
        <ele>163</ele>
        <time>2012-06-08 10:59:39Z</time>
      </trkpt>
      <trkpt lat="44.20236" lon="4.58607">
        <ele>162</ele>
        <time>2012-06-08 10:59:43Z</time>
      </trkpt>
      <trkpt lat="44.20198" lon="4.586">
        <ele>159</ele>
        <time>2012-06-08 10:59:47Z</time>
      </trkpt>
      <trkpt lat="44.20166" lon="4.58585">
        <ele>159</ele>
        <time>2012-06-08 10:59:51Z</time>
      </trkpt>
      <trkpt lat="44.20148" lon="4.58575">
        <ele>158</ele>
        <time>2012-06-08 10:59:55Z</time>
      </trkpt>
      <trkpt lat="44.20142" lon="4.58575">
        <ele>157</ele>
        <time>2012-06-08 10:59:59Z</time>
      </trkpt>
      <trkpt lat="44.20142" lon="4.58577">
        <ele>157</ele>
        <time>2012-06-08 11:00:03Z</time>
      </trkpt>
      <trkpt lat="44.20141" lon="4.58577">
        <ele>156</ele>
        <time>2012-06-08 11:00:07Z</time>
      </trkpt>
      <trkpt lat="44.20141" lon="4.58574">
        <ele>156</ele>
        <time>2012-06-08 11:00:11Z</time>
      </trkpt>
      <trkpt lat="44.20138" lon="4.58575">
        <ele>156</ele>
        <time>2012-06-08 11:00:15Z</time>
      </trkpt>
      <trkpt lat="44.20134" lon="4.58581">
        <ele>155</ele>
        <time>2012-06-08 11:00:19Z</time>
      </trkpt>
      <trkpt lat="44.20129" lon="4.58584">
        <ele>154</ele>
        <time>2012-06-08 11:00:23Z</time>
      </trkpt>
      <trkpt lat="44.20124" lon="4.58586">
        <ele>152</ele>
        <time>2012-06-08 11:00:27Z</time>
      </trkpt>
      <trkpt lat="44.20123" lon="4.58587">
        <ele>151</ele>
        <time>2012-06-08 11:00:31Z</time>
      </trkpt>
      <trkpt lat="44.20123" lon="4.58588">
        <ele>151</ele>
        <time>2012-06-08 11:00:35Z</time>
      </trkpt>
      <trkpt lat="44.20123" lon="4.58586">
        <ele>150</ele>
        <time>2012-06-08 11:00:39Z</time>
      </trkpt>
      <trkpt lat="44.20124" lon="4.58579">
        <ele>150</ele>
        <time>2012-06-08 11:00:43Z</time>
      </trkpt>
      <trkpt lat="44.20122" lon="4.58577">
        <ele>149</ele>
        <time>2012-06-08 11:00:47Z</time>
      </trkpt>
      <trkpt lat="44.20119" lon="4.58581">
        <ele>149</ele>
        <time>2012-06-08 11:00:51Z</time>
      </trkpt>
      <trkpt lat="44.20114" lon="4.58588">
        <ele>148</ele>
        <time>2012-06-08 11:00:55Z</time>
      </trkpt>
      <trkpt lat="44.2011" lon="4.58592">
        <ele>148</ele>
        <time>2012-06-08 11:00:59Z</time>
      </trkpt>
      <trkpt lat="44.2011" lon="4.58595">
        <ele>147</ele>
        <time>2012-06-08 11:01:03Z</time>
      </trkpt>
      <trkpt lat="44.2011" lon="4.58596">
        <ele>148</ele>
        <time>2012-06-08 11:01:07Z</time>
      </trkpt>
      <trkpt lat="44.20108" lon="4.58589">
        <ele>146</ele>
        <time>2012-06-08 11:01:11Z</time>
      </trkpt>
      <trkpt lat="44.20102" lon="4.58583">
        <ele>147</ele>
        <time>2012-06-08 11:01:15Z</time>
      </trkpt>
      <trkpt lat="44.20094" lon="4.58568">
        <ele>148</ele>
        <time>2012-06-08 11:01:19Z</time>
      </trkpt>
      <trkpt lat="44.20089" lon="4.58562">
        <ele>148</ele>
        <time>2012-06-08 11:01:23Z</time>
      </trkpt>
      <trkpt lat="44.20091" lon="4.58563">
        <ele>148</ele>
        <time>2012-06-08 11:01:27Z</time>
      </trkpt>
      <trkpt lat="44.20096" lon="4.58565">
        <ele>147</ele>
        <time>2012-06-08 11:01:31Z</time>
      </trkpt>
      <trkpt lat="44.20097" lon="4.58567">
        <ele>147</ele>
        <time>2012-06-08 11:01:35Z</time>
      </trkpt>
      <trkpt lat="44.20096" lon="4.58569">
        <ele>147</ele>
        <time>2012-06-08 11:01:39Z</time>
      </trkpt>
      <trkpt lat="44.20095" lon="4.58566">
        <ele>147</ele>
        <time>2012-06-08 11:01:43Z</time>
      </trkpt>
      <trkpt lat="44.20097" lon="4.58564">
        <ele>147</ele>
        <time>2012-06-08 11:01:47Z</time>
      </trkpt>
      <trkpt lat="44.20099" lon="4.5857">
        <ele>146</ele>
        <time>2012-06-08 11:01:51Z</time>
      </trkpt>
      <trkpt lat="44.20101" lon="4.58578">
        <ele>144</ele>
        <time>2012-06-08 11:01:55Z</time>
      </trkpt>
      <trkpt lat="44.20102" lon="4.58584">
        <ele>144</ele>
        <time>2012-06-08 11:01:59Z</time>
      </trkpt>
      <trkpt lat="44.20104" lon="4.58588">
        <ele>144</ele>
        <time>2012-06-08 11:02:03Z</time>
      </trkpt>
      <trkpt lat="44.20102" lon="4.58584">
        <ele>144</ele>
        <time>2012-06-08 11:02:07Z</time>
      </trkpt>
      <trkpt lat="44.20105" lon="4.58582">
        <ele>141</ele>
        <time>2012-06-08 11:02:11Z</time>
      </trkpt>
      <trkpt lat="44.20108" lon="4.58582">
        <ele>144</ele>
        <time>2012-06-08 11:02:15Z</time>
      </trkpt>
      <trkpt lat="44.20111" lon="4.5858">
        <ele>143</ele>
        <time>2012-06-08 11:02:19Z</time>
      </trkpt>
      <trkpt lat="44.20113" lon="4.5858">
        <ele>142</ele>
        <time>2012-06-08 11:02:23Z</time>
      </trkpt>
      <trkpt lat="44.20116" lon="4.58582">
        <ele>140</ele>
        <time>2012-06-08 11:02:27Z</time>
      </trkpt>
      <trkpt lat="44.20124" lon="4.58592">
        <ele>139</ele>
        <time>2012-06-08 11:02:31Z</time>
      </trkpt>
      <trkpt lat="44.20129" lon="4.58591">
        <ele>138</ele>
        <time>2012-06-08 11:02:35Z</time>
      </trkpt>
      <trkpt lat="44.2013" lon="4.58589">
        <ele>139</ele>
        <time>2012-06-08 11:02:39Z</time>
      </trkpt>
      <trkpt lat="44.20132" lon="4.5859">
        <ele>139</ele>
        <time>2012-06-08 11:02:43Z</time>
      </trkpt>
      <trkpt lat="44.20132" lon="4.5859">
        <ele>137</ele>
        <time>2012-06-08 11:02:47Z</time>
      </trkpt>
      <trkpt lat="44.20134" lon="4.58589">
        <ele>137</ele>
        <time>2012-06-08 11:02:51Z</time>
      </trkpt>
      <trkpt lat="44.20136" lon="4.58586">
        <ele>139</ele>
        <time>2012-06-08 11:02:55Z</time>
      </trkpt>
      <trkpt lat="44.20137" lon="4.58582">
        <ele>140</ele>
        <time>2012-06-08 11:02:59Z</time>
      </trkpt>
      <trkpt lat="44.20137" lon="4.58577">
        <ele>140</ele>
        <time>2012-06-08 11:03:03Z</time>
      </trkpt>
      <trkpt lat="44.20135" lon="4.58575">
        <ele>141</ele>
        <time>2012-06-08 11:03:07Z</time>
      </trkpt>
      <trkpt lat="44.20133" lon="4.58571">
        <ele>143</ele>
        <time>2012-06-08 11:03:11Z</time>
      </trkpt>
      <trkpt lat="44.20129" lon="4.58568">
        <ele>144</ele>
        <time>2012-06-08 11:03:15Z</time>
      </trkpt>
      <trkpt lat="44.20124" lon="4.58564">
        <ele>141</ele>
        <time>2012-06-08 11:03:19Z</time>
      </trkpt>
      <trkpt lat="44.20115" lon="4.58556">
        <ele>139</ele>
        <time>2012-06-08 11:03:23Z</time>
      </trkpt>
      <trkpt lat="44.20107" lon="4.58544">
        <ele>142</ele>
        <time>2012-06-08 11:03:27Z</time>
      </trkpt>
      <trkpt lat="44.201" lon="4.58532">
        <ele>141</ele>
        <time>2012-06-08 11:03:31Z</time>
      </trkpt>
      <trkpt lat="44.20094" lon="4.58514">
        <ele>142</ele>
        <time>2012-06-08 11:03:35Z</time>
      </trkpt>
      <trkpt lat="44.20086" lon="4.58495">
        <ele>141</ele>
        <time>2012-06-08 11:03:39Z</time>
      </trkpt>
      <trkpt lat="44.20081" lon="4.58482">
        <ele>140</ele>
        <time>2012-06-08 11:03:43Z</time>
      </trkpt>
      <trkpt lat="44.20077" lon="4.58469">
        <ele>140</ele>
        <time>2012-06-08 11:03:47Z</time>
      </trkpt>
      <trkpt lat="44.20076" lon="4.58454">
        <ele>140</ele>
        <time>2012-06-08 11:03:51Z</time>
      </trkpt>
      <trkpt lat="44.20079" lon="4.58435">
        <ele>139</ele>
        <time>2012-06-08 11:03:55Z</time>
      </trkpt>
      <trkpt lat="44.20083" lon="4.58412">
        <ele>139</ele>
        <time>2012-06-08 11:03:59Z</time>
      </trkpt>
      <trkpt lat="44.20086" lon="4.58386">
        <ele>138</ele>
        <time>2012-06-08 11:04:03Z</time>
      </trkpt>
      <trkpt lat="44.20091" lon="4.58368">
        <ele>138</ele>
        <time>2012-06-08 11:04:07Z</time>
      </trkpt>
      <trkpt lat="44.20092" lon="4.58347">
        <ele>138</ele>
        <time>2012-06-08 11:04:11Z</time>
      </trkpt>
      <trkpt lat="44.20088" lon="4.58322">
        <ele>138</ele>
        <time>2012-06-08 11:04:15Z</time>
      </trkpt>
      <trkpt lat="44.20086" lon="4.58299">
        <ele>138</ele>
        <time>2012-06-08 11:04:19Z</time>
      </trkpt>
      <trkpt lat="44.20084" lon="4.58279">
        <ele>137</ele>
        <time>2012-06-08 11:04:23Z</time>
      </trkpt>
      <trkpt lat="44.20083" lon="4.58259">
        <ele>137</ele>
        <time>2012-06-08 11:04:27Z</time>
      </trkpt>
      <trkpt lat="44.20083" lon="4.5824">
        <ele>137</ele>
        <time>2012-06-08 11:04:31Z</time>
      </trkpt>
      <trkpt lat="44.20078" lon="4.5822">
        <ele>137</ele>
        <time>2012-06-08 11:04:35Z</time>
      </trkpt>
      <trkpt lat="44.20073" lon="4.58202">
        <ele>136</ele>
        <time>2012-06-08 11:04:39Z</time>
      </trkpt>
      <trkpt lat="44.20066" lon="4.58177">
        <ele>135</ele>
        <time>2012-06-08 11:04:43Z</time>
      </trkpt>
      <trkpt lat="44.20058" lon="4.58147">
        <ele>135</ele>
        <time>2012-06-08 11:04:47Z</time>
      </trkpt>
      <trkpt lat="44.20049" lon="4.58119">
        <ele>136</ele>
        <time>2012-06-08 11:04:51Z</time>
      </trkpt>
      <trkpt lat="44.20041" lon="4.58096">
        <ele>135</ele>
        <time>2012-06-08 11:04:55Z</time>
      </trkpt>
      <trkpt lat="44.20034" lon="4.5808">
        <ele>136</ele>
        <time>2012-06-08 11:04:59Z</time>
      </trkpt>
      <trkpt lat="44.20028" lon="4.58067">
        <ele>135</ele>
        <time>2012-06-08 11:05:03Z</time>
      </trkpt>
      <trkpt lat="44.20015" lon="4.58053">
        <ele>136</ele>
        <time>2012-06-08 11:05:07Z</time>
      </trkpt>
      <trkpt lat="44.20003" lon="4.58037">
        <ele>135</ele>
        <time>2012-06-08 11:05:11Z</time>
      </trkpt>
      <trkpt lat="44.19991" lon="4.58016">
        <ele>135</ele>
        <time>2012-06-08 11:05:15Z</time>
      </trkpt>
      <trkpt lat="44.19979" lon="4.57993">
        <ele>139</ele>
        <time>2012-06-08 11:05:19Z</time>
      </trkpt>
      <trkpt lat="44.19968" lon="4.57972">
        <ele>137</ele>
        <time>2012-06-08 11:05:23Z</time>
      </trkpt>
      <trkpt lat="44.19955" lon="4.57957">
        <ele>136</ele>
        <time>2012-06-08 11:05:27Z</time>
      </trkpt>
      <trkpt lat="44.19939" lon="4.57941">
        <ele>136</ele>
        <time>2012-06-08 11:05:31Z</time>
      </trkpt>
      <trkpt lat="44.19925" lon="4.57925">
        <ele>138</ele>
        <time>2012-06-08 11:05:35Z</time>
      </trkpt>
      <trkpt lat="44.19915" lon="4.57903">
        <ele>136</ele>
        <time>2012-06-08 11:05:39Z</time>
      </trkpt>
      <trkpt lat="44.19905" lon="4.57879">
        <ele>135</ele>
        <time>2012-06-08 11:05:43Z</time>
      </trkpt>
      <trkpt lat="44.19887" lon="4.57847">
        <ele>136</ele>
        <time>2012-06-08 11:05:47Z</time>
      </trkpt>
      <trkpt lat="44.19864" lon="4.57822">
        <ele>134</ele>
        <time>2012-06-08 11:05:51Z</time>
      </trkpt>
      <trkpt lat="44.19851" lon="4.57812">
        <ele>133</ele>
        <time>2012-06-08 11:05:55Z</time>
      </trkpt>
      <trkpt lat="44.19845" lon="4.57805">
        <ele>130</ele>
        <time>2012-06-08 11:05:59Z</time>
      </trkpt>
      <trkpt lat="44.19836" lon="4.57802">
        <ele>125</ele>
        <time>2012-06-08 11:06:03Z</time>
      </trkpt>
      <trkpt lat="44.19829" lon="4.578">
        <ele>123</ele>
        <time>2012-06-08 11:06:07Z</time>
      </trkpt>
      <trkpt lat="44.19812" lon="4.57789">
        <ele>119</ele>
        <time>2012-06-08 11:06:11Z</time>
      </trkpt>
      <trkpt lat="44.19797" lon="4.57781">
        <ele>119</ele>
        <time>2012-06-08 11:06:15Z</time>
      </trkpt>
      <trkpt lat="44.19785" lon="4.5778">
        <ele>120</ele>
        <time>2012-06-08 11:06:19Z</time>
      </trkpt>
      <trkpt lat="44.19775" lon="4.57787">
        <ele>120</ele>
        <time>2012-06-08 11:06:23Z</time>
      </trkpt>
      <trkpt lat="44.19768" lon="4.57798">
        <ele>120</ele>
        <time>2012-06-08 11:06:27Z</time>
      </trkpt>
      <trkpt lat="44.19762" lon="4.57811">
        <ele>120</ele>
        <time>2012-06-08 11:06:31Z</time>
      </trkpt>
      <trkpt lat="44.19756" lon="4.57822">
        <ele>119</ele>
        <time>2012-06-08 11:06:35Z</time>
      </trkpt>
      <trkpt lat="44.19749" lon="4.57831">
        <ele>118</ele>
        <time>2012-06-08 11:06:39Z</time>
      </trkpt>
      <trkpt lat="44.19743" lon="4.57834">
        <ele>118</ele>
        <time>2012-06-08 11:06:43Z</time>
      </trkpt>
      <trkpt lat="44.19736" lon="4.57835">
        <ele>118</ele>
        <time>2012-06-08 11:06:47Z</time>
      </trkpt>
      <trkpt lat="44.19728" lon="4.5784">
        <ele>119</ele>
        <time>2012-06-08 11:06:51Z</time>
      </trkpt>
      <trkpt lat="44.19724" lon="4.57848">
        <ele>120</ele>
        <time>2012-06-08 11:06:55Z</time>
      </trkpt>
      <trkpt lat="44.19722" lon="4.57859">
        <ele>121</ele>
        <time>2012-06-08 11:06:59Z</time>
      </trkpt>
      <trkpt lat="44.19722" lon="4.5787">
        <ele>120</ele>
        <time>2012-06-08 11:07:03Z</time>
      </trkpt>
      <trkpt lat="44.19721" lon="4.57879">
        <ele>122</ele>
        <time>2012-06-08 11:07:07Z</time>
      </trkpt>
      <trkpt lat="44.1972" lon="4.57889">
        <ele>122</ele>
        <time>2012-06-08 11:07:11Z</time>
      </trkpt>
      <trkpt lat="44.19717" lon="4.57896">
        <ele>122</ele>
        <time>2012-06-08 11:07:15Z</time>
      </trkpt>
      <trkpt lat="44.19712" lon="4.57905">
        <ele>123</ele>
        <time>2012-06-08 11:07:19Z</time>
      </trkpt>
      <trkpt lat="44.19709" lon="4.57912">
        <ele>123</ele>
        <time>2012-06-08 11:07:23Z</time>
      </trkpt>
      <trkpt lat="44.19706" lon="4.57918">
        <ele>123</ele>
        <time>2012-06-08 11:07:27Z</time>
      </trkpt>
      <trkpt lat="44.19704" lon="4.57927">
        <ele>124</ele>
        <time>2012-06-08 11:07:31Z</time>
      </trkpt>
      <trkpt lat="44.19704" lon="4.57936">
        <ele>126</ele>
        <time>2012-06-08 11:07:35Z</time>
      </trkpt>
      <trkpt lat="44.19705" lon="4.57943">
        <ele>126</ele>
        <time>2012-06-08 11:07:39Z</time>
      </trkpt>
      <trkpt lat="44.19706" lon="4.57953">
        <ele>127</ele>
        <time>2012-06-08 11:07:43Z</time>
      </trkpt>
      <trkpt lat="44.19707" lon="4.57962">
        <ele>128</ele>
        <time>2012-06-08 11:07:47Z</time>
      </trkpt>
      <trkpt lat="44.19711" lon="4.57973">
        <ele>128</ele>
        <time>2012-06-08 11:07:51Z</time>
      </trkpt>
      <trkpt lat="44.19717" lon="4.57982">
        <ele>127</ele>
        <time>2012-06-08 11:07:55Z</time>
      </trkpt>
      <trkpt lat="44.19725" lon="4.5799">
        <ele>128</ele>
        <time>2012-06-08 11:07:59Z</time>
      </trkpt>
      <trkpt lat="44.19731" lon="4.57999">
        <ele>127</ele>
        <time>2012-06-08 11:08:03Z</time>
      </trkpt>
      <trkpt lat="44.19737" lon="4.58009">
        <ele>125</ele>
        <time>2012-06-08 11:08:07Z</time>
      </trkpt>
      <trkpt lat="44.19741" lon="4.58019">
        <ele>126</ele>
        <time>2012-06-08 11:08:11Z</time>
      </trkpt>
      <trkpt lat="44.19744" lon="4.58027">
        <ele>127</ele>
        <time>2012-06-08 11:08:15Z</time>
      </trkpt>
      <trkpt lat="44.19747" lon="4.58034">
        <ele>128</ele>
        <time>2012-06-08 11:08:19Z</time>
      </trkpt>
      <trkpt lat="44.19748" lon="4.5804">
        <ele>129</ele>
        <time>2012-06-08 11:08:23Z</time>
      </trkpt>
      <trkpt lat="44.19751" lon="4.58045">
        <ele>128</ele>
        <time>2012-06-08 11:08:27Z</time>
      </trkpt>
      <trkpt lat="44.19754" lon="4.58053">
        <ele>129</ele>
        <time>2012-06-08 11:08:31Z</time>
      </trkpt>
      <trkpt lat="44.19756" lon="4.5806">
        <ele>130</ele>
        <time>2012-06-08 11:08:35Z</time>
      </trkpt>
      <trkpt lat="44.19759" lon="4.58066">
        <ele>132</ele>
        <time>2012-06-08 11:08:39Z</time>
      </trkpt>
      <trkpt lat="44.19763" lon="4.58076">
        <ele>137</ele>
        <time>2012-06-08 11:08:43Z</time>
      </trkpt>
      <trkpt lat="44.19767" lon="4.58085">
        <ele>137</ele>
        <time>2012-06-08 11:08:47Z</time>
      </trkpt>
      <trkpt lat="44.19769" lon="4.58091">
        <ele>137</ele>
        <time>2012-06-08 11:08:51Z</time>
      </trkpt>
      <trkpt lat="44.19772" lon="4.58096">
        <ele>138</ele>
        <time>2012-06-08 11:08:55Z</time>
      </trkpt>
      <trkpt lat="44.19775" lon="4.58101">
        <ele>138</ele>
        <time>2012-06-08 11:08:59Z</time>
      </trkpt>
      <trkpt lat="44.19779" lon="4.58106">
        <ele>139</ele>
        <time>2012-06-08 11:09:03Z</time>
      </trkpt>
      <trkpt lat="44.19781" lon="4.58113">
        <ele>139</ele>
        <time>2012-06-08 11:09:07Z</time>
      </trkpt>
      <trkpt lat="44.19782" lon="4.58119">
        <ele>139</ele>
        <time>2012-06-08 11:09:11Z</time>
      </trkpt>
      <trkpt lat="44.19784" lon="4.58125">
        <ele>140</ele>
        <time>2012-06-08 11:09:15Z</time>
      </trkpt>
      <trkpt lat="44.19785" lon="4.58133">
        <ele>140</ele>
        <time>2012-06-08 11:09:19Z</time>
      </trkpt>
      <trkpt lat="44.19785" lon="4.58139">
        <ele>142</ele>
        <time>2012-06-08 11:09:23Z</time>
      </trkpt>
      <trkpt lat="44.19786" lon="4.58145">
        <ele>142</ele>
        <time>2012-06-08 11:09:27Z</time>
      </trkpt>
      <trkpt lat="44.19786" lon="4.58151">
        <ele>143</ele>
        <time>2012-06-08 11:09:31Z</time>
      </trkpt>
      <trkpt lat="44.19784" lon="4.5816">
        <ele>143</ele>
        <time>2012-06-08 11:09:35Z</time>
      </trkpt>
      <trkpt lat="44.19782" lon="4.58168">
        <ele>142</ele>
        <time>2012-06-08 11:09:39Z</time>
      </trkpt>
      <trkpt lat="44.19781" lon="4.58172">
        <ele>141</ele>
        <time>2012-06-08 11:09:43Z</time>
      </trkpt>
      <trkpt lat="44.1978" lon="4.5818">
        <ele>142</ele>
        <time>2012-06-08 11:09:47Z</time>
      </trkpt>
      <trkpt lat="44.19778" lon="4.58189">
        <ele>141</ele>
        <time>2012-06-08 11:09:51Z</time>
      </trkpt>
      <trkpt lat="44.19776" lon="4.58198">
        <ele>141</ele>
        <time>2012-06-08 11:09:55Z</time>
      </trkpt>
      <trkpt lat="44.19774" lon="4.58203">
        <ele>141</ele>
        <time>2012-06-08 11:09:59Z</time>
      </trkpt>
      <trkpt lat="44.19774" lon="4.58208">
        <ele>140</ele>
        <time>2012-06-08 11:10:03Z</time>
      </trkpt>
      <trkpt lat="44.19775" lon="4.58212">
        <ele>140</ele>
        <time>2012-06-08 11:10:07Z</time>
      </trkpt>
      <trkpt lat="44.19775" lon="4.58215">
        <ele>141</ele>
        <time>2012-06-08 11:10:11Z</time>
      </trkpt>
      <trkpt lat="44.19775" lon="4.5822">
        <ele>142</ele>
        <time>2012-06-08 11:10:15Z</time>
      </trkpt>
      <trkpt lat="44.19773" lon="4.58224">
        <ele>142</ele>
        <time>2012-06-08 11:10:19Z</time>
      </trkpt>
      <trkpt lat="44.19772" lon="4.58231">
        <ele>144</ele>
        <time>2012-06-08 11:10:23Z</time>
      </trkpt>
      <trkpt lat="44.19772" lon="4.58236">
        <ele>145</ele>
        <time>2012-06-08 11:10:27Z</time>
      </trkpt>
      <trkpt lat="44.19774" lon="4.58243">
        <ele>147</ele>
        <time>2012-06-08 11:10:31Z</time>
      </trkpt>
      <trkpt lat="44.19776" lon="4.58249">
        <ele>147</ele>
        <time>2012-06-08 11:10:35Z</time>
      </trkpt>
      <trkpt lat="44.19776" lon="4.58254">
        <ele>150</ele>
        <time>2012-06-08 11:10:39Z</time>
      </trkpt>
      <trkpt lat="44.19776" lon="4.58258">
        <ele>150</ele>
        <time>2012-06-08 11:10:43Z</time>
      </trkpt>
      <trkpt lat="44.19777" lon="4.58265">
        <ele>152</ele>
        <time>2012-06-08 11:10:47Z</time>
      </trkpt>
      <trkpt lat="44.19778" lon="4.58271">
        <ele>155</ele>
        <time>2012-06-08 11:10:51Z</time>
      </trkpt>
      <trkpt lat="44.19778" lon="4.58275">
        <ele>156</ele>
        <time>2012-06-08 11:10:55Z</time>
      </trkpt>
      <trkpt lat="44.1978" lon="4.58281">
        <ele>160</ele>
        <time>2012-06-08 11:10:59Z</time>
      </trkpt>
      <trkpt lat="44.1978" lon="4.58286">
        <ele>161</ele>
        <time>2012-06-08 11:11:03Z</time>
      </trkpt>
      <trkpt lat="44.1978" lon="4.58289">
        <ele>165</ele>
        <time>2012-06-08 11:11:07Z</time>
      </trkpt>
      <trkpt lat="44.1978" lon="4.58296">
        <ele>163</ele>
        <time>2012-06-08 11:11:11Z</time>
      </trkpt>
      <trkpt lat="44.1978" lon="4.58299">
        <ele>164</ele>
        <time>2012-06-08 11:11:15Z</time>
      </trkpt>
      <trkpt lat="44.19778" lon="4.58303">
        <ele>163</ele>
        <time>2012-06-08 11:11:19Z</time>
      </trkpt>
      <trkpt lat="44.19777" lon="4.58308">
        <ele>163</ele>
        <time>2012-06-08 11:11:23Z</time>
      </trkpt>
      <trkpt lat="44.19775" lon="4.58312">
        <ele>163</ele>
        <time>2012-06-08 11:11:27Z</time>
      </trkpt>
      <trkpt lat="44.19773" lon="4.58317">
        <ele>163</ele>
        <time>2012-06-08 11:11:31Z</time>
      </trkpt>
      <trkpt lat="44.19772" lon="4.5832">
        <ele>162</ele>
        <time>2012-06-08 11:11:35Z</time>
      </trkpt>
      <trkpt lat="44.19767" lon="4.58327">
        <ele>158</ele>
        <time>2012-06-08 11:11:39Z</time>
      </trkpt>
      <trkpt lat="44.19761" lon="4.58332">
        <ele>156</ele>
        <time>2012-06-08 11:11:43Z</time>
      </trkpt>
      <trkpt lat="44.19757" lon="4.58338">
        <ele>154</ele>
        <time>2012-06-08 11:11:47Z</time>
      </trkpt>
      <trkpt lat="44.19754" lon="4.58343">
        <ele>155</ele>
        <time>2012-06-08 11:11:51Z</time>
      </trkpt>
      <trkpt lat="44.19753" lon="4.58344">
        <ele>155</ele>
        <time>2012-06-08 11:11:55Z</time>
      </trkpt>
      <trkpt lat="44.19752" lon="4.58347">
        <ele>155</ele>
        <time>2012-06-08 11:11:59Z</time>
      </trkpt>
      <trkpt lat="44.19751" lon="4.5835">
        <ele>155</ele>
        <time>2012-06-08 11:12:03Z</time>
      </trkpt>
      <trkpt lat="44.19748" lon="4.58354">
        <ele>153</ele>
        <time>2012-06-08 11:12:07Z</time>
      </trkpt>
      <trkpt lat="44.19742" lon="4.58355">
        <ele>151</ele>
        <time>2012-06-08 11:12:11Z</time>
      </trkpt>
      <trkpt lat="44.19739" lon="4.58357">
        <ele>150</ele>
        <time>2012-06-08 11:12:15Z</time>
      </trkpt>
      <trkpt lat="44.19737" lon="4.58359">
        <ele>150</ele>
        <time>2012-06-08 11:12:19Z</time>
      </trkpt>
      <trkpt lat="44.19734" lon="4.58361">
        <ele>149</ele>
        <time>2012-06-08 11:12:23Z</time>
      </trkpt>
      <trkpt lat="44.19732" lon="4.58364">
        <ele>149</ele>
        <time>2012-06-08 11:12:27Z</time>
      </trkpt>
      <trkpt lat="44.1973" lon="4.58365">
        <ele>149</ele>
        <time>2012-06-08 11:12:31Z</time>
      </trkpt>
      <trkpt lat="44.19727" lon="4.58366">
        <ele>150</ele>
        <time>2012-06-08 11:12:35Z</time>
      </trkpt>
      <trkpt lat="44.19727" lon="4.58367">
        <ele>151</ele>
        <time>2012-06-08 11:12:39Z</time>
      </trkpt>
      <trkpt lat="44.19725" lon="4.58367">
        <ele>150</ele>
        <time>2012-06-08 11:12:43Z</time>
      </trkpt>
      <trkpt lat="44.1972" lon="4.58369">
        <ele>151</ele>
        <time>2012-06-08 11:12:47Z</time>
      </trkpt>
      <trkpt lat="44.19716" lon="4.58373">
        <ele>155</ele>
        <time>2012-06-08 11:12:51Z</time>
      </trkpt>
      <trkpt lat="44.19714" lon="4.58378">
        <ele>156</ele>
        <time>2012-06-08 11:12:55Z</time>
      </trkpt>
      <trkpt lat="44.1971" lon="4.58384">
        <ele>157</ele>
        <time>2012-06-08 11:12:59Z</time>
      </trkpt>
      <trkpt lat="44.19706" lon="4.58387">
        <ele>158</ele>
        <time>2012-06-08 11:13:03Z</time>
      </trkpt>
      <trkpt lat="44.19707" lon="4.58393">
        <ele>161</ele>
        <time>2012-06-08 11:13:07Z</time>
      </trkpt>
      <trkpt lat="44.1971" lon="4.58402">
        <ele>158</ele>
        <time>2012-06-08 11:13:11Z</time>
      </trkpt>
      <trkpt lat="44.19711" lon="4.58405">
        <ele>160</ele>
        <time>2012-06-08 11:13:15Z</time>
      </trkpt>
      <trkpt lat="44.19711" lon="4.58406">
        <ele>161</ele>
        <time>2012-06-08 11:13:19Z</time>
      </trkpt>
      <trkpt lat="44.19711" lon="4.58406">
        <ele>160</ele>
        <time>2012-06-08 11:13:23Z</time>
      </trkpt>
      <trkpt lat="44.19712" lon="4.5841">
        <ele>160</ele>
        <time>2012-06-08 11:13:27Z</time>
      </trkpt>
      <trkpt lat="44.19713" lon="4.58414">
        <ele>160</ele>
        <time>2012-06-08 11:13:31Z</time>
      </trkpt>
      <trkpt lat="44.19715" lon="4.58419">
        <ele>160</ele>
        <time>2012-06-08 11:13:35Z</time>
      </trkpt>
      <trkpt lat="44.19717" lon="4.58425">
        <ele>161</ele>
        <time>2012-06-08 11:13:39Z</time>
      </trkpt>
      <trkpt lat="44.19719" lon="4.5843">
        <ele>161</ele>
        <time>2012-06-08 11:13:43Z</time>
      </trkpt>
      <trkpt lat="44.19721" lon="4.58435">
        <ele>161</ele>
        <time>2012-06-08 11:13:47Z</time>
      </trkpt>
      <trkpt lat="44.19719" lon="4.58442">
        <ele>160</ele>
        <time>2012-06-08 11:13:51Z</time>
      </trkpt>
      <trkpt lat="44.19716" lon="4.58445">
        <ele>161</ele>
        <time>2012-06-08 11:13:55Z</time>
      </trkpt>
      <trkpt lat="44.19713" lon="4.58452">
        <ele>158</ele>
        <time>2012-06-08 11:13:59Z</time>
      </trkpt>
      <trkpt lat="44.19709" lon="4.58459">
        <ele>159</ele>
        <time>2012-06-08 11:14:03Z</time>
      </trkpt>
      <trkpt lat="44.19702" lon="4.58461">
        <ele>162</ele>
        <time>2012-06-08 11:14:07Z</time>
      </trkpt>
      <trkpt lat="44.19696" lon="4.58464">
        <ele>164</ele>
        <time>2012-06-08 11:14:11Z</time>
      </trkpt>
      <trkpt lat="44.19691" lon="4.58469">
        <ele>165</ele>
        <time>2012-06-08 11:14:15Z</time>
      </trkpt>
      <trkpt lat="44.19686" lon="4.58471">
        <ele>166</ele>
        <time>2012-06-08 11:14:19Z</time>
      </trkpt>
      <trkpt lat="44.19681" lon="4.58474">
        <ele>167</ele>
        <time>2012-06-08 11:14:23Z</time>
      </trkpt>
      <trkpt lat="44.19675" lon="4.58477">
        <ele>167</ele>
        <time>2012-06-08 11:14:27Z</time>
      </trkpt>
      <trkpt lat="44.19671" lon="4.58483">
        <ele>167</ele>
        <time>2012-06-08 11:14:31Z</time>
      </trkpt>
      <trkpt lat="44.19668" lon="4.58488">
        <ele>168</ele>
        <time>2012-06-08 11:14:35Z</time>
      </trkpt>
      <trkpt lat="44.19663" lon="4.58493">
        <ele>169</ele>
        <time>2012-06-08 11:14:39Z</time>
      </trkpt>
      <trkpt lat="44.19659" lon="4.58496">
        <ele>171</ele>
        <time>2012-06-08 11:14:43Z</time>
      </trkpt>
      <trkpt lat="44.19659" lon="4.58502">
        <ele>172</ele>
        <time>2012-06-08 11:14:47Z</time>
      </trkpt>
      <trkpt lat="44.19661" lon="4.58511">
        <ele>172</ele>
        <time>2012-06-08 11:14:51Z</time>
      </trkpt>
      <trkpt lat="44.19664" lon="4.58518">
        <ele>173</ele>
        <time>2012-06-08 11:14:55Z</time>
      </trkpt>
      <trkpt lat="44.19668" lon="4.58521">
        <ele>173</ele>
        <time>2012-06-08 11:14:59Z</time>
      </trkpt>
      <trkpt lat="44.19672" lon="4.5852">
        <ele>175</ele>
        <time>2012-06-08 11:15:03Z</time>
      </trkpt>
      <trkpt lat="44.19675" lon="4.5852">
        <ele>175</ele>
        <time>2012-06-08 11:15:07Z</time>
      </trkpt>
      <trkpt lat="44.19678" lon="4.5852">
        <ele>176</ele>
        <time>2012-06-08 11:15:11Z</time>
      </trkpt>
      <trkpt lat="44.19684" lon="4.58517">
        <ele>176</ele>
        <time>2012-06-08 11:15:15Z</time>
      </trkpt>
      <trkpt lat="44.19688" lon="4.58514">
        <ele>176</ele>
        <time>2012-06-08 11:15:19Z</time>
      </trkpt>
      <trkpt lat="44.19693" lon="4.5851">
        <ele>176</ele>
        <time>2012-06-08 11:15:23Z</time>
      </trkpt>
      <trkpt lat="44.19698" lon="4.58513">
        <ele>176</ele>
        <time>2012-06-08 11:15:27Z</time>
      </trkpt>
      <trkpt lat="44.19706" lon="4.58516">
        <ele>176</ele>
        <time>2012-06-08 11:15:31Z</time>
      </trkpt>
      <trkpt lat="44.19718" lon="4.58519">
        <ele>175</ele>
        <time>2012-06-08 11:15:35Z</time>
      </trkpt>
      <trkpt lat="44.19729" lon="4.5852">
        <ele>174</ele>
        <time>2012-06-08 11:15:39Z</time>
      </trkpt>
      <trkpt lat="44.19739" lon="4.58522">
        <ele>172</ele>
        <time>2012-06-08 11:15:43Z</time>
      </trkpt>
      <trkpt lat="44.19748" lon="4.58527">
        <ele>170</ele>
        <time>2012-06-08 11:15:47Z</time>
      </trkpt>
      <trkpt lat="44.19753" lon="4.58534">
        <ele>171</ele>
        <time>2012-06-08 11:15:51Z</time>
      </trkpt>
      <trkpt lat="44.19757" lon="4.58542">
        <ele>173</ele>
        <time>2012-06-08 11:15:55Z</time>
      </trkpt>
      <trkpt lat="44.19759" lon="4.58549">
        <ele>173</ele>
        <time>2012-06-08 11:15:59Z</time>
      </trkpt>
      <trkpt lat="44.1976" lon="4.58555">
        <ele>172</ele>
        <time>2012-06-08 11:16:03Z</time>
      </trkpt>
      <trkpt lat="44.1976" lon="4.58561">
        <ele>172</ele>
        <time>2012-06-08 11:16:07Z</time>
      </trkpt>
      <trkpt lat="44.1976" lon="4.58568">
        <ele>172</ele>
        <time>2012-06-08 11:16:11Z</time>
      </trkpt>
      <trkpt lat="44.19759" lon="4.58576">
        <ele>171</ele>
        <time>2012-06-08 11:16:15Z</time>
      </trkpt>
      <trkpt lat="44.19758" lon="4.58585">
        <ele>171</ele>
        <time>2012-06-08 11:16:19Z</time>
      </trkpt>
      <trkpt lat="44.19758" lon="4.58593">
        <ele>173</ele>
        <time>2012-06-08 11:16:23Z</time>
      </trkpt>
      <trkpt lat="44.19754" lon="4.58601">
        <ele>174</ele>
        <time>2012-06-08 11:16:27Z</time>
      </trkpt>
      <trkpt lat="44.19751" lon="4.58607">
        <ele>175</ele>
        <time>2012-06-08 11:16:31Z</time>
      </trkpt>
      <trkpt lat="44.19746" lon="4.58614">
        <ele>174</ele>
        <time>2012-06-08 11:16:35Z</time>
      </trkpt>
      <trkpt lat="44.19742" lon="4.58624">
        <ele>174</ele>
        <time>2012-06-08 11:16:39Z</time>
      </trkpt>
      <trkpt lat="44.19739" lon="4.58629">
        <ele>176</ele>
        <time>2012-06-08 11:16:43Z</time>
      </trkpt>
      <trkpt lat="44.19737" lon="4.5863">
        <ele>173</ele>
        <time>2012-06-08 11:16:47Z</time>
      </trkpt>
      <trkpt lat="44.19735" lon="4.58631">
        <ele>176</ele>
        <time>2012-06-08 11:16:51Z</time>
      </trkpt>
      <trkpt lat="44.19734" lon="4.5863">
        <ele>178</ele>
        <time>2012-06-08 11:16:55Z</time>
      </trkpt>
      <trkpt lat="44.19734" lon="4.5863">
        <ele>179</ele>
        <time>2012-06-08 11:16:59Z</time>
      </trkpt>
      <trkpt lat="44.19734" lon="4.5863">
        <ele>179</ele>
        <time>2012-06-08 11:17:03Z</time>
      </trkpt>
      <trkpt lat="44.19734" lon="4.5863">
        <ele>179</ele>
        <time>2012-06-08 11:17:07Z</time>
      </trkpt>
      <trkpt lat="44.19735" lon="4.58637">
        <ele>181</ele>
        <time>2012-06-08 11:17:11Z</time>
      </trkpt>
      <trkpt lat="44.19735" lon="4.58637">
        <ele>184</ele>
        <time>2012-06-08 11:17:15Z</time>
      </trkpt>
      <trkpt lat="44.19735" lon="4.58637">
        <ele>185</ele>
        <time>2012-06-08 11:17:19Z</time>
      </trkpt>
      <trkpt lat="44.19735" lon="4.58637">
        <ele>185</ele>
        <time>2012-06-08 11:17:23Z</time>
      </trkpt>
      <trkpt lat="44.19735" lon="4.58637">
        <ele>185</ele>
        <time>2012-06-08 11:17:27Z</time>
      </trkpt>
      <trkpt lat="44.19735" lon="4.58637">
        <ele>184</ele>
        <time>2012-06-08 11:17:31Z</time>
      </trkpt>
      <trkpt lat="44.19735" lon="4.58637">
        <ele>184</ele>
        <time>2012-06-08 11:17:35Z</time>
      </trkpt>
      <trkpt lat="44.19735" lon="4.58637">
        <ele>184</ele>
        <time>2012-06-08 11:17:39Z</time>
      </trkpt>
      <trkpt lat="44.19738" lon="4.58641">
        <ele>182</ele>
        <time>2012-06-08 11:17:43Z</time>
      </trkpt>
      <trkpt lat="44.19738" lon="4.58638">
        <ele>183</ele>
        <time>2012-06-08 11:17:47Z</time>
      </trkpt>
      <trkpt lat="44.19734" lon="4.58642">
        <ele>182</ele>
        <time>2012-06-08 11:17:51Z</time>
      </trkpt>
      <trkpt lat="44.1973" lon="4.58645">
        <ele>181</ele>
        <time>2012-06-08 11:17:55Z</time>
      </trkpt>
      <trkpt lat="44.19724" lon="4.58649">
        <ele>181</ele>
        <time>2012-06-08 11:17:59Z</time>
      </trkpt>
      <trkpt lat="44.19717" lon="4.5865">
        <ele>181</ele>
        <time>2012-06-08 11:18:03Z</time>
      </trkpt>
      <trkpt lat="44.19712" lon="4.5865">
        <ele>179</ele>
        <time>2012-06-08 11:18:07Z</time>
      </trkpt>
      <trkpt lat="44.19705" lon="4.5865">
        <ele>177</ele>
        <time>2012-06-08 11:18:11Z</time>
      </trkpt>
      <trkpt lat="44.19698" lon="4.58652">
        <ele>176</ele>
        <time>2012-06-08 11:18:15Z</time>
      </trkpt>
      <trkpt lat="44.19692" lon="4.58655">
        <ele>176</ele>
        <time>2012-06-08 11:18:19Z</time>
      </trkpt>
      <trkpt lat="44.19687" lon="4.58657">
        <ele>176</ele>
        <time>2012-06-08 11:18:23Z</time>
      </trkpt>
      <trkpt lat="44.1968" lon="4.58659">
        <ele>176</ele>
        <time>2012-06-08 11:18:27Z</time>
      </trkpt>
      <trkpt lat="44.19671" lon="4.58658">
        <ele>174</ele>
        <time>2012-06-08 11:18:31Z</time>
      </trkpt>
      <trkpt lat="44.19663" lon="4.58657">
        <ele>175</ele>
        <time>2012-06-08 11:18:35Z</time>
      </trkpt>
      <trkpt lat="44.19656" lon="4.58656">
        <ele>175</ele>
        <time>2012-06-08 11:18:39Z</time>
      </trkpt>
      <trkpt lat="44.1965" lon="4.58654">
        <ele>175</ele>
        <time>2012-06-08 11:18:43Z</time>
      </trkpt>
      <trkpt lat="44.19643" lon="4.58652">
        <ele>177</ele>
        <time>2012-06-08 11:18:47Z</time>
      </trkpt>
      <trkpt lat="44.19635" lon="4.58649">
        <ele>178</ele>
        <time>2012-06-08 11:18:51Z</time>
      </trkpt>
      <trkpt lat="44.1963" lon="4.58649">
        <ele>180</ele>
        <time>2012-06-08 11:18:55Z</time>
      </trkpt>
      <trkpt lat="44.19625" lon="4.58652">
        <ele>180</ele>
        <time>2012-06-08 11:18:59Z</time>
      </trkpt>
      <trkpt lat="44.19621" lon="4.58653">
        <ele>180</ele>
        <time>2012-06-08 11:19:03Z</time>
      </trkpt>
      <trkpt lat="44.19616" lon="4.58653">
        <ele>181</ele>
        <time>2012-06-08 11:19:07Z</time>
      </trkpt>
      <trkpt lat="44.19611" lon="4.58653">
        <ele>182</ele>
        <time>2012-06-08 11:19:11Z</time>
      </trkpt>
      <trkpt lat="44.19606" lon="4.58652">
        <ele>182</ele>
        <time>2012-06-08 11:19:15Z</time>
      </trkpt>
      <trkpt lat="44.19599" lon="4.58652">
        <ele>183</ele>
        <time>2012-06-08 11:19:19Z</time>
      </trkpt>
      <trkpt lat="44.19592" lon="4.5865">
        <ele>183</ele>
        <time>2012-06-08 11:19:23Z</time>
      </trkpt>
      <trkpt lat="44.19586" lon="4.58648">
        <ele>183</ele>
        <time>2012-06-08 11:19:27Z</time>
      </trkpt>
      <trkpt lat="44.19581" lon="4.58648">
        <ele>184</ele>
        <time>2012-06-08 11:19:31Z</time>
      </trkpt>
      <trkpt lat="44.19577" lon="4.58648">
        <ele>188</ele>
        <time>2012-06-08 11:19:35Z</time>
      </trkpt>
      <trkpt lat="44.19572" lon="4.58648">
        <ele>191</ele>
        <time>2012-06-08 11:19:39Z</time>
      </trkpt>
      <trkpt lat="44.19566" lon="4.58647">
        <ele>189</ele>
        <time>2012-06-08 11:19:43Z</time>
      </trkpt>
      <trkpt lat="44.1956" lon="4.58648">
        <ele>190</ele>
        <time>2012-06-08 11:19:47Z</time>
      </trkpt>
      <trkpt lat="44.19554" lon="4.58648">
        <ele>192</ele>
        <time>2012-06-08 11:19:51Z</time>
      </trkpt>
      <trkpt lat="44.19548" lon="4.58648">
        <ele>192</ele>
        <time>2012-06-08 11:19:55Z</time>
      </trkpt>
      <trkpt lat="44.19541" lon="4.58649">
        <ele>194</ele>
        <time>2012-06-08 11:19:59Z</time>
      </trkpt>
      <trkpt lat="44.19537" lon="4.58651">
        <ele>194</ele>
        <time>2012-06-08 11:20:03Z</time>
      </trkpt>
      <trkpt lat="44.19529" lon="4.58652">
        <ele>193</ele>
        <time>2012-06-08 11:20:07Z</time>
      </trkpt>
      <trkpt lat="44.19524" lon="4.58656">
        <ele>194</ele>
        <time>2012-06-08 11:20:11Z</time>
      </trkpt>
      <trkpt lat="44.19517" lon="4.58659">
        <ele>194</ele>
        <time>2012-06-08 11:20:15Z</time>
      </trkpt>
      <trkpt lat="44.19502" lon="4.58657">
        <ele>196</ele>
        <time>2012-06-08 11:20:19Z</time>
      </trkpt>
      <trkpt lat="44.19487" lon="4.58655">
        <ele>193</ele>
        <time>2012-06-08 11:20:23Z</time>
      </trkpt>
      <trkpt lat="44.19474" lon="4.58649">
        <ele>193</ele>
        <time>2012-06-08 11:20:27Z</time>
      </trkpt>
      <trkpt lat="44.19464" lon="4.58646">
        <ele>195</ele>
        <time>2012-06-08 11:20:31Z</time>
      </trkpt>
      <trkpt lat="44.19459" lon="4.58658">
        <ele>192</ele>
        <time>2012-06-08 11:20:35Z</time>
      </trkpt>
      <trkpt lat="44.1946" lon="4.58685">
        <ele>191</ele>
        <time>2012-06-08 11:20:39Z</time>
      </trkpt>
      <trkpt lat="44.19462" lon="4.58708">
        <ele>192</ele>
        <time>2012-06-08 11:20:43Z</time>
      </trkpt>
      <trkpt lat="44.19465" lon="4.58729">
        <ele>192</ele>
        <time>2012-06-08 11:20:47Z</time>
      </trkpt>
      <trkpt lat="44.19464" lon="4.58749">
        <ele>192</ele>
        <time>2012-06-08 11:20:51Z</time>
      </trkpt>
      <trkpt lat="44.19465" lon="4.58769">
        <ele>192</ele>
        <time>2012-06-08 11:20:55Z</time>
      </trkpt>
      <trkpt lat="44.19468" lon="4.58796">
        <ele>192</ele>
        <time>2012-06-08 11:20:59Z</time>
      </trkpt>
      <trkpt lat="44.19474" lon="4.58818">
        <ele>191</ele>
        <time>2012-06-08 11:21:03Z</time>
      </trkpt>
      <trkpt lat="44.19482" lon="4.58835">
        <ele>191</ele>
        <time>2012-06-08 11:21:07Z</time>
      </trkpt>
      <trkpt lat="44.19491" lon="4.58852">
        <ele>192</ele>
        <time>2012-06-08 11:21:11Z</time>
      </trkpt>
      <trkpt lat="44.19503" lon="4.58863">
        <ele>192</ele>
        <time>2012-06-08 11:21:15Z</time>
      </trkpt>
      <trkpt lat="44.19512" lon="4.58874">
        <ele>193</ele>
        <time>2012-06-08 11:21:19Z</time>
      </trkpt>
      <trkpt lat="44.19522" lon="4.58889">
        <ele>194</ele>
        <time>2012-06-08 11:21:23Z</time>
      </trkpt>
      <trkpt lat="44.19528" lon="4.58907">
        <ele>195</ele>
        <time>2012-06-08 11:21:27Z</time>
      </trkpt>
      <trkpt lat="44.19534" lon="4.58919">
        <ele>195</ele>
        <time>2012-06-08 11:21:31Z</time>
      </trkpt>
      <trkpt lat="44.1954" lon="4.5893">
        <ele>196</ele>
        <time>2012-06-08 11:21:35Z</time>
      </trkpt>
      <trkpt lat="44.19548" lon="4.58942">
        <ele>194</ele>
        <time>2012-06-08 11:21:39Z</time>
      </trkpt>
      <trkpt lat="44.1955" lon="4.58956">
        <ele>194</ele>
        <time>2012-06-08 11:21:43Z</time>
      </trkpt>
      <trkpt lat="44.19549" lon="4.5897">
        <ele>190</ele>
        <time>2012-06-08 11:21:47Z</time>
      </trkpt>
      <trkpt lat="44.19548" lon="4.58983">
        <ele>191</ele>
        <time>2012-06-08 11:21:51Z</time>
      </trkpt>
      <trkpt lat="44.19545" lon="4.58997">
        <ele>193</ele>
        <time>2012-06-08 11:21:55Z</time>
      </trkpt>
      <trkpt lat="44.19546" lon="4.59012">
        <ele>195</ele>
        <time>2012-06-08 11:21:59Z</time>
      </trkpt>
      <trkpt lat="44.19549" lon="4.59024">
        <ele>197</ele>
        <time>2012-06-08 11:22:03Z</time>
      </trkpt>
      <trkpt lat="44.1955" lon="4.59032">
        <ele>197</ele>
        <time>2012-06-08 11:22:07Z</time>
      </trkpt>
      <trkpt lat="44.1955" lon="4.59039">
        <ele>197</ele>
        <time>2012-06-08 11:22:11Z</time>
      </trkpt>
      <trkpt lat="44.19548" lon="4.5905">
        <ele>196</ele>
        <time>2012-06-08 11:22:15Z</time>
      </trkpt>
      <trkpt lat="44.19546" lon="4.59062">
        <ele>195</ele>
        <time>2012-06-08 11:22:19Z</time>
      </trkpt>
      <trkpt lat="44.19544" lon="4.59072">
        <ele>194</ele>
        <time>2012-06-08 11:22:23Z</time>
      </trkpt>
      <trkpt lat="44.19544" lon="4.59081">
        <ele>194</ele>
        <time>2012-06-08 11:22:27Z</time>
      </trkpt>
      <trkpt lat="44.19544" lon="4.5909">
        <ele>192</ele>
        <time>2012-06-08 11:22:31Z</time>
      </trkpt>
      <trkpt lat="44.1954" lon="4.59096">
        <ele>193</ele>
        <time>2012-06-08 11:22:35Z</time>
      </trkpt>
      <trkpt lat="44.19534" lon="4.59099">
        <ele>195</ele>
        <time>2012-06-08 11:22:39Z</time>
      </trkpt>
      <trkpt lat="44.19526" lon="4.591">
        <ele>196</ele>
        <time>2012-06-08 11:22:43Z</time>
      </trkpt>
      <trkpt lat="44.19518" lon="4.59095">
        <ele>195</ele>
        <time>2012-06-08 11:22:47Z</time>
      </trkpt>
      <trkpt lat="44.19506" lon="4.59094">
        <ele>195</ele>
        <time>2012-06-08 11:22:51Z</time>
      </trkpt>
      <trkpt lat="44.19494" lon="4.59102">
        <ele>198</ele>
        <time>2012-06-08 11:22:55Z</time>
      </trkpt>
      <trkpt lat="44.1949" lon="4.59117">
        <ele>199</ele>
        <time>2012-06-08 11:22:59Z</time>
      </trkpt>
      <trkpt lat="44.1949" lon="4.59138">
        <ele>198</ele>
        <time>2012-06-08 11:23:03Z</time>
      </trkpt>
      <trkpt lat="44.19488" lon="4.59153">
        <ele>201</ele>
        <time>2012-06-08 11:23:07Z</time>
      </trkpt>
      <trkpt lat="44.19486" lon="4.59161">
        <ele>202</ele>
        <time>2012-06-08 11:23:11Z</time>
      </trkpt>
      <trkpt lat="44.19481" lon="4.5917">
        <ele>202</ele>
        <time>2012-06-08 11:23:15Z</time>
      </trkpt>
      <trkpt lat="44.19474" lon="4.59171">
        <ele>200</ele>
        <time>2012-06-08 11:23:19Z</time>
      </trkpt>
      <trkpt lat="44.19468" lon="4.59175">
        <ele>200</ele>
        <time>2012-06-08 11:23:23Z</time>
      </trkpt>
      <trkpt lat="44.19468" lon="4.59187">
        <ele>202</ele>
        <time>2012-06-08 11:23:27Z</time>
      </trkpt>
      <trkpt lat="44.1947" lon="4.59198">
        <ele>202</ele>
        <time>2012-06-08 11:23:31Z</time>
      </trkpt>
      <trkpt lat="44.19471" lon="4.59207">
        <ele>203</ele>
        <time>2012-06-08 11:23:35Z</time>
      </trkpt>
      <trkpt lat="44.19472" lon="4.59216">
        <ele>202</ele>
        <time>2012-06-08 11:23:39Z</time>
      </trkpt>
      <trkpt lat="44.19471" lon="4.59224">
        <ele>202</ele>
        <time>2012-06-08 11:23:43Z</time>
      </trkpt>
      <trkpt lat="44.19473" lon="4.59235">
        <ele>204</ele>
        <time>2012-06-08 11:23:47Z</time>
      </trkpt>
      <trkpt lat="44.19475" lon="4.59243">
        <ele>203</ele>
        <time>2012-06-08 11:23:51Z</time>
      </trkpt>
      <trkpt lat="44.19477" lon="4.59253">
        <ele>202</ele>
        <time>2012-06-08 11:23:55Z</time>
      </trkpt>
      <trkpt lat="44.19481" lon="4.59262">
        <ele>203</ele>
        <time>2012-06-08 11:23:59Z</time>
      </trkpt>
      <trkpt lat="44.19486" lon="4.59275">
        <ele>204</ele>
        <time>2012-06-08 11:24:03Z</time>
      </trkpt>
      <trkpt lat="44.1949" lon="4.59285">
        <ele>206</ele>
        <time>2012-06-08 11:24:07Z</time>
      </trkpt>
      <trkpt lat="44.19494" lon="4.59294">
        <ele>206</ele>
        <time>2012-06-08 11:24:11Z</time>
      </trkpt>
      <trkpt lat="44.19497" lon="4.59311">
        <ele>205</ele>
        <time>2012-06-08 11:24:15Z</time>
      </trkpt>
      <trkpt lat="44.195" lon="4.59325">
        <ele>204</ele>
        <time>2012-06-08 11:24:19Z</time>
      </trkpt>
      <trkpt lat="44.19503" lon="4.59339">
        <ele>205</ele>
        <time>2012-06-08 11:24:23Z</time>
      </trkpt>
      <trkpt lat="44.19506" lon="4.59358">
        <ele>205</ele>
        <time>2012-06-08 11:24:27Z</time>
      </trkpt>
      <trkpt lat="44.19511" lon="4.59368">
        <ele>206</ele>
        <time>2012-06-08 11:24:31Z</time>
      </trkpt>
      <trkpt lat="44.19522" lon="4.59377">
        <ele>205</ele>
        <time>2012-06-08 11:24:35Z</time>
      </trkpt>
      <trkpt lat="44.19534" lon="4.59392">
        <ele>205</ele>
        <time>2012-06-08 11:24:39Z</time>
      </trkpt>
      <trkpt lat="44.1954" lon="4.59406">
        <ele>205</ele>
        <time>2012-06-08 11:24:43Z</time>
      </trkpt>
      <trkpt lat="44.19548" lon="4.59415">
        <ele>204</ele>
        <time>2012-06-08 11:24:47Z</time>
      </trkpt>
      <trkpt lat="44.19562" lon="4.59416">
        <ele>206</ele>
        <time>2012-06-08 11:24:51Z</time>
      </trkpt>
      <trkpt lat="44.1957" lon="4.59425">
        <ele>205</ele>
        <time>2012-06-08 11:24:55Z</time>
      </trkpt>
      <trkpt lat="44.19571" lon="4.59445">
        <ele>204</ele>
        <time>2012-06-08 11:24:59Z</time>
      </trkpt>
      <trkpt lat="44.19573" lon="4.59462">
        <ele>203</ele>
        <time>2012-06-08 11:25:03Z</time>
      </trkpt>
      <trkpt lat="44.19572" lon="4.59475">
        <ele>204</ele>
        <time>2012-06-08 11:25:07Z</time>
      </trkpt>
      <trkpt lat="44.1957" lon="4.59486">
        <ele>204</ele>
        <time>2012-06-08 11:25:11Z</time>
      </trkpt>
      <trkpt lat="44.19571" lon="4.59496">
        <ele>202</ele>
        <time>2012-06-08 11:25:15Z</time>
      </trkpt>
      <trkpt lat="44.19572" lon="4.59498">
        <ele>201</ele>
        <time>2012-06-08 11:25:19Z</time>
      </trkpt>
      <trkpt lat="44.19574" lon="4.59499">
        <ele>202</ele>
        <time>2012-06-08 11:25:23Z</time>
      </trkpt>
      <trkpt lat="44.19579" lon="4.59505">
        <ele>205</ele>
        <time>2012-06-08 11:25:27Z</time>
      </trkpt>
      <trkpt lat="44.19582" lon="4.59511">
        <ele>209</ele>
        <time>2012-06-08 11:25:31Z</time>
      </trkpt>
      <trkpt lat="44.19585" lon="4.59515">
        <ele>209</ele>
        <time>2012-06-08 11:25:35Z</time>
      </trkpt>
      <trkpt lat="44.19587" lon="4.59519">
        <ele>209</ele>
        <time>2012-06-08 11:25:39Z</time>
      </trkpt>
      <trkpt lat="44.19589" lon="4.59524">
        <ele>209</ele>
        <time>2012-06-08 11:25:43Z</time>
      </trkpt>
      <trkpt lat="44.1959" lon="4.5953">
        <ele>208</ele>
        <time>2012-06-08 11:25:47Z</time>
      </trkpt>
      <trkpt lat="44.19593" lon="4.59535">
        <ele>209</ele>
        <time>2012-06-08 11:25:51Z</time>
      </trkpt>
      <trkpt lat="44.19597" lon="4.5954">
        <ele>208</ele>
        <time>2012-06-08 11:25:55Z</time>
      </trkpt>
      <trkpt lat="44.196" lon="4.59544">
        <ele>208</ele>
        <time>2012-06-08 11:25:59Z</time>
      </trkpt>
      <trkpt lat="44.196" lon="4.59544">
        <ele>208</ele>
        <time>2012-06-08 11:26:03Z</time>
      </trkpt>
      <trkpt lat="44.19598" lon="4.59542">
        <ele>208</ele>
        <time>2012-06-08 11:26:07Z</time>
      </trkpt>
      <trkpt lat="44.19599" lon="4.59545">
        <ele>209</ele>
        <time>2012-06-08 11:26:11Z</time>
      </trkpt>
      <trkpt lat="44.196" lon="4.59552">
        <ele>210</ele>
        <time>2012-06-08 11:26:15Z</time>
      </trkpt>
      <trkpt lat="44.19601" lon="4.59556">
        <ele>211</ele>
        <time>2012-06-08 11:26:19Z</time>
      </trkpt>
      <trkpt lat="44.19604" lon="4.59558">
        <ele>211</ele>
        <time>2012-06-08 11:26:23Z</time>
      </trkpt>
      <trkpt lat="44.19606" lon="4.59568">
        <ele>210</ele>
        <time>2012-06-08 11:26:27Z</time>
      </trkpt>
      <trkpt lat="44.19609" lon="4.59578">
        <ele>209</ele>
        <time>2012-06-08 11:26:31Z</time>
      </trkpt>
      <trkpt lat="44.19614" lon="4.59588">
        <ele>209</ele>
        <time>2012-06-08 11:26:35Z</time>
      </trkpt>
      <trkpt lat="44.19618" lon="4.59598">
        <ele>208</ele>
        <time>2012-06-08 11:26:39Z</time>
      </trkpt>
      <trkpt lat="44.19621" lon="4.59608">
        <ele>209</ele>
        <time>2012-06-08 11:26:43Z</time>
      </trkpt>
      <trkpt lat="44.19623" lon="4.59615">
        <ele>209</ele>
        <time>2012-06-08 11:26:47Z</time>
      </trkpt>
      <trkpt lat="44.19626" lon="4.59625">
        <ele>210</ele>
        <time>2012-06-08 11:26:51Z</time>
      </trkpt>
      <trkpt lat="44.19628" lon="4.59634">
        <ele>209</ele>
        <time>2012-06-08 11:26:55Z</time>
      </trkpt>
      <trkpt lat="44.19626" lon="4.5964">
        <ele>209</ele>
        <time>2012-06-08 11:26:59Z</time>
      </trkpt>
      <trkpt lat="44.19626" lon="4.59646">
        <ele>209</ele>
        <time>2012-06-08 11:27:03Z</time>
      </trkpt>
      <trkpt lat="44.19625" lon="4.59655">
        <ele>210</ele>
        <time>2012-06-08 11:27:07Z</time>
      </trkpt>
      <trkpt lat="44.19626" lon="4.59662">
        <ele>211</ele>
        <time>2012-06-08 11:27:11Z</time>
      </trkpt>
      <trkpt lat="44.19629" lon="4.59671">
        <ele>212</ele>
        <time>2012-06-08 11:27:15Z</time>
      </trkpt>
      <trkpt lat="44.19633" lon="4.59678">
        <ele>213</ele>
        <time>2012-06-08 11:27:19Z</time>
      </trkpt>
      <trkpt lat="44.19638" lon="4.5969">
        <ele>215</ele>
        <time>2012-06-08 11:27:23Z</time>
      </trkpt>
      <trkpt lat="44.19642" lon="4.59704">
        <ele>215</ele>
        <time>2012-06-08 11:27:27Z</time>
      </trkpt>
      <trkpt lat="44.19645" lon="4.59715">
        <ele>215</ele>
        <time>2012-06-08 11:27:31Z</time>
      </trkpt>
      <trkpt lat="44.19649" lon="4.59725">
        <ele>217</ele>
        <time>2012-06-08 11:27:35Z</time>
      </trkpt>
      <trkpt lat="44.19654" lon="4.59733">
        <ele>217</ele>
        <time>2012-06-08 11:27:39Z</time>
      </trkpt>
      <trkpt lat="44.19658" lon="4.5974">
        <ele>214</ele>
        <time>2012-06-08 11:27:43Z</time>
      </trkpt>
      <trkpt lat="44.19664" lon="4.59749">
        <ele>214</ele>
        <time>2012-06-08 11:27:47Z</time>
      </trkpt>
      <trkpt lat="44.19666" lon="4.59758">
        <ele>214</ele>
        <time>2012-06-08 11:27:51Z</time>
      </trkpt>
      <trkpt lat="44.19668" lon="4.59768">
        <ele>214</ele>
        <time>2012-06-08 11:27:55Z</time>
      </trkpt>
      <trkpt lat="44.19669" lon="4.59778">
        <ele>216</ele>
        <time>2012-06-08 11:27:59Z</time>
      </trkpt>
      <trkpt lat="44.19672" lon="4.59789">
        <ele>215</ele>
        <time>2012-06-08 11:28:03Z</time>
      </trkpt>
      <trkpt lat="44.19676" lon="4.598">
        <ele>217</ele>
        <time>2012-06-08 11:28:07Z</time>
      </trkpt>
      <trkpt lat="44.19678" lon="4.59819">
        <ele>208</ele>
        <time>2012-06-08 11:28:11Z</time>
      </trkpt>
      <trkpt lat="44.19683" lon="4.59839">
        <ele>210</ele>
        <time>2012-06-08 11:28:15Z</time>
      </trkpt>
      <trkpt lat="44.19687" lon="4.59837">
        <ele>211</ele>
        <time>2012-06-08 11:28:19Z</time>
      </trkpt>
      <trkpt lat="44.19688" lon="4.59836">
        <ele>213</ele>
        <time>2012-06-08 11:28:23Z</time>
      </trkpt>
      <trkpt lat="44.1969" lon="4.59836">
        <ele>213</ele>
        <time>2012-06-08 11:28:27Z</time>
      </trkpt>
      <trkpt lat="44.19695" lon="4.59836">
        <ele>212</ele>
        <time>2012-06-08 11:28:31Z</time>
      </trkpt>
      <trkpt lat="44.19696" lon="4.59834">
        <ele>219</ele>
        <time>2012-06-08 11:28:35Z</time>
      </trkpt>
      <trkpt lat="44.19696" lon="4.59834">
        <ele>220</ele>
        <time>2012-06-08 11:28:39Z</time>
      </trkpt>
      <trkpt lat="44.19696" lon="4.59834">
        <ele>220</ele>
        <time>2012-06-08 11:28:43Z</time>
      </trkpt>
      <trkpt lat="44.19696" lon="4.59834">
        <ele>220</ele>
        <time>2012-06-08 11:28:47Z</time>
      </trkpt>
      <trkpt lat="44.19696" lon="4.59834">
        <ele>220</ele>
        <time>2012-06-08 11:28:51Z</time>
      </trkpt>
      <trkpt lat="44.19696" lon="4.59834">
        <ele>220</ele>
        <time>2012-06-08 11:28:55Z</time>
      </trkpt>
      <trkpt lat="44.19696" lon="4.59834">
        <ele>220</ele>
        <time>2012-06-08 11:28:59Z</time>
      </trkpt>
      <trkpt lat="44.19696" lon="4.59834">
        <ele>220</ele>
        <time>2012-06-08 11:29:03Z</time>
      </trkpt>
      <trkpt lat="44.19696" lon="4.59834">
        <ele>220</ele>
        <time>2012-06-08 11:29:07Z</time>
      </trkpt>
      <trkpt lat="44.19696" lon="4.59834">
        <ele>220</ele>
        <time>2012-06-08 11:29:11Z</time>
      </trkpt>
      <trkpt lat="44.19696" lon="4.59834">
        <ele>220</ele>
        <time>2012-06-08 11:29:15Z</time>
      </trkpt>
      <trkpt lat="44.19696" lon="4.59834">
        <ele>220</ele>
        <time>2012-06-08 11:29:19Z</time>
      </trkpt>
      <trkpt lat="44.19696" lon="4.59834">
        <ele>220</ele>
        <time>2012-06-08 11:29:23Z</time>
      </trkpt>
      <trkpt lat="44.19696" lon="4.59834">
        <ele>220</ele>
        <time>2012-06-08 11:29:27Z</time>
      </trkpt>
      <trkpt lat="44.19696" lon="4.59834">
        <ele>220</ele>
        <time>2012-06-08 11:29:31Z</time>
      </trkpt>
      <trkpt lat="44.19696" lon="4.59834">
        <ele>220</ele>
        <time>2012-06-08 11:29:35Z</time>
      </trkpt>
      <trkpt lat="44.19696" lon="4.59834">
        <ele>220</ele>
        <time>2012-06-08 11:29:39Z</time>
      </trkpt>
      <trkpt lat="44.19693" lon="4.59839">
        <ele>220</ele>
        <time>2012-06-08 11:29:43Z</time>
      </trkpt>
      <trkpt lat="44.19693" lon="4.59839">
        <ele>220</ele>
        <time>2012-06-08 11:29:47Z</time>
      </trkpt>
      <trkpt lat="44.19693" lon="4.59839">
        <ele>220</ele>
        <time>2012-06-08 11:29:51Z</time>
      </trkpt>
      <trkpt lat="44.19693" lon="4.59841">
        <ele>220</ele>
        <time>2012-06-08 11:29:55Z</time>
      </trkpt>
      <trkpt lat="44.19694" lon="4.5984">
        <ele>217</ele>
        <time>2012-06-08 11:29:59Z</time>
      </trkpt>
      <trkpt lat="44.1969" lon="4.59837">
        <ele>212</ele>
        <time>2012-06-08 11:30:03Z</time>
      </trkpt>
      <trkpt lat="44.19689" lon="4.59835">
        <ele>212</ele>
        <time>2012-06-08 11:30:07Z</time>
      </trkpt>
      <trkpt lat="44.19689" lon="4.59835">
        <ele>214</ele>
        <time>2012-06-08 11:30:11Z</time>
      </trkpt>
      <trkpt lat="44.19689" lon="4.59835">
        <ele>215</ele>
        <time>2012-06-08 11:30:15Z</time>
      </trkpt>
      <trkpt lat="44.19689" lon="4.59835">
        <ele>218</ele>
        <time>2012-06-08 11:30:19Z</time>
      </trkpt>
      <trkpt lat="44.19688" lon="4.59836">
        <ele>220</ele>
        <time>2012-06-08 11:30:23Z</time>
      </trkpt>
      <trkpt lat="44.19689" lon="4.59842">
        <ele>220</ele>
        <time>2012-06-08 11:30:27Z</time>
      </trkpt>
      <trkpt lat="44.19691" lon="4.59851">
        <ele>219</ele>
        <time>2012-06-08 11:30:31Z</time>
      </trkpt>
      <trkpt lat="44.19692" lon="4.59861">
        <ele>218</ele>
        <time>2012-06-08 11:30:35Z</time>
      </trkpt>
      <trkpt lat="44.19693" lon="4.59869">
        <ele>217</ele>
        <time>2012-06-08 11:30:39Z</time>
      </trkpt>
      <trkpt lat="44.19696" lon="4.59881">
        <ele>214</ele>
        <time>2012-06-08 11:30:43Z</time>
      </trkpt>
      <trkpt lat="44.19698" lon="4.59893">
        <ele>215</ele>
        <time>2012-06-08 11:30:47Z</time>
      </trkpt>
      <trkpt lat="44.19699" lon="4.59903">
        <ele>215</ele>
        <time>2012-06-08 11:30:51Z</time>
      </trkpt>
      <trkpt lat="44.19701" lon="4.59916">
        <ele>218</ele>
        <time>2012-06-08 11:30:55Z</time>
      </trkpt>
      <trkpt lat="44.19705" lon="4.59928">
        <ele>219</ele>
        <time>2012-06-08 11:30:59Z</time>
      </trkpt>
      <trkpt lat="44.19712" lon="4.59938">
        <ele>220</ele>
        <time>2012-06-08 11:31:03Z</time>
      </trkpt>
      <trkpt lat="44.19721" lon="4.59947">
        <ele>221</ele>
        <time>2012-06-08 11:31:07Z</time>
      </trkpt>
      <trkpt lat="44.19728" lon="4.59952">
        <ele>221</ele>
        <time>2012-06-08 11:31:11Z</time>
      </trkpt>
      <trkpt lat="44.19734" lon="4.59957">
        <ele>221</ele>
        <time>2012-06-08 11:31:15Z</time>
      </trkpt>
      <trkpt lat="44.1974" lon="4.59961">
        <ele>224</ele>
        <time>2012-06-08 11:31:19Z</time>
      </trkpt>
      <trkpt lat="44.19746" lon="4.59966">
        <ele>224</ele>
        <time>2012-06-08 11:31:23Z</time>
      </trkpt>
      <trkpt lat="44.19753" lon="4.59972">
        <ele>223</ele>
        <time>2012-06-08 11:31:27Z</time>
      </trkpt>
      <trkpt lat="44.19761" lon="4.5998">
        <ele>224</ele>
        <time>2012-06-08 11:31:31Z</time>
      </trkpt>
      <trkpt lat="44.19772" lon="4.59991">
        <ele>222</ele>
        <time>2012-06-08 11:31:35Z</time>
      </trkpt>
      <trkpt lat="44.19779" lon="4.59995">
        <ele>223</ele>
        <time>2012-06-08 11:31:39Z</time>
      </trkpt>
      <trkpt lat="44.19787" lon="4.59998">
        <ele>222</ele>
        <time>2012-06-08 11:31:43Z</time>
      </trkpt>
      <trkpt lat="44.19793" lon="4.60003">
        <ele>220</ele>
        <time>2012-06-08 11:31:47Z</time>
      </trkpt>
      <trkpt lat="44.19798" lon="4.60008">
        <ele>219</ele>
        <time>2012-06-08 11:31:51Z</time>
      </trkpt>
      <trkpt lat="44.19805" lon="4.60014">
        <ele>220</ele>
        <time>2012-06-08 11:31:55Z</time>
      </trkpt>
      <trkpt lat="44.19814" lon="4.6002">
        <ele>220</ele>
        <time>2012-06-08 11:31:59Z</time>
      </trkpt>
      <trkpt lat="44.19823" lon="4.60025">
        <ele>220</ele>
        <time>2012-06-08 11:32:03Z</time>
      </trkpt>
      <trkpt lat="44.19832" lon="4.60029">
        <ele>220</ele>
        <time>2012-06-08 11:32:07Z</time>
      </trkpt>
      <trkpt lat="44.19839" lon="4.60031">
        <ele>219</ele>
        <time>2012-06-08 11:32:11Z</time>
      </trkpt>
      <trkpt lat="44.19849" lon="4.60035">
        <ele>218</ele>
        <time>2012-06-08 11:32:15Z</time>
      </trkpt>
      <trkpt lat="44.19859" lon="4.60039">
        <ele>218</ele>
        <time>2012-06-08 11:32:19Z</time>
      </trkpt>
      <trkpt lat="44.1987" lon="4.60045">
        <ele>216</ele>
        <time>2012-06-08 11:32:23Z</time>
      </trkpt>
      <trkpt lat="44.1988" lon="4.6005">
        <ele>218</ele>
        <time>2012-06-08 11:32:27Z</time>
      </trkpt>
      <trkpt lat="44.1989" lon="4.60057">
        <ele>219</ele>
        <time>2012-06-08 11:32:31Z</time>
      </trkpt>
      <trkpt lat="44.19902" lon="4.60062">
        <ele>220</ele>
        <time>2012-06-08 11:32:35Z</time>
      </trkpt>
      <trkpt lat="44.19913" lon="4.60068">
        <ele>220</ele>
        <time>2012-06-08 11:32:39Z</time>
      </trkpt>
      <trkpt lat="44.19923" lon="4.60074">
        <ele>219</ele>
        <time>2012-06-08 11:32:43Z</time>
      </trkpt>
      <trkpt lat="44.19933" lon="4.6008">
        <ele>221</ele>
        <time>2012-06-08 11:32:47Z</time>
      </trkpt>
      <trkpt lat="44.19941" lon="4.60086">
        <ele>223</ele>
        <time>2012-06-08 11:32:51Z</time>
      </trkpt>
      <trkpt lat="44.19947" lon="4.60094">
        <ele>223</ele>
        <time>2012-06-08 11:32:55Z</time>
      </trkpt>
      <trkpt lat="44.19952" lon="4.60102">
        <ele>224</ele>
        <time>2012-06-08 11:32:59Z</time>
      </trkpt>
      <trkpt lat="44.19958" lon="4.6011">
        <ele>225</ele>
        <time>2012-06-08 11:33:03Z</time>
      </trkpt>
      <trkpt lat="44.19966" lon="4.60117">
        <ele>225</ele>
        <time>2012-06-08 11:33:07Z</time>
      </trkpt>
      <trkpt lat="44.19972" lon="4.60124">
        <ele>227</ele>
        <time>2012-06-08 11:33:11Z</time>
      </trkpt>
      <trkpt lat="44.19978" lon="4.60133">
        <ele>228</ele>
        <time>2012-06-08 11:33:15Z</time>
      </trkpt>
      <trkpt lat="44.19985" lon="4.60141">
        <ele>228</ele>
        <time>2012-06-08 11:33:19Z</time>
      </trkpt>
      <trkpt lat="44.19992" lon="4.60144">
        <ele>230</ele>
        <time>2012-06-08 11:33:23Z</time>
      </trkpt>
      <trkpt lat="44.20002" lon="4.60145">
        <ele>230</ele>
        <time>2012-06-08 11:33:27Z</time>
      </trkpt>
      <trkpt lat="44.20012" lon="4.60149">
        <ele>231</ele>
        <time>2012-06-08 11:33:31Z</time>
      </trkpt>
      <trkpt lat="44.2002" lon="4.60151">
        <ele>232</ele>
        <time>2012-06-08 11:33:35Z</time>
      </trkpt>
      <trkpt lat="44.20026" lon="4.60153">
        <ele>232</ele>
        <time>2012-06-08 11:33:39Z</time>
      </trkpt>
      <trkpt lat="44.20037" lon="4.60157">
        <ele>231</ele>
        <time>2012-06-08 11:33:43Z</time>
      </trkpt>
      <trkpt lat="44.2005" lon="4.60161">
        <ele>231</ele>
        <time>2012-06-08 11:33:47Z</time>
      </trkpt>
      <trkpt lat="44.20063" lon="4.60166">
        <ele>232</ele>
        <time>2012-06-08 11:33:51Z</time>
      </trkpt>
      <trkpt lat="44.20076" lon="4.6017">
        <ele>232</ele>
        <time>2012-06-08 11:33:55Z</time>
      </trkpt>
      <trkpt lat="44.20088" lon="4.60173">
        <ele>231</ele>
        <time>2012-06-08 11:33:59Z</time>
      </trkpt>
      <trkpt lat="44.20099" lon="4.60179">
        <ele>231</ele>
        <time>2012-06-08 11:34:03Z</time>
      </trkpt>
      <trkpt lat="44.20108" lon="4.60193">
        <ele>232</ele>
        <time>2012-06-08 11:34:07Z</time>
      </trkpt>
      <trkpt lat="44.20118" lon="4.60201">
        <ele>233</ele>
        <time>2012-06-08 11:34:11Z</time>
      </trkpt>
      <trkpt lat="44.20128" lon="4.60196">
        <ele>228</ele>
        <time>2012-06-08 11:34:15Z</time>
      </trkpt>
      <trkpt lat="44.20137" lon="4.60189">
        <ele>227</ele>
        <time>2012-06-08 11:34:19Z</time>
      </trkpt>
      <trkpt lat="44.20147" lon="4.60183">
        <ele>227</ele>
        <time>2012-06-08 11:34:23Z</time>
      </trkpt>
      <trkpt lat="44.20157" lon="4.6018">
        <ele>228</ele>
        <time>2012-06-08 11:34:27Z</time>
      </trkpt>
      <trkpt lat="44.20167" lon="4.60177">
        <ele>226</ele>
        <time>2012-06-08 11:34:31Z</time>
      </trkpt>
      <trkpt lat="44.20178" lon="4.60175">
        <ele>226</ele>
        <time>2012-06-08 11:34:35Z</time>
      </trkpt>
      <trkpt lat="44.20188" lon="4.60173">
        <ele>226</ele>
        <time>2012-06-08 11:34:39Z</time>
      </trkpt>
      <trkpt lat="44.20197" lon="4.60174">
        <ele>226</ele>
        <time>2012-06-08 11:34:43Z</time>
      </trkpt>
      <trkpt lat="44.20202" lon="4.60178">
        <ele>226</ele>
        <time>2012-06-08 11:34:47Z</time>
      </trkpt>
      <trkpt lat="44.20205" lon="4.6018">
        <ele>225</ele>
        <time>2012-06-08 11:34:51Z</time>
      </trkpt>
      <trkpt lat="44.20204" lon="4.6018">
        <ele>225</ele>
        <time>2012-06-08 11:34:55Z</time>
      </trkpt>
      <trkpt lat="44.202" lon="4.60178">
        <ele>212</ele>
        <time>2012-06-08 11:34:59Z</time>
      </trkpt>
      <trkpt lat="44.20194" lon="4.60175">
        <ele>215</ele>
        <time>2012-06-08 11:35:03Z</time>
      </trkpt>
      <trkpt lat="44.20197" lon="4.60174">
        <ele>214</ele>
        <time>2012-06-08 11:35:07Z</time>
      </trkpt>
      <trkpt lat="44.20197" lon="4.60174">
        <ele>214</ele>
        <time>2012-06-08 11:35:11Z</time>
      </trkpt>
      <trkpt lat="44.20198" lon="4.60174">
        <ele>215</ele>
        <time>2012-06-08 11:35:15Z</time>
      </trkpt>
      <trkpt lat="44.20202" lon="4.60178">
        <ele>218</ele>
        <time>2012-06-08 11:35:19Z</time>
      </trkpt>
      <trkpt lat="44.20203" lon="4.60184">
        <ele>220</ele>
        <time>2012-06-08 11:35:23Z</time>
      </trkpt>
      <trkpt lat="44.20197" lon="4.6019">
        <ele>220</ele>
        <time>2012-06-08 11:35:27Z</time>
      </trkpt>
      <trkpt lat="44.20191" lon="4.60195">
        <ele>222</ele>
        <time>2012-06-08 11:35:31Z</time>
      </trkpt>
      <trkpt lat="44.20185" lon="4.60203">
        <ele>222</ele>
        <time>2012-06-08 11:35:35Z</time>
      </trkpt>
      <trkpt lat="44.20178" lon="4.6021">
        <ele>222</ele>
        <time>2012-06-08 11:35:39Z</time>
      </trkpt>
      <trkpt lat="44.2017" lon="4.60216">
        <ele>222</ele>
        <time>2012-06-08 11:35:43Z</time>
      </trkpt>
      <trkpt lat="44.20164" lon="4.60225">
        <ele>224</ele>
        <time>2012-06-08 11:35:47Z</time>
      </trkpt>
      <trkpt lat="44.20159" lon="4.60233">
        <ele>225</ele>
        <time>2012-06-08 11:35:51Z</time>
      </trkpt>
      <trkpt lat="44.20146" lon="4.60243">
        <ele>221</ele>
        <time>2012-06-08 11:35:55Z</time>
      </trkpt>
      <trkpt lat="44.20135" lon="4.60248">
        <ele>220</ele>
        <time>2012-06-08 11:35:59Z</time>
      </trkpt>
      <trkpt lat="44.2013" lon="4.60251">
        <ele>221</ele>
        <time>2012-06-08 11:36:03Z</time>
      </trkpt>
      <trkpt lat="44.20124" lon="4.60259">
        <ele>223</ele>
        <time>2012-06-08 11:36:07Z</time>
      </trkpt>
      <trkpt lat="44.20118" lon="4.60267">
        <ele>224</ele>
        <time>2012-06-08 11:36:11Z</time>
      </trkpt>
      <trkpt lat="44.20112" lon="4.6027">
        <ele>230</ele>
        <time>2012-06-08 11:36:15Z</time>
      </trkpt>
      <trkpt lat="44.20104" lon="4.60275">
        <ele>230</ele>
        <time>2012-06-08 11:36:19Z</time>
      </trkpt>
      <trkpt lat="44.20096" lon="4.60281">
        <ele>230</ele>
        <time>2012-06-08 11:36:23Z</time>
      </trkpt>
      <trkpt lat="44.20088" lon="4.60285">
        <ele>229</ele>
        <time>2012-06-08 11:36:27Z</time>
      </trkpt>
      <trkpt lat="44.20083" lon="4.60291">
        <ele>228</ele>
        <time>2012-06-08 11:36:31Z</time>
      </trkpt>
      <trkpt lat="44.20076" lon="4.603">
        <ele>228</ele>
        <time>2012-06-08 11:36:35Z</time>
      </trkpt>
      <trkpt lat="44.20067" lon="4.60312">
        <ele>226</ele>
        <time>2012-06-08 11:36:39Z</time>
      </trkpt>
      <trkpt lat="44.20054" lon="4.60323">
        <ele>227</ele>
        <time>2012-06-08 11:36:43Z</time>
      </trkpt>
      <trkpt lat="44.20044" lon="4.6033">
        <ele>228</ele>
        <time>2012-06-08 11:36:47Z</time>
      </trkpt>
      <trkpt lat="44.20035" lon="4.60342">
        <ele>229</ele>
        <time>2012-06-08 11:36:51Z</time>
      </trkpt>
      <trkpt lat="44.20027" lon="4.60352">
        <ele>231</ele>
        <time>2012-06-08 11:36:55Z</time>
      </trkpt>
      <trkpt lat="44.20018" lon="4.60363">
        <ele>232</ele>
        <time>2012-06-08 11:36:59Z</time>
      </trkpt>
      <trkpt lat="44.20012" lon="4.60364">
        <ele>232</ele>
        <time>2012-06-08 11:37:03Z</time>
      </trkpt>
      <trkpt lat="44.20003" lon="4.60364">
        <ele>231</ele>
        <time>2012-06-08 11:37:07Z</time>
      </trkpt>
      <trkpt lat="44.19991" lon="4.60371">
        <ele>230</ele>
        <time>2012-06-08 11:37:11Z</time>
      </trkpt>
      <trkpt lat="44.19976" lon="4.60383">
        <ele>230</ele>
        <time>2012-06-08 11:37:15Z</time>
      </trkpt>
      <trkpt lat="44.19966" lon="4.60395">
        <ele>229</ele>
        <time>2012-06-08 11:37:19Z</time>
      </trkpt>
      <trkpt lat="44.19943" lon="4.60403">
        <ele>231</ele>
        <time>2012-06-08 11:37:23Z</time>
      </trkpt>
      <trkpt lat="44.19926" lon="4.60403">
        <ele>230</ele>
        <time>2012-06-08 11:37:27Z</time>
      </trkpt>
      <trkpt lat="44.19905" lon="4.60403">
        <ele>223</ele>
        <time>2012-06-08 11:37:31Z</time>
      </trkpt>
      <trkpt lat="44.19893" lon="4.60399">
        <ele>222</ele>
        <time>2012-06-08 11:37:35Z</time>
      </trkpt>
      <trkpt lat="44.19883" lon="4.60392">
        <ele>221</ele>
        <time>2012-06-08 11:37:39Z</time>
      </trkpt>
      <trkpt lat="44.19877" lon="4.60389">
        <ele>221</ele>
        <time>2012-06-08 11:37:43Z</time>
      </trkpt>
      <trkpt lat="44.19869" lon="4.6039">
        <ele>221</ele>
        <time>2012-06-08 11:37:47Z</time>
      </trkpt>
      <trkpt lat="44.19856" lon="4.60388">
        <ele>220</ele>
        <time>2012-06-08 11:37:51Z</time>
      </trkpt>
      <trkpt lat="44.19839" lon="4.6038">
        <ele>219</ele>
        <time>2012-06-08 11:37:55Z</time>
      </trkpt>
      <trkpt lat="44.19831" lon="4.60374">
        <ele>219</ele>
        <time>2012-06-08 11:37:59Z</time>
      </trkpt>
      <trkpt lat="44.19827" lon="4.60365">
        <ele>222</ele>
        <time>2012-06-08 11:38:03Z</time>
      </trkpt>
      <trkpt lat="44.1982" lon="4.60357">
        <ele>219</ele>
        <time>2012-06-08 11:38:07Z</time>
      </trkpt>
      <trkpt lat="44.19812" lon="4.60349">
        <ele>218</ele>
        <time>2012-06-08 11:38:11Z</time>
      </trkpt>
      <trkpt lat="44.19806" lon="4.6034">
        <ele>218</ele>
        <time>2012-06-08 11:38:15Z</time>
      </trkpt>
      <trkpt lat="44.19797" lon="4.6033">
        <ele>217</ele>
        <time>2012-06-08 11:38:19Z</time>
      </trkpt>
      <trkpt lat="44.19787" lon="4.60323">
        <ele>217</ele>
        <time>2012-06-08 11:38:23Z</time>
      </trkpt>
      <trkpt lat="44.19779" lon="4.60323">
        <ele>218</ele>
        <time>2012-06-08 11:38:27Z</time>
      </trkpt>
      <trkpt lat="44.19776" lon="4.60328">
        <ele>217</ele>
        <time>2012-06-08 11:38:31Z</time>
      </trkpt>
      <trkpt lat="44.19776" lon="4.6033">
        <ele>217</ele>
        <time>2012-06-08 11:38:35Z</time>
      </trkpt>
      <trkpt lat="44.19775" lon="4.60334">
        <ele>216</ele>
        <time>2012-06-08 11:38:39Z</time>
      </trkpt>
      <trkpt lat="44.19774" lon="4.60336">
        <ele>220</ele>
        <time>2012-06-08 11:38:43Z</time>
      </trkpt>
      <trkpt lat="44.19776" lon="4.60337">
        <ele>221</ele>
        <time>2012-06-08 11:38:47Z</time>
      </trkpt>
      <trkpt lat="44.19775" lon="4.60334">
        <ele>220</ele>
        <time>2012-06-08 11:38:51Z</time>
      </trkpt>
      <trkpt lat="44.19771" lon="4.60328">
        <ele>220</ele>
        <time>2012-06-08 11:38:55Z</time>
      </trkpt>
      <trkpt lat="44.19768" lon="4.60325">
        <ele>219</ele>
        <time>2012-06-08 11:38:59Z</time>
      </trkpt>
      <trkpt lat="44.19764" lon="4.6032">
        <ele>219</ele>
        <time>2012-06-08 11:39:03Z</time>
      </trkpt>
      <trkpt lat="44.1976" lon="4.60315">
        <ele>218</ele>
        <time>2012-06-08 11:39:07Z</time>
      </trkpt>
      <trkpt lat="44.19759" lon="4.60314">
        <ele>217</ele>
        <time>2012-06-08 11:39:11Z</time>
      </trkpt>
      <trkpt lat="44.19757" lon="4.60314">
        <ele>217</ele>
        <time>2012-06-08 11:39:15Z</time>
      </trkpt>
      <trkpt lat="44.19756" lon="4.60308">
        <ele>215</ele>
        <time>2012-06-08 11:39:19Z</time>
      </trkpt>
      <trkpt lat="44.19759" lon="4.603">
        <ele>216</ele>
        <time>2012-06-08 11:39:23Z</time>
      </trkpt>
      <trkpt lat="44.19761" lon="4.60292">
        <ele>216</ele>
        <time>2012-06-08 11:39:27Z</time>
      </trkpt>
      <trkpt lat="44.19759" lon="4.60282">
        <ele>211</ele>
        <time>2012-06-08 11:39:31Z</time>
      </trkpt>
      <trkpt lat="44.19754" lon="4.60281">
        <ele>209</ele>
        <time>2012-06-08 11:39:35Z</time>
      </trkpt>
      <trkpt lat="44.19751" lon="4.60282">
        <ele>208</ele>
        <time>2012-06-08 11:39:39Z</time>
      </trkpt>
      <trkpt lat="44.19747" lon="4.60282">
        <ele>208</ele>
        <time>2012-06-08 11:39:43Z</time>
      </trkpt>
      <trkpt lat="44.1974" lon="4.60282">
        <ele>208</ele>
        <time>2012-06-08 11:39:47Z</time>
      </trkpt>
      <trkpt lat="44.19733" lon="4.60285">
        <ele>207</ele>
        <time>2012-06-08 11:39:51Z</time>
      </trkpt>
      <trkpt lat="44.19729" lon="4.60284">
        <ele>207</ele>
        <time>2012-06-08 11:39:55Z</time>
      </trkpt>
      <trkpt lat="44.19725" lon="4.60286">
        <ele>206</ele>
        <time>2012-06-08 11:39:59Z</time>
      </trkpt>
      <trkpt lat="44.19721" lon="4.60292">
        <ele>206</ele>
        <time>2012-06-08 11:40:03Z</time>
      </trkpt>
      <trkpt lat="44.19717" lon="4.60296">
        <ele>206</ele>
        <time>2012-06-08 11:40:07Z</time>
      </trkpt>
      <trkpt lat="44.19714" lon="4.60296">
        <ele>206</ele>
        <time>2012-06-08 11:40:11Z</time>
      </trkpt>
      <trkpt lat="44.19713" lon="4.60296">
        <ele>206</ele>
        <time>2012-06-08 11:40:15Z</time>
      </trkpt>
      <trkpt lat="44.19712" lon="4.60298">
        <ele>205</ele>
        <time>2012-06-08 11:40:19Z</time>
      </trkpt>
      <trkpt lat="44.19712" lon="4.60298">
        <ele>205</ele>
        <time>2012-06-08 11:40:23Z</time>
      </trkpt>
      <trkpt lat="44.19708" lon="4.60304">
        <ele>205</ele>
        <time>2012-06-08 11:40:27Z</time>
      </trkpt>
      <trkpt lat="44.19704" lon="4.60304">
        <ele>205</ele>
        <time>2012-06-08 11:40:31Z</time>
      </trkpt>
      <trkpt lat="44.19703" lon="4.60304">
        <ele>204</ele>
        <time>2012-06-08 11:40:35Z</time>
      </trkpt>
      <trkpt lat="44.19701" lon="4.60303">
        <ele>205</ele>
        <time>2012-06-08 11:40:39Z</time>
      </trkpt>
      <trkpt lat="44.19698" lon="4.60302">
        <ele>202</ele>
        <time>2012-06-08 11:40:43Z</time>
      </trkpt>
      <trkpt lat="44.19695" lon="4.60301">
        <ele>201</ele>
        <time>2012-06-08 11:40:47Z</time>
      </trkpt>
      <trkpt lat="44.19687" lon="4.603">
        <ele>201</ele>
        <time>2012-06-08 11:40:51Z</time>
      </trkpt>
      <trkpt lat="44.19677" lon="4.60301">
        <ele>198</ele>
        <time>2012-06-08 11:40:55Z</time>
      </trkpt>
      <trkpt lat="44.19671" lon="4.603">
        <ele>197</ele>
        <time>2012-06-08 11:40:59Z</time>
      </trkpt>
      <trkpt lat="44.19661" lon="4.60299">
        <ele>201</ele>
        <time>2012-06-08 11:41:03Z</time>
      </trkpt>
      <trkpt lat="44.19645" lon="4.60303">
        <ele>201</ele>
        <time>2012-06-08 11:41:07Z</time>
      </trkpt>
      <trkpt lat="44.19637" lon="4.60308">
        <ele>199</ele>
        <time>2012-06-08 11:41:11Z</time>
      </trkpt>
      <trkpt lat="44.19628" lon="4.60318">
        <ele>196</ele>
        <time>2012-06-08 11:41:15Z</time>
      </trkpt>
      <trkpt lat="44.19626" lon="4.60324">
        <ele>194</ele>
        <time>2012-06-08 11:41:19Z</time>
      </trkpt>
      <trkpt lat="44.19628" lon="4.60329">
        <ele>192</ele>
        <time>2012-06-08 11:41:23Z</time>
      </trkpt>
      <trkpt lat="44.19628" lon="4.60334">
        <ele>191</ele>
        <time>2012-06-08 11:41:27Z</time>
      </trkpt>
      <trkpt lat="44.19628" lon="4.60341">
        <ele>191</ele>
        <time>2012-06-08 11:41:31Z</time>
      </trkpt>
      <trkpt lat="44.19632" lon="4.60351">
        <ele>191</ele>
        <time>2012-06-08 11:41:35Z</time>
      </trkpt>
      <trkpt lat="44.19636" lon="4.60363">
        <ele>190</ele>
        <time>2012-06-08 11:41:39Z</time>
      </trkpt>
      <trkpt lat="44.19634" lon="4.6038">
        <ele>191</ele>
        <time>2012-06-08 11:41:43Z</time>
      </trkpt>
      <trkpt lat="44.19631" lon="4.60401">
        <ele>191</ele>
        <time>2012-06-08 11:41:47Z</time>
      </trkpt>
      <trkpt lat="44.19631" lon="4.60417">
        <ele>191</ele>
        <time>2012-06-08 11:41:51Z</time>
      </trkpt>
      <trkpt lat="44.1963" lon="4.6044">
        <ele>191</ele>
        <time>2012-06-08 11:41:55Z</time>
      </trkpt>
      <trkpt lat="44.19631" lon="4.60461">
        <ele>191</ele>
        <time>2012-06-08 11:41:59Z</time>
      </trkpt>
      <trkpt lat="44.19635" lon="4.60476">
        <ele>191</ele>
        <time>2012-06-08 11:42:03Z</time>
      </trkpt>
      <trkpt lat="44.19643" lon="4.60487">
        <ele>191</ele>
        <time>2012-06-08 11:42:07Z</time>
      </trkpt>
      <trkpt lat="44.19649" lon="4.60499">
        <ele>191</ele>
        <time>2012-06-08 11:42:11Z</time>
      </trkpt>
      <trkpt lat="44.19653" lon="4.60505">
        <ele>191</ele>
        <time>2012-06-08 11:42:15Z</time>
      </trkpt>
      <trkpt lat="44.19655" lon="4.60511">
        <ele>191</ele>
        <time>2012-06-08 11:42:19Z</time>
      </trkpt>
      <trkpt lat="44.19656" lon="4.60525">
        <ele>192</ele>
        <time>2012-06-08 11:42:23Z</time>
      </trkpt>
      <trkpt lat="44.19656" lon="4.60535">
        <ele>192</ele>
        <time>2012-06-08 11:42:27Z</time>
      </trkpt>
      <trkpt lat="44.19655" lon="4.6055">
        <ele>192</ele>
        <time>2012-06-08 11:42:31Z</time>
      </trkpt>
      <trkpt lat="44.19655" lon="4.60564">
        <ele>192</ele>
        <time>2012-06-08 11:42:35Z</time>
      </trkpt>
      <trkpt lat="44.19656" lon="4.60578">
        <ele>192</ele>
        <time>2012-06-08 11:42:39Z</time>
      </trkpt>
      <trkpt lat="44.19657" lon="4.60588">
        <ele>191</ele>
        <time>2012-06-08 11:42:43Z</time>
      </trkpt>
      <trkpt lat="44.19656" lon="4.60599">
        <ele>191</ele>
        <time>2012-06-08 11:42:47Z</time>
      </trkpt>
      <trkpt lat="44.19654" lon="4.60613">
        <ele>191</ele>
        <time>2012-06-08 11:42:51Z</time>
      </trkpt>
      <trkpt lat="44.19653" lon="4.60635">
        <ele>191</ele>
        <time>2012-06-08 11:42:55Z</time>
      </trkpt>
      <trkpt lat="44.19655" lon="4.60652">
        <ele>191</ele>
        <time>2012-06-08 11:42:59Z</time>
      </trkpt>
      <trkpt lat="44.19659" lon="4.60666">
        <ele>190</ele>
        <time>2012-06-08 11:43:03Z</time>
      </trkpt>
      <trkpt lat="44.19667" lon="4.60678">
        <ele>187</ele>
        <time>2012-06-08 11:43:07Z</time>
      </trkpt>
      <trkpt lat="44.19673" lon="4.6069">
        <ele>180</ele>
        <time>2012-06-08 11:43:11Z</time>
      </trkpt>
      <trkpt lat="44.19681" lon="4.60706">
        <ele>179</ele>
        <time>2012-06-08 11:43:15Z</time>
      </trkpt>
      <trkpt lat="44.19689" lon="4.60721">
        <ele>180</ele>
        <time>2012-06-08 11:43:19Z</time>
      </trkpt>
      <trkpt lat="44.19695" lon="4.60739">
        <ele>180</ele>
        <time>2012-06-08 11:43:23Z</time>
      </trkpt>
      <trkpt lat="44.19701" lon="4.60758">
        <ele>181</ele>
        <time>2012-06-08 11:43:27Z</time>
      </trkpt>
      <trkpt lat="44.19705" lon="4.60766">
        <ele>179</ele>
        <time>2012-06-08 11:43:31Z</time>
      </trkpt>
      <trkpt lat="44.19708" lon="4.60767">
        <ele>170</ele>
        <time>2012-06-08 11:43:35Z</time>
      </trkpt>
      <trkpt lat="44.19708" lon="4.60775">
        <ele>166</ele>
        <time>2012-06-08 11:43:39Z</time>
      </trkpt>
      <trkpt lat="44.19709" lon="4.60791">
        <ele>164</ele>
        <time>2012-06-08 11:43:43Z</time>
      </trkpt>
      <trkpt lat="44.19716" lon="4.6081">
        <ele>164</ele>
        <time>2012-06-08 11:43:47Z</time>
      </trkpt>
      <trkpt lat="44.19726" lon="4.60827">
        <ele>163</ele>
        <time>2012-06-08 11:43:51Z</time>
      </trkpt>
      <trkpt lat="44.19737" lon="4.60843">
        <ele>163</ele>
        <time>2012-06-08 11:43:55Z</time>
      </trkpt>
      <trkpt lat="44.1974" lon="4.6086">
        <ele>163</ele>
        <time>2012-06-08 11:43:59Z</time>
      </trkpt>
      <trkpt lat="44.19744" lon="4.60884">
        <ele>163</ele>
        <time>2012-06-08 11:44:03Z</time>
      </trkpt>
      <trkpt lat="44.19752" lon="4.60905">
        <ele>164</ele>
        <time>2012-06-08 11:44:07Z</time>
      </trkpt>
      <trkpt lat="44.19757" lon="4.60919">
        <ele>163</ele>
        <time>2012-06-08 11:44:11Z</time>
      </trkpt>
      <trkpt lat="44.19752" lon="4.60925">
        <ele>161</ele>
        <time>2012-06-08 11:44:15Z</time>
      </trkpt>
      <trkpt lat="44.19751" lon="4.60939">
        <ele>155</ele>
        <time>2012-06-08 11:44:19Z</time>
      </trkpt>
      <trkpt lat="44.19755" lon="4.60949">
        <ele>149</ele>
        <time>2012-06-08 11:44:23Z</time>
      </trkpt>
      <trkpt lat="44.19762" lon="4.60956">
        <ele>151</ele>
        <time>2012-06-08 11:44:27Z</time>
      </trkpt>
      <trkpt lat="44.19768" lon="4.60959">
        <ele>149</ele>
        <time>2012-06-08 11:44:31Z</time>
      </trkpt>
      <trkpt lat="44.19769" lon="4.60959">
        <ele>151</ele>
        <time>2012-06-08 11:44:35Z</time>
      </trkpt>
      <trkpt lat="44.19769" lon="4.60957">
        <ele>150</ele>
        <time>2012-06-08 11:44:39Z</time>
      </trkpt>
      <trkpt lat="44.19772" lon="4.60954">
        <ele>150</ele>
        <time>2012-06-08 11:44:43Z</time>
      </trkpt>
      <trkpt lat="44.19779" lon="4.60949">
        <ele>149</ele>
        <time>2012-06-08 11:44:47Z</time>
      </trkpt>
      <trkpt lat="44.19788" lon="4.60944">
        <ele>148</ele>
        <time>2012-06-08 11:44:51Z</time>
      </trkpt>
      <trkpt lat="44.19797" lon="4.6094">
        <ele>149</ele>
        <time>2012-06-08 11:44:55Z</time>
      </trkpt>
      <trkpt lat="44.19806" lon="4.60937">
        <ele>148</ele>
        <time>2012-06-08 11:44:59Z</time>
      </trkpt>
      <trkpt lat="44.19815" lon="4.60935">
        <ele>148</ele>
        <time>2012-06-08 11:45:03Z</time>
      </trkpt>
      <trkpt lat="44.19823" lon="4.60935">
        <ele>148</ele>
        <time>2012-06-08 11:45:07Z</time>
      </trkpt>
      <trkpt lat="44.1983" lon="4.60937">
        <ele>146</ele>
        <time>2012-06-08 11:45:11Z</time>
      </trkpt>
      <trkpt lat="44.19836" lon="4.60942">
        <ele>146</ele>
        <time>2012-06-08 11:45:15Z</time>
      </trkpt>
      <trkpt lat="44.19842" lon="4.60945">
        <ele>146</ele>
        <time>2012-06-08 11:45:19Z</time>
      </trkpt>
      <trkpt lat="44.19847" lon="4.60947">
        <ele>146</ele>
        <time>2012-06-08 11:45:23Z</time>
      </trkpt>
      <trkpt lat="44.19853" lon="4.60945">
        <ele>147</ele>
        <time>2012-06-08 11:45:27Z</time>
      </trkpt>
      <trkpt lat="44.19861" lon="4.60943">
        <ele>147</ele>
        <time>2012-06-08 11:45:31Z</time>
      </trkpt>
      <trkpt lat="44.19867" lon="4.60942">
        <ele>145</ele>
        <time>2012-06-08 11:45:35Z</time>
      </trkpt>
      <trkpt lat="44.19875" lon="4.60943">
        <ele>144</ele>
        <time>2012-06-08 11:45:39Z</time>
      </trkpt>
      <trkpt lat="44.19884" lon="4.60943">
        <ele>144</ele>
        <time>2012-06-08 11:45:43Z</time>
      </trkpt>
      <trkpt lat="44.19893" lon="4.60942">
        <ele>143</ele>
        <time>2012-06-08 11:45:47Z</time>
      </trkpt>
      <trkpt lat="44.19899" lon="4.60943">
        <ele>143</ele>
        <time>2012-06-08 11:45:51Z</time>
      </trkpt>
      <trkpt lat="44.19904" lon="4.60944">
        <ele>144</ele>
        <time>2012-06-08 11:45:55Z</time>
      </trkpt>
      <trkpt lat="44.1991" lon="4.60944">
        <ele>144</ele>
        <time>2012-06-08 11:45:59Z</time>
      </trkpt>
      <trkpt lat="44.19917" lon="4.60946">
        <ele>145</ele>
        <time>2012-06-08 11:46:03Z</time>
      </trkpt>
      <trkpt lat="44.19924" lon="4.60945">
        <ele>147</ele>
        <time>2012-06-08 11:46:07Z</time>
      </trkpt>
      <trkpt lat="44.19933" lon="4.60945">
        <ele>148</ele>
        <time>2012-06-08 11:46:11Z</time>
      </trkpt>
      <trkpt lat="44.19941" lon="4.60941">
        <ele>147</ele>
        <time>2012-06-08 11:46:15Z</time>
      </trkpt>
      <trkpt lat="44.1995" lon="4.60938">
        <ele>145</ele>
        <time>2012-06-08 11:46:19Z</time>
      </trkpt>
      <trkpt lat="44.19958" lon="4.60935">
        <ele>148</ele>
        <time>2012-06-08 11:46:23Z</time>
      </trkpt>
      <trkpt lat="44.19966" lon="4.60929">
        <ele>148</ele>
        <time>2012-06-08 11:46:27Z</time>
      </trkpt>
      <trkpt lat="44.19973" lon="4.60922">
        <ele>150</ele>
        <time>2012-06-08 11:46:31Z</time>
      </trkpt>
      <trkpt lat="44.19978" lon="4.60916">
        <ele>151</ele>
        <time>2012-06-08 11:46:35Z</time>
      </trkpt>
      <trkpt lat="44.19982" lon="4.60913">
        <ele>152</ele>
        <time>2012-06-08 11:46:39Z</time>
      </trkpt>
      <trkpt lat="44.19987" lon="4.6091">
        <ele>152</ele>
        <time>2012-06-08 11:46:43Z</time>
      </trkpt>
      <trkpt lat="44.19993" lon="4.60906">
        <ele>152</ele>
        <time>2012-06-08 11:46:47Z</time>
      </trkpt>
      <trkpt lat="44.20001" lon="4.609">
        <ele>154</ele>
        <time>2012-06-08 11:46:51Z</time>
      </trkpt>
      <trkpt lat="44.20008" lon="4.60894">
        <ele>156</ele>
        <time>2012-06-08 11:46:55Z</time>
      </trkpt>
      <trkpt lat="44.20013" lon="4.60887">
        <ele>154</ele>
        <time>2012-06-08 11:46:59Z</time>
      </trkpt>
      <trkpt lat="44.20019" lon="4.60882">
        <ele>155</ele>
        <time>2012-06-08 11:47:03Z</time>
      </trkpt>
      <trkpt lat="44.20026" lon="4.60873">
        <ele>153</ele>
        <time>2012-06-08 11:47:07Z</time>
      </trkpt>
      <trkpt lat="44.20031" lon="4.60865">
        <ele>153</ele>
        <time>2012-06-08 11:47:11Z</time>
      </trkpt>
      <trkpt lat="44.20039" lon="4.60858">
        <ele>155</ele>
        <time>2012-06-08 11:47:15Z</time>
      </trkpt>
      <trkpt lat="44.20047" lon="4.60853">
        <ele>155</ele>
        <time>2012-06-08 11:47:19Z</time>
      </trkpt>
      <trkpt lat="44.20052" lon="4.60847">
        <ele>155</ele>
        <time>2012-06-08 11:47:23Z</time>
      </trkpt>
      <trkpt lat="44.20058" lon="4.60838">
        <ele>154</ele>
        <time>2012-06-08 11:47:27Z</time>
      </trkpt>
      <trkpt lat="44.20067" lon="4.60829">
        <ele>154</ele>
        <time>2012-06-08 11:47:31Z</time>
      </trkpt>
      <trkpt lat="44.20075" lon="4.60819">
        <ele>150</ele>
        <time>2012-06-08 11:47:35Z</time>
      </trkpt>
      <trkpt lat="44.20085" lon="4.60813">
        <ele>153</ele>
        <time>2012-06-08 11:47:39Z</time>
      </trkpt>
      <trkpt lat="44.20093" lon="4.60809">
        <ele>155</ele>
        <time>2012-06-08 11:47:43Z</time>
      </trkpt>
      <trkpt lat="44.201" lon="4.60807">
        <ele>154</ele>
        <time>2012-06-08 11:47:47Z</time>
      </trkpt>
      <trkpt lat="44.20107" lon="4.60806">
        <ele>156</ele>
        <time>2012-06-08 11:47:51Z</time>
      </trkpt>
      <trkpt lat="44.20114" lon="4.60806">
        <ele>159</ele>
        <time>2012-06-08 11:47:55Z</time>
      </trkpt>
      <trkpt lat="44.20119" lon="4.60802">
        <ele>159</ele>
        <time>2012-06-08 11:47:59Z</time>
      </trkpt>
      <trkpt lat="44.20124" lon="4.608">
        <ele>157</ele>
        <time>2012-06-08 11:48:03Z</time>
      </trkpt>
      <trkpt lat="44.20131" lon="4.60799">
        <ele>157</ele>
        <time>2012-06-08 11:48:07Z</time>
      </trkpt>
      <trkpt lat="44.20138" lon="4.60798">
        <ele>157</ele>
        <time>2012-06-08 11:48:11Z</time>
      </trkpt>
      <trkpt lat="44.20144" lon="4.60798">
        <ele>159</ele>
        <time>2012-06-08 11:48:15Z</time>
      </trkpt>
      <trkpt lat="44.20151" lon="4.60793">
        <ele>162</ele>
        <time>2012-06-08 11:48:19Z</time>
      </trkpt>
      <trkpt lat="44.20158" lon="4.60789">
        <ele>165</ele>
        <time>2012-06-08 11:48:23Z</time>
      </trkpt>
      <trkpt lat="44.20162" lon="4.60787">
        <ele>167</ele>
        <time>2012-06-08 11:48:27Z</time>
      </trkpt>
      <trkpt lat="44.20166" lon="4.60785">
        <ele>168</ele>
        <time>2012-06-08 11:48:31Z</time>
      </trkpt>
      <trkpt lat="44.20168" lon="4.60787">
        <ele>167</ele>
        <time>2012-06-08 11:48:35Z</time>
      </trkpt>
      <trkpt lat="44.20165" lon="4.60792">
        <ele>165</ele>
        <time>2012-06-08 11:48:39Z</time>
      </trkpt>
      <trkpt lat="44.2016" lon="4.60797">
        <ele>164</ele>
        <time>2012-06-08 11:48:43Z</time>
      </trkpt>
      <trkpt lat="44.20154" lon="4.60802">
        <ele>167</ele>
        <time>2012-06-08 11:48:47Z</time>
      </trkpt>
      <trkpt lat="44.20149" lon="4.60803">
        <ele>168</ele>
        <time>2012-06-08 11:48:51Z</time>
      </trkpt>
      <trkpt lat="44.20144" lon="4.60806">
        <ele>165</ele>
        <time>2012-06-08 11:48:55Z</time>
      </trkpt>
      <trkpt lat="44.20139" lon="4.60809">
        <ele>166</ele>
        <time>2012-06-08 11:48:59Z</time>
      </trkpt>
      <trkpt lat="44.20134" lon="4.60812">
        <ele>165</ele>
        <time>2012-06-08 11:49:03Z</time>
      </trkpt>
      <trkpt lat="44.20128" lon="4.60813">
        <ele>164</ele>
        <time>2012-06-08 11:49:07Z</time>
      </trkpt>
      <trkpt lat="44.20121" lon="4.60816">
        <ele>164</ele>
        <time>2012-06-08 11:49:11Z</time>
      </trkpt>
      <trkpt lat="44.20114" lon="4.60819">
        <ele>164</ele>
        <time>2012-06-08 11:49:15Z</time>
      </trkpt>
      <trkpt lat="44.20106" lon="4.60825">
        <ele>164</ele>
        <time>2012-06-08 11:49:19Z</time>
      </trkpt>
      <trkpt lat="44.20098" lon="4.60832">
        <ele>163</ele>
        <time>2012-06-08 11:49:23Z</time>
      </trkpt>
      <trkpt lat="44.20089" lon="4.6084">
        <ele>164</ele>
        <time>2012-06-08 11:49:27Z</time>
      </trkpt>
      <trkpt lat="44.20074" lon="4.60851">
        <ele>165</ele>
        <time>2012-06-08 11:49:31Z</time>
      </trkpt>
      <trkpt lat="44.20064" lon="4.60858">
        <ele>166</ele>
        <time>2012-06-08 11:49:35Z</time>
      </trkpt>
      <trkpt lat="44.20054" lon="4.60861">
        <ele>168</ele>
        <time>2012-06-08 11:49:39Z</time>
      </trkpt>
      <trkpt lat="44.20049" lon="4.60867">
        <ele>168</ele>
        <time>2012-06-08 11:49:43Z</time>
      </trkpt>
      <trkpt lat="44.20044" lon="4.60871">
        <ele>168</ele>
        <time>2012-06-08 11:49:47Z</time>
      </trkpt>
      <trkpt lat="44.20039" lon="4.60879">
        <ele>166</ele>
        <time>2012-06-08 11:49:51Z</time>
      </trkpt>
      <trkpt lat="44.20039" lon="4.60892">
        <ele>165</ele>
        <time>2012-06-08 11:49:55Z</time>
      </trkpt>
      <trkpt lat="44.20042" lon="4.60904">
        <ele>166</ele>
        <time>2012-06-08 11:49:59Z</time>
      </trkpt>
      <trkpt lat="44.20046" lon="4.60909">
        <ele>165</ele>
        <time>2012-06-08 11:50:03Z</time>
      </trkpt>
      <trkpt lat="44.20047" lon="4.60914">
        <ele>164</ele>
        <time>2012-06-08 11:50:07Z</time>
      </trkpt>
      <trkpt lat="44.2005" lon="4.60919">
        <ele>167</ele>
        <time>2012-06-08 11:50:11Z</time>
      </trkpt>
      <trkpt lat="44.2005" lon="4.60924">
        <ele>168</ele>
        <time>2012-06-08 11:50:15Z</time>
      </trkpt>
      <trkpt lat="44.20052" lon="4.60929">
        <ele>172</ele>
        <time>2012-06-08 11:50:19Z</time>
      </trkpt>
      <trkpt lat="44.20049" lon="4.60926">
        <ele>170</ele>
        <time>2012-06-08 11:50:23Z</time>
      </trkpt>
      <trkpt lat="44.20049" lon="4.60925">
        <ele>170</ele>
        <time>2012-06-08 11:50:27Z</time>
      </trkpt>
      <trkpt lat="44.20052" lon="4.60929">
        <ele>169</ele>
        <time>2012-06-08 11:50:31Z</time>
      </trkpt>
      <trkpt lat="44.20053" lon="4.60934">
        <ele>171</ele>
        <time>2012-06-08 11:50:35Z</time>
      </trkpt>
      <trkpt lat="44.20054" lon="4.60937">
        <ele>171</ele>
        <time>2012-06-08 11:50:39Z</time>
      </trkpt>
      <trkpt lat="44.20056" lon="4.60939">
        <ele>170</ele>
        <time>2012-06-08 11:50:43Z</time>
      </trkpt>
      <trkpt lat="44.20058" lon="4.60938">
        <ele>172</ele>
        <time>2012-06-08 11:50:47Z</time>
      </trkpt>
      <trkpt lat="44.20061" lon="4.60934">
        <ele>170</ele>
        <time>2012-06-08 11:50:51Z</time>
      </trkpt>
      <trkpt lat="44.20062" lon="4.60937">
        <ele>172</ele>
        <time>2012-06-08 11:50:55Z</time>
      </trkpt>
      <trkpt lat="44.20062" lon="4.60938">
        <ele>171</ele>
        <time>2012-06-08 11:50:59Z</time>
      </trkpt>
      <trkpt lat="44.20062" lon="4.60938">
        <ele>171</ele>
        <time>2012-06-08 11:51:03Z</time>
      </trkpt>
      <trkpt lat="44.20063" lon="4.60941">
        <ele>176</ele>
        <time>2012-06-08 11:51:07Z</time>
      </trkpt>
      <trkpt lat="44.20063" lon="4.60944">
        <ele>177</ele>
        <time>2012-06-08 11:51:11Z</time>
      </trkpt>
      <trkpt lat="44.20061" lon="4.60949">
        <ele>170</ele>
        <time>2012-06-08 11:51:15Z</time>
      </trkpt>
      <trkpt lat="44.2006" lon="4.60953">
        <ele>171</ele>
        <time>2012-06-08 11:51:19Z</time>
      </trkpt>
      <trkpt lat="44.20062" lon="4.60954">
        <ele>169</ele>
        <time>2012-06-08 11:51:23Z</time>
      </trkpt>
      <trkpt lat="44.20065" lon="4.60957">
        <ele>173</ele>
        <time>2012-06-08 11:51:27Z</time>
      </trkpt>
      <trkpt lat="44.20066" lon="4.60957">
        <ele>175</ele>
        <time>2012-06-08 11:51:31Z</time>
      </trkpt>
      <trkpt lat="44.20067" lon="4.60953">
        <ele>176</ele>
        <time>2012-06-08 11:51:35Z</time>
      </trkpt>
      <trkpt lat="44.20067" lon="4.60951">
        <ele>177</ele>
        <time>2012-06-08 11:51:39Z</time>
      </trkpt>
      <trkpt lat="44.20068" lon="4.60954">
        <ele>176</ele>
        <time>2012-06-08 11:51:43Z</time>
      </trkpt>
      <trkpt lat="44.20071" lon="4.60954">
        <ele>176</ele>
        <time>2012-06-08 11:51:47Z</time>
      </trkpt>
      <trkpt lat="44.20072" lon="4.60956">
        <ele>176</ele>
        <time>2012-06-08 11:51:51Z</time>
      </trkpt>
      <trkpt lat="44.20072" lon="4.60962">
        <ele>176</ele>
        <time>2012-06-08 11:51:55Z</time>
      </trkpt>
      <trkpt lat="44.20074" lon="4.60967">
        <ele>176</ele>
        <time>2012-06-08 11:51:59Z</time>
      </trkpt>
      <trkpt lat="44.20075" lon="4.60969">
        <ele>176</ele>
        <time>2012-06-08 11:52:03Z</time>
      </trkpt>
      <trkpt lat="44.20076" lon="4.60973">
        <ele>172</ele>
        <time>2012-06-08 11:52:07Z</time>
      </trkpt>
      <trkpt lat="44.20076" lon="4.60975">
        <ele>174</ele>
        <time>2012-06-08 11:52:11Z</time>
      </trkpt>
      <trkpt lat="44.20076" lon="4.60975">
        <ele>173</ele>
        <time>2012-06-08 11:52:15Z</time>
      </trkpt>
      <trkpt lat="44.20076" lon="4.60976">
        <ele>175</ele>
        <time>2012-06-08 11:52:19Z</time>
      </trkpt>
      <trkpt lat="44.20076" lon="4.60977">
        <ele>175</ele>
        <time>2012-06-08 11:52:23Z</time>
      </trkpt>
      <trkpt lat="44.20078" lon="4.60976">
        <ele>172</ele>
        <time>2012-06-08 11:52:27Z</time>
      </trkpt>
      <trkpt lat="44.20079" lon="4.60977">
        <ele>173</ele>
        <time>2012-06-08 11:52:31Z</time>
      </trkpt>
      <trkpt lat="44.20079" lon="4.6098">
        <ele>174</ele>
        <time>2012-06-08 11:52:35Z</time>
      </trkpt>
      <trkpt lat="44.20081" lon="4.60982">
        <ele>172</ele>
        <time>2012-06-08 11:52:39Z</time>
      </trkpt>
      <trkpt lat="44.20081" lon="4.60984">
        <ele>175</ele>
        <time>2012-06-08 11:52:43Z</time>
      </trkpt>
      <trkpt lat="44.20082" lon="4.60986">
        <ele>172</ele>
        <time>2012-06-08 11:52:47Z</time>
      </trkpt>
      <trkpt lat="44.20082" lon="4.60986">
        <ele>172</ele>
        <time>2012-06-08 11:52:51Z</time>
      </trkpt>
      <trkpt lat="44.20082" lon="4.60991">
        <ele>172</ele>
        <time>2012-06-08 11:52:55Z</time>
      </trkpt>
      <trkpt lat="44.20084" lon="4.60993">
        <ele>173</ele>
        <time>2012-06-08 11:52:59Z</time>
      </trkpt>
      <trkpt lat="44.20084" lon="4.60993">
        <ele>172</ele>
        <time>2012-06-08 11:53:03Z</time>
      </trkpt>
      <trkpt lat="44.20084" lon="4.60998">
        <ele>171</ele>
        <time>2012-06-08 11:53:07Z</time>
      </trkpt>
      <trkpt lat="44.20084" lon="4.61001">
        <ele>174</ele>
        <time>2012-06-08 11:53:11Z</time>
      </trkpt>
      <trkpt lat="44.20085" lon="4.61004">
        <ele>176</ele>
        <time>2012-06-08 11:53:15Z</time>
      </trkpt>
      <trkpt lat="44.20085" lon="4.61005">
        <ele>178</ele>
        <time>2012-06-08 11:53:19Z</time>
      </trkpt>
      <trkpt lat="44.20085" lon="4.61005">
        <ele>179</ele>
        <time>2012-06-08 11:53:23Z</time>
      </trkpt>
      <trkpt lat="44.20085" lon="4.61005">
        <ele>181</ele>
        <time>2012-06-08 11:53:27Z</time>
      </trkpt>
      <trkpt lat="44.20085" lon="4.61005">
        <ele>181</ele>
        <time>2012-06-08 11:53:31Z</time>
      </trkpt>
      <trkpt lat="44.20085" lon="4.61005">
        <ele>181</ele>
        <time>2012-06-08 11:53:35Z</time>
      </trkpt>
      <trkpt lat="44.20086" lon="4.61002">
        <ele>182</ele>
        <time>2012-06-08 11:53:39Z</time>
      </trkpt>
      <trkpt lat="44.20086" lon="4.61001">
        <ele>182</ele>
        <time>2012-06-08 11:53:43Z</time>
      </trkpt>
      <trkpt lat="44.20087" lon="4.61002">
        <ele>181</ele>
        <time>2012-06-08 11:53:47Z</time>
      </trkpt>
      <trkpt lat="44.20088" lon="4.60999">
        <ele>176</ele>
        <time>2012-06-08 11:53:51Z</time>
      </trkpt>
      <trkpt lat="44.20089" lon="4.60997">
        <ele>177</ele>
        <time>2012-06-08 11:53:55Z</time>
      </trkpt>
      <trkpt lat="44.20089" lon="4.61001">
        <ele>177</ele>
        <time>2012-06-08 11:53:59Z</time>
      </trkpt>
      <trkpt lat="44.20089" lon="4.61001">
        <ele>179</ele>
        <time>2012-06-08 11:54:03Z</time>
      </trkpt>
      <trkpt lat="44.20088" lon="4.61004">
        <ele>180</ele>
        <time>2012-06-08 11:54:07Z</time>
      </trkpt>
      <trkpt lat="44.20089" lon="4.61007">
        <ele>182</ele>
        <time>2012-06-08 11:54:11Z</time>
      </trkpt>
      <trkpt lat="44.20089" lon="4.61007">
        <ele>180</ele>
        <time>2012-06-08 11:54:15Z</time>
      </trkpt>
      <trkpt lat="44.20088" lon="4.61004">
        <ele>183</ele>
        <time>2012-06-08 11:54:19Z</time>
      </trkpt>
      <trkpt lat="44.20088" lon="4.61004">
        <ele>184</ele>
        <time>2012-06-08 11:54:23Z</time>
      </trkpt>
      <trkpt lat="44.20086" lon="4.61009">
        <ele>185</ele>
        <time>2012-06-08 11:54:27Z</time>
      </trkpt>
      <trkpt lat="44.20086" lon="4.61011">
        <ele>184</ele>
        <time>2012-06-08 11:54:31Z</time>
      </trkpt>
      <trkpt lat="44.20087" lon="4.61011">
        <ele>185</ele>
        <time>2012-06-08 11:54:35Z</time>
      </trkpt>
      <trkpt lat="44.20086" lon="4.61011">
        <ele>185</ele>
        <time>2012-06-08 11:54:39Z</time>
      </trkpt>
      <trkpt lat="44.20085" lon="4.61011">
        <ele>184</ele>
        <time>2012-06-08 11:54:43Z</time>
      </trkpt>
      <trkpt lat="44.20087" lon="4.61013">
        <ele>187</ele>
        <time>2012-06-08 11:54:47Z</time>
      </trkpt>
      <trkpt lat="44.20089" lon="4.61013">
        <ele>186</ele>
        <time>2012-06-08 11:54:51Z</time>
      </trkpt>
      <trkpt lat="44.20089" lon="4.61013">
        <ele>186</ele>
        <time>2012-06-08 11:54:55Z</time>
      </trkpt>
      <trkpt lat="44.20089" lon="4.61013">
        <ele>186</ele>
        <time>2012-06-08 11:54:59Z</time>
      </trkpt>
      <trkpt lat="44.20089" lon="4.61013">
        <ele>186</ele>
        <time>2012-06-08 11:55:03Z</time>
      </trkpt>
      <trkpt lat="44.20089" lon="4.61013">
        <ele>186</ele>
        <time>2012-06-08 11:55:07Z</time>
      </trkpt>
      <trkpt lat="44.20089" lon="4.61013">
        <ele>186</ele>
        <time>2012-06-08 11:55:11Z</time>
      </trkpt>
      <trkpt lat="44.20089" lon="4.61013">
        <ele>186</ele>
        <time>2012-06-08 11:55:15Z</time>
      </trkpt>
      <trkpt lat="44.20089" lon="4.61013">
        <ele>186</ele>
        <time>2012-06-08 11:55:19Z</time>
      </trkpt>
      <trkpt lat="44.20086" lon="4.61009">
        <ele>186</ele>
        <time>2012-06-08 11:55:23Z</time>
      </trkpt>
      <trkpt lat="44.20085" lon="4.6101">
        <ele>186</ele>
        <time>2012-06-08 11:55:27Z</time>
      </trkpt>
      <trkpt lat="44.20085" lon="4.61013">
        <ele>186</ele>
        <time>2012-06-08 11:55:31Z</time>
      </trkpt>
      <trkpt lat="44.20082" lon="4.61009">
        <ele>185</ele>
        <time>2012-06-08 11:55:35Z</time>
      </trkpt>
      <trkpt lat="44.20071" lon="4.61003">
        <ele>184</ele>
        <time>2012-06-08 11:55:39Z</time>
      </trkpt>
      <trkpt lat="44.20063" lon="4.61006">
        <ele>184</ele>
        <time>2012-06-08 11:55:43Z</time>
      </trkpt>
      <trkpt lat="44.20059" lon="4.61016">
        <ele>183</ele>
        <time>2012-06-08 11:55:47Z</time>
      </trkpt>
      <trkpt lat="44.20054" lon="4.6103">
        <ele>183</ele>
        <time>2012-06-08 11:55:51Z</time>
      </trkpt>
      <trkpt lat="44.20049" lon="4.61048">
        <ele>186</ele>
        <time>2012-06-08 11:55:55Z</time>
      </trkpt>
      <trkpt lat="44.20045" lon="4.61071">
        <ele>185</ele>
        <time>2012-06-08 11:55:59Z</time>
      </trkpt>
      <trkpt lat="44.20041" lon="4.61087">
        <ele>185</ele>
        <time>2012-06-08 11:56:03Z</time>
      </trkpt>
      <trkpt lat="44.20039" lon="4.61105">
        <ele>185</ele>
        <time>2012-06-08 11:56:07Z</time>
      </trkpt>
      <trkpt lat="44.20038" lon="4.6112">
        <ele>185</ele>
        <time>2012-06-08 11:56:11Z</time>
      </trkpt>
      <trkpt lat="44.20036" lon="4.61134">
        <ele>184</ele>
        <time>2012-06-08 11:56:15Z</time>
      </trkpt>
      <trkpt lat="44.20034" lon="4.61146">
        <ele>187</ele>
        <time>2012-06-08 11:56:19Z</time>
      </trkpt>
      <trkpt lat="44.20032" lon="4.61149">
        <ele>188</ele>
        <time>2012-06-08 11:56:23Z</time>
      </trkpt>
      <trkpt lat="44.20029" lon="4.6115">
        <ele>186</ele>
        <time>2012-06-08 11:56:27Z</time>
      </trkpt>
      <trkpt lat="44.20024" lon="4.61151">
        <ele>187</ele>
        <time>2012-06-08 11:56:31Z</time>
      </trkpt>
      <trkpt lat="44.20019" lon="4.61156">
        <ele>186</ele>
        <time>2012-06-08 11:56:35Z</time>
      </trkpt>
      <trkpt lat="44.20015" lon="4.61163">
        <ele>185</ele>
        <time>2012-06-08 11:56:39Z</time>
      </trkpt>
      <trkpt lat="44.20013" lon="4.61171">
        <ele>184</ele>
        <time>2012-06-08 11:56:43Z</time>
      </trkpt>
      <trkpt lat="44.20015" lon="4.61177">
        <ele>184</ele>
        <time>2012-06-08 11:56:47Z</time>
      </trkpt>
      <trkpt lat="44.20016" lon="4.61184">
        <ele>182</ele>
        <time>2012-06-08 11:56:51Z</time>
      </trkpt>
      <trkpt lat="44.20013" lon="4.61189">
        <ele>181</ele>
        <time>2012-06-08 11:56:55Z</time>
      </trkpt>
      <trkpt lat="44.20011" lon="4.61193">
        <ele>182</ele>
        <time>2012-06-08 11:56:59Z</time>
      </trkpt>
      <trkpt lat="44.20007" lon="4.61199">
        <ele>182</ele>
        <time>2012-06-08 11:57:03Z</time>
      </trkpt>
      <trkpt lat="44.20003" lon="4.61206">
        <ele>184</ele>
        <time>2012-06-08 11:57:07Z</time>
      </trkpt>
      <trkpt lat="44.2" lon="4.61211">
        <ele>183</ele>
        <time>2012-06-08 11:57:11Z</time>
      </trkpt>
      <trkpt lat="44.19996" lon="4.61215">
        <ele>183</ele>
        <time>2012-06-08 11:57:15Z</time>
      </trkpt>
      <trkpt lat="44.19991" lon="4.61219">
        <ele>183</ele>
        <time>2012-06-08 11:57:19Z</time>
      </trkpt>
      <trkpt lat="44.19986" lon="4.61223">
        <ele>183</ele>
        <time>2012-06-08 11:57:23Z</time>
      </trkpt>
      <trkpt lat="44.19983" lon="4.61228">
        <ele>183</ele>
        <time>2012-06-08 11:57:27Z</time>
      </trkpt>
      <trkpt lat="44.19978" lon="4.61237">
        <ele>184</ele>
        <time>2012-06-08 11:57:31Z</time>
      </trkpt>
      <trkpt lat="44.19973" lon="4.61241">
        <ele>184</ele>
        <time>2012-06-08 11:57:35Z</time>
      </trkpt>
      <trkpt lat="44.19966" lon="4.61241">
        <ele>184</ele>
        <time>2012-06-08 11:57:39Z</time>
      </trkpt>
      <trkpt lat="44.19961" lon="4.61244">
        <ele>184</ele>
        <time>2012-06-08 11:57:43Z</time>
      </trkpt>
      <trkpt lat="44.19956" lon="4.61242">
        <ele>187</ele>
        <time>2012-06-08 11:57:47Z</time>
      </trkpt>
      <trkpt lat="44.19949" lon="4.61239">
        <ele>188</ele>
        <time>2012-06-08 11:57:51Z</time>
      </trkpt>
      <trkpt lat="44.19943" lon="4.6124">
        <ele>187</ele>
        <time>2012-06-08 11:57:55Z</time>
      </trkpt>
      <trkpt lat="44.19936" lon="4.61239">
        <ele>187</ele>
        <time>2012-06-08 11:57:59Z</time>
      </trkpt>
      <trkpt lat="44.19929" lon="4.61239">
        <ele>186</ele>
        <time>2012-06-08 11:58:03Z</time>
      </trkpt>
      <trkpt lat="44.19922" lon="4.61237">
        <ele>185</ele>
        <time>2012-06-08 11:58:07Z</time>
      </trkpt>
      <trkpt lat="44.19917" lon="4.61234">
        <ele>186</ele>
        <time>2012-06-08 11:58:11Z</time>
      </trkpt>
      <trkpt lat="44.19912" lon="4.61232">
        <ele>187</ele>
        <time>2012-06-08 11:58:15Z</time>
      </trkpt>
      <trkpt lat="44.19908" lon="4.61231">
        <ele>188</ele>
        <time>2012-06-08 11:58:19Z</time>
      </trkpt>
      <trkpt lat="44.19903" lon="4.61229">
        <ele>190</ele>
        <time>2012-06-08 11:58:23Z</time>
      </trkpt>
      <trkpt lat="44.19899" lon="4.61226">
        <ele>191</ele>
        <time>2012-06-08 11:58:27Z</time>
      </trkpt>
      <trkpt lat="44.19895" lon="4.61222">
        <ele>190</ele>
        <time>2012-06-08 11:58:31Z</time>
      </trkpt>
      <trkpt lat="44.19891" lon="4.6122">
        <ele>190</ele>
        <time>2012-06-08 11:58:35Z</time>
      </trkpt>
      <trkpt lat="44.19886" lon="4.6122">
        <ele>190</ele>
        <time>2012-06-08 11:58:39Z</time>
      </trkpt>
      <trkpt lat="44.19885" lon="4.6122">
        <ele>190</ele>
        <time>2012-06-08 11:58:43Z</time>
      </trkpt>
      <trkpt lat="44.19885" lon="4.6122">
        <ele>191</ele>
        <time>2012-06-08 11:58:47Z</time>
      </trkpt>
      <trkpt lat="44.19883" lon="4.61221">
        <ele>191</ele>
        <time>2012-06-08 11:58:51Z</time>
      </trkpt>
      <trkpt lat="44.1988" lon="4.6122">
        <ele>190</ele>
        <time>2012-06-08 11:58:55Z</time>
      </trkpt>
      <trkpt lat="44.19878" lon="4.6122">
        <ele>190</ele>
        <time>2012-06-08 11:58:59Z</time>
      </trkpt>
      <trkpt lat="44.19877" lon="4.6122">
        <ele>191</ele>
        <time>2012-06-08 11:59:03Z</time>
      </trkpt>
      <trkpt lat="44.19876" lon="4.6122">
        <ele>191</ele>
        <time>2012-06-08 11:59:07Z</time>
      </trkpt>
      <trkpt lat="44.19875" lon="4.6122">
        <ele>191</ele>
        <time>2012-06-08 11:59:11Z</time>
      </trkpt>
      <trkpt lat="44.19873" lon="4.6122">
        <ele>191</ele>
        <time>2012-06-08 11:59:15Z</time>
      </trkpt>
      <trkpt lat="44.19872" lon="4.61221">
        <ele>190</ele>
        <time>2012-06-08 11:59:19Z</time>
      </trkpt>
      <trkpt lat="44.19869" lon="4.61224">
        <ele>189</ele>
        <time>2012-06-08 11:59:23Z</time>
      </trkpt>
      <trkpt lat="44.19867" lon="4.61224">
        <ele>188</ele>
        <time>2012-06-08 11:59:27Z</time>
      </trkpt>
      <trkpt lat="44.19865" lon="4.61225">
        <ele>186</ele>
        <time>2012-06-08 11:59:31Z</time>
      </trkpt>
      <trkpt lat="44.19861" lon="4.61225">
        <ele>186</ele>
        <time>2012-06-08 11:59:35Z</time>
      </trkpt>
      <trkpt lat="44.19859" lon="4.61227">
        <ele>185</ele>
        <time>2012-06-08 11:59:39Z</time>
      </trkpt>
      <trkpt lat="44.19857" lon="4.61229">
        <ele>186</ele>
        <time>2012-06-08 11:59:43Z</time>
      </trkpt>
      <trkpt lat="44.19856" lon="4.61229">
        <ele>188</ele>
        <time>2012-06-08 11:59:47Z</time>
      </trkpt>
      <trkpt lat="44.19854" lon="4.61228">
        <ele>189</ele>
        <time>2012-06-08 11:59:51Z</time>
      </trkpt>
      <trkpt lat="44.19854" lon="4.61229">
        <ele>189</ele>
        <time>2012-06-08 11:59:55Z</time>
      </trkpt>
      <trkpt lat="44.19854" lon="4.61229">
        <ele>192</ele>
        <time>2012-06-08 11:59:59Z</time>
      </trkpt>
      <trkpt lat="44.19854" lon="4.6123">
        <ele>194</ele>
        <time>2012-06-08 12:00:03Z</time>
      </trkpt>
      <trkpt lat="44.19851" lon="4.61233">
        <ele>191</ele>
        <time>2012-06-08 12:00:07Z</time>
      </trkpt>
      <trkpt lat="44.19849" lon="4.61237">
        <ele>189</ele>
        <time>2012-06-08 12:00:11Z</time>
      </trkpt>
      <trkpt lat="44.19847" lon="4.61239">
        <ele>190</ele>
        <time>2012-06-08 12:00:15Z</time>
      </trkpt>
      <trkpt lat="44.19846" lon="4.61239">
        <ele>191</ele>
        <time>2012-06-08 12:00:19Z</time>
      </trkpt>
      <trkpt lat="44.19843" lon="4.61239">
        <ele>191</ele>
        <time>2012-06-08 12:00:23Z</time>
      </trkpt>
      <trkpt lat="44.19841" lon="4.61239">
        <ele>191</ele>
        <time>2012-06-08 12:00:27Z</time>
      </trkpt>
      <trkpt lat="44.19839" lon="4.61242">
        <ele>189</ele>
        <time>2012-06-08 12:00:31Z</time>
      </trkpt>
      <trkpt lat="44.19836" lon="4.61245">
        <ele>190</ele>
        <time>2012-06-08 12:00:35Z</time>
      </trkpt>
      <trkpt lat="44.19835" lon="4.61246">
        <ele>189</ele>
        <time>2012-06-08 12:00:39Z</time>
      </trkpt>
      <trkpt lat="44.19833" lon="4.61246">
        <ele>189</ele>
        <time>2012-06-08 12:00:43Z</time>
      </trkpt>
      <trkpt lat="44.19831" lon="4.61246">
        <ele>188</ele>
        <time>2012-06-08 12:00:47Z</time>
      </trkpt>
      <trkpt lat="44.19831" lon="4.61247">
        <ele>188</ele>
        <time>2012-06-08 12:00:51Z</time>
      </trkpt>
      <trkpt lat="44.19832" lon="4.61248">
        <ele>185</ele>
        <time>2012-06-08 12:00:55Z</time>
      </trkpt>
      <trkpt lat="44.19832" lon="4.61248">
        <ele>185</ele>
        <time>2012-06-08 12:00:59Z</time>
      </trkpt>
      <trkpt lat="44.19832" lon="4.61248">
        <ele>185</ele>
        <time>2012-06-08 12:01:03Z</time>
      </trkpt>
      <trkpt lat="44.19832" lon="4.61248">
        <ele>185</ele>
        <time>2012-06-08 12:01:07Z</time>
      </trkpt>
      <trkpt lat="44.19828" lon="4.61247">
        <ele>187</ele>
        <time>2012-06-08 12:01:11Z</time>
      </trkpt>
      <trkpt lat="44.19827" lon="4.61251">
        <ele>187</ele>
        <time>2012-06-08 12:01:15Z</time>
      </trkpt>
      <trkpt lat="44.19823" lon="4.61256">
        <ele>187</ele>
        <time>2012-06-08 12:01:19Z</time>
      </trkpt>
      <trkpt lat="44.19821" lon="4.61261">
        <ele>188</ele>
        <time>2012-06-08 12:01:23Z</time>
      </trkpt>
      <trkpt lat="44.19822" lon="4.61268">
        <ele>189</ele>
        <time>2012-06-08 12:01:27Z</time>
      </trkpt>
      <trkpt lat="44.19823" lon="4.61278">
        <ele>191</ele>
        <time>2012-06-08 12:01:31Z</time>
      </trkpt>
      <trkpt lat="44.1982" lon="4.61287">
        <ele>189</ele>
        <time>2012-06-08 12:01:35Z</time>
      </trkpt>
      <trkpt lat="44.19819" lon="4.61295">
        <ele>190</ele>
        <time>2012-06-08 12:01:39Z</time>
      </trkpt>
      <trkpt lat="44.19817" lon="4.61302">
        <ele>189</ele>
        <time>2012-06-08 12:01:43Z</time>
      </trkpt>
      <trkpt lat="44.19814" lon="4.61312">
        <ele>188</ele>
        <time>2012-06-08 12:01:47Z</time>
      </trkpt>
      <trkpt lat="44.19811" lon="4.61322">
        <ele>188</ele>
        <time>2012-06-08 12:01:51Z</time>
      </trkpt>
      <trkpt lat="44.19808" lon="4.61331">
        <ele>189</ele>
        <time>2012-06-08 12:01:55Z</time>
      </trkpt>
      <trkpt lat="44.19806" lon="4.61342">
        <ele>189</ele>
        <time>2012-06-08 12:01:59Z</time>
      </trkpt>
      <trkpt lat="44.19802" lon="4.61354">
        <ele>188</ele>
        <time>2012-06-08 12:02:03Z</time>
      </trkpt>
      <trkpt lat="44.19799" lon="4.61365">
        <ele>188</ele>
        <time>2012-06-08 12:02:07Z</time>
      </trkpt>
      <trkpt lat="44.19797" lon="4.61377">
        <ele>190</ele>
        <time>2012-06-08 12:02:11Z</time>
      </trkpt>
      <trkpt lat="44.19795" lon="4.61394">
        <ele>189</ele>
        <time>2012-06-08 12:02:15Z</time>
      </trkpt>
      <trkpt lat="44.19793" lon="4.61409">
        <ele>189</ele>
        <time>2012-06-08 12:02:19Z</time>
      </trkpt>
      <trkpt lat="44.19791" lon="4.6142">
        <ele>189</ele>
        <time>2012-06-08 12:02:23Z</time>
      </trkpt>
      <trkpt lat="44.19788" lon="4.61428">
        <ele>188</ele>
        <time>2012-06-08 12:02:27Z</time>
      </trkpt>
      <trkpt lat="44.19787" lon="4.61436">
        <ele>186</ele>
        <time>2012-06-08 12:02:31Z</time>
      </trkpt>
      <trkpt lat="44.19787" lon="4.61446">
        <ele>186</ele>
        <time>2012-06-08 12:02:35Z</time>
      </trkpt>
      <trkpt lat="44.1979" lon="4.61456">
        <ele>188</ele>
        <time>2012-06-08 12:02:39Z</time>
      </trkpt>
      <trkpt lat="44.19792" lon="4.61467">
        <ele>189</ele>
        <time>2012-06-08 12:02:43Z</time>
      </trkpt>
      <trkpt lat="44.19796" lon="4.61479">
        <ele>189</ele>
        <time>2012-06-08 12:02:47Z</time>
      </trkpt>
      <trkpt lat="44.19801" lon="4.61491">
        <ele>189</ele>
        <time>2012-06-08 12:02:51Z</time>
      </trkpt>
      <trkpt lat="44.19805" lon="4.61505">
        <ele>189</ele>
        <time>2012-06-08 12:02:55Z</time>
      </trkpt>
      <trkpt lat="44.19812" lon="4.61521">
        <ele>188</ele>
        <time>2012-06-08 12:02:59Z</time>
      </trkpt>
      <trkpt lat="44.1982" lon="4.61539">
        <ele>188</ele>
        <time>2012-06-08 12:03:03Z</time>
      </trkpt>
      <trkpt lat="44.19828" lon="4.61552">
        <ele>186</ele>
        <time>2012-06-08 12:03:07Z</time>
      </trkpt>
      <trkpt lat="44.19835" lon="4.61562">
        <ele>187</ele>
        <time>2012-06-08 12:03:11Z</time>
      </trkpt>
      <trkpt lat="44.19839" lon="4.61576">
        <ele>190</ele>
        <time>2012-06-08 12:03:15Z</time>
      </trkpt>
      <trkpt lat="44.1984" lon="4.61596">
        <ele>189</ele>
        <time>2012-06-08 12:03:19Z</time>
      </trkpt>
      <trkpt lat="44.19838" lon="4.61604">
        <ele>191</ele>
        <time>2012-06-08 12:03:23Z</time>
      </trkpt>
      <trkpt lat="44.19843" lon="4.61611">
        <ele>190</ele>
        <time>2012-06-08 12:03:27Z</time>
      </trkpt>
      <trkpt lat="44.19855" lon="4.61622">
        <ele>186</ele>
        <time>2012-06-08 12:03:31Z</time>
      </trkpt>
      <trkpt lat="44.1987" lon="4.61633">
        <ele>181</ele>
        <time>2012-06-08 12:03:35Z</time>
      </trkpt>
      <trkpt lat="44.19885" lon="4.61631">
        <ele>180</ele>
        <time>2012-06-08 12:03:39Z</time>
      </trkpt>
      <trkpt lat="44.19889" lon="4.61639">
        <ele>183</ele>
        <time>2012-06-08 12:03:43Z</time>
      </trkpt>
      <trkpt lat="44.19879" lon="4.61658">
        <ele>181</ele>
        <time>2012-06-08 12:03:47Z</time>
      </trkpt>
      <trkpt lat="44.19867" lon="4.61686">
        <ele>176</ele>
        <time>2012-06-08 12:03:51Z</time>
      </trkpt>
      <trkpt lat="44.19858" lon="4.61703">
        <ele>174</ele>
        <time>2012-06-08 12:03:55Z</time>
      </trkpt>
      <trkpt lat="44.1985" lon="4.61709">
        <ele>172</ele>
        <time>2012-06-08 12:03:59Z</time>
      </trkpt>
      <trkpt lat="44.19842" lon="4.61701">
        <ele>173</ele>
        <time>2012-06-08 12:04:03Z</time>
      </trkpt>
      <trkpt lat="44.19832" lon="4.61651">
        <ele>171</ele>
        <time>2012-06-08 12:04:07Z</time>
      </trkpt>
      <trkpt lat="44.19814" lon="4.61634">
        <ele>169</ele>
        <time>2012-06-08 12:04:11Z</time>
      </trkpt>
      <trkpt lat="44.19796" lon="4.6164">
        <ele>169</ele>
        <time>2012-06-08 12:04:15Z</time>
      </trkpt>
      <trkpt lat="44.19775" lon="4.61661">
        <ele>167</ele>
        <time>2012-06-08 12:04:19Z</time>
      </trkpt>
      <trkpt lat="44.19754" lon="4.61679">
        <ele>164</ele>
        <time>2012-06-08 12:04:23Z</time>
      </trkpt>
      <trkpt lat="44.19735" lon="4.61691">
        <ele>163</ele>
        <time>2012-06-08 12:04:27Z</time>
      </trkpt>
      <trkpt lat="44.19711" lon="4.61699">
        <ele>161</ele>
        <time>2012-06-08 12:04:31Z</time>
      </trkpt>
      <trkpt lat="44.19691" lon="4.61708">
        <ele>161</ele>
        <time>2012-06-08 12:04:35Z</time>
      </trkpt>
      <trkpt lat="44.19683" lon="4.61724">
        <ele>159</ele>
        <time>2012-06-08 12:04:39Z</time>
      </trkpt>
      <trkpt lat="44.19669" lon="4.61747">
        <ele>158</ele>
        <time>2012-06-08 12:04:43Z</time>
      </trkpt>
      <trkpt lat="44.1965" lon="4.61767">
        <ele>158</ele>
        <time>2012-06-08 12:04:47Z</time>
      </trkpt>
      <trkpt lat="44.1963" lon="4.61789">
        <ele>155</ele>
        <time>2012-06-08 12:04:51Z</time>
      </trkpt>
      <trkpt lat="44.19614" lon="4.61806">
        <ele>154</ele>
        <time>2012-06-08 12:04:55Z</time>
      </trkpt>
      <trkpt lat="44.19598" lon="4.61835">
        <ele>151</ele>
        <time>2012-06-08 12:04:59Z</time>
      </trkpt>
      <trkpt lat="44.19589" lon="4.61857">
        <ele>147</ele>
        <time>2012-06-08 12:05:03Z</time>
      </trkpt>
      <trkpt lat="44.1958" lon="4.6187">
        <ele>142</ele>
        <time>2012-06-08 12:05:07Z</time>
      </trkpt>
      <trkpt lat="44.1957" lon="4.61875">
        <ele>139</ele>
        <time>2012-06-08 12:05:11Z</time>
      </trkpt>
      <trkpt lat="44.19556" lon="4.61874">
        <ele>136</ele>
        <time>2012-06-08 12:05:15Z</time>
      </trkpt>
      <trkpt lat="44.19541" lon="4.61874">
        <ele>132</ele>
        <time>2012-06-08 12:05:19Z</time>
      </trkpt>
      <trkpt lat="44.19528" lon="4.61876">
        <ele>128</ele>
        <time>2012-06-08 12:05:23Z</time>
      </trkpt>
      <trkpt lat="44.19511" lon="4.61907">
        <ele>124</ele>
        <time>2012-06-08 12:05:27Z</time>
      </trkpt>
      <trkpt lat="44.19522" lon="4.61945">
        <ele>121</ele>
        <time>2012-06-08 12:05:31Z</time>
      </trkpt>
      <trkpt lat="44.1954" lon="4.61983">
        <ele>116</ele>
        <time>2012-06-08 12:05:35Z</time>
      </trkpt>
      <trkpt lat="44.1956" lon="4.6203">
        <ele>117</ele>
        <time>2012-06-08 12:05:39Z</time>
      </trkpt>
      <trkpt lat="44.19574" lon="4.62072">
        <ele>116</ele>
        <time>2012-06-08 12:05:43Z</time>
      </trkpt>
      <trkpt lat="44.19584" lon="4.62118">
        <ele>112</ele>
        <time>2012-06-08 12:05:47Z</time>
      </trkpt>
      <trkpt lat="44.19596" lon="4.62169">
        <ele>111</ele>
        <time>2012-06-08 12:05:51Z</time>
      </trkpt>
      <trkpt lat="44.19598" lon="4.62202">
        <ele>107</ele>
        <time>2012-06-08 12:05:55Z</time>
      </trkpt>
      <trkpt lat="44.19607" lon="4.6222">
        <ele>106</ele>
        <time>2012-06-08 12:05:59Z</time>
      </trkpt>
      <trkpt lat="44.19621" lon="4.62214">
        <ele>106</ele>
        <time>2012-06-08 12:06:03Z</time>
      </trkpt>
      <trkpt lat="44.1963" lon="4.62213">
        <ele>105</ele>
        <time>2012-06-08 12:06:07Z</time>
      </trkpt>
      <trkpt lat="44.19638" lon="4.62215">
        <ele>102</ele>
        <time>2012-06-08 12:06:11Z</time>
      </trkpt>
      <trkpt lat="44.19642" lon="4.62216">
        <ele>101</ele>
        <time>2012-06-08 12:06:15Z</time>
      </trkpt>
      <trkpt lat="44.19642" lon="4.62213">
        <ele>99</ele>
        <time>2012-06-08 12:06:19Z</time>
      </trkpt>
      <trkpt lat="44.19645" lon="4.62211">
        <ele>97</ele>
        <time>2012-06-08 12:06:23Z</time>
      </trkpt>
      <trkpt lat="44.19645" lon="4.62211">
        <ele>97</ele>
        <time>2012-06-08 12:06:27Z</time>
      </trkpt>
      <trkpt lat="44.19645" lon="4.62211">
        <ele>97</ele>
        <time>2012-06-08 12:06:31Z</time>
      </trkpt>
      <trkpt lat="44.19642" lon="4.62206">
        <ele>98</ele>
        <time>2012-06-08 12:06:35Z</time>
      </trkpt>
      <trkpt lat="44.19642" lon="4.62206">
        <ele>96</ele>
        <time>2012-06-08 12:06:39Z</time>
      </trkpt>
      <trkpt lat="44.19642" lon="4.62206">
        <ele>93</ele>
        <time>2012-06-08 12:06:43Z</time>
      </trkpt>
      <trkpt lat="44.19644" lon="4.62206">
        <ele>92</ele>
        <time>2012-06-08 12:06:47Z</time>
      </trkpt>
      <trkpt lat="44.19646" lon="4.62208">
        <ele>90</ele>
        <time>2012-06-08 12:06:51Z</time>
      </trkpt>
      <trkpt lat="44.19647" lon="4.62208">
        <ele>91</ele>
        <time>2012-06-08 12:06:55Z</time>
      </trkpt>
      <trkpt lat="44.19647" lon="4.62208">
        <ele>91</ele>
        <time>2012-06-08 12:06:59Z</time>
      </trkpt>
      <trkpt lat="44.19647" lon="4.62208">
        <ele>92</ele>
        <time>2012-06-08 12:07:03Z</time>
      </trkpt>
      <trkpt lat="44.19647" lon="4.62208">
        <ele>92</ele>
        <time>2012-06-08 12:07:07Z</time>
      </trkpt>
      <trkpt lat="44.19647" lon="4.62208">
        <ele>92</ele>
        <time>2012-06-08 12:07:11Z</time>
      </trkpt>
      <trkpt lat="44.19646" lon="4.6221">
        <ele>93</ele>
        <time>2012-06-08 12:07:15Z</time>
      </trkpt>
      <trkpt lat="44.19646" lon="4.6221">
        <ele>94</ele>
        <time>2012-06-08 12:07:19Z</time>
      </trkpt>
      <trkpt lat="44.19646" lon="4.6221">
        <ele>95</ele>
        <time>2012-06-08 12:07:23Z</time>
      </trkpt>
      <trkpt lat="44.19646" lon="4.6221">
        <ele>95</ele>
        <time>2012-06-08 12:07:27Z</time>
      </trkpt>
      <trkpt lat="44.19648" lon="4.62212">
        <ele>94</ele>
        <time>2012-06-08 12:07:31Z</time>
      </trkpt>
      <trkpt lat="44.19648" lon="4.62212">
        <ele>92</ele>
        <time>2012-06-08 12:07:35Z</time>
      </trkpt>
      <trkpt lat="44.19648" lon="4.62212">
        <ele>92</ele>
        <time>2012-06-08 12:07:39Z</time>
      </trkpt>
      <trkpt lat="44.19648" lon="4.62212">
        <ele>92</ele>
        <time>2012-06-08 12:07:43Z</time>
      </trkpt>
      <trkpt lat="44.19648" lon="4.62212">
        <ele>92</ele>
        <time>2012-06-08 12:07:49Z</time>
      </trkpt>
      <trkpt lat="44.19648" lon="4.62212">
        <ele>92</ele>
        <time>2012-06-08 12:07:53Z</time>
      </trkpt>
      <trkpt lat="44.19648" lon="4.62212">
        <ele>92</ele>
        <time>2012-06-08 12:07:57Z</time>
      </trkpt>
      <trkpt lat="44.19648" lon="4.62212">
        <ele>92</ele>
        <time>2012-06-08 12:08:01Z</time>
      </trkpt>
      <trkpt lat="44.19648" lon="4.62212">
        <ele>92</ele>
        <time>2012-06-08 12:08:05Z</time>
      </trkpt>
      <trkpt lat="44.19648" lon="4.62212">
        <ele>92</ele>
        <time>2012-06-08 12:08:09Z</time>
      </trkpt>
      <trkpt lat="44.19648" lon="4.62212">
        <ele>92</ele>
        <time>2012-06-08 12:08:13Z</time>
      </trkpt>
      <trkpt lat="44.19648" lon="4.62212">
        <ele>92</ele>
        <time>2012-06-08 12:08:17Z</time>
      </trkpt>
      <trkpt lat="44.19648" lon="4.62212">
        <ele>92</ele>
        <time>2012-06-08 12:08:21Z</time>
      </trkpt>
      <trkpt lat="44.19649" lon="4.62212">
        <ele>93</ele>
        <time>2012-06-08 12:08:25Z</time>
      </trkpt>
      <trkpt lat="44.19649" lon="4.62212">
        <ele>93</ele>
        <time>2012-06-08 12:08:29Z</time>
      </trkpt>
      <trkpt lat="44.19649" lon="4.62212">
        <ele>94</ele>
        <time>2012-06-08 12:08:33Z</time>
      </trkpt>
    </trkseg>
  </trk>
</gpx>